<?xml version="1.0" encoding="UTF-8" standalone="no" ?>
<gpx xmlns="http://www.topografix.com/GPX/1/1" xmlns:xsi="http://www.w3.org/2001/XMLSchema-instance" xsi:schemaLocation="http://www.topografix.com/GPX/1/1 http://www.topografix.com/GPX/1/1/gpx.xsd" version="1.1" creator="VisuGPX - https://www.visugpx.com">
  <metadata>
    <name>Aiguilles de Baulmes</name>
    <desc><![CDATA[Jolie boucle au départ de la gare de Ste-Croix.
Visite de la grotte de Cave Noire dont l'entrée est versant falaise.]]></desc>
  </metadata>
  <trk>
    <name><![CDATA[Aiguilles de Baulmes]]></name>
    <extensions>
      <line xmlns="http://www.topografix.com/GPX/gpx_style/0/2">
        <color>9437ff</color>
        <width>4</width>
      </line>
    </extensions>
    <trkseg>
      <trkpt lat="46.81949" lon="6.50062">
        <ele>1066.546</ele>
        <time>2023-10-12T08:23:47Z</time>
      </trkpt>
      <trkpt lat="46.81952" lon="6.50069">
        <ele>1074.197</ele>
        <time>2023-10-12T08:23:52Z</time>
      </trkpt>
      <trkpt lat="46.81949" lon="6.50073">
        <ele>1072.271</ele>
        <time>2023-10-12T08:23:57Z</time>
      </trkpt>
      <trkpt lat="46.81949" lon="6.50073">
        <ele>1069.789</ele>
        <time>2023-10-12T08:24:02Z</time>
      </trkpt>
      <trkpt lat="46.81949" lon="6.50073">
        <ele>1072.694</ele>
        <time>2023-10-12T08:24:07Z</time>
      </trkpt>
      <trkpt lat="46.81949" lon="6.50073">
        <ele>1072.808</ele>
        <time>2023-10-12T08:24:12Z</time>
      </trkpt>
      <trkpt lat="46.81949" lon="6.50073">
        <ele>1072.934</ele>
        <time>2023-10-12T08:24:17Z</time>
      </trkpt>
      <trkpt lat="46.81949" lon="6.50073">
        <ele>1073.03</ele>
        <time>2023-10-12T08:24:22Z</time>
      </trkpt>
      <trkpt lat="46.81949" lon="6.50073">
        <ele>1073.073</ele>
        <time>2023-10-12T08:24:27Z</time>
      </trkpt>
      <trkpt lat="46.81949" lon="6.50073">
        <ele>1073.085</ele>
        <time>2023-10-12T08:24:32Z</time>
      </trkpt>
      <trkpt lat="46.81949" lon="6.50073">
        <ele>1073.011</ele>
        <time>2023-10-12T08:24:37Z</time>
      </trkpt>
      <trkpt lat="46.81949" lon="6.50073">
        <ele>1073.295</ele>
        <time>2023-10-12T08:24:42Z</time>
      </trkpt>
      <trkpt lat="46.81948" lon="6.50074">
        <ele>1073.265</ele>
        <time>2023-10-12T08:24:47Z</time>
      </trkpt>
      <trkpt lat="46.81948" lon="6.50074">
        <ele>1072.868</ele>
        <time>2023-10-12T08:24:52Z</time>
      </trkpt>
      <trkpt lat="46.81948" lon="6.50074">
        <ele>1072.649</ele>
        <time>2023-10-12T08:24:57Z</time>
      </trkpt>
      <trkpt lat="46.81948" lon="6.50074">
        <ele>1072.402</ele>
        <time>2023-10-12T08:25:02Z</time>
      </trkpt>
      <trkpt lat="46.81945" lon="6.50088">
        <ele>1069.653</ele>
        <time>2023-10-12T08:25:07Z</time>
      </trkpt>
      <trkpt lat="46.81942" lon="6.50095">
        <ele>1071.365</ele>
        <time>2023-10-12T08:25:12Z</time>
      </trkpt>
      <trkpt lat="46.81941" lon="6.50104">
        <ele>1074.771</ele>
        <time>2023-10-12T08:25:17Z</time>
      </trkpt>
      <trkpt lat="46.81939" lon="6.50114">
        <ele>1075.694</ele>
        <time>2023-10-12T08:25:22Z</time>
      </trkpt>
      <trkpt lat="46.81936" lon="6.50122">
        <ele>1078.381</ele>
        <time>2023-10-12T08:25:27Z</time>
      </trkpt>
      <trkpt lat="46.81933" lon="6.50131">
        <ele>1079.099</ele>
        <time>2023-10-12T08:25:32Z</time>
      </trkpt>
      <trkpt lat="46.8193" lon="6.50138">
        <ele>1081.13</ele>
        <time>2023-10-12T08:25:37Z</time>
      </trkpt>
      <trkpt lat="46.81927" lon="6.50146">
        <ele>1082.741</ele>
        <time>2023-10-12T08:25:42Z</time>
      </trkpt>
      <trkpt lat="46.81925" lon="6.50153">
        <ele>1082.875</ele>
        <time>2023-10-12T08:25:47Z</time>
      </trkpt>
      <trkpt lat="46.81922" lon="6.50155">
        <ele>1082.231</ele>
        <time>2023-10-12T08:25:52Z</time>
      </trkpt>
      <trkpt lat="46.81917" lon="6.50153">
        <ele>1082.248</ele>
        <time>2023-10-12T08:25:57Z</time>
      </trkpt>
      <trkpt lat="46.81911" lon="6.50153">
        <ele>1083.679</ele>
        <time>2023-10-12T08:26:02Z</time>
      </trkpt>
      <trkpt lat="46.81906" lon="6.50158">
        <ele>1084.096</ele>
        <time>2023-10-12T08:26:07Z</time>
      </trkpt>
      <trkpt lat="46.819" lon="6.50161">
        <ele>1084.178</ele>
        <time>2023-10-12T08:26:12Z</time>
      </trkpt>
      <trkpt lat="46.81895" lon="6.50159">
        <ele>1083.37</ele>
        <time>2023-10-12T08:26:17Z</time>
      </trkpt>
      <trkpt lat="46.81889" lon="6.50156">
        <ele>1082.703</ele>
        <time>2023-10-12T08:26:22Z</time>
      </trkpt>
      <trkpt lat="46.81884" lon="6.50154">
        <ele>1082.567</ele>
        <time>2023-10-12T08:26:27Z</time>
      </trkpt>
      <trkpt lat="46.81878" lon="6.50153">
        <ele>1083.673</ele>
        <time>2023-10-12T08:26:32Z</time>
      </trkpt>
      <trkpt lat="46.81872" lon="6.50152">
        <ele>1086.504</ele>
        <time>2023-10-12T08:26:37Z</time>
      </trkpt>
      <trkpt lat="46.81866" lon="6.5015">
        <ele>1088.671</ele>
        <time>2023-10-12T08:26:42Z</time>
      </trkpt>
      <trkpt lat="46.8186" lon="6.50147">
        <ele>1087.797</ele>
        <time>2023-10-12T08:26:47Z</time>
      </trkpt>
      <trkpt lat="46.81854" lon="6.50143">
        <ele>1087.199</ele>
        <time>2023-10-12T08:26:52Z</time>
      </trkpt>
      <trkpt lat="46.81849" lon="6.50141">
        <ele>1087.322</ele>
        <time>2023-10-12T08:26:57Z</time>
      </trkpt>
      <trkpt lat="46.81844" lon="6.50139">
        <ele>1087.909</ele>
        <time>2023-10-12T08:27:02Z</time>
      </trkpt>
      <trkpt lat="46.8184" lon="6.50136">
        <ele>1086.412</ele>
        <time>2023-10-12T08:27:07Z</time>
      </trkpt>
      <trkpt lat="46.81835" lon="6.50133">
        <ele>1083.993</ele>
        <time>2023-10-12T08:27:12Z</time>
      </trkpt>
      <trkpt lat="46.8183" lon="6.50132">
        <ele>1081.989</ele>
        <time>2023-10-12T08:27:17Z</time>
      </trkpt>
      <trkpt lat="46.81824" lon="6.5013">
        <ele>1083.379</ele>
        <time>2023-10-12T08:27:22Z</time>
      </trkpt>
      <trkpt lat="46.81819" lon="6.50127">
        <ele>1085.124</ele>
        <time>2023-10-12T08:27:27Z</time>
      </trkpt>
      <trkpt lat="46.81813" lon="6.50125">
        <ele>1084.967</ele>
        <time>2023-10-12T08:27:32Z</time>
      </trkpt>
      <trkpt lat="46.81808" lon="6.50124">
        <ele>1083.046</ele>
        <time>2023-10-12T08:27:37Z</time>
      </trkpt>
      <trkpt lat="46.81804" lon="6.50124">
        <ele>1081.139</ele>
        <time>2023-10-12T08:27:42Z</time>
      </trkpt>
      <trkpt lat="46.81799" lon="6.50122">
        <ele>1081.409</ele>
        <time>2023-10-12T08:27:47Z</time>
      </trkpt>
      <trkpt lat="46.81794" lon="6.50119">
        <ele>1080.102</ele>
        <time>2023-10-12T08:27:52Z</time>
      </trkpt>
      <trkpt lat="46.81789" lon="6.50116">
        <ele>1078.022</ele>
        <time>2023-10-12T08:27:57Z</time>
      </trkpt>
      <trkpt lat="46.81784" lon="6.50114">
        <ele>1076.787</ele>
        <time>2023-10-12T08:28:02Z</time>
      </trkpt>
      <trkpt lat="46.81779" lon="6.50109">
        <ele>1076.863</ele>
        <time>2023-10-12T08:28:07Z</time>
      </trkpt>
      <trkpt lat="46.81774" lon="6.50104">
        <ele>1075.835</ele>
        <time>2023-10-12T08:28:12Z</time>
      </trkpt>
      <trkpt lat="46.81771" lon="6.50101">
        <ele>1075.507</ele>
        <time>2023-10-12T08:28:17Z</time>
      </trkpt>
      <trkpt lat="46.81771" lon="6.501">
        <ele>1075.193</ele>
        <time>2023-10-12T08:28:22Z</time>
      </trkpt>
      <trkpt lat="46.81766" lon="6.50097">
        <ele>1074.733</ele>
        <time>2023-10-12T08:28:27Z</time>
      </trkpt>
      <trkpt lat="46.81761" lon="6.50093">
        <ele>1073.672</ele>
        <time>2023-10-12T08:28:32Z</time>
      </trkpt>
      <trkpt lat="46.81756" lon="6.50089">
        <ele>1072.6</ele>
        <time>2023-10-12T08:28:37Z</time>
      </trkpt>
      <trkpt lat="46.8175" lon="6.50088">
        <ele>1072.159</ele>
        <time>2023-10-12T08:28:42Z</time>
      </trkpt>
      <trkpt lat="46.81745" lon="6.50085">
        <ele>1069.969</ele>
        <time>2023-10-12T08:28:47Z</time>
      </trkpt>
      <trkpt lat="46.81741" lon="6.50082">
        <ele>1067.743</ele>
        <time>2023-10-12T08:28:52Z</time>
      </trkpt>
      <trkpt lat="46.81736" lon="6.50079">
        <ele>1066.561</ele>
        <time>2023-10-12T08:28:57Z</time>
      </trkpt>
      <trkpt lat="46.81731" lon="6.50076">
        <ele>1065.746</ele>
        <time>2023-10-12T08:29:02Z</time>
      </trkpt>
      <trkpt lat="46.81726" lon="6.50073">
        <ele>1066.425</ele>
        <time>2023-10-12T08:29:07Z</time>
      </trkpt>
      <trkpt lat="46.81721" lon="6.5007">
        <ele>1065.067</ele>
        <time>2023-10-12T08:29:12Z</time>
      </trkpt>
      <trkpt lat="46.81716" lon="6.50067">
        <ele>1064.347</ele>
        <time>2023-10-12T08:29:17Z</time>
      </trkpt>
      <trkpt lat="46.81711" lon="6.50064">
        <ele>1063.448</ele>
        <time>2023-10-12T08:29:22Z</time>
      </trkpt>
      <trkpt lat="46.81706" lon="6.50062">
        <ele>1063.958</ele>
        <time>2023-10-12T08:29:27Z</time>
      </trkpt>
      <trkpt lat="46.81701" lon="6.5006">
        <ele>1063.764</ele>
        <time>2023-10-12T08:29:32Z</time>
      </trkpt>
      <trkpt lat="46.81696" lon="6.50056">
        <ele>1063.451</ele>
        <time>2023-10-12T08:29:37Z</time>
      </trkpt>
      <trkpt lat="46.81691" lon="6.50053">
        <ele>1063.678</ele>
        <time>2023-10-12T08:29:42Z</time>
      </trkpt>
      <trkpt lat="46.81686" lon="6.5005">
        <ele>1062.366</ele>
        <time>2023-10-12T08:29:47Z</time>
      </trkpt>
      <trkpt lat="46.81681" lon="6.50047">
        <ele>1061.85</ele>
        <time>2023-10-12T08:29:52Z</time>
      </trkpt>
      <trkpt lat="46.81676" lon="6.50043">
        <ele>1060.934</ele>
        <time>2023-10-12T08:29:57Z</time>
      </trkpt>
      <trkpt lat="46.81671" lon="6.50039">
        <ele>1061.724</ele>
        <time>2023-10-12T08:30:02Z</time>
      </trkpt>
      <trkpt lat="46.81666" lon="6.50035">
        <ele>1060.588</ele>
        <time>2023-10-12T08:30:07Z</time>
      </trkpt>
      <trkpt lat="46.81662" lon="6.5003">
        <ele>1061.773</ele>
        <time>2023-10-12T08:30:12Z</time>
      </trkpt>
      <trkpt lat="46.81657" lon="6.50026">
        <ele>1062.226</ele>
        <time>2023-10-12T08:30:17Z</time>
      </trkpt>
      <trkpt lat="46.81652" lon="6.50022">
        <ele>1061.992</ele>
        <time>2023-10-12T08:30:22Z</time>
      </trkpt>
      <trkpt lat="46.81647" lon="6.50017">
        <ele>1061.091</ele>
        <time>2023-10-12T08:30:27Z</time>
      </trkpt>
      <trkpt lat="46.81641" lon="6.50013">
        <ele>1059.639</ele>
        <time>2023-10-12T08:30:32Z</time>
      </trkpt>
      <trkpt lat="46.81636" lon="6.50009">
        <ele>1058.187</ele>
        <time>2023-10-12T08:30:37Z</time>
      </trkpt>
      <trkpt lat="46.81631" lon="6.50005">
        <ele>1058.418</ele>
        <time>2023-10-12T08:30:42Z</time>
      </trkpt>
      <trkpt lat="46.81627" lon="6.50001">
        <ele>1057.63</ele>
        <time>2023-10-12T08:30:47Z</time>
      </trkpt>
      <trkpt lat="46.81621" lon="6.49996">
        <ele>1057.083</ele>
        <time>2023-10-12T08:30:52Z</time>
      </trkpt>
      <trkpt lat="46.81617" lon="6.49991">
        <ele>1057.697</ele>
        <time>2023-10-12T08:30:57Z</time>
      </trkpt>
      <trkpt lat="46.81612" lon="6.49992">
        <ele>1059.68</ele>
        <time>2023-10-12T08:31:02Z</time>
      </trkpt>
      <trkpt lat="46.81607" lon="6.49989">
        <ele>1059.157</ele>
        <time>2023-10-12T08:31:07Z</time>
      </trkpt>
      <trkpt lat="46.81603" lon="6.49983">
        <ele>1058.117</ele>
        <time>2023-10-12T08:31:12Z</time>
      </trkpt>
      <trkpt lat="46.816" lon="6.49976">
        <ele>1057.512</ele>
        <time>2023-10-12T08:31:17Z</time>
      </trkpt>
      <trkpt lat="46.81598" lon="6.49967">
        <ele>1057.799</ele>
        <time>2023-10-12T08:31:22Z</time>
      </trkpt>
      <trkpt lat="46.81596" lon="6.49959">
        <ele>1060.067</ele>
        <time>2023-10-12T08:31:27Z</time>
      </trkpt>
      <trkpt lat="46.81593" lon="6.49951">
        <ele>1060.485</ele>
        <time>2023-10-12T08:31:32Z</time>
      </trkpt>
      <trkpt lat="46.8159" lon="6.49945">
        <ele>1060.934</ele>
        <time>2023-10-12T08:31:37Z</time>
      </trkpt>
      <trkpt lat="46.81587" lon="6.49938">
        <ele>1062.291</ele>
        <time>2023-10-12T08:31:42Z</time>
      </trkpt>
      <trkpt lat="46.81585" lon="6.4993">
        <ele>1062.174</ele>
        <time>2023-10-12T08:31:47Z</time>
      </trkpt>
      <trkpt lat="46.81583" lon="6.49925">
        <ele>1063.259</ele>
        <time>2023-10-12T08:31:52Z</time>
      </trkpt>
      <trkpt lat="46.81582" lon="6.49921">
        <ele>1063.126</ele>
        <time>2023-10-12T08:31:57Z</time>
      </trkpt>
      <trkpt lat="46.8158" lon="6.49914">
        <ele>1062.478</ele>
        <time>2023-10-12T08:32:02Z</time>
      </trkpt>
      <trkpt lat="46.81579" lon="6.49906">
        <ele>1061.228</ele>
        <time>2023-10-12T08:32:07Z</time>
      </trkpt>
      <trkpt lat="46.81577" lon="6.49896">
        <ele>1058.621</ele>
        <time>2023-10-12T08:32:12Z</time>
      </trkpt>
      <trkpt lat="46.81575" lon="6.49888">
        <ele>1055.449</ele>
        <time>2023-10-12T08:32:17Z</time>
      </trkpt>
      <trkpt lat="46.81573" lon="6.4988">
        <ele>1053.526</ele>
        <time>2023-10-12T08:32:22Z</time>
      </trkpt>
      <trkpt lat="46.81571" lon="6.49871">
        <ele>1054.001</ele>
        <time>2023-10-12T08:32:27Z</time>
      </trkpt>
      <trkpt lat="46.81568" lon="6.49863">
        <ele>1052.028</ele>
        <time>2023-10-12T08:32:32Z</time>
      </trkpt>
      <trkpt lat="46.81565" lon="6.49855">
        <ele>1051.005</ele>
        <time>2023-10-12T08:32:37Z</time>
      </trkpt>
      <trkpt lat="46.81564" lon="6.49852">
        <ele>1049.147</ele>
        <time>2023-10-12T08:32:42Z</time>
      </trkpt>
      <trkpt lat="46.81563" lon="6.4985">
        <ele>1049.094</ele>
        <time>2023-10-12T08:32:47Z</time>
      </trkpt>
      <trkpt lat="46.81559" lon="6.49844">
        <ele>1048.744</ele>
        <time>2023-10-12T08:32:52Z</time>
      </trkpt>
      <trkpt lat="46.81555" lon="6.49837">
        <ele>1048.742</ele>
        <time>2023-10-12T08:32:57Z</time>
      </trkpt>
      <trkpt lat="46.81551" lon="6.4983">
        <ele>1048.295</ele>
        <time>2023-10-12T08:33:02Z</time>
      </trkpt>
      <trkpt lat="46.81546" lon="6.49823">
        <ele>1047.905</ele>
        <time>2023-10-12T08:33:07Z</time>
      </trkpt>
      <trkpt lat="46.81542" lon="6.49817">
        <ele>1047.773</ele>
        <time>2023-10-12T08:33:12Z</time>
      </trkpt>
      <trkpt lat="46.81537" lon="6.49811">
        <ele>1047.724</ele>
        <time>2023-10-12T08:33:17Z</time>
      </trkpt>
      <trkpt lat="46.81533" lon="6.49805">
        <ele>1048.874</ele>
        <time>2023-10-12T08:33:22Z</time>
      </trkpt>
      <trkpt lat="46.81529" lon="6.498">
        <ele>1048.467</ele>
        <time>2023-10-12T08:33:27Z</time>
      </trkpt>
      <trkpt lat="46.81524" lon="6.49793">
        <ele>1047.324</ele>
        <time>2023-10-12T08:33:32Z</time>
      </trkpt>
      <trkpt lat="46.81521" lon="6.49786">
        <ele>1046.192</ele>
        <time>2023-10-12T08:33:37Z</time>
      </trkpt>
      <trkpt lat="46.8152" lon="6.49777">
        <ele>1046.038</ele>
        <time>2023-10-12T08:33:42Z</time>
      </trkpt>
      <trkpt lat="46.8152" lon="6.49769">
        <ele>1044.955</ele>
        <time>2023-10-12T08:33:47Z</time>
      </trkpt>
      <trkpt lat="46.81519" lon="6.4976">
        <ele>1042.984</ele>
        <time>2023-10-12T08:33:52Z</time>
      </trkpt>
      <trkpt lat="46.81517" lon="6.49752">
        <ele>1042.387</ele>
        <time>2023-10-12T08:33:57Z</time>
      </trkpt>
      <trkpt lat="46.81513" lon="6.49746">
        <ele>1042.507</ele>
        <time>2023-10-12T08:34:02Z</time>
      </trkpt>
      <trkpt lat="46.81508" lon="6.49743">
        <ele>1041.445</ele>
        <time>2023-10-12T08:34:07Z</time>
      </trkpt>
      <trkpt lat="46.81502" lon="6.49742">
        <ele>1042.67</ele>
        <time>2023-10-12T08:34:12Z</time>
      </trkpt>
      <trkpt lat="46.81496" lon="6.49743">
        <ele>1044.308</ele>
        <time>2023-10-12T08:34:17Z</time>
      </trkpt>
      <trkpt lat="46.8149" lon="6.49743">
        <ele>1044.749</ele>
        <time>2023-10-12T08:34:22Z</time>
      </trkpt>
      <trkpt lat="46.81484" lon="6.49744">
        <ele>1044.96</ele>
        <time>2023-10-12T08:34:27Z</time>
      </trkpt>
      <trkpt lat="46.81479" lon="6.49747">
        <ele>1045.356</ele>
        <time>2023-10-12T08:34:32Z</time>
      </trkpt>
      <trkpt lat="46.81475" lon="6.49749">
        <ele>1047.028</ele>
        <time>2023-10-12T08:34:37Z</time>
      </trkpt>
      <trkpt lat="46.81469" lon="6.49752">
        <ele>1049.082</ele>
        <time>2023-10-12T08:34:42Z</time>
      </trkpt>
      <trkpt lat="46.81464" lon="6.49755">
        <ele>1049.673</ele>
        <time>2023-10-12T08:34:47Z</time>
      </trkpt>
      <trkpt lat="46.8146" lon="6.49758">
        <ele>1049.302</ele>
        <time>2023-10-12T08:34:52Z</time>
      </trkpt>
      <trkpt lat="46.81455" lon="6.49762">
        <ele>1049.693</ele>
        <time>2023-10-12T08:34:57Z</time>
      </trkpt>
      <trkpt lat="46.8145" lon="6.49767">
        <ele>1049.728</ele>
        <time>2023-10-12T08:35:02Z</time>
      </trkpt>
      <trkpt lat="46.81446" lon="6.49769">
        <ele>1050.55</ele>
        <time>2023-10-12T08:35:07Z</time>
      </trkpt>
      <trkpt lat="46.81441" lon="6.49771">
        <ele>1051.025</ele>
        <time>2023-10-12T08:35:12Z</time>
      </trkpt>
      <trkpt lat="46.81435" lon="6.49771">
        <ele>1051.708</ele>
        <time>2023-10-12T08:35:17Z</time>
      </trkpt>
      <trkpt lat="46.8143" lon="6.4977">
        <ele>1052.56</ele>
        <time>2023-10-12T08:35:22Z</time>
      </trkpt>
      <trkpt lat="46.81424" lon="6.4977">
        <ele>1052.239</ele>
        <time>2023-10-12T08:35:27Z</time>
      </trkpt>
      <trkpt lat="46.81418" lon="6.49769">
        <ele>1053.514</ele>
        <time>2023-10-12T08:35:32Z</time>
      </trkpt>
      <trkpt lat="46.81412" lon="6.49768">
        <ele>1053.775</ele>
        <time>2023-10-12T08:35:37Z</time>
      </trkpt>
      <trkpt lat="46.81406" lon="6.49767">
        <ele>1053.886</ele>
        <time>2023-10-12T08:35:42Z</time>
      </trkpt>
      <trkpt lat="46.814" lon="6.49766">
        <ele>1054.858</ele>
        <time>2023-10-12T08:35:47Z</time>
      </trkpt>
      <trkpt lat="46.81393" lon="6.49764">
        <ele>1054.732</ele>
        <time>2023-10-12T08:35:52Z</time>
      </trkpt>
      <trkpt lat="46.81387" lon="6.49762">
        <ele>1054.095</ele>
        <time>2023-10-12T08:35:57Z</time>
      </trkpt>
      <trkpt lat="46.81381" lon="6.4976">
        <ele>1055.798</ele>
        <time>2023-10-12T08:36:02Z</time>
      </trkpt>
      <trkpt lat="46.81374" lon="6.49758">
        <ele>1055.112</ele>
        <time>2023-10-12T08:36:07Z</time>
      </trkpt>
      <trkpt lat="46.81368" lon="6.49755">
        <ele>1055.258</ele>
        <time>2023-10-12T08:36:12Z</time>
      </trkpt>
      <trkpt lat="46.81362" lon="6.49752">
        <ele>1054.658</ele>
        <time>2023-10-12T08:36:17Z</time>
      </trkpt>
      <trkpt lat="46.81357" lon="6.49748">
        <ele>1054.365</ele>
        <time>2023-10-12T08:36:22Z</time>
      </trkpt>
      <trkpt lat="46.81351" lon="6.49744">
        <ele>1054.249</ele>
        <time>2023-10-12T08:36:27Z</time>
      </trkpt>
      <trkpt lat="46.81345" lon="6.49741">
        <ele>1054.148</ele>
        <time>2023-10-12T08:36:32Z</time>
      </trkpt>
      <trkpt lat="46.8134" lon="6.49738">
        <ele>1053.617</ele>
        <time>2023-10-12T08:36:37Z</time>
      </trkpt>
      <trkpt lat="46.81334" lon="6.49733">
        <ele>1054.366</ele>
        <time>2023-10-12T08:36:42Z</time>
      </trkpt>
      <trkpt lat="46.81329" lon="6.49729">
        <ele>1055.207</ele>
        <time>2023-10-12T08:36:47Z</time>
      </trkpt>
      <trkpt lat="46.81322" lon="6.49726">
        <ele>1055.963</ele>
        <time>2023-10-12T08:36:52Z</time>
      </trkpt>
      <trkpt lat="46.81317" lon="6.49723">
        <ele>1056.53</ele>
        <time>2023-10-12T08:36:57Z</time>
      </trkpt>
      <trkpt lat="46.81311" lon="6.4972">
        <ele>1056.755</ele>
        <time>2023-10-12T08:37:02Z</time>
      </trkpt>
      <trkpt lat="46.81306" lon="6.49717">
        <ele>1056.665</ele>
        <time>2023-10-12T08:37:07Z</time>
      </trkpt>
      <trkpt lat="46.81299" lon="6.49714">
        <ele>1056.034</ele>
        <time>2023-10-12T08:37:12Z</time>
      </trkpt>
      <trkpt lat="46.81293" lon="6.49712">
        <ele>1053.833</ele>
        <time>2023-10-12T08:37:17Z</time>
      </trkpt>
      <trkpt lat="46.81287" lon="6.4971">
        <ele>1053.348</ele>
        <time>2023-10-12T08:37:22Z</time>
      </trkpt>
      <trkpt lat="46.81282" lon="6.49707">
        <ele>1054.003</ele>
        <time>2023-10-12T08:37:27Z</time>
      </trkpt>
      <trkpt lat="46.81277" lon="6.49704">
        <ele>1054.645</ele>
        <time>2023-10-12T08:37:32Z</time>
      </trkpt>
      <trkpt lat="46.81272" lon="6.497">
        <ele>1053.385</ele>
        <time>2023-10-12T08:37:37Z</time>
      </trkpt>
      <trkpt lat="46.81268" lon="6.49698">
        <ele>1052.686</ele>
        <time>2023-10-12T08:37:42Z</time>
      </trkpt>
      <trkpt lat="46.81262" lon="6.49694">
        <ele>1053.259</ele>
        <time>2023-10-12T08:37:47Z</time>
      </trkpt>
      <trkpt lat="46.81256" lon="6.49691">
        <ele>1053.301</ele>
        <time>2023-10-12T08:37:52Z</time>
      </trkpt>
      <trkpt lat="46.8125" lon="6.49686">
        <ele>1053.975</ele>
        <time>2023-10-12T08:37:57Z</time>
      </trkpt>
      <trkpt lat="46.81245" lon="6.49683">
        <ele>1054.669</ele>
        <time>2023-10-12T08:38:02Z</time>
      </trkpt>
      <trkpt lat="46.81239" lon="6.49679">
        <ele>1055.67</ele>
        <time>2023-10-12T08:38:07Z</time>
      </trkpt>
      <trkpt lat="46.81233" lon="6.49676">
        <ele>1056.831</ele>
        <time>2023-10-12T08:38:12Z</time>
      </trkpt>
      <trkpt lat="46.81227" lon="6.49672">
        <ele>1056.113</ele>
        <time>2023-10-12T08:38:17Z</time>
      </trkpt>
      <trkpt lat="46.81222" lon="6.49669">
        <ele>1055.375</ele>
        <time>2023-10-12T08:38:22Z</time>
      </trkpt>
      <trkpt lat="46.81217" lon="6.49667">
        <ele>1054.193</ele>
        <time>2023-10-12T08:38:27Z</time>
      </trkpt>
      <trkpt lat="46.81211" lon="6.49663">
        <ele>1053.054</ele>
        <time>2023-10-12T08:38:32Z</time>
      </trkpt>
      <trkpt lat="46.81206" lon="6.49658">
        <ele>1052.299</ele>
        <time>2023-10-12T08:38:37Z</time>
      </trkpt>
      <trkpt lat="46.812" lon="6.49654">
        <ele>1051.449</ele>
        <time>2023-10-12T08:38:42Z</time>
      </trkpt>
      <trkpt lat="46.81193" lon="6.49651">
        <ele>1046.809</ele>
        <time>2023-10-12T08:38:47Z</time>
      </trkpt>
      <trkpt lat="46.81187" lon="6.49648">
        <ele>1045.439</ele>
        <time>2023-10-12T08:38:52Z</time>
      </trkpt>
      <trkpt lat="46.81181" lon="6.49643">
        <ele>1047.417</ele>
        <time>2023-10-12T08:38:57Z</time>
      </trkpt>
      <trkpt lat="46.81176" lon="6.4964">
        <ele>1047.725</ele>
        <time>2023-10-12T08:39:02Z</time>
      </trkpt>
      <trkpt lat="46.8117" lon="6.49636">
        <ele>1050.015</ele>
        <time>2023-10-12T08:39:07Z</time>
      </trkpt>
      <trkpt lat="46.81164" lon="6.49633">
        <ele>1048.863</ele>
        <time>2023-10-12T08:39:12Z</time>
      </trkpt>
      <trkpt lat="46.81159" lon="6.4963">
        <ele>1048.198</ele>
        <time>2023-10-12T08:39:17Z</time>
      </trkpt>
      <trkpt lat="46.81154" lon="6.49628">
        <ele>1048.238</ele>
        <time>2023-10-12T08:39:22Z</time>
      </trkpt>
      <trkpt lat="46.81148" lon="6.49624">
        <ele>1048.403</ele>
        <time>2023-10-12T08:39:27Z</time>
      </trkpt>
      <trkpt lat="46.81143" lon="6.4962">
        <ele>1049.598</ele>
        <time>2023-10-12T08:39:32Z</time>
      </trkpt>
      <trkpt lat="46.81136" lon="6.49617">
        <ele>1050.961</ele>
        <time>2023-10-12T08:39:37Z</time>
      </trkpt>
      <trkpt lat="46.8113" lon="6.49614">
        <ele>1051.415</ele>
        <time>2023-10-12T08:39:42Z</time>
      </trkpt>
      <trkpt lat="46.81124" lon="6.49613">
        <ele>1052.592</ele>
        <time>2023-10-12T08:39:47Z</time>
      </trkpt>
      <trkpt lat="46.81118" lon="6.49611">
        <ele>1049.39</ele>
        <time>2023-10-12T08:39:52Z</time>
      </trkpt>
      <trkpt lat="46.81111" lon="6.49609">
        <ele>1046.967</ele>
        <time>2023-10-12T08:39:57Z</time>
      </trkpt>
      <trkpt lat="46.81107" lon="6.49607">
        <ele>1047.596</ele>
        <time>2023-10-12T08:40:02Z</time>
      </trkpt>
      <trkpt lat="46.81101" lon="6.49606">
        <ele>1046.383</ele>
        <time>2023-10-12T08:40:07Z</time>
      </trkpt>
      <trkpt lat="46.81094" lon="6.49607">
        <ele>1044.327</ele>
        <time>2023-10-12T08:40:12Z</time>
      </trkpt>
      <trkpt lat="46.81086" lon="6.49608">
        <ele>1041.973</ele>
        <time>2023-10-12T08:40:17Z</time>
      </trkpt>
      <trkpt lat="46.8108" lon="6.49608">
        <ele>1042.541</ele>
        <time>2023-10-12T08:40:22Z</time>
      </trkpt>
      <trkpt lat="46.81074" lon="6.4961">
        <ele>1040.045</ele>
        <time>2023-10-12T08:40:27Z</time>
      </trkpt>
      <trkpt lat="46.81069" lon="6.49614">
        <ele>1041.365</ele>
        <time>2023-10-12T08:40:32Z</time>
      </trkpt>
      <trkpt lat="46.81065" lon="6.49619">
        <ele>1043.389</ele>
        <time>2023-10-12T08:40:37Z</time>
      </trkpt>
      <trkpt lat="46.81062" lon="6.49626">
        <ele>1043.17</ele>
        <time>2023-10-12T08:40:42Z</time>
      </trkpt>
      <trkpt lat="46.81059" lon="6.49632">
        <ele>1042.902</ele>
        <time>2023-10-12T08:40:47Z</time>
      </trkpt>
      <trkpt lat="46.81056" lon="6.49638">
        <ele>1041.967</ele>
        <time>2023-10-12T08:40:52Z</time>
      </trkpt>
      <trkpt lat="46.81054" lon="6.49644">
        <ele>1041.57</ele>
        <time>2023-10-12T08:40:57Z</time>
      </trkpt>
      <trkpt lat="46.81053" lon="6.49651">
        <ele>1042.188</ele>
        <time>2023-10-12T08:41:02Z</time>
      </trkpt>
      <trkpt lat="46.8105" lon="6.49659">
        <ele>1042.579</ele>
        <time>2023-10-12T08:41:07Z</time>
      </trkpt>
      <trkpt lat="46.81048" lon="6.49667">
        <ele>1044.697</ele>
        <time>2023-10-12T08:41:12Z</time>
      </trkpt>
      <trkpt lat="46.81045" lon="6.49675">
        <ele>1045.607</ele>
        <time>2023-10-12T08:41:17Z</time>
      </trkpt>
      <trkpt lat="46.81043" lon="6.49682">
        <ele>1046.045</ele>
        <time>2023-10-12T08:41:22Z</time>
      </trkpt>
      <trkpt lat="46.81041" lon="6.4969">
        <ele>1048.524</ele>
        <time>2023-10-12T08:41:27Z</time>
      </trkpt>
      <trkpt lat="46.81039" lon="6.49697">
        <ele>1050.982</ele>
        <time>2023-10-12T08:41:32Z</time>
      </trkpt>
      <trkpt lat="46.81037" lon="6.49704">
        <ele>1052.768</ele>
        <time>2023-10-12T08:41:37Z</time>
      </trkpt>
      <trkpt lat="46.81036" lon="6.49711">
        <ele>1053.046</ele>
        <time>2023-10-12T08:41:42Z</time>
      </trkpt>
      <trkpt lat="46.81035" lon="6.49718">
        <ele>1053.517</ele>
        <time>2023-10-12T08:41:47Z</time>
      </trkpt>
      <trkpt lat="46.81034" lon="6.49726">
        <ele>1054.442</ele>
        <time>2023-10-12T08:41:52Z</time>
      </trkpt>
      <trkpt lat="46.81032" lon="6.49733">
        <ele>1055.367</ele>
        <time>2023-10-12T08:41:57Z</time>
      </trkpt>
      <trkpt lat="46.81031" lon="6.49741">
        <ele>1055.198</ele>
        <time>2023-10-12T08:42:02Z</time>
      </trkpt>
      <trkpt lat="46.81029" lon="6.49749">
        <ele>1054.98</ele>
        <time>2023-10-12T08:42:07Z</time>
      </trkpt>
      <trkpt lat="46.81027" lon="6.49756">
        <ele>1056.093</ele>
        <time>2023-10-12T08:42:12Z</time>
      </trkpt>
      <trkpt lat="46.81024" lon="6.49762">
        <ele>1056.665</ele>
        <time>2023-10-12T08:42:17Z</time>
      </trkpt>
      <trkpt lat="46.8102" lon="6.49768">
        <ele>1056.529</ele>
        <time>2023-10-12T08:42:22Z</time>
      </trkpt>
      <trkpt lat="46.81016" lon="6.49773">
        <ele>1057.91</ele>
        <time>2023-10-12T08:42:27Z</time>
      </trkpt>
      <trkpt lat="46.81013" lon="6.49779">
        <ele>1058.196</ele>
        <time>2023-10-12T08:42:32Z</time>
      </trkpt>
      <trkpt lat="46.81009" lon="6.49784">
        <ele>1057.563</ele>
        <time>2023-10-12T08:42:37Z</time>
      </trkpt>
      <trkpt lat="46.81005" lon="6.4979">
        <ele>1058.208</ele>
        <time>2023-10-12T08:42:42Z</time>
      </trkpt>
      <trkpt lat="46.81002" lon="6.49796">
        <ele>1058.604</ele>
        <time>2023-10-12T08:42:47Z</time>
      </trkpt>
      <trkpt lat="46.80998" lon="6.49801">
        <ele>1059.655</ele>
        <time>2023-10-12T08:42:52Z</time>
      </trkpt>
      <trkpt lat="46.80994" lon="6.49806">
        <ele>1060.242</ele>
        <time>2023-10-12T08:42:57Z</time>
      </trkpt>
      <trkpt lat="46.8099" lon="6.4981">
        <ele>1059.883</ele>
        <time>2023-10-12T08:43:02Z</time>
      </trkpt>
      <trkpt lat="46.80988" lon="6.49812">
        <ele>1060.895</ele>
        <time>2023-10-12T08:43:07Z</time>
      </trkpt>
      <trkpt lat="46.80984" lon="6.49818">
        <ele>1062.19</ele>
        <time>2023-10-12T08:43:12Z</time>
      </trkpt>
      <trkpt lat="46.8098" lon="6.49823">
        <ele>1062.815</ele>
        <time>2023-10-12T08:43:17Z</time>
      </trkpt>
      <trkpt lat="46.80976" lon="6.49829">
        <ele>1063.175</ele>
        <time>2023-10-12T08:43:22Z</time>
      </trkpt>
      <trkpt lat="46.80972" lon="6.49834">
        <ele>1063.997</ele>
        <time>2023-10-12T08:43:27Z</time>
      </trkpt>
      <trkpt lat="46.80968" lon="6.49838">
        <ele>1065.158</ele>
        <time>2023-10-12T08:43:32Z</time>
      </trkpt>
      <trkpt lat="46.80965" lon="6.49845">
        <ele>1065.286</ele>
        <time>2023-10-12T08:43:37Z</time>
      </trkpt>
      <trkpt lat="46.80961" lon="6.4985">
        <ele>1066.554</ele>
        <time>2023-10-12T08:43:42Z</time>
      </trkpt>
      <trkpt lat="46.80957" lon="6.49855">
        <ele>1066.69</ele>
        <time>2023-10-12T08:43:47Z</time>
      </trkpt>
      <trkpt lat="46.80954" lon="6.4986">
        <ele>1066.236</ele>
        <time>2023-10-12T08:43:52Z</time>
      </trkpt>
      <trkpt lat="46.80949" lon="6.49866">
        <ele>1067.081</ele>
        <time>2023-10-12T08:43:57Z</time>
      </trkpt>
      <trkpt lat="46.80945" lon="6.49871">
        <ele>1067.167</ele>
        <time>2023-10-12T08:44:02Z</time>
      </trkpt>
      <trkpt lat="46.80942" lon="6.49876">
        <ele>1067.69</ele>
        <time>2023-10-12T08:44:07Z</time>
      </trkpt>
      <trkpt lat="46.80938" lon="6.49878">
        <ele>1068.145</ele>
        <time>2023-10-12T08:44:12Z</time>
      </trkpt>
      <trkpt lat="46.80935" lon="6.49882">
        <ele>1068.241</ele>
        <time>2023-10-12T08:44:17Z</time>
      </trkpt>
      <trkpt lat="46.80934" lon="6.49885">
        <ele>1067.946</ele>
        <time>2023-10-12T08:44:22Z</time>
      </trkpt>
      <trkpt lat="46.80932" lon="6.49888">
        <ele>1068.89</ele>
        <time>2023-10-12T08:44:27Z</time>
      </trkpt>
      <trkpt lat="46.80929" lon="6.49889">
        <ele>1068.711</ele>
        <time>2023-10-12T08:44:32Z</time>
      </trkpt>
      <trkpt lat="46.80925" lon="6.49888">
        <ele>1069.078</ele>
        <time>2023-10-12T08:44:37Z</time>
      </trkpt>
      <trkpt lat="46.80925" lon="6.49887">
        <ele>1069.381</ele>
        <time>2023-10-12T08:44:42Z</time>
      </trkpt>
      <trkpt lat="46.80925" lon="6.49887">
        <ele>1069.393</ele>
        <time>2023-10-12T08:44:47Z</time>
      </trkpt>
      <trkpt lat="46.80925" lon="6.49887">
        <ele>1069.4</ele>
        <time>2023-10-12T08:44:52Z</time>
      </trkpt>
      <trkpt lat="46.80925" lon="6.49887">
        <ele>1069.414</ele>
        <time>2023-10-12T08:44:57Z</time>
      </trkpt>
      <trkpt lat="46.80925" lon="6.49887">
        <ele>1069.425</ele>
        <time>2023-10-12T08:45:02Z</time>
      </trkpt>
      <trkpt lat="46.80925" lon="6.49887">
        <ele>1069.433</ele>
        <time>2023-10-12T08:45:07Z</time>
      </trkpt>
      <trkpt lat="46.80925" lon="6.49887">
        <ele>1069.438</ele>
        <time>2023-10-12T08:45:12Z</time>
      </trkpt>
      <trkpt lat="46.80925" lon="6.49887">
        <ele>1069.44</ele>
        <time>2023-10-12T08:45:17Z</time>
      </trkpt>
      <trkpt lat="46.80925" lon="6.49887">
        <ele>1069.097</ele>
        <time>2023-10-12T08:45:22Z</time>
      </trkpt>
      <trkpt lat="46.80925" lon="6.4989">
        <ele>1069.891</ele>
        <time>2023-10-12T08:45:27Z</time>
      </trkpt>
      <trkpt lat="46.80925" lon="6.49898">
        <ele>1069.779</ele>
        <time>2023-10-12T08:45:32Z</time>
      </trkpt>
      <trkpt lat="46.80922" lon="6.49902">
        <ele>1070.517</ele>
        <time>2023-10-12T08:45:37Z</time>
      </trkpt>
      <trkpt lat="46.80919" lon="6.49904">
        <ele>1071.893</ele>
        <time>2023-10-12T08:45:42Z</time>
      </trkpt>
      <trkpt lat="46.80915" lon="6.49908">
        <ele>1073.626</ele>
        <time>2023-10-12T08:45:47Z</time>
      </trkpt>
      <trkpt lat="46.80912" lon="6.49912">
        <ele>1074.267</ele>
        <time>2023-10-12T08:45:52Z</time>
      </trkpt>
      <trkpt lat="46.80908" lon="6.49917">
        <ele>1074.28</ele>
        <time>2023-10-12T08:45:57Z</time>
      </trkpt>
      <trkpt lat="46.80904" lon="6.49921">
        <ele>1075.17</ele>
        <time>2023-10-12T08:46:02Z</time>
      </trkpt>
      <trkpt lat="46.809" lon="6.49926">
        <ele>1076.004</ele>
        <time>2023-10-12T08:46:07Z</time>
      </trkpt>
      <trkpt lat="46.80898" lon="6.4993">
        <ele>1077.813</ele>
        <time>2023-10-12T08:46:12Z</time>
      </trkpt>
      <trkpt lat="46.80894" lon="6.49934">
        <ele>1078.238</ele>
        <time>2023-10-12T08:46:17Z</time>
      </trkpt>
      <trkpt lat="46.80891" lon="6.49939">
        <ele>1077.216</ele>
        <time>2023-10-12T08:46:22Z</time>
      </trkpt>
      <trkpt lat="46.80888" lon="6.49943">
        <ele>1077.674</ele>
        <time>2023-10-12T08:46:27Z</time>
      </trkpt>
      <trkpt lat="46.80885" lon="6.4995">
        <ele>1077.576</ele>
        <time>2023-10-12T08:46:32Z</time>
      </trkpt>
      <trkpt lat="46.80882" lon="6.49955">
        <ele>1078.933</ele>
        <time>2023-10-12T08:46:37Z</time>
      </trkpt>
      <trkpt lat="46.80879" lon="6.4996">
        <ele>1080.551</ele>
        <time>2023-10-12T08:46:42Z</time>
      </trkpt>
      <trkpt lat="46.80876" lon="6.49965">
        <ele>1080.498</ele>
        <time>2023-10-12T08:46:47Z</time>
      </trkpt>
      <trkpt lat="46.80874" lon="6.49968">
        <ele>1081.132</ele>
        <time>2023-10-12T08:46:52Z</time>
      </trkpt>
      <trkpt lat="46.80874" lon="6.49968">
        <ele>1081.492</ele>
        <time>2023-10-12T08:46:57Z</time>
      </trkpt>
      <trkpt lat="46.80874" lon="6.49968">
        <ele>1081.235</ele>
        <time>2023-10-12T08:47:02Z</time>
      </trkpt>
      <trkpt lat="46.80871" lon="6.49966">
        <ele>1081.042</ele>
        <time>2023-10-12T08:47:07Z</time>
      </trkpt>
      <trkpt lat="46.80869" lon="6.49969">
        <ele>1081.271</ele>
        <time>2023-10-12T08:47:12Z</time>
      </trkpt>
      <trkpt lat="46.80866" lon="6.49973">
        <ele>1081.901</ele>
        <time>2023-10-12T08:47:17Z</time>
      </trkpt>
      <trkpt lat="46.80862" lon="6.49974">
        <ele>1083.668</ele>
        <time>2023-10-12T08:47:22Z</time>
      </trkpt>
      <trkpt lat="46.80859" lon="6.49977">
        <ele>1088.499</ele>
        <time>2023-10-12T08:47:27Z</time>
      </trkpt>
      <trkpt lat="46.80855" lon="6.4998">
        <ele>1087.374</ele>
        <time>2023-10-12T08:47:32Z</time>
      </trkpt>
      <trkpt lat="46.80852" lon="6.49984">
        <ele>1087.059</ele>
        <time>2023-10-12T08:47:37Z</time>
      </trkpt>
      <trkpt lat="46.80849" lon="6.49988">
        <ele>1086.536</ele>
        <time>2023-10-12T08:47:42Z</time>
      </trkpt>
      <trkpt lat="46.80846" lon="6.49992">
        <ele>1086.986</ele>
        <time>2023-10-12T08:47:47Z</time>
      </trkpt>
      <trkpt lat="46.80843" lon="6.49996">
        <ele>1085.654</ele>
        <time>2023-10-12T08:47:52Z</time>
      </trkpt>
      <trkpt lat="46.8084" lon="6.49999">
        <ele>1088.098</ele>
        <time>2023-10-12T08:47:57Z</time>
      </trkpt>
      <trkpt lat="46.80836" lon="6.50001">
        <ele>1088.007</ele>
        <time>2023-10-12T08:48:02Z</time>
      </trkpt>
      <trkpt lat="46.80832" lon="6.50005">
        <ele>1089.32</ele>
        <time>2023-10-12T08:48:07Z</time>
      </trkpt>
      <trkpt lat="46.80828" lon="6.50008">
        <ele>1089.734</ele>
        <time>2023-10-12T08:48:12Z</time>
      </trkpt>
      <trkpt lat="46.80826" lon="6.50013">
        <ele>1087.632</ele>
        <time>2023-10-12T08:48:17Z</time>
      </trkpt>
      <trkpt lat="46.80823" lon="6.50019">
        <ele>1087.289</ele>
        <time>2023-10-12T08:48:22Z</time>
      </trkpt>
      <trkpt lat="46.8082" lon="6.50025">
        <ele>1086.773</ele>
        <time>2023-10-12T08:48:27Z</time>
      </trkpt>
      <trkpt lat="46.80818" lon="6.50029">
        <ele>1087.391</ele>
        <time>2023-10-12T08:48:32Z</time>
      </trkpt>
      <trkpt lat="46.80815" lon="6.50033">
        <ele>1089.038</ele>
        <time>2023-10-12T08:48:37Z</time>
      </trkpt>
      <trkpt lat="46.80813" lon="6.50037">
        <ele>1090.384</ele>
        <time>2023-10-12T08:48:42Z</time>
      </trkpt>
      <trkpt lat="46.80808" lon="6.5004">
        <ele>1091.268</ele>
        <time>2023-10-12T08:48:47Z</time>
      </trkpt>
      <trkpt lat="46.80805" lon="6.50043">
        <ele>1092.819</ele>
        <time>2023-10-12T08:48:52Z</time>
      </trkpt>
      <trkpt lat="46.80802" lon="6.50045">
        <ele>1093.571</ele>
        <time>2023-10-12T08:48:57Z</time>
      </trkpt>
      <trkpt lat="46.80799" lon="6.50048">
        <ele>1095</ele>
        <time>2023-10-12T08:49:02Z</time>
      </trkpt>
      <trkpt lat="46.80797" lon="6.50053">
        <ele>1092.894</ele>
        <time>2023-10-12T08:49:07Z</time>
      </trkpt>
      <trkpt lat="46.80795" lon="6.50056">
        <ele>1093.67</ele>
        <time>2023-10-12T08:49:12Z</time>
      </trkpt>
      <trkpt lat="46.80792" lon="6.50057">
        <ele>1094.956</ele>
        <time>2023-10-12T08:49:17Z</time>
      </trkpt>
      <trkpt lat="46.80789" lon="6.50062">
        <ele>1095.038</ele>
        <time>2023-10-12T08:49:22Z</time>
      </trkpt>
      <trkpt lat="46.80787" lon="6.50067">
        <ele>1095.414</ele>
        <time>2023-10-12T08:49:27Z</time>
      </trkpt>
      <trkpt lat="46.80784" lon="6.50068">
        <ele>1095.494</ele>
        <time>2023-10-12T08:49:32Z</time>
      </trkpt>
      <trkpt lat="46.8078" lon="6.50066">
        <ele>1099.054</ele>
        <time>2023-10-12T08:49:37Z</time>
      </trkpt>
      <trkpt lat="46.80777" lon="6.50064">
        <ele>1098.992</ele>
        <time>2023-10-12T08:49:42Z</time>
      </trkpt>
      <trkpt lat="46.80775" lon="6.5006">
        <ele>1099.647</ele>
        <time>2023-10-12T08:49:47Z</time>
      </trkpt>
      <trkpt lat="46.80774" lon="6.50057">
        <ele>1102.419</ele>
        <time>2023-10-12T08:49:52Z</time>
      </trkpt>
      <trkpt lat="46.80771" lon="6.50055">
        <ele>1102.369</ele>
        <time>2023-10-12T08:49:57Z</time>
      </trkpt>
      <trkpt lat="46.80768" lon="6.50056">
        <ele>1101.864</ele>
        <time>2023-10-12T08:50:02Z</time>
      </trkpt>
      <trkpt lat="46.80766" lon="6.50054">
        <ele>1101.534</ele>
        <time>2023-10-12T08:50:07Z</time>
      </trkpt>
      <trkpt lat="46.80763" lon="6.50049">
        <ele>1102.785</ele>
        <time>2023-10-12T08:50:12Z</time>
      </trkpt>
      <trkpt lat="46.80759" lon="6.50047">
        <ele>1103.267</ele>
        <time>2023-10-12T08:50:17Z</time>
      </trkpt>
      <trkpt lat="46.80755" lon="6.50043">
        <ele>1103.21</ele>
        <time>2023-10-12T08:50:22Z</time>
      </trkpt>
      <trkpt lat="46.80752" lon="6.50041">
        <ele>1102.918</ele>
        <time>2023-10-12T08:50:27Z</time>
      </trkpt>
      <trkpt lat="46.80749" lon="6.50037">
        <ele>1102.27</ele>
        <time>2023-10-12T08:50:32Z</time>
      </trkpt>
      <trkpt lat="46.80746" lon="6.50035">
        <ele>1102.883</ele>
        <time>2023-10-12T08:50:37Z</time>
      </trkpt>
      <trkpt lat="46.80743" lon="6.50031">
        <ele>1104.663</ele>
        <time>2023-10-12T08:50:42Z</time>
      </trkpt>
      <trkpt lat="46.8074" lon="6.50027">
        <ele>1107.526</ele>
        <time>2023-10-12T08:50:47Z</time>
      </trkpt>
      <trkpt lat="46.80737" lon="6.50023">
        <ele>1108.417</ele>
        <time>2023-10-12T08:50:52Z</time>
      </trkpt>
      <trkpt lat="46.80735" lon="6.50019">
        <ele>1109.89</ele>
        <time>2023-10-12T08:50:57Z</time>
      </trkpt>
      <trkpt lat="46.80731" lon="6.50018">
        <ele>1108.71</ele>
        <time>2023-10-12T08:51:02Z</time>
      </trkpt>
      <trkpt lat="46.8073" lon="6.50014">
        <ele>1110.336</ele>
        <time>2023-10-12T08:51:07Z</time>
      </trkpt>
      <trkpt lat="46.80729" lon="6.5001">
        <ele>1111.444</ele>
        <time>2023-10-12T08:51:12Z</time>
      </trkpt>
      <trkpt lat="46.80726" lon="6.50006">
        <ele>1111.222</ele>
        <time>2023-10-12T08:51:17Z</time>
      </trkpt>
      <trkpt lat="46.80724" lon="6.50002">
        <ele>1111.216</ele>
        <time>2023-10-12T08:51:22Z</time>
      </trkpt>
      <trkpt lat="46.80721" lon="6.49998">
        <ele>1111.059</ele>
        <time>2023-10-12T08:51:27Z</time>
      </trkpt>
      <trkpt lat="46.80718" lon="6.49996">
        <ele>1109.726</ele>
        <time>2023-10-12T08:51:32Z</time>
      </trkpt>
      <trkpt lat="46.80716" lon="6.49992">
        <ele>1110.519</ele>
        <time>2023-10-12T08:51:37Z</time>
      </trkpt>
      <trkpt lat="46.80712" lon="6.49989">
        <ele>1111.957</ele>
        <time>2023-10-12T08:51:42Z</time>
      </trkpt>
      <trkpt lat="46.8071" lon="6.49985">
        <ele>1113.183</ele>
        <time>2023-10-12T08:51:47Z</time>
      </trkpt>
      <trkpt lat="46.80709" lon="6.4998">
        <ele>1114.294</ele>
        <time>2023-10-12T08:51:52Z</time>
      </trkpt>
      <trkpt lat="46.80707" lon="6.49977">
        <ele>1114.108</ele>
        <time>2023-10-12T08:51:57Z</time>
      </trkpt>
      <trkpt lat="46.80706" lon="6.49975">
        <ele>1114.836</ele>
        <time>2023-10-12T08:52:02Z</time>
      </trkpt>
      <trkpt lat="46.80704" lon="6.49971">
        <ele>1116.212</ele>
        <time>2023-10-12T08:52:07Z</time>
      </trkpt>
      <trkpt lat="46.80702" lon="6.49967">
        <ele>1117.242</ele>
        <time>2023-10-12T08:52:12Z</time>
      </trkpt>
      <trkpt lat="46.80701" lon="6.49965">
        <ele>1116.793</ele>
        <time>2023-10-12T08:52:17Z</time>
      </trkpt>
      <trkpt lat="46.80699" lon="6.49961">
        <ele>1117.448</ele>
        <time>2023-10-12T08:52:22Z</time>
      </trkpt>
      <trkpt lat="46.80698" lon="6.49958">
        <ele>1118.479</ele>
        <time>2023-10-12T08:52:27Z</time>
      </trkpt>
      <trkpt lat="46.80696" lon="6.49956">
        <ele>1115.118</ele>
        <time>2023-10-12T08:52:32Z</time>
      </trkpt>
      <trkpt lat="46.80694" lon="6.49954">
        <ele>1115.242</ele>
        <time>2023-10-12T08:52:37Z</time>
      </trkpt>
      <trkpt lat="46.80692" lon="6.49951">
        <ele>1115.504</ele>
        <time>2023-10-12T08:52:42Z</time>
      </trkpt>
      <trkpt lat="46.8069" lon="6.49949">
        <ele>1112.764</ele>
        <time>2023-10-12T08:52:47Z</time>
      </trkpt>
      <trkpt lat="46.80689" lon="6.49946">
        <ele>1114.796</ele>
        <time>2023-10-12T08:52:52Z</time>
      </trkpt>
      <trkpt lat="46.80687" lon="6.49943">
        <ele>1114.123</ele>
        <time>2023-10-12T08:52:57Z</time>
      </trkpt>
      <trkpt lat="46.80685" lon="6.4994">
        <ele>1114.983</ele>
        <time>2023-10-12T08:53:02Z</time>
      </trkpt>
      <trkpt lat="46.80682" lon="6.49941">
        <ele>1115.878</ele>
        <time>2023-10-12T08:53:07Z</time>
      </trkpt>
      <trkpt lat="46.8068" lon="6.49941">
        <ele>1116.287</ele>
        <time>2023-10-12T08:53:12Z</time>
      </trkpt>
      <trkpt lat="46.80679" lon="6.49945">
        <ele>1114.116</ele>
        <time>2023-10-12T08:53:17Z</time>
      </trkpt>
      <trkpt lat="46.80679" lon="6.49951">
        <ele>1115.201</ele>
        <time>2023-10-12T08:53:22Z</time>
      </trkpt>
      <trkpt lat="46.80679" lon="6.49954">
        <ele>1118.166</ele>
        <time>2023-10-12T08:53:27Z</time>
      </trkpt>
      <trkpt lat="46.80679" lon="6.49958">
        <ele>1118.003</ele>
        <time>2023-10-12T08:53:32Z</time>
      </trkpt>
      <trkpt lat="46.80678" lon="6.49962">
        <ele>1119.008</ele>
        <time>2023-10-12T08:53:37Z</time>
      </trkpt>
      <trkpt lat="46.80678" lon="6.49965">
        <ele>1119.571</ele>
        <time>2023-10-12T08:53:42Z</time>
      </trkpt>
      <trkpt lat="46.80678" lon="6.49968">
        <ele>1118.835</ele>
        <time>2023-10-12T08:53:47Z</time>
      </trkpt>
      <trkpt lat="46.80677" lon="6.4997">
        <ele>1119.817</ele>
        <time>2023-10-12T08:53:52Z</time>
      </trkpt>
      <trkpt lat="46.80678" lon="6.49977">
        <ele>1116.492</ele>
        <time>2023-10-12T08:53:57Z</time>
      </trkpt>
      <trkpt lat="46.80677" lon="6.4998">
        <ele>1118.35</ele>
        <time>2023-10-12T08:54:02Z</time>
      </trkpt>
      <trkpt lat="46.80674" lon="6.49978">
        <ele>1120.699</ele>
        <time>2023-10-12T08:54:07Z</time>
      </trkpt>
      <trkpt lat="46.80672" lon="6.49977">
        <ele>1121.545</ele>
        <time>2023-10-12T08:54:12Z</time>
      </trkpt>
      <trkpt lat="46.80672" lon="6.49974">
        <ele>1122.826</ele>
        <time>2023-10-12T08:54:17Z</time>
      </trkpt>
      <trkpt lat="46.8067" lon="6.49971">
        <ele>1124.652</ele>
        <time>2023-10-12T08:54:22Z</time>
      </trkpt>
      <trkpt lat="46.80669" lon="6.49966">
        <ele>1125.229</ele>
        <time>2023-10-12T08:54:27Z</time>
      </trkpt>
      <trkpt lat="46.80667" lon="6.49962">
        <ele>1125.96</ele>
        <time>2023-10-12T08:54:32Z</time>
      </trkpt>
      <trkpt lat="46.80665" lon="6.49958">
        <ele>1128.637</ele>
        <time>2023-10-12T08:54:37Z</time>
      </trkpt>
      <trkpt lat="46.80663" lon="6.49954">
        <ele>1128.715</ele>
        <time>2023-10-12T08:54:42Z</time>
      </trkpt>
      <trkpt lat="46.80661" lon="6.49949">
        <ele>1130.622</ele>
        <time>2023-10-12T08:54:47Z</time>
      </trkpt>
      <trkpt lat="46.80659" lon="6.49944">
        <ele>1132.997</ele>
        <time>2023-10-12T08:54:52Z</time>
      </trkpt>
      <trkpt lat="46.80657" lon="6.49942">
        <ele>1133.51</ele>
        <time>2023-10-12T08:54:57Z</time>
      </trkpt>
      <trkpt lat="46.80654" lon="6.49938">
        <ele>1134.836</ele>
        <time>2023-10-12T08:55:02Z</time>
      </trkpt>
      <trkpt lat="46.80651" lon="6.49937">
        <ele>1135.896</ele>
        <time>2023-10-12T08:55:07Z</time>
      </trkpt>
      <trkpt lat="46.80649" lon="6.49935">
        <ele>1136.599</ele>
        <time>2023-10-12T08:55:12Z</time>
      </trkpt>
      <trkpt lat="46.80648" lon="6.49935">
        <ele>1137.952</ele>
        <time>2023-10-12T08:55:17Z</time>
      </trkpt>
      <trkpt lat="46.80646" lon="6.49933">
        <ele>1138.481</ele>
        <time>2023-10-12T08:55:22Z</time>
      </trkpt>
      <trkpt lat="46.80644" lon="6.49932">
        <ele>1139.807</ele>
        <time>2023-10-12T08:55:27Z</time>
      </trkpt>
      <trkpt lat="46.8064" lon="6.4993">
        <ele>1141.112</ele>
        <time>2023-10-12T08:55:32Z</time>
      </trkpt>
      <trkpt lat="46.80638" lon="6.49928">
        <ele>1143.053</ele>
        <time>2023-10-12T08:55:37Z</time>
      </trkpt>
      <trkpt lat="46.80637" lon="6.49927">
        <ele>1142.392</ele>
        <time>2023-10-12T08:55:42Z</time>
      </trkpt>
      <trkpt lat="46.80635" lon="6.49923">
        <ele>1143.531</ele>
        <time>2023-10-12T08:55:47Z</time>
      </trkpt>
      <trkpt lat="46.80634" lon="6.49917">
        <ele>1144.201</ele>
        <time>2023-10-12T08:55:52Z</time>
      </trkpt>
      <trkpt lat="46.80633" lon="6.4991">
        <ele>1144.493</ele>
        <time>2023-10-12T08:55:57Z</time>
      </trkpt>
      <trkpt lat="46.80632" lon="6.49905">
        <ele>1143.958</ele>
        <time>2023-10-12T08:56:02Z</time>
      </trkpt>
      <trkpt lat="46.8063" lon="6.499">
        <ele>1141.976</ele>
        <time>2023-10-12T08:56:07Z</time>
      </trkpt>
      <trkpt lat="46.80628" lon="6.49895">
        <ele>1141.834</ele>
        <time>2023-10-12T08:56:12Z</time>
      </trkpt>
      <trkpt lat="46.80626" lon="6.49889">
        <ele>1141.886</ele>
        <time>2023-10-12T08:56:17Z</time>
      </trkpt>
      <trkpt lat="46.80624" lon="6.49885">
        <ele>1141.014</ele>
        <time>2023-10-12T08:56:22Z</time>
      </trkpt>
      <trkpt lat="46.80623" lon="6.4988">
        <ele>1143.349</ele>
        <time>2023-10-12T08:56:27Z</time>
      </trkpt>
      <trkpt lat="46.80621" lon="6.49877">
        <ele>1143.103</ele>
        <time>2023-10-12T08:56:32Z</time>
      </trkpt>
      <trkpt lat="46.80619" lon="6.49872">
        <ele>1143.23</ele>
        <time>2023-10-12T08:56:37Z</time>
      </trkpt>
      <trkpt lat="46.80616" lon="6.49869">
        <ele>1141.875</ele>
        <time>2023-10-12T08:56:42Z</time>
      </trkpt>
      <trkpt lat="46.80614" lon="6.49865">
        <ele>1141.7</ele>
        <time>2023-10-12T08:56:47Z</time>
      </trkpt>
      <trkpt lat="46.80612" lon="6.49859">
        <ele>1142.753</ele>
        <time>2023-10-12T08:56:52Z</time>
      </trkpt>
      <trkpt lat="46.80609" lon="6.49853">
        <ele>1143.014</ele>
        <time>2023-10-12T08:56:57Z</time>
      </trkpt>
      <trkpt lat="46.80607" lon="6.49847">
        <ele>1143.29</ele>
        <time>2023-10-12T08:57:02Z</time>
      </trkpt>
      <trkpt lat="46.80604" lon="6.49843">
        <ele>1145.319</ele>
        <time>2023-10-12T08:57:07Z</time>
      </trkpt>
      <trkpt lat="46.80602" lon="6.4984">
        <ele>1145.466</ele>
        <time>2023-10-12T08:57:12Z</time>
      </trkpt>
      <trkpt lat="46.806" lon="6.49837">
        <ele>1145.633</ele>
        <time>2023-10-12T08:57:17Z</time>
      </trkpt>
      <trkpt lat="46.80597" lon="6.49834">
        <ele>1146.269</ele>
        <time>2023-10-12T08:57:22Z</time>
      </trkpt>
      <trkpt lat="46.80595" lon="6.49831">
        <ele>1148.229</ele>
        <time>2023-10-12T08:57:27Z</time>
      </trkpt>
      <trkpt lat="46.80593" lon="6.49828">
        <ele>1149.974</ele>
        <time>2023-10-12T08:57:32Z</time>
      </trkpt>
      <trkpt lat="46.80591" lon="6.49827">
        <ele>1149.987</ele>
        <time>2023-10-12T08:57:37Z</time>
      </trkpt>
      <trkpt lat="46.80588" lon="6.49826">
        <ele>1150.398</ele>
        <time>2023-10-12T08:57:42Z</time>
      </trkpt>
      <trkpt lat="46.80586" lon="6.49824">
        <ele>1150.847</ele>
        <time>2023-10-12T08:57:47Z</time>
      </trkpt>
      <trkpt lat="46.80584" lon="6.49821">
        <ele>1151.854</ele>
        <time>2023-10-12T08:57:52Z</time>
      </trkpt>
      <trkpt lat="46.80581" lon="6.49819">
        <ele>1153.177</ele>
        <time>2023-10-12T08:57:57Z</time>
      </trkpt>
      <trkpt lat="46.80579" lon="6.49817">
        <ele>1154.134</ele>
        <time>2023-10-12T08:58:02Z</time>
      </trkpt>
      <trkpt lat="46.80578" lon="6.49815">
        <ele>1154.54</ele>
        <time>2023-10-12T08:58:07Z</time>
      </trkpt>
      <trkpt lat="46.80576" lon="6.49814">
        <ele>1155.448</ele>
        <time>2023-10-12T08:58:12Z</time>
      </trkpt>
      <trkpt lat="46.80574" lon="6.49811">
        <ele>1155.543</ele>
        <time>2023-10-12T08:58:17Z</time>
      </trkpt>
      <trkpt lat="46.80572" lon="6.4981">
        <ele>1158.416</ele>
        <time>2023-10-12T08:58:22Z</time>
      </trkpt>
      <trkpt lat="46.80569" lon="6.49808">
        <ele>1158.093</ele>
        <time>2023-10-12T08:58:27Z</time>
      </trkpt>
      <trkpt lat="46.80566" lon="6.49804">
        <ele>1159.182</ele>
        <time>2023-10-12T08:58:32Z</time>
      </trkpt>
      <trkpt lat="46.80564" lon="6.49801">
        <ele>1160.509</ele>
        <time>2023-10-12T08:58:37Z</time>
      </trkpt>
      <trkpt lat="46.80562" lon="6.49799">
        <ele>1160.255</ele>
        <time>2023-10-12T08:58:42Z</time>
      </trkpt>
      <trkpt lat="46.80559" lon="6.49797">
        <ele>1161.671</ele>
        <time>2023-10-12T08:58:47Z</time>
      </trkpt>
      <trkpt lat="46.80558" lon="6.49794">
        <ele>1161.913</ele>
        <time>2023-10-12T08:58:52Z</time>
      </trkpt>
      <trkpt lat="46.80556" lon="6.4979">
        <ele>1161.107</ele>
        <time>2023-10-12T08:58:57Z</time>
      </trkpt>
      <trkpt lat="46.80553" lon="6.49785">
        <ele>1164</ele>
        <time>2023-10-12T08:59:02Z</time>
      </trkpt>
      <trkpt lat="46.80551" lon="6.49782">
        <ele>1162.327</ele>
        <time>2023-10-12T08:59:07Z</time>
      </trkpt>
      <trkpt lat="46.80548" lon="6.4978">
        <ele>1161.889</ele>
        <time>2023-10-12T08:59:12Z</time>
      </trkpt>
      <trkpt lat="46.80546" lon="6.49778">
        <ele>1161.791</ele>
        <time>2023-10-12T08:59:17Z</time>
      </trkpt>
      <trkpt lat="46.80544" lon="6.49774">
        <ele>1163.233</ele>
        <time>2023-10-12T08:59:22Z</time>
      </trkpt>
      <trkpt lat="46.80542" lon="6.4977">
        <ele>1165.005</ele>
        <time>2023-10-12T08:59:27Z</time>
      </trkpt>
      <trkpt lat="46.80539" lon="6.49766">
        <ele>1165.867</ele>
        <time>2023-10-12T08:59:32Z</time>
      </trkpt>
      <trkpt lat="46.80536" lon="6.49764">
        <ele>1166.081</ele>
        <time>2023-10-12T08:59:37Z</time>
      </trkpt>
      <trkpt lat="46.80535" lon="6.4976">
        <ele>1166.933</ele>
        <time>2023-10-12T08:59:42Z</time>
      </trkpt>
      <trkpt lat="46.80533" lon="6.49757">
        <ele>1166.073</ele>
        <time>2023-10-12T08:59:47Z</time>
      </trkpt>
      <trkpt lat="46.80532" lon="6.49753">
        <ele>1168.094</ele>
        <time>2023-10-12T08:59:52Z</time>
      </trkpt>
      <trkpt lat="46.80531" lon="6.49749">
        <ele>1170.192</ele>
        <time>2023-10-12T08:59:57Z</time>
      </trkpt>
      <trkpt lat="46.80529" lon="6.49747">
        <ele>1172.06</ele>
        <time>2023-10-12T09:00:02Z</time>
      </trkpt>
      <trkpt lat="46.80528" lon="6.49745">
        <ele>1173.935</ele>
        <time>2023-10-12T09:00:07Z</time>
      </trkpt>
      <trkpt lat="46.80526" lon="6.49743">
        <ele>1175.637</ele>
        <time>2023-10-12T09:00:12Z</time>
      </trkpt>
      <trkpt lat="46.80525" lon="6.49744">
        <ele>1175.157</ele>
        <time>2023-10-12T09:00:17Z</time>
      </trkpt>
      <trkpt lat="46.80523" lon="6.49744">
        <ele>1175.309</ele>
        <time>2023-10-12T09:00:22Z</time>
      </trkpt>
      <trkpt lat="46.80522" lon="6.49743">
        <ele>1176.862</ele>
        <time>2023-10-12T09:00:27Z</time>
      </trkpt>
      <trkpt lat="46.8052" lon="6.49742">
        <ele>1176.317</ele>
        <time>2023-10-12T09:00:32Z</time>
      </trkpt>
      <trkpt lat="46.80519" lon="6.49739">
        <ele>1176.037</ele>
        <time>2023-10-12T09:00:37Z</time>
      </trkpt>
      <trkpt lat="46.80516" lon="6.49738">
        <ele>1177.164</ele>
        <time>2023-10-12T09:00:42Z</time>
      </trkpt>
      <trkpt lat="46.80515" lon="6.49736">
        <ele>1177.876</ele>
        <time>2023-10-12T09:00:47Z</time>
      </trkpt>
      <trkpt lat="46.80513" lon="6.49735">
        <ele>1177.769</ele>
        <time>2023-10-12T09:00:52Z</time>
      </trkpt>
      <trkpt lat="46.80511" lon="6.49735">
        <ele>1178.025</ele>
        <time>2023-10-12T09:00:57Z</time>
      </trkpt>
      <trkpt lat="46.8051" lon="6.49735">
        <ele>1177.025</ele>
        <time>2023-10-12T09:01:02Z</time>
      </trkpt>
      <trkpt lat="46.80509" lon="6.49735">
        <ele>1177.296</ele>
        <time>2023-10-12T09:01:07Z</time>
      </trkpt>
      <trkpt lat="46.80506" lon="6.4973">
        <ele>1178.255</ele>
        <time>2023-10-12T09:01:12Z</time>
      </trkpt>
      <trkpt lat="46.80504" lon="6.49726">
        <ele>1179.193</ele>
        <time>2023-10-12T09:01:17Z</time>
      </trkpt>
      <trkpt lat="46.80501" lon="6.49724">
        <ele>1180.227</ele>
        <time>2023-10-12T09:01:22Z</time>
      </trkpt>
      <trkpt lat="46.80499" lon="6.49722">
        <ele>1180.838</ele>
        <time>2023-10-12T09:01:27Z</time>
      </trkpt>
      <trkpt lat="46.80497" lon="6.49721">
        <ele>1182.356</ele>
        <time>2023-10-12T09:01:32Z</time>
      </trkpt>
      <trkpt lat="46.80494" lon="6.49719">
        <ele>1185.901</ele>
        <time>2023-10-12T09:01:37Z</time>
      </trkpt>
      <trkpt lat="46.80493" lon="6.49718">
        <ele>1184.968</ele>
        <time>2023-10-12T09:01:42Z</time>
      </trkpt>
      <trkpt lat="46.8049" lon="6.49715">
        <ele>1185.999</ele>
        <time>2023-10-12T09:01:47Z</time>
      </trkpt>
      <trkpt lat="46.80488" lon="6.49711">
        <ele>1189.393</ele>
        <time>2023-10-12T09:01:52Z</time>
      </trkpt>
      <trkpt lat="46.80486" lon="6.4971">
        <ele>1190.768</ele>
        <time>2023-10-12T09:01:57Z</time>
      </trkpt>
      <trkpt lat="46.80484" lon="6.49709">
        <ele>1190.859</ele>
        <time>2023-10-12T09:02:02Z</time>
      </trkpt>
      <trkpt lat="46.80481" lon="6.49707">
        <ele>1191.527</ele>
        <time>2023-10-12T09:02:07Z</time>
      </trkpt>
      <trkpt lat="46.8048" lon="6.49705">
        <ele>1193.128</ele>
        <time>2023-10-12T09:02:12Z</time>
      </trkpt>
      <trkpt lat="46.80479" lon="6.49703">
        <ele>1193.549</ele>
        <time>2023-10-12T09:02:17Z</time>
      </trkpt>
      <trkpt lat="46.80478" lon="6.497">
        <ele>1192.732</ele>
        <time>2023-10-12T09:02:22Z</time>
      </trkpt>
      <trkpt lat="46.80477" lon="6.49697">
        <ele>1194.359</ele>
        <time>2023-10-12T09:02:27Z</time>
      </trkpt>
      <trkpt lat="46.80475" lon="6.49693">
        <ele>1195.24</ele>
        <time>2023-10-12T09:02:32Z</time>
      </trkpt>
      <trkpt lat="46.80473" lon="6.4969">
        <ele>1195.317</ele>
        <time>2023-10-12T09:02:37Z</time>
      </trkpt>
      <trkpt lat="46.80472" lon="6.49687">
        <ele>1195.729</ele>
        <time>2023-10-12T09:02:42Z</time>
      </trkpt>
      <trkpt lat="46.80471" lon="6.49684">
        <ele>1197.526</ele>
        <time>2023-10-12T09:02:47Z</time>
      </trkpt>
      <trkpt lat="46.80469" lon="6.49683">
        <ele>1197.158</ele>
        <time>2023-10-12T09:02:52Z</time>
      </trkpt>
      <trkpt lat="46.80468" lon="6.49681">
        <ele>1196.966</ele>
        <time>2023-10-12T09:02:57Z</time>
      </trkpt>
      <trkpt lat="46.80466" lon="6.4968">
        <ele>1194.313</ele>
        <time>2023-10-12T09:03:02Z</time>
      </trkpt>
      <trkpt lat="46.80465" lon="6.49679">
        <ele>1192.822</ele>
        <time>2023-10-12T09:03:07Z</time>
      </trkpt>
      <trkpt lat="46.80464" lon="6.49677">
        <ele>1193.545</ele>
        <time>2023-10-12T09:03:12Z</time>
      </trkpt>
      <trkpt lat="46.80463" lon="6.49673">
        <ele>1193.206</ele>
        <time>2023-10-12T09:03:17Z</time>
      </trkpt>
      <trkpt lat="46.80461" lon="6.49671">
        <ele>1194.349</ele>
        <time>2023-10-12T09:03:22Z</time>
      </trkpt>
      <trkpt lat="46.80459" lon="6.4967">
        <ele>1197.092</ele>
        <time>2023-10-12T09:03:27Z</time>
      </trkpt>
      <trkpt lat="46.80457" lon="6.49668">
        <ele>1198.184</ele>
        <time>2023-10-12T09:03:32Z</time>
      </trkpt>
      <trkpt lat="46.80456" lon="6.49665">
        <ele>1200.834</ele>
        <time>2023-10-12T09:03:37Z</time>
      </trkpt>
      <trkpt lat="46.80454" lon="6.49663">
        <ele>1202.381</ele>
        <time>2023-10-12T09:03:42Z</time>
      </trkpt>
      <trkpt lat="46.80454" lon="6.49662">
        <ele>1204.514</ele>
        <time>2023-10-12T09:03:47Z</time>
      </trkpt>
      <trkpt lat="46.80454" lon="6.49661">
        <ele>1203.873</ele>
        <time>2023-10-12T09:03:52Z</time>
      </trkpt>
      <trkpt lat="46.8045" lon="6.4966">
        <ele>1203.885</ele>
        <time>2023-10-12T09:03:57Z</time>
      </trkpt>
      <trkpt lat="46.80449" lon="6.4966">
        <ele>1204.774</ele>
        <time>2023-10-12T09:04:02Z</time>
      </trkpt>
      <trkpt lat="46.80447" lon="6.49659">
        <ele>1205.403</ele>
        <time>2023-10-12T09:04:07Z</time>
      </trkpt>
      <trkpt lat="46.80446" lon="6.49658">
        <ele>1204.461</ele>
        <time>2023-10-12T09:04:12Z</time>
      </trkpt>
      <trkpt lat="46.80444" lon="6.49656">
        <ele>1203.934</ele>
        <time>2023-10-12T09:04:17Z</time>
      </trkpt>
      <trkpt lat="46.80443" lon="6.49654">
        <ele>1206.203</ele>
        <time>2023-10-12T09:04:22Z</time>
      </trkpt>
      <trkpt lat="46.80441" lon="6.49652">
        <ele>1207.429</ele>
        <time>2023-10-12T09:04:27Z</time>
      </trkpt>
      <trkpt lat="46.8044" lon="6.49649">
        <ele>1209.138</ele>
        <time>2023-10-12T09:04:32Z</time>
      </trkpt>
      <trkpt lat="46.80439" lon="6.49647">
        <ele>1209.713</ele>
        <time>2023-10-12T09:04:37Z</time>
      </trkpt>
      <trkpt lat="46.80438" lon="6.49645">
        <ele>1210.812</ele>
        <time>2023-10-12T09:04:42Z</time>
      </trkpt>
      <trkpt lat="46.80436" lon="6.49642">
        <ele>1211.921</ele>
        <time>2023-10-12T09:04:47Z</time>
      </trkpt>
      <trkpt lat="46.80435" lon="6.49641">
        <ele>1211.348</ele>
        <time>2023-10-12T09:04:52Z</time>
      </trkpt>
      <trkpt lat="46.80434" lon="6.49639">
        <ele>1214.001</ele>
        <time>2023-10-12T09:04:57Z</time>
      </trkpt>
      <trkpt lat="46.80432" lon="6.49637">
        <ele>1215.037</ele>
        <time>2023-10-12T09:05:02Z</time>
      </trkpt>
      <trkpt lat="46.80431" lon="6.49635">
        <ele>1215.622</ele>
        <time>2023-10-12T09:05:07Z</time>
      </trkpt>
      <trkpt lat="46.80429" lon="6.49633">
        <ele>1213.834</ele>
        <time>2023-10-12T09:05:12Z</time>
      </trkpt>
      <trkpt lat="46.80428" lon="6.4963">
        <ele>1214.594</ele>
        <time>2023-10-12T09:05:17Z</time>
      </trkpt>
      <trkpt lat="46.80426" lon="6.49628">
        <ele>1212.506</ele>
        <time>2023-10-12T09:05:22Z</time>
      </trkpt>
      <trkpt lat="46.80424" lon="6.49626">
        <ele>1213.478</ele>
        <time>2023-10-12T09:05:27Z</time>
      </trkpt>
      <trkpt lat="46.80423" lon="6.49623">
        <ele>1215.599</ele>
        <time>2023-10-12T09:05:32Z</time>
      </trkpt>
      <trkpt lat="46.80421" lon="6.49621">
        <ele>1217.915</ele>
        <time>2023-10-12T09:05:37Z</time>
      </trkpt>
      <trkpt lat="46.8042" lon="6.49618">
        <ele>1219.362</ele>
        <time>2023-10-12T09:05:42Z</time>
      </trkpt>
      <trkpt lat="46.80417" lon="6.49614">
        <ele>1222.658</ele>
        <time>2023-10-12T09:05:47Z</time>
      </trkpt>
      <trkpt lat="46.80415" lon="6.49611">
        <ele>1223.55</ele>
        <time>2023-10-12T09:05:52Z</time>
      </trkpt>
      <trkpt lat="46.80413" lon="6.49608">
        <ele>1225.317</ele>
        <time>2023-10-12T09:05:57Z</time>
      </trkpt>
      <trkpt lat="46.80412" lon="6.49606">
        <ele>1225.122</ele>
        <time>2023-10-12T09:06:02Z</time>
      </trkpt>
      <trkpt lat="46.8041" lon="6.49603">
        <ele>1225.805</ele>
        <time>2023-10-12T09:06:07Z</time>
      </trkpt>
      <trkpt lat="46.80408" lon="6.49601">
        <ele>1225.713</ele>
        <time>2023-10-12T09:06:12Z</time>
      </trkpt>
      <trkpt lat="46.80406" lon="6.49599">
        <ele>1228.712</ele>
        <time>2023-10-12T09:06:17Z</time>
      </trkpt>
      <trkpt lat="46.80404" lon="6.49597">
        <ele>1230.311</ele>
        <time>2023-10-12T09:06:22Z</time>
      </trkpt>
      <trkpt lat="46.80403" lon="6.49594">
        <ele>1231.21</ele>
        <time>2023-10-12T09:06:27Z</time>
      </trkpt>
      <trkpt lat="46.80402" lon="6.49592">
        <ele>1233.241</ele>
        <time>2023-10-12T09:06:32Z</time>
      </trkpt>
      <trkpt lat="46.804" lon="6.49589">
        <ele>1235.241</ele>
        <time>2023-10-12T09:06:37Z</time>
      </trkpt>
      <trkpt lat="46.80399" lon="6.49587">
        <ele>1236.704</ele>
        <time>2023-10-12T09:06:42Z</time>
      </trkpt>
      <trkpt lat="46.80397" lon="6.49586">
        <ele>1236.353</ele>
        <time>2023-10-12T09:06:47Z</time>
      </trkpt>
      <trkpt lat="46.80395" lon="6.49585">
        <ele>1237.198</ele>
        <time>2023-10-12T09:06:52Z</time>
      </trkpt>
      <trkpt lat="46.80393" lon="6.49583">
        <ele>1237.731</ele>
        <time>2023-10-12T09:06:57Z</time>
      </trkpt>
      <trkpt lat="46.80392" lon="6.49582">
        <ele>1237.349</ele>
        <time>2023-10-12T09:07:02Z</time>
      </trkpt>
      <trkpt lat="46.8039" lon="6.4958">
        <ele>1236.345</ele>
        <time>2023-10-12T09:07:07Z</time>
      </trkpt>
      <trkpt lat="46.80388" lon="6.49577">
        <ele>1236.391</ele>
        <time>2023-10-12T09:07:12Z</time>
      </trkpt>
      <trkpt lat="46.80387" lon="6.49574">
        <ele>1237.81</ele>
        <time>2023-10-12T09:07:17Z</time>
      </trkpt>
      <trkpt lat="46.80386" lon="6.49573">
        <ele>1237.793</ele>
        <time>2023-10-12T09:07:22Z</time>
      </trkpt>
      <trkpt lat="46.80385" lon="6.49571">
        <ele>1238.56</ele>
        <time>2023-10-12T09:07:27Z</time>
      </trkpt>
      <trkpt lat="46.80382" lon="6.49569">
        <ele>1239.705</ele>
        <time>2023-10-12T09:07:32Z</time>
      </trkpt>
      <trkpt lat="46.80381" lon="6.49568">
        <ele>1238.544</ele>
        <time>2023-10-12T09:07:37Z</time>
      </trkpt>
      <trkpt lat="46.8038" lon="6.49568">
        <ele>1239.582</ele>
        <time>2023-10-12T09:07:42Z</time>
      </trkpt>
      <trkpt lat="46.80378" lon="6.49567">
        <ele>1240.381</ele>
        <time>2023-10-12T09:07:47Z</time>
      </trkpt>
      <trkpt lat="46.80377" lon="6.49565">
        <ele>1241.703</ele>
        <time>2023-10-12T09:07:52Z</time>
      </trkpt>
      <trkpt lat="46.80375" lon="6.49563">
        <ele>1242.012</ele>
        <time>2023-10-12T09:07:57Z</time>
      </trkpt>
      <trkpt lat="46.80373" lon="6.49561">
        <ele>1242.985</ele>
        <time>2023-10-12T09:08:02Z</time>
      </trkpt>
      <trkpt lat="46.80372" lon="6.49558">
        <ele>1246.753</ele>
        <time>2023-10-12T09:08:07Z</time>
      </trkpt>
      <trkpt lat="46.80371" lon="6.49556">
        <ele>1247.246</ele>
        <time>2023-10-12T09:08:12Z</time>
      </trkpt>
      <trkpt lat="46.8037" lon="6.49555">
        <ele>1248.473</ele>
        <time>2023-10-12T09:08:17Z</time>
      </trkpt>
      <trkpt lat="46.80368" lon="6.49554">
        <ele>1248.859</ele>
        <time>2023-10-12T09:08:22Z</time>
      </trkpt>
      <trkpt lat="46.80367" lon="6.49553">
        <ele>1250.054</ele>
        <time>2023-10-12T09:08:27Z</time>
      </trkpt>
      <trkpt lat="46.80365" lon="6.49553">
        <ele>1247.755</ele>
        <time>2023-10-12T09:08:32Z</time>
      </trkpt>
      <trkpt lat="46.80364" lon="6.49552">
        <ele>1248.323</ele>
        <time>2023-10-12T09:08:37Z</time>
      </trkpt>
      <trkpt lat="46.80362" lon="6.49552">
        <ele>1248.822</ele>
        <time>2023-10-12T09:08:42Z</time>
      </trkpt>
      <trkpt lat="46.8036" lon="6.49551">
        <ele>1251.025</ele>
        <time>2023-10-12T09:08:47Z</time>
      </trkpt>
      <trkpt lat="46.80358" lon="6.49548">
        <ele>1251.055</ele>
        <time>2023-10-12T09:08:52Z</time>
      </trkpt>
      <trkpt lat="46.80356" lon="6.49546">
        <ele>1252.783</ele>
        <time>2023-10-12T09:08:57Z</time>
      </trkpt>
      <trkpt lat="46.80353" lon="6.49543">
        <ele>1254.324</ele>
        <time>2023-10-12T09:09:02Z</time>
      </trkpt>
      <trkpt lat="46.80351" lon="6.4954">
        <ele>1257.593</ele>
        <time>2023-10-12T09:09:07Z</time>
      </trkpt>
      <trkpt lat="46.8035" lon="6.49537">
        <ele>1257.813</ele>
        <time>2023-10-12T09:09:12Z</time>
      </trkpt>
      <trkpt lat="46.80349" lon="6.49538">
        <ele>1258.295</ele>
        <time>2023-10-12T09:09:17Z</time>
      </trkpt>
      <trkpt lat="46.80347" lon="6.49536">
        <ele>1259.781</ele>
        <time>2023-10-12T09:09:22Z</time>
      </trkpt>
      <trkpt lat="46.80346" lon="6.49534">
        <ele>1261.668</ele>
        <time>2023-10-12T09:09:27Z</time>
      </trkpt>
      <trkpt lat="46.80344" lon="6.4953">
        <ele>1263.583</ele>
        <time>2023-10-12T09:09:32Z</time>
      </trkpt>
      <trkpt lat="46.80343" lon="6.49527">
        <ele>1264.202</ele>
        <time>2023-10-12T09:09:37Z</time>
      </trkpt>
      <trkpt lat="46.80342" lon="6.49527">
        <ele>1265.571</ele>
        <time>2023-10-12T09:09:42Z</time>
      </trkpt>
      <trkpt lat="46.8034" lon="6.49525">
        <ele>1265.999</ele>
        <time>2023-10-12T09:09:47Z</time>
      </trkpt>
      <trkpt lat="46.80339" lon="6.49524">
        <ele>1267.117</ele>
        <time>2023-10-12T09:09:52Z</time>
      </trkpt>
      <trkpt lat="46.80337" lon="6.49523">
        <ele>1268.431</ele>
        <time>2023-10-12T09:09:57Z</time>
      </trkpt>
      <trkpt lat="46.80337" lon="6.49527">
        <ele>1267.887</ele>
        <time>2023-10-12T09:10:02Z</time>
      </trkpt>
      <trkpt lat="46.80337" lon="6.49532">
        <ele>1265.789</ele>
        <time>2023-10-12T09:10:07Z</time>
      </trkpt>
      <trkpt lat="46.80337" lon="6.49538">
        <ele>1264.34</ele>
        <time>2023-10-12T09:10:12Z</time>
      </trkpt>
      <trkpt lat="46.80337" lon="6.49542">
        <ele>1264.888</ele>
        <time>2023-10-12T09:10:17Z</time>
      </trkpt>
      <trkpt lat="46.80337" lon="6.49544">
        <ele>1263.348</ele>
        <time>2023-10-12T09:10:22Z</time>
      </trkpt>
      <trkpt lat="46.80337" lon="6.49545">
        <ele>1263.397</ele>
        <time>2023-10-12T09:10:27Z</time>
      </trkpt>
      <trkpt lat="46.80337" lon="6.49545">
        <ele>1263.433</ele>
        <time>2023-10-12T09:10:32Z</time>
      </trkpt>
      <trkpt lat="46.80337" lon="6.49545">
        <ele>1263.477</ele>
        <time>2023-10-12T09:10:37Z</time>
      </trkpt>
      <trkpt lat="46.80337" lon="6.49545">
        <ele>1263.498</ele>
        <time>2023-10-12T09:10:42Z</time>
      </trkpt>
      <trkpt lat="46.80337" lon="6.49545">
        <ele>1263.541</ele>
        <time>2023-10-12T09:10:47Z</time>
      </trkpt>
      <trkpt lat="46.80337" lon="6.49545">
        <ele>1263.601</ele>
        <time>2023-10-12T09:10:52Z</time>
      </trkpt>
      <trkpt lat="46.80337" lon="6.49545">
        <ele>1263.634</ele>
        <time>2023-10-12T09:10:57Z</time>
      </trkpt>
      <trkpt lat="46.80337" lon="6.49545">
        <ele>1263.652</ele>
        <time>2023-10-12T09:11:02Z</time>
      </trkpt>
      <trkpt lat="46.80337" lon="6.49545">
        <ele>1263.678</ele>
        <time>2023-10-12T09:11:07Z</time>
      </trkpt>
      <trkpt lat="46.80337" lon="6.49548">
        <ele>1263.87</ele>
        <time>2023-10-12T09:11:12Z</time>
      </trkpt>
      <trkpt lat="46.80337" lon="6.49549">
        <ele>1263.595</ele>
        <time>2023-10-12T09:11:17Z</time>
      </trkpt>
      <trkpt lat="46.80337" lon="6.49549">
        <ele>1263.359</ele>
        <time>2023-10-12T09:11:22Z</time>
      </trkpt>
      <trkpt lat="46.80337" lon="6.49549">
        <ele>1262.858</ele>
        <time>2023-10-12T09:11:27Z</time>
      </trkpt>
      <trkpt lat="46.80337" lon="6.49549">
        <ele>1262.884</ele>
        <time>2023-10-12T09:11:32Z</time>
      </trkpt>
      <trkpt lat="46.80337" lon="6.49549">
        <ele>1262.735</ele>
        <time>2023-10-12T09:11:37Z</time>
      </trkpt>
      <trkpt lat="46.80338" lon="6.49551">
        <ele>1264.195</ele>
        <time>2023-10-12T09:11:42Z</time>
      </trkpt>
      <trkpt lat="46.8034" lon="6.49557">
        <ele>1262.837</ele>
        <time>2023-10-12T09:11:47Z</time>
      </trkpt>
      <trkpt lat="46.80342" lon="6.49565">
        <ele>1263.788</ele>
        <time>2023-10-12T09:11:52Z</time>
      </trkpt>
      <trkpt lat="46.80343" lon="6.49572">
        <ele>1263.556</ele>
        <time>2023-10-12T09:11:57Z</time>
      </trkpt>
      <trkpt lat="46.80346" lon="6.49579">
        <ele>1263.234</ele>
        <time>2023-10-12T09:12:02Z</time>
      </trkpt>
      <trkpt lat="46.80349" lon="6.49586">
        <ele>1262.501</ele>
        <time>2023-10-12T09:12:07Z</time>
      </trkpt>
      <trkpt lat="46.80351" lon="6.49589">
        <ele>1261.778</ele>
        <time>2023-10-12T09:12:12Z</time>
      </trkpt>
      <trkpt lat="46.80352" lon="6.49593">
        <ele>1260.334</ele>
        <time>2023-10-12T09:12:17Z</time>
      </trkpt>
      <trkpt lat="46.80352" lon="6.49593">
        <ele>1260.407</ele>
        <time>2023-10-12T09:12:22Z</time>
      </trkpt>
      <trkpt lat="46.80352" lon="6.49596">
        <ele>1259.518</ele>
        <time>2023-10-12T09:12:27Z</time>
      </trkpt>
      <trkpt lat="46.80356" lon="6.49601">
        <ele>1259.448</ele>
        <time>2023-10-12T09:12:32Z</time>
      </trkpt>
      <trkpt lat="46.80357" lon="6.49607">
        <ele>1258.155</ele>
        <time>2023-10-12T09:12:37Z</time>
      </trkpt>
      <trkpt lat="46.80359" lon="6.49615">
        <ele>1259.702</ele>
        <time>2023-10-12T09:12:42Z</time>
      </trkpt>
      <trkpt lat="46.80361" lon="6.49622">
        <ele>1260.509</ele>
        <time>2023-10-12T09:12:47Z</time>
      </trkpt>
      <trkpt lat="46.80363" lon="6.49628">
        <ele>1259.166</ele>
        <time>2023-10-12T09:12:52Z</time>
      </trkpt>
      <trkpt lat="46.80365" lon="6.49634">
        <ele>1258.991</ele>
        <time>2023-10-12T09:12:57Z</time>
      </trkpt>
      <trkpt lat="46.80367" lon="6.49641">
        <ele>1258.879</ele>
        <time>2023-10-12T09:13:02Z</time>
      </trkpt>
      <trkpt lat="46.8037" lon="6.49649">
        <ele>1260.199</ele>
        <time>2023-10-12T09:13:07Z</time>
      </trkpt>
      <trkpt lat="46.80373" lon="6.49655">
        <ele>1259.694</ele>
        <time>2023-10-12T09:13:12Z</time>
      </trkpt>
      <trkpt lat="46.80374" lon="6.49659">
        <ele>1260.352</ele>
        <time>2023-10-12T09:13:17Z</time>
      </trkpt>
      <trkpt lat="46.80375" lon="6.4966">
        <ele>1260.12</ele>
        <time>2023-10-12T09:13:22Z</time>
      </trkpt>
      <trkpt lat="46.80375" lon="6.49667">
        <ele>1258.845</ele>
        <time>2023-10-12T09:13:27Z</time>
      </trkpt>
      <trkpt lat="46.80377" lon="6.49674">
        <ele>1258.725</ele>
        <time>2023-10-12T09:13:32Z</time>
      </trkpt>
      <trkpt lat="46.80379" lon="6.49681">
        <ele>1258.473</ele>
        <time>2023-10-12T09:13:37Z</time>
      </trkpt>
      <trkpt lat="46.80381" lon="6.49689">
        <ele>1258.825</ele>
        <time>2023-10-12T09:13:42Z</time>
      </trkpt>
      <trkpt lat="46.80384" lon="6.49696">
        <ele>1258.586</ele>
        <time>2023-10-12T09:13:47Z</time>
      </trkpt>
      <trkpt lat="46.80386" lon="6.49705">
        <ele>1257.722</ele>
        <time>2023-10-12T09:13:52Z</time>
      </trkpt>
      <trkpt lat="46.80387" lon="6.49713">
        <ele>1257.721</ele>
        <time>2023-10-12T09:13:57Z</time>
      </trkpt>
      <trkpt lat="46.80388" lon="6.49719">
        <ele>1256.556</ele>
        <time>2023-10-12T09:14:02Z</time>
      </trkpt>
      <trkpt lat="46.8039" lon="6.49725">
        <ele>1255.695</ele>
        <time>2023-10-12T09:14:07Z</time>
      </trkpt>
      <trkpt lat="46.80392" lon="6.49731">
        <ele>1254.642</ele>
        <time>2023-10-12T09:14:12Z</time>
      </trkpt>
      <trkpt lat="46.80393" lon="6.49733">
        <ele>1253.877</ele>
        <time>2023-10-12T09:14:17Z</time>
      </trkpt>
      <trkpt lat="46.80393" lon="6.49733">
        <ele>1253.924</ele>
        <time>2023-10-12T09:14:22Z</time>
      </trkpt>
      <trkpt lat="46.80393" lon="6.49733">
        <ele>1254.508</ele>
        <time>2023-10-12T09:14:27Z</time>
      </trkpt>
      <trkpt lat="46.80393" lon="6.49733">
        <ele>1253.971</ele>
        <time>2023-10-12T09:14:32Z</time>
      </trkpt>
      <trkpt lat="46.80393" lon="6.49733">
        <ele>1252.691</ele>
        <time>2023-10-12T09:14:37Z</time>
      </trkpt>
      <trkpt lat="46.80393" lon="6.49733">
        <ele>1252.664</ele>
        <time>2023-10-12T09:14:42Z</time>
      </trkpt>
      <trkpt lat="46.80393" lon="6.49733">
        <ele>1252.655</ele>
        <time>2023-10-12T09:14:47Z</time>
      </trkpt>
      <trkpt lat="46.80393" lon="6.49733">
        <ele>1252.804</ele>
        <time>2023-10-12T09:14:52Z</time>
      </trkpt>
      <trkpt lat="46.80393" lon="6.49733">
        <ele>1252.829</ele>
        <time>2023-10-12T09:14:57Z</time>
      </trkpt>
      <trkpt lat="46.80393" lon="6.49733">
        <ele>1252.836</ele>
        <time>2023-10-12T09:15:02Z</time>
      </trkpt>
      <trkpt lat="46.80393" lon="6.49733">
        <ele>1252.836</ele>
        <time>2023-10-12T09:15:07Z</time>
      </trkpt>
      <trkpt lat="46.80393" lon="6.49733">
        <ele>1252.843</ele>
        <time>2023-10-12T09:15:12Z</time>
      </trkpt>
      <trkpt lat="46.80393" lon="6.49733">
        <ele>1252.856</ele>
        <time>2023-10-12T09:15:17Z</time>
      </trkpt>
      <trkpt lat="46.80393" lon="6.49733">
        <ele>1252.89</ele>
        <time>2023-10-12T09:15:22Z</time>
      </trkpt>
      <trkpt lat="46.80393" lon="6.49733">
        <ele>1253</ele>
        <time>2023-10-12T09:15:27Z</time>
      </trkpt>
      <trkpt lat="46.80393" lon="6.49733">
        <ele>1252.988</ele>
        <time>2023-10-12T09:15:32Z</time>
      </trkpt>
      <trkpt lat="46.80393" lon="6.49733">
        <ele>1252.979</ele>
        <time>2023-10-12T09:15:37Z</time>
      </trkpt>
      <trkpt lat="46.80393" lon="6.49733">
        <ele>1252.976</ele>
        <time>2023-10-12T09:15:42Z</time>
      </trkpt>
      <trkpt lat="46.80393" lon="6.49733">
        <ele>1252.975</ele>
        <time>2023-10-12T09:15:47Z</time>
      </trkpt>
      <trkpt lat="46.80393" lon="6.49733">
        <ele>1252.968</ele>
        <time>2023-10-12T09:15:52Z</time>
      </trkpt>
      <trkpt lat="46.80393" lon="6.49733">
        <ele>1254.819</ele>
        <time>2023-10-12T09:15:57Z</time>
      </trkpt>
      <trkpt lat="46.80392" lon="6.49732">
        <ele>1255.966</ele>
        <time>2023-10-12T09:16:02Z</time>
      </trkpt>
      <trkpt lat="46.80392" lon="6.49728">
        <ele>1257.232</ele>
        <time>2023-10-12T09:16:07Z</time>
      </trkpt>
      <trkpt lat="46.80391" lon="6.49724">
        <ele>1258.32</ele>
        <time>2023-10-12T09:16:12Z</time>
      </trkpt>
      <trkpt lat="46.80389" lon="6.4972">
        <ele>1261.174</ele>
        <time>2023-10-12T09:16:17Z</time>
      </trkpt>
      <trkpt lat="46.80387" lon="6.49717">
        <ele>1262.531</ele>
        <time>2023-10-12T09:16:22Z</time>
      </trkpt>
      <trkpt lat="46.80386" lon="6.49715">
        <ele>1264.016</ele>
        <time>2023-10-12T09:16:27Z</time>
      </trkpt>
      <trkpt lat="46.80385" lon="6.49713">
        <ele>1265.316</ele>
        <time>2023-10-12T09:16:32Z</time>
      </trkpt>
      <trkpt lat="46.80385" lon="6.49712">
        <ele>1265.668</ele>
        <time>2023-10-12T09:16:37Z</time>
      </trkpt>
      <trkpt lat="46.80383" lon="6.4971">
        <ele>1266.275</ele>
        <time>2023-10-12T09:16:42Z</time>
      </trkpt>
      <trkpt lat="46.80381" lon="6.49708">
        <ele>1267.446</ele>
        <time>2023-10-12T09:16:47Z</time>
      </trkpt>
      <trkpt lat="46.80379" lon="6.49705">
        <ele>1268.41</ele>
        <time>2023-10-12T09:16:52Z</time>
      </trkpt>
      <trkpt lat="46.80378" lon="6.49703">
        <ele>1268.425</ele>
        <time>2023-10-12T09:16:57Z</time>
      </trkpt>
      <trkpt lat="46.80376" lon="6.49701">
        <ele>1269.63</ele>
        <time>2023-10-12T09:17:02Z</time>
      </trkpt>
      <trkpt lat="46.80374" lon="6.49699">
        <ele>1268.695</ele>
        <time>2023-10-12T09:17:07Z</time>
      </trkpt>
      <trkpt lat="46.80373" lon="6.49696">
        <ele>1269.271</ele>
        <time>2023-10-12T09:17:12Z</time>
      </trkpt>
      <trkpt lat="46.8037" lon="6.49695">
        <ele>1269.015</ele>
        <time>2023-10-12T09:17:17Z</time>
      </trkpt>
      <trkpt lat="46.80368" lon="6.49692">
        <ele>1269.559</ele>
        <time>2023-10-12T09:17:22Z</time>
      </trkpt>
      <trkpt lat="46.80367" lon="6.4969">
        <ele>1269.905</ele>
        <time>2023-10-12T09:17:27Z</time>
      </trkpt>
      <trkpt lat="46.80366" lon="6.49686">
        <ele>1272.019</ele>
        <time>2023-10-12T09:17:32Z</time>
      </trkpt>
      <trkpt lat="46.80364" lon="6.49682">
        <ele>1273.657</ele>
        <time>2023-10-12T09:17:37Z</time>
      </trkpt>
      <trkpt lat="46.80364" lon="6.49679">
        <ele>1273.379</ele>
        <time>2023-10-12T09:17:42Z</time>
      </trkpt>
      <trkpt lat="46.80362" lon="6.49676">
        <ele>1274.091</ele>
        <time>2023-10-12T09:17:47Z</time>
      </trkpt>
      <trkpt lat="46.80361" lon="6.49673">
        <ele>1275.904</ele>
        <time>2023-10-12T09:17:52Z</time>
      </trkpt>
      <trkpt lat="46.8036" lon="6.49671">
        <ele>1277.145</ele>
        <time>2023-10-12T09:17:57Z</time>
      </trkpt>
      <trkpt lat="46.80358" lon="6.4967">
        <ele>1278.889</ele>
        <time>2023-10-12T09:18:02Z</time>
      </trkpt>
      <trkpt lat="46.80357" lon="6.49668">
        <ele>1280.581</ele>
        <time>2023-10-12T09:18:07Z</time>
      </trkpt>
      <trkpt lat="46.80355" lon="6.49664">
        <ele>1281.301</ele>
        <time>2023-10-12T09:18:12Z</time>
      </trkpt>
      <trkpt lat="46.80354" lon="6.49661">
        <ele>1282.09</ele>
        <time>2023-10-12T09:18:17Z</time>
      </trkpt>
      <trkpt lat="46.80353" lon="6.49658">
        <ele>1282.283</ele>
        <time>2023-10-12T09:18:22Z</time>
      </trkpt>
      <trkpt lat="46.80351" lon="6.49655">
        <ele>1282.566</ele>
        <time>2023-10-12T09:18:27Z</time>
      </trkpt>
      <trkpt lat="46.80349" lon="6.49651">
        <ele>1284.853</ele>
        <time>2023-10-12T09:18:32Z</time>
      </trkpt>
      <trkpt lat="46.80347" lon="6.4965">
        <ele>1285.73</ele>
        <time>2023-10-12T09:18:37Z</time>
      </trkpt>
      <trkpt lat="46.80346" lon="6.49647">
        <ele>1286.499</ele>
        <time>2023-10-12T09:18:42Z</time>
      </trkpt>
      <trkpt lat="46.80345" lon="6.49644">
        <ele>1287.857</ele>
        <time>2023-10-12T09:18:47Z</time>
      </trkpt>
      <trkpt lat="46.80343" lon="6.49642">
        <ele>1287.63</ele>
        <time>2023-10-12T09:18:52Z</time>
      </trkpt>
      <trkpt lat="46.80342" lon="6.4964">
        <ele>1288.291</ele>
        <time>2023-10-12T09:18:57Z</time>
      </trkpt>
      <trkpt lat="46.8034" lon="6.49637">
        <ele>1289.176</ele>
        <time>2023-10-12T09:19:02Z</time>
      </trkpt>
      <trkpt lat="46.80338" lon="6.49634">
        <ele>1289.023</ele>
        <time>2023-10-12T09:19:07Z</time>
      </trkpt>
      <trkpt lat="46.80336" lon="6.49632">
        <ele>1290.037</ele>
        <time>2023-10-12T09:19:12Z</time>
      </trkpt>
      <trkpt lat="46.80335" lon="6.4963">
        <ele>1290.235</ele>
        <time>2023-10-12T09:19:17Z</time>
      </trkpt>
      <trkpt lat="46.80333" lon="6.49628">
        <ele>1288.972</ele>
        <time>2023-10-12T09:19:22Z</time>
      </trkpt>
      <trkpt lat="46.80331" lon="6.49628">
        <ele>1288.751</ele>
        <time>2023-10-12T09:19:27Z</time>
      </trkpt>
      <trkpt lat="46.8033" lon="6.49627">
        <ele>1288.454</ele>
        <time>2023-10-12T09:19:32Z</time>
      </trkpt>
      <trkpt lat="46.80328" lon="6.49624">
        <ele>1289.667</ele>
        <time>2023-10-12T09:19:37Z</time>
      </trkpt>
      <trkpt lat="46.80326" lon="6.49622">
        <ele>1290.492</ele>
        <time>2023-10-12T09:19:42Z</time>
      </trkpt>
      <trkpt lat="46.80324" lon="6.4962">
        <ele>1291.866</ele>
        <time>2023-10-12T09:19:47Z</time>
      </trkpt>
      <trkpt lat="46.80322" lon="6.49618">
        <ele>1292.914</ele>
        <time>2023-10-12T09:19:52Z</time>
      </trkpt>
      <trkpt lat="46.80321" lon="6.49616">
        <ele>1294.372</ele>
        <time>2023-10-12T09:19:57Z</time>
      </trkpt>
      <trkpt lat="46.8032" lon="6.49614">
        <ele>1293.67</ele>
        <time>2023-10-12T09:20:02Z</time>
      </trkpt>
      <trkpt lat="46.80317" lon="6.49613">
        <ele>1293.605</ele>
        <time>2023-10-12T09:20:07Z</time>
      </trkpt>
      <trkpt lat="46.80316" lon="6.4961">
        <ele>1293.98</ele>
        <time>2023-10-12T09:20:12Z</time>
      </trkpt>
      <trkpt lat="46.80314" lon="6.49608">
        <ele>1294.632</ele>
        <time>2023-10-12T09:20:17Z</time>
      </trkpt>
      <trkpt lat="46.80312" lon="6.49604">
        <ele>1294.995</ele>
        <time>2023-10-12T09:20:22Z</time>
      </trkpt>
      <trkpt lat="46.80312" lon="6.49602">
        <ele>1296.673</ele>
        <time>2023-10-12T09:20:27Z</time>
      </trkpt>
      <trkpt lat="46.80311" lon="6.496">
        <ele>1297.506</ele>
        <time>2023-10-12T09:20:32Z</time>
      </trkpt>
      <trkpt lat="46.80309" lon="6.49598">
        <ele>1298.87</ele>
        <time>2023-10-12T09:20:37Z</time>
      </trkpt>
      <trkpt lat="46.80308" lon="6.49595">
        <ele>1299.635</ele>
        <time>2023-10-12T09:20:42Z</time>
      </trkpt>
      <trkpt lat="46.80307" lon="6.49593">
        <ele>1299.609</ele>
        <time>2023-10-12T09:20:47Z</time>
      </trkpt>
      <trkpt lat="46.80305" lon="6.4959">
        <ele>1301.636</ele>
        <time>2023-10-12T09:20:52Z</time>
      </trkpt>
      <trkpt lat="46.80303" lon="6.49587">
        <ele>1301.764</ele>
        <time>2023-10-12T09:20:57Z</time>
      </trkpt>
      <trkpt lat="46.80302" lon="6.49585">
        <ele>1302.59</ele>
        <time>2023-10-12T09:21:02Z</time>
      </trkpt>
      <trkpt lat="46.803" lon="6.49582">
        <ele>1302.261</ele>
        <time>2023-10-12T09:21:07Z</time>
      </trkpt>
      <trkpt lat="46.80298" lon="6.4958">
        <ele>1302.542</ele>
        <time>2023-10-12T09:21:12Z</time>
      </trkpt>
      <trkpt lat="46.80297" lon="6.49578">
        <ele>1302.663</ele>
        <time>2023-10-12T09:21:17Z</time>
      </trkpt>
      <trkpt lat="46.80296" lon="6.49578">
        <ele>1302.957</ele>
        <time>2023-10-12T09:21:22Z</time>
      </trkpt>
      <trkpt lat="46.80294" lon="6.49576">
        <ele>1303.911</ele>
        <time>2023-10-12T09:21:27Z</time>
      </trkpt>
      <trkpt lat="46.80292" lon="6.49575">
        <ele>1303.832</ele>
        <time>2023-10-12T09:21:32Z</time>
      </trkpt>
      <trkpt lat="46.8029" lon="6.49573">
        <ele>1304.407</ele>
        <time>2023-10-12T09:21:37Z</time>
      </trkpt>
      <trkpt lat="46.80288" lon="6.49569">
        <ele>1305.855</ele>
        <time>2023-10-12T09:21:42Z</time>
      </trkpt>
      <trkpt lat="46.80287" lon="6.49566">
        <ele>1305.745</ele>
        <time>2023-10-12T09:21:47Z</time>
      </trkpt>
      <trkpt lat="46.80284" lon="6.49564">
        <ele>1306.025</ele>
        <time>2023-10-12T09:21:52Z</time>
      </trkpt>
      <trkpt lat="46.80283" lon="6.49562">
        <ele>1306.56</ele>
        <time>2023-10-12T09:21:57Z</time>
      </trkpt>
      <trkpt lat="46.80282" lon="6.49558">
        <ele>1307.016</ele>
        <time>2023-10-12T09:22:02Z</time>
      </trkpt>
      <trkpt lat="46.8028" lon="6.49554">
        <ele>1308.564</ele>
        <time>2023-10-12T09:22:07Z</time>
      </trkpt>
      <trkpt lat="46.80278" lon="6.49551">
        <ele>1308.961</ele>
        <time>2023-10-12T09:22:12Z</time>
      </trkpt>
      <trkpt lat="46.80276" lon="6.49548">
        <ele>1309.801</ele>
        <time>2023-10-12T09:22:17Z</time>
      </trkpt>
      <trkpt lat="46.80274" lon="6.49546">
        <ele>1310.143</ele>
        <time>2023-10-12T09:22:22Z</time>
      </trkpt>
      <trkpt lat="46.80272" lon="6.49543">
        <ele>1309.147</ele>
        <time>2023-10-12T09:22:27Z</time>
      </trkpt>
      <trkpt lat="46.8027" lon="6.4954">
        <ele>1310.91</ele>
        <time>2023-10-12T09:22:32Z</time>
      </trkpt>
      <trkpt lat="46.80268" lon="6.49537">
        <ele>1311.162</ele>
        <time>2023-10-12T09:22:37Z</time>
      </trkpt>
      <trkpt lat="46.80266" lon="6.49533">
        <ele>1311.924</ele>
        <time>2023-10-12T09:22:42Z</time>
      </trkpt>
      <trkpt lat="46.80264" lon="6.4953">
        <ele>1312.948</ele>
        <time>2023-10-12T09:22:47Z</time>
      </trkpt>
      <trkpt lat="46.80262" lon="6.49527">
        <ele>1313.216</ele>
        <time>2023-10-12T09:22:52Z</time>
      </trkpt>
      <trkpt lat="46.8026" lon="6.49526">
        <ele>1312.178</ele>
        <time>2023-10-12T09:22:57Z</time>
      </trkpt>
      <trkpt lat="46.80258" lon="6.49523">
        <ele>1313.069</ele>
        <time>2023-10-12T09:23:02Z</time>
      </trkpt>
      <trkpt lat="46.80257" lon="6.49522">
        <ele>1314.454</ele>
        <time>2023-10-12T09:23:07Z</time>
      </trkpt>
      <trkpt lat="46.80256" lon="6.4952">
        <ele>1315.915</ele>
        <time>2023-10-12T09:23:12Z</time>
      </trkpt>
      <trkpt lat="46.80255" lon="6.49518">
        <ele>1316.333</ele>
        <time>2023-10-12T09:23:17Z</time>
      </trkpt>
      <trkpt lat="46.80254" lon="6.49515">
        <ele>1317.326</ele>
        <time>2023-10-12T09:23:22Z</time>
      </trkpt>
      <trkpt lat="46.80253" lon="6.49513">
        <ele>1318.77</ele>
        <time>2023-10-12T09:23:27Z</time>
      </trkpt>
      <trkpt lat="46.80252" lon="6.49511">
        <ele>1318.35</ele>
        <time>2023-10-12T09:23:32Z</time>
      </trkpt>
      <trkpt lat="46.80251" lon="6.49509">
        <ele>1319.135</ele>
        <time>2023-10-12T09:23:37Z</time>
      </trkpt>
      <trkpt lat="46.80248" lon="6.49507">
        <ele>1321.813</ele>
        <time>2023-10-12T09:23:42Z</time>
      </trkpt>
      <trkpt lat="46.80246" lon="6.49504">
        <ele>1323.12</ele>
        <time>2023-10-12T09:23:47Z</time>
      </trkpt>
      <trkpt lat="46.80244" lon="6.49503">
        <ele>1322.996</ele>
        <time>2023-10-12T09:23:52Z</time>
      </trkpt>
      <trkpt lat="46.80242" lon="6.49501">
        <ele>1324.48</ele>
        <time>2023-10-12T09:23:57Z</time>
      </trkpt>
      <trkpt lat="46.80241" lon="6.49498">
        <ele>1324.771</ele>
        <time>2023-10-12T09:24:02Z</time>
      </trkpt>
      <trkpt lat="46.80239" lon="6.49495">
        <ele>1325.725</ele>
        <time>2023-10-12T09:24:07Z</time>
      </trkpt>
      <trkpt lat="46.80238" lon="6.49492">
        <ele>1325.657</ele>
        <time>2023-10-12T09:24:12Z</time>
      </trkpt>
      <trkpt lat="46.80236" lon="6.49489">
        <ele>1325.886</ele>
        <time>2023-10-12T09:24:17Z</time>
      </trkpt>
      <trkpt lat="46.80234" lon="6.49487">
        <ele>1326.761</ele>
        <time>2023-10-12T09:24:22Z</time>
      </trkpt>
      <trkpt lat="46.80232" lon="6.49484">
        <ele>1326.867</ele>
        <time>2023-10-12T09:24:27Z</time>
      </trkpt>
      <trkpt lat="46.80229" lon="6.49479">
        <ele>1328.085</ele>
        <time>2023-10-12T09:24:32Z</time>
      </trkpt>
      <trkpt lat="46.80227" lon="6.49476">
        <ele>1328.581</ele>
        <time>2023-10-12T09:24:37Z</time>
      </trkpt>
      <trkpt lat="46.80226" lon="6.49474">
        <ele>1329.989</ele>
        <time>2023-10-12T09:24:42Z</time>
      </trkpt>
      <trkpt lat="46.80223" lon="6.49472">
        <ele>1330.625</ele>
        <time>2023-10-12T09:24:47Z</time>
      </trkpt>
      <trkpt lat="46.80223" lon="6.49469">
        <ele>1330.857</ele>
        <time>2023-10-12T09:24:52Z</time>
      </trkpt>
      <trkpt lat="46.80221" lon="6.49468">
        <ele>1331.199</ele>
        <time>2023-10-12T09:24:57Z</time>
      </trkpt>
      <trkpt lat="46.80219" lon="6.49465">
        <ele>1332.038</ele>
        <time>2023-10-12T09:25:02Z</time>
      </trkpt>
      <trkpt lat="46.80218" lon="6.49462">
        <ele>1333.383</ele>
        <time>2023-10-12T09:25:07Z</time>
      </trkpt>
      <trkpt lat="46.80216" lon="6.4946">
        <ele>1333.751</ele>
        <time>2023-10-12T09:25:12Z</time>
      </trkpt>
      <trkpt lat="46.80214" lon="6.49457">
        <ele>1334.494</ele>
        <time>2023-10-12T09:25:17Z</time>
      </trkpt>
      <trkpt lat="46.80213" lon="6.49454">
        <ele>1335.04</ele>
        <time>2023-10-12T09:25:22Z</time>
      </trkpt>
      <trkpt lat="46.80211" lon="6.49453">
        <ele>1334.704</ele>
        <time>2023-10-12T09:25:27Z</time>
      </trkpt>
      <trkpt lat="46.8021" lon="6.49449">
        <ele>1336.291</ele>
        <time>2023-10-12T09:25:32Z</time>
      </trkpt>
      <trkpt lat="46.80208" lon="6.49448">
        <ele>1335.759</ele>
        <time>2023-10-12T09:25:37Z</time>
      </trkpt>
      <trkpt lat="46.80207" lon="6.49445">
        <ele>1337</ele>
        <time>2023-10-12T09:25:42Z</time>
      </trkpt>
      <trkpt lat="46.80206" lon="6.49444">
        <ele>1338.297</ele>
        <time>2023-10-12T09:25:47Z</time>
      </trkpt>
      <trkpt lat="46.80205" lon="6.49442">
        <ele>1339.449</ele>
        <time>2023-10-12T09:25:52Z</time>
      </trkpt>
      <trkpt lat="46.80204" lon="6.49439">
        <ele>1340.435</ele>
        <time>2023-10-12T09:25:57Z</time>
      </trkpt>
      <trkpt lat="46.80202" lon="6.49437">
        <ele>1341.601</ele>
        <time>2023-10-12T09:26:02Z</time>
      </trkpt>
      <trkpt lat="46.80201" lon="6.49436">
        <ele>1343.138</ele>
        <time>2023-10-12T09:26:07Z</time>
      </trkpt>
      <trkpt lat="46.80199" lon="6.49434">
        <ele>1343.939</ele>
        <time>2023-10-12T09:26:12Z</time>
      </trkpt>
      <trkpt lat="46.80198" lon="6.49431">
        <ele>1344.708</ele>
        <time>2023-10-12T09:26:17Z</time>
      </trkpt>
      <trkpt lat="46.80196" lon="6.49427">
        <ele>1345.024</ele>
        <time>2023-10-12T09:26:22Z</time>
      </trkpt>
      <trkpt lat="46.80194" lon="6.49425">
        <ele>1345.386</ele>
        <time>2023-10-12T09:26:27Z</time>
      </trkpt>
      <trkpt lat="46.80192" lon="6.49423">
        <ele>1346.295</ele>
        <time>2023-10-12T09:26:32Z</time>
      </trkpt>
      <trkpt lat="46.8019" lon="6.49423">
        <ele>1344.069</ele>
        <time>2023-10-12T09:26:37Z</time>
      </trkpt>
      <trkpt lat="46.80189" lon="6.49429">
        <ele>1342.802</ele>
        <time>2023-10-12T09:26:42Z</time>
      </trkpt>
      <trkpt lat="46.80188" lon="6.49434">
        <ele>1342.895</ele>
        <time>2023-10-12T09:26:47Z</time>
      </trkpt>
      <trkpt lat="46.80187" lon="6.49438">
        <ele>1343.78</ele>
        <time>2023-10-12T09:26:52Z</time>
      </trkpt>
      <trkpt lat="46.80186" lon="6.49441">
        <ele>1344.985</ele>
        <time>2023-10-12T09:26:57Z</time>
      </trkpt>
      <trkpt lat="46.80186" lon="6.49445">
        <ele>1346.201</ele>
        <time>2023-10-12T09:27:02Z</time>
      </trkpt>
      <trkpt lat="46.80186" lon="6.49447">
        <ele>1347.317</ele>
        <time>2023-10-12T09:27:07Z</time>
      </trkpt>
      <trkpt lat="46.80186" lon="6.49451">
        <ele>1348.946</ele>
        <time>2023-10-12T09:27:12Z</time>
      </trkpt>
      <trkpt lat="46.80185" lon="6.49453">
        <ele>1349.871</ele>
        <time>2023-10-12T09:27:17Z</time>
      </trkpt>
      <trkpt lat="46.80185" lon="6.49455">
        <ele>1351.078</ele>
        <time>2023-10-12T09:27:22Z</time>
      </trkpt>
      <trkpt lat="46.80184" lon="6.49457">
        <ele>1352.125</ele>
        <time>2023-10-12T09:27:27Z</time>
      </trkpt>
      <trkpt lat="46.80182" lon="6.4946">
        <ele>1354.122</ele>
        <time>2023-10-12T09:27:32Z</time>
      </trkpt>
      <trkpt lat="46.80182" lon="6.49463">
        <ele>1354.11</ele>
        <time>2023-10-12T09:27:37Z</time>
      </trkpt>
      <trkpt lat="46.80183" lon="6.49467">
        <ele>1353.928</ele>
        <time>2023-10-12T09:27:42Z</time>
      </trkpt>
      <trkpt lat="46.80183" lon="6.49471">
        <ele>1353.72</ele>
        <time>2023-10-12T09:27:47Z</time>
      </trkpt>
      <trkpt lat="46.80182" lon="6.49474">
        <ele>1354.607</ele>
        <time>2023-10-12T09:27:52Z</time>
      </trkpt>
      <trkpt lat="46.80182" lon="6.49475">
        <ele>1355.239</ele>
        <time>2023-10-12T09:27:57Z</time>
      </trkpt>
      <trkpt lat="46.80181" lon="6.49477">
        <ele>1356.732</ele>
        <time>2023-10-12T09:28:02Z</time>
      </trkpt>
      <trkpt lat="46.8018" lon="6.49481">
        <ele>1357.384</ele>
        <time>2023-10-12T09:28:07Z</time>
      </trkpt>
      <trkpt lat="46.80179" lon="6.49483">
        <ele>1358.607</ele>
        <time>2023-10-12T09:28:12Z</time>
      </trkpt>
      <trkpt lat="46.80177" lon="6.49486">
        <ele>1358.965</ele>
        <time>2023-10-12T09:28:17Z</time>
      </trkpt>
      <trkpt lat="46.80177" lon="6.49491">
        <ele>1360.022</ele>
        <time>2023-10-12T09:28:22Z</time>
      </trkpt>
      <trkpt lat="46.80176" lon="6.49495">
        <ele>1361.146</ele>
        <time>2023-10-12T09:28:27Z</time>
      </trkpt>
      <trkpt lat="46.80175" lon="6.49499">
        <ele>1361.495</ele>
        <time>2023-10-12T09:28:32Z</time>
      </trkpt>
      <trkpt lat="46.80175" lon="6.49502">
        <ele>1363.32</ele>
        <time>2023-10-12T09:28:37Z</time>
      </trkpt>
      <trkpt lat="46.80175" lon="6.49506">
        <ele>1365.125</ele>
        <time>2023-10-12T09:28:42Z</time>
      </trkpt>
      <trkpt lat="46.80174" lon="6.49509">
        <ele>1366.045</ele>
        <time>2023-10-12T09:28:47Z</time>
      </trkpt>
      <trkpt lat="46.80174" lon="6.49513">
        <ele>1365.408</ele>
        <time>2023-10-12T09:28:52Z</time>
      </trkpt>
      <trkpt lat="46.80174" lon="6.49516">
        <ele>1365.525</ele>
        <time>2023-10-12T09:28:57Z</time>
      </trkpt>
      <trkpt lat="46.80173" lon="6.49519">
        <ele>1366.573</ele>
        <time>2023-10-12T09:29:02Z</time>
      </trkpt>
      <trkpt lat="46.80173" lon="6.49523">
        <ele>1367.588</ele>
        <time>2023-10-12T09:29:07Z</time>
      </trkpt>
      <trkpt lat="46.80174" lon="6.49526">
        <ele>1367.268</ele>
        <time>2023-10-12T09:29:12Z</time>
      </trkpt>
      <trkpt lat="46.80173" lon="6.49529">
        <ele>1367.895</ele>
        <time>2023-10-12T09:29:17Z</time>
      </trkpt>
      <trkpt lat="46.80172" lon="6.49531">
        <ele>1368.088</ele>
        <time>2023-10-12T09:29:22Z</time>
      </trkpt>
      <trkpt lat="46.8017" lon="6.49533">
        <ele>1367.887</ele>
        <time>2023-10-12T09:29:27Z</time>
      </trkpt>
      <trkpt lat="46.80169" lon="6.49536">
        <ele>1368.067</ele>
        <time>2023-10-12T09:29:32Z</time>
      </trkpt>
      <trkpt lat="46.80168" lon="6.4954">
        <ele>1369.374</ele>
        <time>2023-10-12T09:29:37Z</time>
      </trkpt>
      <trkpt lat="46.80167" lon="6.49544">
        <ele>1369.441</ele>
        <time>2023-10-12T09:29:42Z</time>
      </trkpt>
      <trkpt lat="46.80167" lon="6.49549">
        <ele>1370.783</ele>
        <time>2023-10-12T09:29:47Z</time>
      </trkpt>
      <trkpt lat="46.80166" lon="6.49552">
        <ele>1372.25</ele>
        <time>2023-10-12T09:29:52Z</time>
      </trkpt>
      <trkpt lat="46.80166" lon="6.49555">
        <ele>1373.585</ele>
        <time>2023-10-12T09:29:57Z</time>
      </trkpt>
      <trkpt lat="46.80167" lon="6.49558">
        <ele>1373.827</ele>
        <time>2023-10-12T09:30:02Z</time>
      </trkpt>
      <trkpt lat="46.80166" lon="6.49561">
        <ele>1374.274</ele>
        <time>2023-10-12T09:30:07Z</time>
      </trkpt>
      <trkpt lat="46.80167" lon="6.49564">
        <ele>1376.366</ele>
        <time>2023-10-12T09:30:12Z</time>
      </trkpt>
      <trkpt lat="46.80166" lon="6.49566">
        <ele>1377.045</ele>
        <time>2023-10-12T09:30:17Z</time>
      </trkpt>
      <trkpt lat="46.80166" lon="6.49569">
        <ele>1377.571</ele>
        <time>2023-10-12T09:30:22Z</time>
      </trkpt>
      <trkpt lat="46.80164" lon="6.49572">
        <ele>1378.28</ele>
        <time>2023-10-12T09:30:27Z</time>
      </trkpt>
      <trkpt lat="46.80164" lon="6.49576">
        <ele>1378.21</ele>
        <time>2023-10-12T09:30:32Z</time>
      </trkpt>
      <trkpt lat="46.80163" lon="6.49579">
        <ele>1378.152</ele>
        <time>2023-10-12T09:30:37Z</time>
      </trkpt>
      <trkpt lat="46.80162" lon="6.49582">
        <ele>1381.202</ele>
        <time>2023-10-12T09:30:42Z</time>
      </trkpt>
      <trkpt lat="46.80162" lon="6.49586">
        <ele>1380.486</ele>
        <time>2023-10-12T09:30:47Z</time>
      </trkpt>
      <trkpt lat="46.80161" lon="6.49589">
        <ele>1381.02</ele>
        <time>2023-10-12T09:30:52Z</time>
      </trkpt>
      <trkpt lat="46.8016" lon="6.49592">
        <ele>1381.564</ele>
        <time>2023-10-12T09:30:57Z</time>
      </trkpt>
      <trkpt lat="46.8016" lon="6.49595">
        <ele>1384.008</ele>
        <time>2023-10-12T09:31:02Z</time>
      </trkpt>
      <trkpt lat="46.8016" lon="6.49597">
        <ele>1383.664</ele>
        <time>2023-10-12T09:31:07Z</time>
      </trkpt>
      <trkpt lat="46.8016" lon="6.49598">
        <ele>1385.134</ele>
        <time>2023-10-12T09:31:12Z</time>
      </trkpt>
      <trkpt lat="46.8016" lon="6.49601">
        <ele>1385.38</ele>
        <time>2023-10-12T09:31:17Z</time>
      </trkpt>
      <trkpt lat="46.8016" lon="6.49605">
        <ele>1384.908</ele>
        <time>2023-10-12T09:31:22Z</time>
      </trkpt>
      <trkpt lat="46.80158" lon="6.49608">
        <ele>1385.44</ele>
        <time>2023-10-12T09:31:27Z</time>
      </trkpt>
      <trkpt lat="46.80157" lon="6.49611">
        <ele>1386.571</ele>
        <time>2023-10-12T09:31:32Z</time>
      </trkpt>
      <trkpt lat="46.80157" lon="6.49616">
        <ele>1386.855</ele>
        <time>2023-10-12T09:31:37Z</time>
      </trkpt>
      <trkpt lat="46.80157" lon="6.4962">
        <ele>1386.337</ele>
        <time>2023-10-12T09:31:42Z</time>
      </trkpt>
      <trkpt lat="46.80157" lon="6.49624">
        <ele>1387.819</ele>
        <time>2023-10-12T09:31:47Z</time>
      </trkpt>
      <trkpt lat="46.80157" lon="6.49627">
        <ele>1388.153</ele>
        <time>2023-10-12T09:31:52Z</time>
      </trkpt>
      <trkpt lat="46.80156" lon="6.49629">
        <ele>1387.697</ele>
        <time>2023-10-12T09:31:57Z</time>
      </trkpt>
      <trkpt lat="46.80156" lon="6.49632">
        <ele>1387.768</ele>
        <time>2023-10-12T09:32:02Z</time>
      </trkpt>
      <trkpt lat="46.80154" lon="6.49634">
        <ele>1388.979</ele>
        <time>2023-10-12T09:32:07Z</time>
      </trkpt>
      <trkpt lat="46.80153" lon="6.49637">
        <ele>1390.997</ele>
        <time>2023-10-12T09:32:12Z</time>
      </trkpt>
      <trkpt lat="46.80153" lon="6.49639">
        <ele>1391.769</ele>
        <time>2023-10-12T09:32:17Z</time>
      </trkpt>
      <trkpt lat="46.80152" lon="6.49643">
        <ele>1392.395</ele>
        <time>2023-10-12T09:32:22Z</time>
      </trkpt>
      <trkpt lat="46.80151" lon="6.49648">
        <ele>1392.145</ele>
        <time>2023-10-12T09:32:27Z</time>
      </trkpt>
      <trkpt lat="46.80151" lon="6.49653">
        <ele>1392.487</ele>
        <time>2023-10-12T09:32:32Z</time>
      </trkpt>
      <trkpt lat="46.80151" lon="6.49659">
        <ele>1393.67</ele>
        <time>2023-10-12T09:32:37Z</time>
      </trkpt>
      <trkpt lat="46.80151" lon="6.49663">
        <ele>1394.279</ele>
        <time>2023-10-12T09:32:42Z</time>
      </trkpt>
      <trkpt lat="46.8015" lon="6.49667">
        <ele>1395.509</ele>
        <time>2023-10-12T09:32:47Z</time>
      </trkpt>
      <trkpt lat="46.8015" lon="6.4967">
        <ele>1396.117</ele>
        <time>2023-10-12T09:32:52Z</time>
      </trkpt>
      <trkpt lat="46.8015" lon="6.49673">
        <ele>1397.244</ele>
        <time>2023-10-12T09:32:57Z</time>
      </trkpt>
      <trkpt lat="46.80149" lon="6.49668">
        <ele>1397.919</ele>
        <time>2023-10-12T09:33:02Z</time>
      </trkpt>
      <trkpt lat="46.80148" lon="6.49664">
        <ele>1398.471</ele>
        <time>2023-10-12T09:33:07Z</time>
      </trkpt>
      <trkpt lat="46.80147" lon="6.49661">
        <ele>1398.835</ele>
        <time>2023-10-12T09:33:12Z</time>
      </trkpt>
      <trkpt lat="46.80145" lon="6.49656">
        <ele>1400.393</ele>
        <time>2023-10-12T09:33:17Z</time>
      </trkpt>
      <trkpt lat="46.80143" lon="6.49653">
        <ele>1400.965</ele>
        <time>2023-10-12T09:33:22Z</time>
      </trkpt>
      <trkpt lat="46.8014" lon="6.49651">
        <ele>1400.894</ele>
        <time>2023-10-12T09:33:27Z</time>
      </trkpt>
      <trkpt lat="46.80138" lon="6.49649">
        <ele>1401.941</ele>
        <time>2023-10-12T09:33:32Z</time>
      </trkpt>
      <trkpt lat="46.80137" lon="6.49647">
        <ele>1402.972</ele>
        <time>2023-10-12T09:33:37Z</time>
      </trkpt>
      <trkpt lat="46.80134" lon="6.49644">
        <ele>1403.616</ele>
        <time>2023-10-12T09:33:42Z</time>
      </trkpt>
      <trkpt lat="46.80132" lon="6.49642">
        <ele>1405.263</ele>
        <time>2023-10-12T09:33:47Z</time>
      </trkpt>
      <trkpt lat="46.8013" lon="6.49639">
        <ele>1405.426</ele>
        <time>2023-10-12T09:33:52Z</time>
      </trkpt>
      <trkpt lat="46.80127" lon="6.49638">
        <ele>1406.841</ele>
        <time>2023-10-12T09:33:57Z</time>
      </trkpt>
      <trkpt lat="46.80126" lon="6.49635">
        <ele>1407.731</ele>
        <time>2023-10-12T09:34:02Z</time>
      </trkpt>
      <trkpt lat="46.80124" lon="6.49634">
        <ele>1407.779</ele>
        <time>2023-10-12T09:34:07Z</time>
      </trkpt>
      <trkpt lat="46.80123" lon="6.49632">
        <ele>1408.275</ele>
        <time>2023-10-12T09:34:12Z</time>
      </trkpt>
      <trkpt lat="46.80122" lon="6.49631">
        <ele>1408.2</ele>
        <time>2023-10-12T09:34:17Z</time>
      </trkpt>
      <trkpt lat="46.8012" lon="6.49629">
        <ele>1409.641</ele>
        <time>2023-10-12T09:34:22Z</time>
      </trkpt>
      <trkpt lat="46.80118" lon="6.49627">
        <ele>1410.35</ele>
        <time>2023-10-12T09:34:27Z</time>
      </trkpt>
      <trkpt lat="46.80117" lon="6.49625">
        <ele>1410.282</ele>
        <time>2023-10-12T09:34:32Z</time>
      </trkpt>
      <trkpt lat="46.80114" lon="6.49622">
        <ele>1411.275</ele>
        <time>2023-10-12T09:34:37Z</time>
      </trkpt>
      <trkpt lat="46.80113" lon="6.49618">
        <ele>1413.283</ele>
        <time>2023-10-12T09:34:42Z</time>
      </trkpt>
      <trkpt lat="46.8011" lon="6.49616">
        <ele>1413.938</ele>
        <time>2023-10-12T09:34:47Z</time>
      </trkpt>
      <trkpt lat="46.80108" lon="6.49613">
        <ele>1413.955</ele>
        <time>2023-10-12T09:34:52Z</time>
      </trkpt>
      <trkpt lat="46.80106" lon="6.4961">
        <ele>1413.275</ele>
        <time>2023-10-12T09:34:57Z</time>
      </trkpt>
      <trkpt lat="46.80104" lon="6.49607">
        <ele>1413.565</ele>
        <time>2023-10-12T09:35:02Z</time>
      </trkpt>
      <trkpt lat="46.80102" lon="6.49605">
        <ele>1413.004</ele>
        <time>2023-10-12T09:35:07Z</time>
      </trkpt>
      <trkpt lat="46.801" lon="6.49602">
        <ele>1413.987</ele>
        <time>2023-10-12T09:35:12Z</time>
      </trkpt>
      <trkpt lat="46.80098" lon="6.496">
        <ele>1414.748</ele>
        <time>2023-10-12T09:35:17Z</time>
      </trkpt>
      <trkpt lat="46.80096" lon="6.49597">
        <ele>1415.726</ele>
        <time>2023-10-12T09:35:22Z</time>
      </trkpt>
      <trkpt lat="46.80095" lon="6.49593">
        <ele>1415.489</ele>
        <time>2023-10-12T09:35:27Z</time>
      </trkpt>
      <trkpt lat="46.80094" lon="6.49591">
        <ele>1413.816</ele>
        <time>2023-10-12T09:35:32Z</time>
      </trkpt>
      <trkpt lat="46.80092" lon="6.49587">
        <ele>1413.924</ele>
        <time>2023-10-12T09:35:37Z</time>
      </trkpt>
      <trkpt lat="46.8009" lon="6.49584">
        <ele>1414.802</ele>
        <time>2023-10-12T09:35:42Z</time>
      </trkpt>
      <trkpt lat="46.80089" lon="6.49581">
        <ele>1415.974</ele>
        <time>2023-10-12T09:35:47Z</time>
      </trkpt>
      <trkpt lat="46.80087" lon="6.49578">
        <ele>1416.554</ele>
        <time>2023-10-12T09:35:52Z</time>
      </trkpt>
      <trkpt lat="46.80086" lon="6.49575">
        <ele>1416.554</ele>
        <time>2023-10-12T09:35:57Z</time>
      </trkpt>
      <trkpt lat="46.80085" lon="6.49573">
        <ele>1417.287</ele>
        <time>2023-10-12T09:36:02Z</time>
      </trkpt>
      <trkpt lat="46.80083" lon="6.49571">
        <ele>1417.931</ele>
        <time>2023-10-12T09:36:07Z</time>
      </trkpt>
      <trkpt lat="46.80081" lon="6.49569">
        <ele>1417.827</ele>
        <time>2023-10-12T09:36:12Z</time>
      </trkpt>
      <trkpt lat="46.8008" lon="6.49566">
        <ele>1418.729</ele>
        <time>2023-10-12T09:36:17Z</time>
      </trkpt>
      <trkpt lat="46.80079" lon="6.49562">
        <ele>1418.898</ele>
        <time>2023-10-12T09:36:22Z</time>
      </trkpt>
      <trkpt lat="46.80078" lon="6.49558">
        <ele>1418.009</ele>
        <time>2023-10-12T09:36:27Z</time>
      </trkpt>
      <trkpt lat="46.80076" lon="6.49555">
        <ele>1417.596</ele>
        <time>2023-10-12T09:36:32Z</time>
      </trkpt>
      <trkpt lat="46.80074" lon="6.49551">
        <ele>1419.452</ele>
        <time>2023-10-12T09:36:37Z</time>
      </trkpt>
      <trkpt lat="46.80073" lon="6.49548">
        <ele>1422.211</ele>
        <time>2023-10-12T09:36:42Z</time>
      </trkpt>
      <trkpt lat="46.80072" lon="6.49545">
        <ele>1422.887</ele>
        <time>2023-10-12T09:36:47Z</time>
      </trkpt>
      <trkpt lat="46.8007" lon="6.49541">
        <ele>1423.201</ele>
        <time>2023-10-12T09:36:52Z</time>
      </trkpt>
      <trkpt lat="46.80068" lon="6.49538">
        <ele>1423.097</ele>
        <time>2023-10-12T09:36:57Z</time>
      </trkpt>
      <trkpt lat="46.80067" lon="6.49532">
        <ele>1424.139</ele>
        <time>2023-10-12T09:37:02Z</time>
      </trkpt>
      <trkpt lat="46.80066" lon="6.49529">
        <ele>1425.085</ele>
        <time>2023-10-12T09:37:07Z</time>
      </trkpt>
      <trkpt lat="46.80064" lon="6.49525">
        <ele>1425.612</ele>
        <time>2023-10-12T09:37:12Z</time>
      </trkpt>
      <trkpt lat="46.80062" lon="6.49522">
        <ele>1426.743</ele>
        <time>2023-10-12T09:37:17Z</time>
      </trkpt>
      <trkpt lat="46.8006" lon="6.49519">
        <ele>1426.605</ele>
        <time>2023-10-12T09:37:22Z</time>
      </trkpt>
      <trkpt lat="46.80058" lon="6.49516">
        <ele>1427.764</ele>
        <time>2023-10-12T09:37:27Z</time>
      </trkpt>
      <trkpt lat="46.80057" lon="6.49514">
        <ele>1429.15</ele>
        <time>2023-10-12T09:37:32Z</time>
      </trkpt>
      <trkpt lat="46.80055" lon="6.49511">
        <ele>1430.142</ele>
        <time>2023-10-12T09:37:37Z</time>
      </trkpt>
      <trkpt lat="46.80053" lon="6.49509">
        <ele>1429.879</ele>
        <time>2023-10-12T09:37:42Z</time>
      </trkpt>
      <trkpt lat="46.8005" lon="6.49507">
        <ele>1429.883</ele>
        <time>2023-10-12T09:37:47Z</time>
      </trkpt>
      <trkpt lat="46.80048" lon="6.49505">
        <ele>1428.339</ele>
        <time>2023-10-12T09:37:52Z</time>
      </trkpt>
      <trkpt lat="46.80046" lon="6.49502">
        <ele>1429.911</ele>
        <time>2023-10-12T09:37:57Z</time>
      </trkpt>
      <trkpt lat="46.80044" lon="6.49501">
        <ele>1430.398</ele>
        <time>2023-10-12T09:38:02Z</time>
      </trkpt>
      <trkpt lat="46.80042" lon="6.49498">
        <ele>1430.493</ele>
        <time>2023-10-12T09:38:07Z</time>
      </trkpt>
      <trkpt lat="46.80041" lon="6.49494">
        <ele>1430.796</ele>
        <time>2023-10-12T09:38:12Z</time>
      </trkpt>
      <trkpt lat="46.80039" lon="6.4949">
        <ele>1431.413</ele>
        <time>2023-10-12T09:38:17Z</time>
      </trkpt>
      <trkpt lat="46.80038" lon="6.49488">
        <ele>1431.23</ele>
        <time>2023-10-12T09:38:22Z</time>
      </trkpt>
      <trkpt lat="46.80037" lon="6.49484">
        <ele>1431.527</ele>
        <time>2023-10-12T09:38:27Z</time>
      </trkpt>
      <trkpt lat="46.80035" lon="6.4948">
        <ele>1430.745</ele>
        <time>2023-10-12T09:38:32Z</time>
      </trkpt>
      <trkpt lat="46.80033" lon="6.49481">
        <ele>1433.185</ele>
        <time>2023-10-12T09:38:37Z</time>
      </trkpt>
      <trkpt lat="46.80033" lon="6.49484">
        <ele>1433.069</ele>
        <time>2023-10-12T09:38:42Z</time>
      </trkpt>
      <trkpt lat="46.80033" lon="6.49489">
        <ele>1433.722</ele>
        <time>2023-10-12T09:38:47Z</time>
      </trkpt>
      <trkpt lat="46.80034" lon="6.49495">
        <ele>1433.625</ele>
        <time>2023-10-12T09:38:52Z</time>
      </trkpt>
      <trkpt lat="46.80034" lon="6.49499">
        <ele>1433.328</ele>
        <time>2023-10-12T09:38:57Z</time>
      </trkpt>
      <trkpt lat="46.80034" lon="6.49503">
        <ele>1433.182</ele>
        <time>2023-10-12T09:39:02Z</time>
      </trkpt>
      <trkpt lat="46.80034" lon="6.49507">
        <ele>1432.53</ele>
        <time>2023-10-12T09:39:07Z</time>
      </trkpt>
      <trkpt lat="46.80033" lon="6.49509">
        <ele>1432.354</ele>
        <time>2023-10-12T09:39:12Z</time>
      </trkpt>
      <trkpt lat="46.80031" lon="6.49511">
        <ele>1432.35</ele>
        <time>2023-10-12T09:39:17Z</time>
      </trkpt>
      <trkpt lat="46.8003" lon="6.49514">
        <ele>1432.262</ele>
        <time>2023-10-12T09:39:22Z</time>
      </trkpt>
      <trkpt lat="46.8003" lon="6.49518">
        <ele>1431.506</ele>
        <time>2023-10-12T09:39:27Z</time>
      </trkpt>
      <trkpt lat="46.80028" lon="6.49521">
        <ele>1432.326</ele>
        <time>2023-10-12T09:39:32Z</time>
      </trkpt>
      <trkpt lat="46.80026" lon="6.49522">
        <ele>1433.078</ele>
        <time>2023-10-12T09:39:37Z</time>
      </trkpt>
      <trkpt lat="46.80025" lon="6.49521">
        <ele>1433.488</ele>
        <time>2023-10-12T09:39:42Z</time>
      </trkpt>
      <trkpt lat="46.80025" lon="6.49521">
        <ele>1433.492</ele>
        <time>2023-10-12T09:39:47Z</time>
      </trkpt>
      <trkpt lat="46.80025" lon="6.49521">
        <ele>1432.539</ele>
        <time>2023-10-12T09:39:52Z</time>
      </trkpt>
      <trkpt lat="46.80025" lon="6.49521">
        <ele>1432.311</ele>
        <time>2023-10-12T09:39:57Z</time>
      </trkpt>
      <trkpt lat="46.80025" lon="6.49521">
        <ele>1432.792</ele>
        <time>2023-10-12T09:40:02Z</time>
      </trkpt>
      <trkpt lat="46.80025" lon="6.49521">
        <ele>1432.797</ele>
        <time>2023-10-12T09:40:07Z</time>
      </trkpt>
      <trkpt lat="46.80025" lon="6.49521">
        <ele>1432.798</ele>
        <time>2023-10-12T09:40:12Z</time>
      </trkpt>
      <trkpt lat="46.80025" lon="6.49521">
        <ele>1432.792</ele>
        <time>2023-10-12T09:40:17Z</time>
      </trkpt>
      <trkpt lat="46.80025" lon="6.49521">
        <ele>1432.79</ele>
        <time>2023-10-12T09:40:22Z</time>
      </trkpt>
      <trkpt lat="46.80025" lon="6.49521">
        <ele>1432.792</ele>
        <time>2023-10-12T09:40:27Z</time>
      </trkpt>
      <trkpt lat="46.80025" lon="6.49521">
        <ele>1432.792</ele>
        <time>2023-10-12T09:40:32Z</time>
      </trkpt>
      <trkpt lat="46.80025" lon="6.49521">
        <ele>1432.79</ele>
        <time>2023-10-12T09:40:37Z</time>
      </trkpt>
      <trkpt lat="46.80025" lon="6.49521">
        <ele>1432.787</ele>
        <time>2023-10-12T09:40:42Z</time>
      </trkpt>
      <trkpt lat="46.80025" lon="6.49521">
        <ele>1432.793</ele>
        <time>2023-10-12T09:40:47Z</time>
      </trkpt>
      <trkpt lat="46.80025" lon="6.49521">
        <ele>1432.814</ele>
        <time>2023-10-12T09:40:52Z</time>
      </trkpt>
      <trkpt lat="46.80025" lon="6.49521">
        <ele>1432.842</ele>
        <time>2023-10-12T09:40:57Z</time>
      </trkpt>
      <trkpt lat="46.80025" lon="6.49521">
        <ele>1432.871</ele>
        <time>2023-10-12T09:41:02Z</time>
      </trkpt>
      <trkpt lat="46.80025" lon="6.49521">
        <ele>1432.891</ele>
        <time>2023-10-12T09:41:07Z</time>
      </trkpt>
      <trkpt lat="46.80025" lon="6.49521">
        <ele>1432.911</ele>
        <time>2023-10-12T09:41:12Z</time>
      </trkpt>
      <trkpt lat="46.80025" lon="6.49521">
        <ele>1432.933</ele>
        <time>2023-10-12T09:41:17Z</time>
      </trkpt>
      <trkpt lat="46.80025" lon="6.49521">
        <ele>1432.962</ele>
        <time>2023-10-12T09:41:22Z</time>
      </trkpt>
      <trkpt lat="46.80025" lon="6.49521">
        <ele>1432.988</ele>
        <time>2023-10-12T09:41:27Z</time>
      </trkpt>
      <trkpt lat="46.80025" lon="6.49521">
        <ele>1433.005</ele>
        <time>2023-10-12T09:41:32Z</time>
      </trkpt>
      <trkpt lat="46.80025" lon="6.49521">
        <ele>1433.286</ele>
        <time>2023-10-12T09:41:37Z</time>
      </trkpt>
      <trkpt lat="46.80025" lon="6.49521">
        <ele>1433.482</ele>
        <time>2023-10-12T09:41:42Z</time>
      </trkpt>
      <trkpt lat="46.80025" lon="6.49521">
        <ele>1433.474</ele>
        <time>2023-10-12T09:41:47Z</time>
      </trkpt>
      <trkpt lat="46.80025" lon="6.49521">
        <ele>1433.469</ele>
        <time>2023-10-12T09:41:52Z</time>
      </trkpt>
      <trkpt lat="46.80025" lon="6.49521">
        <ele>1433.464</ele>
        <time>2023-10-12T09:41:57Z</time>
      </trkpt>
      <trkpt lat="46.80025" lon="6.49521">
        <ele>1433.467</ele>
        <time>2023-10-12T09:42:02Z</time>
      </trkpt>
      <trkpt lat="46.80025" lon="6.49521">
        <ele>1433.465</ele>
        <time>2023-10-12T09:42:07Z</time>
      </trkpt>
      <trkpt lat="46.80025" lon="6.49521">
        <ele>1433.457</ele>
        <time>2023-10-12T09:42:12Z</time>
      </trkpt>
      <trkpt lat="46.80025" lon="6.49521">
        <ele>1433.447</ele>
        <time>2023-10-12T09:42:17Z</time>
      </trkpt>
      <trkpt lat="46.80025" lon="6.49521">
        <ele>1434.424</ele>
        <time>2023-10-12T09:42:22Z</time>
      </trkpt>
      <trkpt lat="46.80025" lon="6.49521">
        <ele>1434.432</ele>
        <time>2023-10-12T09:42:26Z</time>
      </trkpt>
      <trkpt lat="46.80025" lon="6.49521">
        <ele>1434.457</ele>
        <time>2023-10-12T09:42:32Z</time>
      </trkpt>
      <trkpt lat="46.80025" lon="6.49521">
        <ele>1434.471</ele>
        <time>2023-10-12T09:42:37Z</time>
      </trkpt>
      <trkpt lat="46.80025" lon="6.49521">
        <ele>1434.479</ele>
        <time>2023-10-12T09:42:42Z</time>
      </trkpt>
      <trkpt lat="46.80025" lon="6.49521">
        <ele>1434.591</ele>
        <time>2023-10-12T09:42:47Z</time>
      </trkpt>
      <trkpt lat="46.80025" lon="6.49521">
        <ele>1434.125</ele>
        <time>2023-10-12T09:42:52Z</time>
      </trkpt>
      <trkpt lat="46.80025" lon="6.49521">
        <ele>1434.151</ele>
        <time>2023-10-12T09:42:57Z</time>
      </trkpt>
      <trkpt lat="46.80025" lon="6.49521">
        <ele>1434.184</ele>
        <time>2023-10-12T09:43:02Z</time>
      </trkpt>
      <trkpt lat="46.80025" lon="6.49521">
        <ele>1434.666</ele>
        <time>2023-10-12T09:43:07Z</time>
      </trkpt>
      <trkpt lat="46.80025" lon="6.49521">
        <ele>1434.553</ele>
        <time>2023-10-12T09:43:12Z</time>
      </trkpt>
      <trkpt lat="46.80025" lon="6.49521">
        <ele>1434.73</ele>
        <time>2023-10-12T09:43:17Z</time>
      </trkpt>
      <trkpt lat="46.80025" lon="6.49521">
        <ele>1435.236</ele>
        <time>2023-10-12T09:43:22Z</time>
      </trkpt>
      <trkpt lat="46.80025" lon="6.49521">
        <ele>1435.446</ele>
        <time>2023-10-12T09:43:27Z</time>
      </trkpt>
      <trkpt lat="46.80025" lon="6.49521">
        <ele>1435.453</ele>
        <time>2023-10-12T09:43:32Z</time>
      </trkpt>
      <trkpt lat="46.80025" lon="6.49521">
        <ele>1435.471</ele>
        <time>2023-10-12T09:43:37Z</time>
      </trkpt>
      <trkpt lat="46.80025" lon="6.49521">
        <ele>1435.499</ele>
        <time>2023-10-12T09:43:42Z</time>
      </trkpt>
      <trkpt lat="46.80025" lon="6.49521">
        <ele>1435.526</ele>
        <time>2023-10-12T09:43:47Z</time>
      </trkpt>
      <trkpt lat="46.80025" lon="6.49521">
        <ele>1435.543</ele>
        <time>2023-10-12T09:43:52Z</time>
      </trkpt>
      <trkpt lat="46.80025" lon="6.49521">
        <ele>1435.571</ele>
        <time>2023-10-12T09:43:57Z</time>
      </trkpt>
      <trkpt lat="46.80025" lon="6.49521">
        <ele>1435.599</ele>
        <time>2023-10-12T09:44:02Z</time>
      </trkpt>
      <trkpt lat="46.80025" lon="6.49521">
        <ele>1435.622</ele>
        <time>2023-10-12T09:44:07Z</time>
      </trkpt>
      <trkpt lat="46.80025" lon="6.49521">
        <ele>1435.627</ele>
        <time>2023-10-12T09:44:12Z</time>
      </trkpt>
      <trkpt lat="46.80025" lon="6.49521">
        <ele>1435.625</ele>
        <time>2023-10-12T09:44:17Z</time>
      </trkpt>
      <trkpt lat="46.80025" lon="6.49521">
        <ele>1435.641</ele>
        <time>2023-10-12T09:44:22Z</time>
      </trkpt>
      <trkpt lat="46.80025" lon="6.49521">
        <ele>1435.663</ele>
        <time>2023-10-12T09:44:27Z</time>
      </trkpt>
      <trkpt lat="46.80025" lon="6.49521">
        <ele>1436.454</ele>
        <time>2023-10-12T09:44:32Z</time>
      </trkpt>
      <trkpt lat="46.80025" lon="6.49521">
        <ele>1436.894</ele>
        <time>2023-10-12T09:44:37Z</time>
      </trkpt>
      <trkpt lat="46.80025" lon="6.49521">
        <ele>1436.937</ele>
        <time>2023-10-12T09:44:42Z</time>
      </trkpt>
      <trkpt lat="46.80025" lon="6.49521">
        <ele>1436.974</ele>
        <time>2023-10-12T09:44:47Z</time>
      </trkpt>
      <trkpt lat="46.80025" lon="6.49521">
        <ele>1436.997</ele>
        <time>2023-10-12T09:44:52Z</time>
      </trkpt>
      <trkpt lat="46.80025" lon="6.49521">
        <ele>1437.037</ele>
        <time>2023-10-12T09:44:57Z</time>
      </trkpt>
      <trkpt lat="46.80025" lon="6.49521">
        <ele>1437.075</ele>
        <time>2023-10-12T09:45:02Z</time>
      </trkpt>
      <trkpt lat="46.80025" lon="6.49521">
        <ele>1437.26</ele>
        <time>2023-10-12T09:45:07Z</time>
      </trkpt>
      <trkpt lat="46.80025" lon="6.49521">
        <ele>1437.277</ele>
        <time>2023-10-12T09:45:12Z</time>
      </trkpt>
      <trkpt lat="46.80025" lon="6.49521">
        <ele>1437.309</ele>
        <time>2023-10-12T09:45:17Z</time>
      </trkpt>
      <trkpt lat="46.80025" lon="6.49521">
        <ele>1437.336</ele>
        <time>2023-10-12T09:45:22Z</time>
      </trkpt>
      <trkpt lat="46.80025" lon="6.49521">
        <ele>1437.356</ele>
        <time>2023-10-12T09:45:27Z</time>
      </trkpt>
      <trkpt lat="46.80025" lon="6.49521">
        <ele>1437.373</ele>
        <time>2023-10-12T09:45:32Z</time>
      </trkpt>
      <trkpt lat="46.80025" lon="6.49521">
        <ele>1437.3</ele>
        <time>2023-10-12T09:45:37Z</time>
      </trkpt>
      <trkpt lat="46.80025" lon="6.49521">
        <ele>1436.73</ele>
        <time>2023-10-12T09:45:42Z</time>
      </trkpt>
      <trkpt lat="46.80025" lon="6.49521">
        <ele>1436.732</ele>
        <time>2023-10-12T09:45:47Z</time>
      </trkpt>
      <trkpt lat="46.80025" lon="6.49521">
        <ele>1436.89</ele>
        <time>2023-10-12T09:45:52Z</time>
      </trkpt>
      <trkpt lat="46.80025" lon="6.49521">
        <ele>1435.54</ele>
        <time>2023-10-12T09:45:57Z</time>
      </trkpt>
      <trkpt lat="46.80025" lon="6.49521">
        <ele>1435.756</ele>
        <time>2023-10-12T09:46:02Z</time>
      </trkpt>
      <trkpt lat="46.80025" lon="6.49521">
        <ele>1434.984</ele>
        <time>2023-10-12T09:46:07Z</time>
      </trkpt>
      <trkpt lat="46.80025" lon="6.49521">
        <ele>1434.966</ele>
        <time>2023-10-12T09:46:12Z</time>
      </trkpt>
      <trkpt lat="46.80025" lon="6.49521">
        <ele>1434.96</ele>
        <time>2023-10-12T09:46:17Z</time>
      </trkpt>
      <trkpt lat="46.80025" lon="6.49521">
        <ele>1434.959</ele>
        <time>2023-10-12T09:46:22Z</time>
      </trkpt>
      <trkpt lat="46.80033" lon="6.49508">
        <ele>1434.95</ele>
        <time>2023-10-12T09:46:27Z</time>
      </trkpt>
      <trkpt lat="46.80033" lon="6.49506">
        <ele>1435.003</ele>
        <time>2023-10-12T09:46:32Z</time>
      </trkpt>
      <trkpt lat="46.80033" lon="6.49499">
        <ele>1433.62</ele>
        <time>2023-10-12T09:46:38Z</time>
      </trkpt>
      <trkpt lat="46.80034" lon="6.49496">
        <ele>1433.256</ele>
        <time>2023-10-12T09:46:43Z</time>
      </trkpt>
      <trkpt lat="46.80034" lon="6.49491">
        <ele>1433.176</ele>
        <time>2023-10-12T09:46:48Z</time>
      </trkpt>
      <trkpt lat="46.80034" lon="6.49487">
        <ele>1433.469</ele>
        <time>2023-10-12T09:46:53Z</time>
      </trkpt>
      <trkpt lat="46.80033" lon="6.49481">
        <ele>1432.631</ele>
        <time>2023-10-12T09:46:58Z</time>
      </trkpt>
      <trkpt lat="46.80033" lon="6.49476">
        <ele>1431.976</ele>
        <time>2023-10-12T09:47:03Z</time>
      </trkpt>
      <trkpt lat="46.80032" lon="6.4947">
        <ele>1432.446</ele>
        <time>2023-10-12T09:47:08Z</time>
      </trkpt>
      <trkpt lat="46.80031" lon="6.49465">
        <ele>1432.37</ele>
        <time>2023-10-12T09:47:13Z</time>
      </trkpt>
      <trkpt lat="46.8003" lon="6.49459">
        <ele>1432.343</ele>
        <time>2023-10-12T09:47:18Z</time>
      </trkpt>
      <trkpt lat="46.80029" lon="6.49453">
        <ele>1434.626</ele>
        <time>2023-10-12T09:47:23Z</time>
      </trkpt>
      <trkpt lat="46.80027" lon="6.49449">
        <ele>1434.657</ele>
        <time>2023-10-12T09:47:28Z</time>
      </trkpt>
      <trkpt lat="46.80025" lon="6.49443">
        <ele>1435.044</ele>
        <time>2023-10-12T09:47:33Z</time>
      </trkpt>
      <trkpt lat="46.80023" lon="6.49439">
        <ele>1436.97</ele>
        <time>2023-10-12T09:47:38Z</time>
      </trkpt>
      <trkpt lat="46.80021" lon="6.49432">
        <ele>1437.454</ele>
        <time>2023-10-12T09:47:43Z</time>
      </trkpt>
      <trkpt lat="46.80019" lon="6.49425">
        <ele>1436.883</ele>
        <time>2023-10-12T09:47:48Z</time>
      </trkpt>
      <trkpt lat="46.80017" lon="6.49419">
        <ele>1437.831</ele>
        <time>2023-10-12T09:47:53Z</time>
      </trkpt>
      <trkpt lat="46.80016" lon="6.49413">
        <ele>1439.333</ele>
        <time>2023-10-12T09:47:58Z</time>
      </trkpt>
      <trkpt lat="46.80014" lon="6.49408">
        <ele>1440.115</ele>
        <time>2023-10-12T09:48:03Z</time>
      </trkpt>
      <trkpt lat="46.80012" lon="6.49403">
        <ele>1440.103</ele>
        <time>2023-10-12T09:48:08Z</time>
      </trkpt>
      <trkpt lat="46.8001" lon="6.49399">
        <ele>1440.987</ele>
        <time>2023-10-12T09:48:13Z</time>
      </trkpt>
      <trkpt lat="46.80008" lon="6.49395">
        <ele>1442.152</ele>
        <time>2023-10-12T09:48:18Z</time>
      </trkpt>
      <trkpt lat="46.80005" lon="6.4939">
        <ele>1441.945</ele>
        <time>2023-10-12T09:48:23Z</time>
      </trkpt>
      <trkpt lat="46.80003" lon="6.49385">
        <ele>1442.485</ele>
        <time>2023-10-12T09:48:28Z</time>
      </trkpt>
      <trkpt lat="46.80002" lon="6.4938">
        <ele>1443.428</ele>
        <time>2023-10-12T09:48:33Z</time>
      </trkpt>
      <trkpt lat="46.80001" lon="6.49373">
        <ele>1444.081</ele>
        <time>2023-10-12T09:48:38Z</time>
      </trkpt>
      <trkpt lat="46.79999" lon="6.49368">
        <ele>1445.229</ele>
        <time>2023-10-12T09:48:43Z</time>
      </trkpt>
      <trkpt lat="46.79996" lon="6.49363">
        <ele>1445.457</ele>
        <time>2023-10-12T09:48:48Z</time>
      </trkpt>
      <trkpt lat="46.79995" lon="6.49359">
        <ele>1446.296</ele>
        <time>2023-10-12T09:48:53Z</time>
      </trkpt>
      <trkpt lat="46.79994" lon="6.49355">
        <ele>1446.963</ele>
        <time>2023-10-12T09:48:58Z</time>
      </trkpt>
      <trkpt lat="46.79991" lon="6.49351">
        <ele>1448.217</ele>
        <time>2023-10-12T09:49:03Z</time>
      </trkpt>
      <trkpt lat="46.79989" lon="6.49347">
        <ele>1448.601</ele>
        <time>2023-10-12T09:49:08Z</time>
      </trkpt>
      <trkpt lat="46.79987" lon="6.49343">
        <ele>1447.914</ele>
        <time>2023-10-12T09:49:13Z</time>
      </trkpt>
      <trkpt lat="46.79985" lon="6.4934">
        <ele>1449.252</ele>
        <time>2023-10-12T09:49:18Z</time>
      </trkpt>
      <trkpt lat="46.79983" lon="6.49334">
        <ele>1450.951</ele>
        <time>2023-10-12T09:49:23Z</time>
      </trkpt>
      <trkpt lat="46.79982" lon="6.49335">
        <ele>1452.252</ele>
        <time>2023-10-12T09:49:28Z</time>
      </trkpt>
      <trkpt lat="46.79981" lon="6.49339">
        <ele>1452.23</ele>
        <time>2023-10-12T09:49:33Z</time>
      </trkpt>
      <trkpt lat="46.79982" lon="6.49342">
        <ele>1452.063</ele>
        <time>2023-10-12T09:49:38Z</time>
      </trkpt>
      <trkpt lat="46.79982" lon="6.49342">
        <ele>1450.68</ele>
        <time>2023-10-12T09:49:43Z</time>
      </trkpt>
      <trkpt lat="46.7998" lon="6.49342">
        <ele>1450.06</ele>
        <time>2023-10-12T09:49:48Z</time>
      </trkpt>
      <trkpt lat="46.7998" lon="6.49346">
        <ele>1445.527</ele>
        <time>2023-10-12T09:49:53Z</time>
      </trkpt>
      <trkpt lat="46.79981" lon="6.49349">
        <ele>1441.885</ele>
        <time>2023-10-12T09:49:58Z</time>
      </trkpt>
      <trkpt lat="46.79984" lon="6.49352">
        <ele>1438.587</ele>
        <time>2023-10-12T09:50:03Z</time>
      </trkpt>
      <trkpt lat="46.79985" lon="6.49354">
        <ele>1436.613</ele>
        <time>2023-10-12T09:50:08Z</time>
      </trkpt>
      <trkpt lat="46.79986" lon="6.49356">
        <ele>1434.212</ele>
        <time>2023-10-12T09:50:13Z</time>
      </trkpt>
      <trkpt lat="46.79989" lon="6.4936">
        <ele>1433.445</ele>
        <time>2023-10-12T09:50:18Z</time>
      </trkpt>
      <trkpt lat="46.79992" lon="6.49364">
        <ele>1431.069</ele>
        <time>2023-10-12T09:50:23Z</time>
      </trkpt>
      <trkpt lat="46.79994" lon="6.49366">
        <ele>1430.347</ele>
        <time>2023-10-12T09:50:28Z</time>
      </trkpt>
      <trkpt lat="46.79996" lon="6.49369">
        <ele>1429.764</ele>
        <time>2023-10-12T09:50:33Z</time>
      </trkpt>
      <trkpt lat="46.79996" lon="6.49372">
        <ele>1428.852</ele>
        <time>2023-10-12T09:50:38Z</time>
      </trkpt>
      <trkpt lat="46.79997" lon="6.49373">
        <ele>1428.58</ele>
        <time>2023-10-12T09:50:43Z</time>
      </trkpt>
      <trkpt lat="46.79999" lon="6.49375">
        <ele>1428.808</ele>
        <time>2023-10-12T09:50:48Z</time>
      </trkpt>
      <trkpt lat="46.8" lon="6.49377">
        <ele>1427.615</ele>
        <time>2023-10-12T09:50:53Z</time>
      </trkpt>
      <trkpt lat="46.80002" lon="6.49378">
        <ele>1427.531</ele>
        <time>2023-10-12T09:50:58Z</time>
      </trkpt>
      <trkpt lat="46.80005" lon="6.49376">
        <ele>1428.649</ele>
        <time>2023-10-12T09:51:03Z</time>
      </trkpt>
      <trkpt lat="46.80008" lon="6.49371">
        <ele>1427.318</ele>
        <time>2023-10-12T09:51:08Z</time>
      </trkpt>
      <trkpt lat="46.80008" lon="6.49371">
        <ele>1429.219</ele>
        <time>2023-10-12T09:51:13Z</time>
      </trkpt>
      <trkpt lat="46.80008" lon="6.49371">
        <ele>1429.477</ele>
        <time>2023-10-12T09:51:18Z</time>
      </trkpt>
      <trkpt lat="46.80008" lon="6.49371">
        <ele>1427.616</ele>
        <time>2023-10-12T09:51:23Z</time>
      </trkpt>
      <trkpt lat="46.80008" lon="6.49371">
        <ele>1424.073</ele>
        <time>2023-10-12T09:51:28Z</time>
      </trkpt>
      <trkpt lat="46.80008" lon="6.49371">
        <ele>1423.475</ele>
        <time>2023-10-12T09:51:33Z</time>
      </trkpt>
      <trkpt lat="46.80008" lon="6.49371">
        <ele>1423.492</ele>
        <time>2023-10-12T09:51:38Z</time>
      </trkpt>
      <trkpt lat="46.80008" lon="6.49371">
        <ele>1424.46</ele>
        <time>2023-10-12T09:51:43Z</time>
      </trkpt>
      <trkpt lat="46.80008" lon="6.49371">
        <ele>1423.688</ele>
        <time>2023-10-12T09:51:48Z</time>
      </trkpt>
      <trkpt lat="46.80008" lon="6.49371">
        <ele>1423.279</ele>
        <time>2023-10-12T09:51:53Z</time>
      </trkpt>
      <trkpt lat="46.8" lon="6.4936">
        <ele>1415.235</ele>
        <time>2023-10-12T10:02:45Z</time>
      </trkpt>
      <trkpt lat="46.79996" lon="6.49362">
        <ele>1417.08</ele>
        <time>2023-10-12T10:02:50Z</time>
      </trkpt>
      <trkpt lat="46.79996" lon="6.49362">
        <ele>1417.094</ele>
        <time>2023-10-12T10:02:55Z</time>
      </trkpt>
      <trkpt lat="46.79996" lon="6.49362">
        <ele>1417.185</ele>
        <time>2023-10-12T10:03:02Z</time>
      </trkpt>
      <trkpt lat="46.79996" lon="6.49362">
        <ele>1417.454</ele>
        <time>2023-10-12T10:03:07Z</time>
      </trkpt>
      <trkpt lat="46.79996" lon="6.49362">
        <ele>1417.754</ele>
        <time>2023-10-12T10:03:12Z</time>
      </trkpt>
      <trkpt lat="46.79996" lon="6.49362">
        <ele>1418.644</ele>
        <time>2023-10-12T10:03:13Z</time>
      </trkpt>
      <trkpt lat="46.79996" lon="6.49362">
        <ele>1418.923</ele>
        <time>2023-10-12T10:03:15Z</time>
      </trkpt>
      <trkpt lat="46.79996" lon="6.49362">
        <ele>1424.526</ele>
        <time>2023-10-12T10:03:17Z</time>
      </trkpt>
      <trkpt lat="46.79996" lon="6.49362">
        <ele>1442.489</ele>
        <time>2023-10-12T10:03:22Z</time>
      </trkpt>
      <trkpt lat="46.79996" lon="6.49362">
        <ele>1438.866</ele>
        <time>2023-10-12T10:03:27Z</time>
      </trkpt>
      <trkpt lat="46.79994" lon="6.49373">
        <ele>1444.399</ele>
        <time>2023-10-12T10:03:32Z</time>
      </trkpt>
      <trkpt lat="46.79992" lon="6.49374">
        <ele>1445.35</ele>
        <time>2023-10-12T10:03:37Z</time>
      </trkpt>
      <trkpt lat="46.79992" lon="6.49375">
        <ele>1445.978</ele>
        <time>2023-10-12T10:03:42Z</time>
      </trkpt>
      <trkpt lat="46.7999" lon="6.49376">
        <ele>1447.477</ele>
        <time>2023-10-12T10:03:47Z</time>
      </trkpt>
      <trkpt lat="46.79988" lon="6.49379">
        <ele>1449.797</ele>
        <time>2023-10-12T10:03:52Z</time>
      </trkpt>
      <trkpt lat="46.79986" lon="6.49381">
        <ele>1452.885</ele>
        <time>2023-10-12T10:03:57Z</time>
      </trkpt>
      <trkpt lat="46.79986" lon="6.49381">
        <ele>1451.66</ele>
        <time>2023-10-12T10:04:02Z</time>
      </trkpt>
      <trkpt lat="46.79986" lon="6.49381">
        <ele>1449.555</ele>
        <time>2023-10-12T10:04:07Z</time>
      </trkpt>
      <trkpt lat="46.79986" lon="6.49381">
        <ele>1447.928</ele>
        <time>2023-10-12T10:04:12Z</time>
      </trkpt>
      <trkpt lat="46.79986" lon="6.49381">
        <ele>1448.562</ele>
        <time>2023-10-12T10:04:17Z</time>
      </trkpt>
      <trkpt lat="46.79986" lon="6.49381">
        <ele>1448.621</ele>
        <time>2023-10-12T10:04:22Z</time>
      </trkpt>
      <trkpt lat="46.79986" lon="6.49381">
        <ele>1448.53</ele>
        <time>2023-10-12T10:04:27Z</time>
      </trkpt>
      <trkpt lat="46.79986" lon="6.49381">
        <ele>1448.565</ele>
        <time>2023-10-12T10:04:32Z</time>
      </trkpt>
      <trkpt lat="46.79986" lon="6.49381">
        <ele>1448.567</ele>
        <time>2023-10-12T10:04:37Z</time>
      </trkpt>
      <trkpt lat="46.79986" lon="6.49381">
        <ele>1448.539</ele>
        <time>2023-10-12T10:04:42Z</time>
      </trkpt>
      <trkpt lat="46.79986" lon="6.49381">
        <ele>1448.509</ele>
        <time>2023-10-12T10:04:47Z</time>
      </trkpt>
      <trkpt lat="46.79986" lon="6.49381">
        <ele>1448.471</ele>
        <time>2023-10-12T10:04:52Z</time>
      </trkpt>
      <trkpt lat="46.79986" lon="6.49381">
        <ele>1448.38</ele>
        <time>2023-10-12T10:04:57Z</time>
      </trkpt>
      <trkpt lat="46.79986" lon="6.49381">
        <ele>1448.215</ele>
        <time>2023-10-12T10:05:02Z</time>
      </trkpt>
      <trkpt lat="46.79986" lon="6.49381">
        <ele>1443.284</ele>
        <time>2023-10-12T10:05:07Z</time>
      </trkpt>
      <trkpt lat="46.7999" lon="6.4938">
        <ele>1444.413</ele>
        <time>2023-10-12T10:05:12Z</time>
      </trkpt>
      <trkpt lat="46.7999" lon="6.4938">
        <ele>1443.059</ele>
        <time>2023-10-12T10:05:17Z</time>
      </trkpt>
      <trkpt lat="46.79994" lon="6.49369">
        <ele>1435.003</ele>
        <time>2023-10-12T10:05:22Z</time>
      </trkpt>
      <trkpt lat="46.79994" lon="6.49367">
        <ele>1434.384</ele>
        <time>2023-10-12T10:05:27Z</time>
      </trkpt>
      <trkpt lat="46.79993" lon="6.49365">
        <ele>1434.92</ele>
        <time>2023-10-12T10:05:32Z</time>
      </trkpt>
      <trkpt lat="46.79991" lon="6.49361">
        <ele>1435.545</ele>
        <time>2023-10-12T10:05:37Z</time>
      </trkpt>
      <trkpt lat="46.7999" lon="6.49356">
        <ele>1436.129</ele>
        <time>2023-10-12T10:05:42Z</time>
      </trkpt>
      <trkpt lat="46.79987" lon="6.49354">
        <ele>1436.915</ele>
        <time>2023-10-12T10:05:47Z</time>
      </trkpt>
      <trkpt lat="46.79985" lon="6.49354">
        <ele>1441.06</ele>
        <time>2023-10-12T10:05:52Z</time>
      </trkpt>
      <trkpt lat="46.79984" lon="6.49352">
        <ele>1439.695</ele>
        <time>2023-10-12T10:05:57Z</time>
      </trkpt>
      <trkpt lat="46.79985" lon="6.49347">
        <ele>1438.885</ele>
        <time>2023-10-12T10:06:02Z</time>
      </trkpt>
      <trkpt lat="46.79984" lon="6.49344">
        <ele>1438.211</ele>
        <time>2023-10-12T10:06:07Z</time>
      </trkpt>
      <trkpt lat="46.79984" lon="6.49342">
        <ele>1442.157</ele>
        <time>2023-10-12T10:06:12Z</time>
      </trkpt>
      <trkpt lat="46.79984" lon="6.49341">
        <ele>1445.053</ele>
        <time>2023-10-12T10:06:17Z</time>
      </trkpt>
      <trkpt lat="46.79984" lon="6.4934">
        <ele>1448.285</ele>
        <time>2023-10-12T10:06:22Z</time>
      </trkpt>
      <trkpt lat="46.79984" lon="6.4934">
        <ele>1448.793</ele>
        <time>2023-10-12T10:06:27Z</time>
      </trkpt>
      <trkpt lat="46.79984" lon="6.4934">
        <ele>1449.807</ele>
        <time>2023-10-12T10:06:32Z</time>
      </trkpt>
      <trkpt lat="46.79984" lon="6.4934">
        <ele>1452.53</ele>
        <time>2023-10-12T10:06:37Z</time>
      </trkpt>
      <trkpt lat="46.79984" lon="6.4934">
        <ele>1453.598</ele>
        <time>2023-10-12T10:06:42Z</time>
      </trkpt>
      <trkpt lat="46.79982" lon="6.49335">
        <ele>1453.346</ele>
        <time>2023-10-12T10:06:47Z</time>
      </trkpt>
      <trkpt lat="46.79981" lon="6.49334">
        <ele>1453.867</ele>
        <time>2023-10-12T10:06:52Z</time>
      </trkpt>
      <trkpt lat="46.79979" lon="6.49331">
        <ele>1453.623</ele>
        <time>2023-10-12T10:06:57Z</time>
      </trkpt>
      <trkpt lat="46.79977" lon="6.49329">
        <ele>1454.596</ele>
        <time>2023-10-12T10:07:02Z</time>
      </trkpt>
      <trkpt lat="46.79976" lon="6.49328">
        <ele>1456.059</ele>
        <time>2023-10-12T10:07:07Z</time>
      </trkpt>
      <trkpt lat="46.79974" lon="6.49324">
        <ele>1456.113</ele>
        <time>2023-10-12T10:07:12Z</time>
      </trkpt>
      <trkpt lat="46.79973" lon="6.4932">
        <ele>1457.155</ele>
        <time>2023-10-12T10:07:17Z</time>
      </trkpt>
      <trkpt lat="46.79972" lon="6.49316">
        <ele>1456.995</ele>
        <time>2023-10-12T10:07:22Z</time>
      </trkpt>
      <trkpt lat="46.7997" lon="6.49314">
        <ele>1457.783</ele>
        <time>2023-10-12T10:07:27Z</time>
      </trkpt>
      <trkpt lat="46.79969" lon="6.49313">
        <ele>1458.632</ele>
        <time>2023-10-12T10:07:32Z</time>
      </trkpt>
      <trkpt lat="46.79968" lon="6.49311">
        <ele>1460.037</ele>
        <time>2023-10-12T10:07:37Z</time>
      </trkpt>
      <trkpt lat="46.79967" lon="6.49308">
        <ele>1461.856</ele>
        <time>2023-10-12T10:07:42Z</time>
      </trkpt>
      <trkpt lat="46.79966" lon="6.49305">
        <ele>1462.093</ele>
        <time>2023-10-12T10:07:47Z</time>
      </trkpt>
      <trkpt lat="46.79965" lon="6.493">
        <ele>1462.233</ele>
        <time>2023-10-12T10:07:52Z</time>
      </trkpt>
      <trkpt lat="46.79963" lon="6.49296">
        <ele>1462.844</ele>
        <time>2023-10-12T10:07:57Z</time>
      </trkpt>
      <trkpt lat="46.79962" lon="6.49292">
        <ele>1464.568</ele>
        <time>2023-10-12T10:08:02Z</time>
      </trkpt>
      <trkpt lat="46.7996" lon="6.49286">
        <ele>1465.193</ele>
        <time>2023-10-12T10:08:07Z</time>
      </trkpt>
      <trkpt lat="46.79958" lon="6.49281">
        <ele>1465.907</ele>
        <time>2023-10-12T10:08:12Z</time>
      </trkpt>
      <trkpt lat="46.79956" lon="6.49277">
        <ele>1467.004</ele>
        <time>2023-10-12T10:08:17Z</time>
      </trkpt>
      <trkpt lat="46.79953" lon="6.49272">
        <ele>1467.708</ele>
        <time>2023-10-12T10:08:22Z</time>
      </trkpt>
      <trkpt lat="46.7995" lon="6.49268">
        <ele>1468.492</ele>
        <time>2023-10-12T10:08:27Z</time>
      </trkpt>
      <trkpt lat="46.79949" lon="6.49261">
        <ele>1468.01</ele>
        <time>2023-10-12T10:08:32Z</time>
      </trkpt>
      <trkpt lat="46.79946" lon="6.49256">
        <ele>1467.177</ele>
        <time>2023-10-12T10:08:37Z</time>
      </trkpt>
      <trkpt lat="46.79945" lon="6.49251">
        <ele>1468.326</ele>
        <time>2023-10-12T10:08:42Z</time>
      </trkpt>
      <trkpt lat="46.79943" lon="6.49246">
        <ele>1468.92</ele>
        <time>2023-10-12T10:08:47Z</time>
      </trkpt>
      <trkpt lat="46.79942" lon="6.49241">
        <ele>1468.828</ele>
        <time>2023-10-12T10:08:52Z</time>
      </trkpt>
      <trkpt lat="46.7994" lon="6.49235">
        <ele>1470.011</ele>
        <time>2023-10-12T10:08:57Z</time>
      </trkpt>
      <trkpt lat="46.79938" lon="6.49232">
        <ele>1469.744</ele>
        <time>2023-10-12T10:09:02Z</time>
      </trkpt>
      <trkpt lat="46.79935" lon="6.49229">
        <ele>1470.055</ele>
        <time>2023-10-12T10:09:07Z</time>
      </trkpt>
      <trkpt lat="46.79933" lon="6.49225">
        <ele>1470.475</ele>
        <time>2023-10-12T10:09:12Z</time>
      </trkpt>
      <trkpt lat="46.79932" lon="6.49221">
        <ele>1470.149</ele>
        <time>2023-10-12T10:09:17Z</time>
      </trkpt>
      <trkpt lat="46.79931" lon="6.49219">
        <ele>1471.104</ele>
        <time>2023-10-12T10:09:22Z</time>
      </trkpt>
      <trkpt lat="46.7993" lon="6.49219">
        <ele>1471.096</ele>
        <time>2023-10-12T10:09:27Z</time>
      </trkpt>
      <trkpt lat="46.7993" lon="6.49219">
        <ele>1471.113</ele>
        <time>2023-10-12T10:09:32Z</time>
      </trkpt>
      <trkpt lat="46.7993" lon="6.49219">
        <ele>1471.08</ele>
        <time>2023-10-12T10:09:37Z</time>
      </trkpt>
      <trkpt lat="46.7993" lon="6.49219">
        <ele>1471.466</ele>
        <time>2023-10-12T10:09:42Z</time>
      </trkpt>
      <trkpt lat="46.79929" lon="6.49218">
        <ele>1471.568</ele>
        <time>2023-10-12T10:09:47Z</time>
      </trkpt>
      <trkpt lat="46.79927" lon="6.49216">
        <ele>1473.403</ele>
        <time>2023-10-12T10:09:52Z</time>
      </trkpt>
      <trkpt lat="46.79926" lon="6.49212">
        <ele>1474.648</ele>
        <time>2023-10-12T10:09:57Z</time>
      </trkpt>
      <trkpt lat="46.79926" lon="6.49208">
        <ele>1475.805</ele>
        <time>2023-10-12T10:10:02Z</time>
      </trkpt>
      <trkpt lat="46.79925" lon="6.49206">
        <ele>1476.591</ele>
        <time>2023-10-12T10:10:07Z</time>
      </trkpt>
      <trkpt lat="46.79924" lon="6.49201">
        <ele>1476.458</ele>
        <time>2023-10-12T10:10:12Z</time>
      </trkpt>
      <trkpt lat="46.79923" lon="6.49196">
        <ele>1477.312</ele>
        <time>2023-10-12T10:10:17Z</time>
      </trkpt>
      <trkpt lat="46.79922" lon="6.49192">
        <ele>1477.693</ele>
        <time>2023-10-12T10:10:22Z</time>
      </trkpt>
      <trkpt lat="46.79921" lon="6.49188">
        <ele>1478.599</ele>
        <time>2023-10-12T10:10:27Z</time>
      </trkpt>
      <trkpt lat="46.7992" lon="6.49183">
        <ele>1478.569</ele>
        <time>2023-10-12T10:10:32Z</time>
      </trkpt>
      <trkpt lat="46.79918" lon="6.49178">
        <ele>1479.101</ele>
        <time>2023-10-12T10:10:37Z</time>
      </trkpt>
      <trkpt lat="46.79915" lon="6.49173">
        <ele>1480.686</ele>
        <time>2023-10-12T10:10:42Z</time>
      </trkpt>
      <trkpt lat="46.79913" lon="6.49169">
        <ele>1480.475</ele>
        <time>2023-10-12T10:10:47Z</time>
      </trkpt>
      <trkpt lat="46.79912" lon="6.49164">
        <ele>1481.188</ele>
        <time>2023-10-12T10:10:52Z</time>
      </trkpt>
      <trkpt lat="46.7991" lon="6.4916">
        <ele>1481.865</ele>
        <time>2023-10-12T10:10:57Z</time>
      </trkpt>
      <trkpt lat="46.79908" lon="6.49157">
        <ele>1481.841</ele>
        <time>2023-10-12T10:11:02Z</time>
      </trkpt>
      <trkpt lat="46.79906" lon="6.49151">
        <ele>1482.137</ele>
        <time>2023-10-12T10:11:07Z</time>
      </trkpt>
      <trkpt lat="46.79903" lon="6.4915">
        <ele>1482.828</ele>
        <time>2023-10-12T10:11:12Z</time>
      </trkpt>
      <trkpt lat="46.799" lon="6.49147">
        <ele>1482.987</ele>
        <time>2023-10-12T10:11:17Z</time>
      </trkpt>
      <trkpt lat="46.79898" lon="6.49143">
        <ele>1483.296</ele>
        <time>2023-10-12T10:11:22Z</time>
      </trkpt>
      <trkpt lat="46.79897" lon="6.49138">
        <ele>1483.623</ele>
        <time>2023-10-12T10:11:27Z</time>
      </trkpt>
      <trkpt lat="46.79894" lon="6.49134">
        <ele>1484.715</ele>
        <time>2023-10-12T10:11:32Z</time>
      </trkpt>
      <trkpt lat="46.79892" lon="6.49131">
        <ele>1485.66</ele>
        <time>2023-10-12T10:11:37Z</time>
      </trkpt>
      <trkpt lat="46.79891" lon="6.49125">
        <ele>1486.289</ele>
        <time>2023-10-12T10:11:42Z</time>
      </trkpt>
      <trkpt lat="46.79891" lon="6.49121">
        <ele>1486.981</ele>
        <time>2023-10-12T10:11:47Z</time>
      </trkpt>
      <trkpt lat="46.79889" lon="6.49116">
        <ele>1486.029</ele>
        <time>2023-10-12T10:11:52Z</time>
      </trkpt>
      <trkpt lat="46.79886" lon="6.49112">
        <ele>1486.187</ele>
        <time>2023-10-12T10:11:57Z</time>
      </trkpt>
      <trkpt lat="46.79884" lon="6.49106">
        <ele>1485.927</ele>
        <time>2023-10-12T10:12:02Z</time>
      </trkpt>
      <trkpt lat="46.79881" lon="6.491">
        <ele>1485.946</ele>
        <time>2023-10-12T10:12:07Z</time>
      </trkpt>
      <trkpt lat="46.79881" lon="6.49095">
        <ele>1486.123</ele>
        <time>2023-10-12T10:12:12Z</time>
      </trkpt>
      <trkpt lat="46.7988" lon="6.4909">
        <ele>1487.908</ele>
        <time>2023-10-12T10:12:17Z</time>
      </trkpt>
      <trkpt lat="46.7988" lon="6.49085">
        <ele>1487.376</ele>
        <time>2023-10-12T10:12:22Z</time>
      </trkpt>
      <trkpt lat="46.7988" lon="6.49081">
        <ele>1488.386</ele>
        <time>2023-10-12T10:12:27Z</time>
      </trkpt>
      <trkpt lat="46.79878" lon="6.49076">
        <ele>1488.2</ele>
        <time>2023-10-12T10:12:32Z</time>
      </trkpt>
      <trkpt lat="46.79877" lon="6.49069">
        <ele>1487.635</ele>
        <time>2023-10-12T10:12:37Z</time>
      </trkpt>
      <trkpt lat="46.79873" lon="6.49064">
        <ele>1487.963</ele>
        <time>2023-10-12T10:12:42Z</time>
      </trkpt>
      <trkpt lat="46.79871" lon="6.4906">
        <ele>1488.377</ele>
        <time>2023-10-12T10:12:47Z</time>
      </trkpt>
      <trkpt lat="46.79869" lon="6.49056">
        <ele>1488.947</ele>
        <time>2023-10-12T10:12:52Z</time>
      </trkpt>
      <trkpt lat="46.79866" lon="6.49051">
        <ele>1489.214</ele>
        <time>2023-10-12T10:12:57Z</time>
      </trkpt>
      <trkpt lat="46.79864" lon="6.49049">
        <ele>1489.531</ele>
        <time>2023-10-12T10:13:02Z</time>
      </trkpt>
      <trkpt lat="46.79863" lon="6.49046">
        <ele>1490.216</ele>
        <time>2023-10-12T10:13:07Z</time>
      </trkpt>
      <trkpt lat="46.79861" lon="6.49043">
        <ele>1489.528</ele>
        <time>2023-10-12T10:13:12Z</time>
      </trkpt>
      <trkpt lat="46.79861" lon="6.49041">
        <ele>1491.075</ele>
        <time>2023-10-12T10:13:17Z</time>
      </trkpt>
      <trkpt lat="46.79859" lon="6.49039">
        <ele>1491.403</ele>
        <time>2023-10-12T10:13:22Z</time>
      </trkpt>
      <trkpt lat="46.79858" lon="6.49034">
        <ele>1491.906</ele>
        <time>2023-10-12T10:13:27Z</time>
      </trkpt>
      <trkpt lat="46.79855" lon="6.49029">
        <ele>1492.812</ele>
        <time>2023-10-12T10:13:32Z</time>
      </trkpt>
      <trkpt lat="46.79853" lon="6.49023">
        <ele>1494.144</ele>
        <time>2023-10-12T10:13:37Z</time>
      </trkpt>
      <trkpt lat="46.7985" lon="6.4902">
        <ele>1494.691</ele>
        <time>2023-10-12T10:13:42Z</time>
      </trkpt>
      <trkpt lat="46.79848" lon="6.49018">
        <ele>1495.728</ele>
        <time>2023-10-12T10:13:47Z</time>
      </trkpt>
      <trkpt lat="46.79846" lon="6.49015">
        <ele>1495.825</ele>
        <time>2023-10-12T10:13:52Z</time>
      </trkpt>
      <trkpt lat="46.79844" lon="6.49009">
        <ele>1497.705</ele>
        <time>2023-10-12T10:13:57Z</time>
      </trkpt>
      <trkpt lat="46.79843" lon="6.49003">
        <ele>1497.62</ele>
        <time>2023-10-12T10:14:02Z</time>
      </trkpt>
      <trkpt lat="46.79842" lon="6.49001">
        <ele>1498.079</ele>
        <time>2023-10-12T10:14:06Z</time>
      </trkpt>
      <trkpt lat="46.79839" lon="6.49">
        <ele>1499.601</ele>
        <time>2023-10-12T10:14:12Z</time>
      </trkpt>
      <trkpt lat="46.79837" lon="6.48997">
        <ele>1498.718</ele>
        <time>2023-10-12T10:14:17Z</time>
      </trkpt>
      <trkpt lat="46.79835" lon="6.48993">
        <ele>1499.616</ele>
        <time>2023-10-12T10:14:22Z</time>
      </trkpt>
      <trkpt lat="46.79833" lon="6.48989">
        <ele>1500.827</ele>
        <time>2023-10-12T10:14:27Z</time>
      </trkpt>
      <trkpt lat="46.79833" lon="6.48986">
        <ele>1502.708</ele>
        <time>2023-10-12T10:14:32Z</time>
      </trkpt>
      <trkpt lat="46.79831" lon="6.4898">
        <ele>1502.911</ele>
        <time>2023-10-12T10:14:37Z</time>
      </trkpt>
      <trkpt lat="46.79829" lon="6.48974">
        <ele>1503.399</ele>
        <time>2023-10-12T10:14:42Z</time>
      </trkpt>
      <trkpt lat="46.79826" lon="6.48967">
        <ele>1503.543</ele>
        <time>2023-10-12T10:14:47Z</time>
      </trkpt>
      <trkpt lat="46.79824" lon="6.48961">
        <ele>1504.02</ele>
        <time>2023-10-12T10:14:52Z</time>
      </trkpt>
      <trkpt lat="46.79821" lon="6.48955">
        <ele>1503.808</ele>
        <time>2023-10-12T10:14:57Z</time>
      </trkpt>
      <trkpt lat="46.79818" lon="6.4895">
        <ele>1504.383</ele>
        <time>2023-10-12T10:15:02Z</time>
      </trkpt>
      <trkpt lat="46.79815" lon="6.48945">
        <ele>1504.518</ele>
        <time>2023-10-12T10:15:07Z</time>
      </trkpt>
      <trkpt lat="46.79812" lon="6.48938">
        <ele>1505.727</ele>
        <time>2023-10-12T10:15:12Z</time>
      </trkpt>
      <trkpt lat="46.79808" lon="6.48931">
        <ele>1506.583</ele>
        <time>2023-10-12T10:15:17Z</time>
      </trkpt>
      <trkpt lat="46.79805" lon="6.48926">
        <ele>1505.847</ele>
        <time>2023-10-12T10:15:22Z</time>
      </trkpt>
      <trkpt lat="46.79803" lon="6.48921">
        <ele>1505.855</ele>
        <time>2023-10-12T10:15:27Z</time>
      </trkpt>
      <trkpt lat="46.798" lon="6.48916">
        <ele>1505.926</ele>
        <time>2023-10-12T10:15:32Z</time>
      </trkpt>
      <trkpt lat="46.79796" lon="6.48911">
        <ele>1506.084</ele>
        <time>2023-10-12T10:15:37Z</time>
      </trkpt>
      <trkpt lat="46.79793" lon="6.48905">
        <ele>1506.531</ele>
        <time>2023-10-12T10:15:42Z</time>
      </trkpt>
      <trkpt lat="46.7979" lon="6.48901">
        <ele>1506.706</ele>
        <time>2023-10-12T10:15:47Z</time>
      </trkpt>
      <trkpt lat="46.79786" lon="6.48897">
        <ele>1507.201</ele>
        <time>2023-10-12T10:15:52Z</time>
      </trkpt>
      <trkpt lat="46.79784" lon="6.48894">
        <ele>1507.014</ele>
        <time>2023-10-12T10:15:57Z</time>
      </trkpt>
      <trkpt lat="46.7978" lon="6.48891">
        <ele>1508.05</ele>
        <time>2023-10-12T10:16:02Z</time>
      </trkpt>
      <trkpt lat="46.79776" lon="6.48889">
        <ele>1508.836</ele>
        <time>2023-10-12T10:16:07Z</time>
      </trkpt>
      <trkpt lat="46.79772" lon="6.48884">
        <ele>1508.451</ele>
        <time>2023-10-12T10:16:12Z</time>
      </trkpt>
      <trkpt lat="46.79768" lon="6.48879">
        <ele>1508.935</ele>
        <time>2023-10-12T10:16:17Z</time>
      </trkpt>
      <trkpt lat="46.79764" lon="6.48873">
        <ele>1508.383</ele>
        <time>2023-10-12T10:16:22Z</time>
      </trkpt>
      <trkpt lat="46.7976" lon="6.48867">
        <ele>1508.708</ele>
        <time>2023-10-12T10:16:27Z</time>
      </trkpt>
      <trkpt lat="46.79756" lon="6.48863">
        <ele>1508.897</ele>
        <time>2023-10-12T10:16:32Z</time>
      </trkpt>
      <trkpt lat="46.79753" lon="6.48857">
        <ele>1509.515</ele>
        <time>2023-10-12T10:16:37Z</time>
      </trkpt>
      <trkpt lat="46.7975" lon="6.48853">
        <ele>1510.087</ele>
        <time>2023-10-12T10:16:42Z</time>
      </trkpt>
      <trkpt lat="46.79748" lon="6.48852">
        <ele>1509.799</ele>
        <time>2023-10-12T10:16:47Z</time>
      </trkpt>
      <trkpt lat="46.79748" lon="6.48852">
        <ele>1510.063</ele>
        <time>2023-10-12T10:16:52Z</time>
      </trkpt>
      <trkpt lat="46.79746" lon="6.48849">
        <ele>1510.883</ele>
        <time>2023-10-12T10:16:57Z</time>
      </trkpt>
      <trkpt lat="46.79744" lon="6.48843">
        <ele>1511.711</ele>
        <time>2023-10-12T10:17:02Z</time>
      </trkpt>
      <trkpt lat="46.79741" lon="6.4884">
        <ele>1512.74</ele>
        <time>2023-10-12T10:17:07Z</time>
      </trkpt>
      <trkpt lat="46.79738" lon="6.48836">
        <ele>1513.732</ele>
        <time>2023-10-12T10:17:12Z</time>
      </trkpt>
      <trkpt lat="46.79735" lon="6.48834">
        <ele>1514.289</ele>
        <time>2023-10-12T10:17:17Z</time>
      </trkpt>
      <trkpt lat="46.79732" lon="6.48832">
        <ele>1515.188</ele>
        <time>2023-10-12T10:17:22Z</time>
      </trkpt>
      <trkpt lat="46.7973" lon="6.4883">
        <ele>1516.46</ele>
        <time>2023-10-12T10:17:27Z</time>
      </trkpt>
      <trkpt lat="46.79726" lon="6.48829">
        <ele>1517.317</ele>
        <time>2023-10-12T10:17:32Z</time>
      </trkpt>
      <trkpt lat="46.79723" lon="6.48827">
        <ele>1517.82</ele>
        <time>2023-10-12T10:17:37Z</time>
      </trkpt>
      <trkpt lat="46.7972" lon="6.48826">
        <ele>1519.083</ele>
        <time>2023-10-12T10:17:42Z</time>
      </trkpt>
      <trkpt lat="46.79716" lon="6.48824">
        <ele>1519.418</ele>
        <time>2023-10-12T10:17:47Z</time>
      </trkpt>
      <trkpt lat="46.79712" lon="6.48822">
        <ele>1520.42</ele>
        <time>2023-10-12T10:17:52Z</time>
      </trkpt>
      <trkpt lat="46.79708" lon="6.4882">
        <ele>1520.867</ele>
        <time>2023-10-12T10:17:57Z</time>
      </trkpt>
      <trkpt lat="46.79705" lon="6.48818">
        <ele>1521.642</ele>
        <time>2023-10-12T10:18:02Z</time>
      </trkpt>
      <trkpt lat="46.79701" lon="6.48818">
        <ele>1521.986</ele>
        <time>2023-10-12T10:18:07Z</time>
      </trkpt>
      <trkpt lat="46.79697" lon="6.48819">
        <ele>1522.112</ele>
        <time>2023-10-12T10:18:12Z</time>
      </trkpt>
      <trkpt lat="46.79692" lon="6.48819">
        <ele>1522.61</ele>
        <time>2023-10-12T10:18:17Z</time>
      </trkpt>
      <trkpt lat="46.79689" lon="6.48818">
        <ele>1522.66</ele>
        <time>2023-10-12T10:18:22Z</time>
      </trkpt>
      <trkpt lat="46.79685" lon="6.48816">
        <ele>1522.475</ele>
        <time>2023-10-12T10:18:27Z</time>
      </trkpt>
      <trkpt lat="46.79683" lon="6.48814">
        <ele>1522.821</ele>
        <time>2023-10-12T10:18:32Z</time>
      </trkpt>
      <trkpt lat="46.79683" lon="6.48814">
        <ele>1523.164</ele>
        <time>2023-10-12T10:18:37Z</time>
      </trkpt>
      <trkpt lat="46.79683" lon="6.48814">
        <ele>1522.906</ele>
        <time>2023-10-12T10:18:42Z</time>
      </trkpt>
      <trkpt lat="46.79683" lon="6.48814">
        <ele>1523.044</ele>
        <time>2023-10-12T10:18:47Z</time>
      </trkpt>
      <trkpt lat="46.79683" lon="6.48814">
        <ele>1522.863</ele>
        <time>2023-10-12T10:18:52Z</time>
      </trkpt>
      <trkpt lat="46.79683" lon="6.48814">
        <ele>1522.766</ele>
        <time>2023-10-12T10:18:57Z</time>
      </trkpt>
      <trkpt lat="46.79683" lon="6.48814">
        <ele>1522.792</ele>
        <time>2023-10-12T10:19:02Z</time>
      </trkpt>
      <trkpt lat="46.79683" lon="6.48814">
        <ele>1523.037</ele>
        <time>2023-10-12T10:19:07Z</time>
      </trkpt>
      <trkpt lat="46.79683" lon="6.48814">
        <ele>1522.965</ele>
        <time>2023-10-12T10:19:12Z</time>
      </trkpt>
      <trkpt lat="46.79683" lon="6.48814">
        <ele>1523.148</ele>
        <time>2023-10-12T10:19:17Z</time>
      </trkpt>
      <trkpt lat="46.79683" lon="6.48814">
        <ele>1522.719</ele>
        <time>2023-10-12T10:19:22Z</time>
      </trkpt>
      <trkpt lat="46.79683" lon="6.48814">
        <ele>1522.666</ele>
        <time>2023-10-12T10:19:27Z</time>
      </trkpt>
      <trkpt lat="46.79683" lon="6.48814">
        <ele>1522.651</ele>
        <time>2023-10-12T10:19:32Z</time>
      </trkpt>
      <trkpt lat="46.79683" lon="6.48814">
        <ele>1522.635</ele>
        <time>2023-10-12T10:19:37Z</time>
      </trkpt>
      <trkpt lat="46.79683" lon="6.48814">
        <ele>1522.625</ele>
        <time>2023-10-12T10:19:42Z</time>
      </trkpt>
      <trkpt lat="46.79683" lon="6.48814">
        <ele>1522.615</ele>
        <time>2023-10-12T10:19:47Z</time>
      </trkpt>
      <trkpt lat="46.79683" lon="6.48814">
        <ele>1522.601</ele>
        <time>2023-10-12T10:19:52Z</time>
      </trkpt>
      <trkpt lat="46.79683" lon="6.48814">
        <ele>1522.588</ele>
        <time>2023-10-12T10:19:57Z</time>
      </trkpt>
      <trkpt lat="46.79683" lon="6.48814">
        <ele>1522.58</ele>
        <time>2023-10-12T10:20:02Z</time>
      </trkpt>
      <trkpt lat="46.79683" lon="6.48814">
        <ele>1522.573</ele>
        <time>2023-10-12T10:20:07Z</time>
      </trkpt>
      <trkpt lat="46.79683" lon="6.48814">
        <ele>1522.564</ele>
        <time>2023-10-12T10:20:12Z</time>
      </trkpt>
      <trkpt lat="46.79683" lon="6.48814">
        <ele>1522.558</ele>
        <time>2023-10-12T10:20:17Z</time>
      </trkpt>
      <trkpt lat="46.79683" lon="6.48814">
        <ele>1522.548</ele>
        <time>2023-10-12T10:20:22Z</time>
      </trkpt>
      <trkpt lat="46.79683" lon="6.48814">
        <ele>1522.543</ele>
        <time>2023-10-12T10:20:27Z</time>
      </trkpt>
      <trkpt lat="46.79683" lon="6.48814">
        <ele>1522.536</ele>
        <time>2023-10-12T10:20:32Z</time>
      </trkpt>
      <trkpt lat="46.79683" lon="6.48814">
        <ele>1522.527</ele>
        <time>2023-10-12T10:20:37Z</time>
      </trkpt>
      <trkpt lat="46.79683" lon="6.48814">
        <ele>1522.52</ele>
        <time>2023-10-12T10:20:42Z</time>
      </trkpt>
      <trkpt lat="46.79683" lon="6.48814">
        <ele>1522.514</ele>
        <time>2023-10-12T10:20:47Z</time>
      </trkpt>
      <trkpt lat="46.79683" lon="6.48814">
        <ele>1522.507</ele>
        <time>2023-10-12T10:20:52Z</time>
      </trkpt>
      <trkpt lat="46.79683" lon="6.48814">
        <ele>1522.49</ele>
        <time>2023-10-12T10:20:57Z</time>
      </trkpt>
      <trkpt lat="46.79683" lon="6.48814">
        <ele>1522.48</ele>
        <time>2023-10-12T10:21:02Z</time>
      </trkpt>
      <trkpt lat="46.79683" lon="6.48814">
        <ele>1522.47</ele>
        <time>2023-10-12T10:21:07Z</time>
      </trkpt>
      <trkpt lat="46.79683" lon="6.48814">
        <ele>1522.46</ele>
        <time>2023-10-12T10:21:12Z</time>
      </trkpt>
      <trkpt lat="46.79683" lon="6.48814">
        <ele>1522.45</ele>
        <time>2023-10-12T10:21:17Z</time>
      </trkpt>
      <trkpt lat="46.79683" lon="6.48814">
        <ele>1522.438</ele>
        <time>2023-10-12T10:21:22Z</time>
      </trkpt>
      <trkpt lat="46.79683" lon="6.48814">
        <ele>1522.428</ele>
        <time>2023-10-12T10:21:27Z</time>
      </trkpt>
      <trkpt lat="46.79683" lon="6.48814">
        <ele>1522.421</ele>
        <time>2023-10-12T10:21:32Z</time>
      </trkpt>
      <trkpt lat="46.79683" lon="6.48814">
        <ele>1522.409</ele>
        <time>2023-10-12T10:21:37Z</time>
      </trkpt>
      <trkpt lat="46.79683" lon="6.48814">
        <ele>1522.406</ele>
        <time>2023-10-12T10:21:42Z</time>
      </trkpt>
      <trkpt lat="46.79683" lon="6.48814">
        <ele>1522.405</ele>
        <time>2023-10-12T10:21:47Z</time>
      </trkpt>
      <trkpt lat="46.79683" lon="6.48814">
        <ele>1522.398</ele>
        <time>2023-10-12T10:21:52Z</time>
      </trkpt>
      <trkpt lat="46.79683" lon="6.48814">
        <ele>1522.39</ele>
        <time>2023-10-12T10:21:57Z</time>
      </trkpt>
      <trkpt lat="46.79683" lon="6.48814">
        <ele>1522.385</ele>
        <time>2023-10-12T10:22:02Z</time>
      </trkpt>
      <trkpt lat="46.79683" lon="6.48814">
        <ele>1522.38</ele>
        <time>2023-10-12T10:22:07Z</time>
      </trkpt>
      <trkpt lat="46.79683" lon="6.48814">
        <ele>1522.368</ele>
        <time>2023-10-12T10:22:12Z</time>
      </trkpt>
      <trkpt lat="46.79683" lon="6.48814">
        <ele>1522.352</ele>
        <time>2023-10-12T10:22:17Z</time>
      </trkpt>
      <trkpt lat="46.79683" lon="6.48814">
        <ele>1522.339</ele>
        <time>2023-10-12T10:22:22Z</time>
      </trkpt>
      <trkpt lat="46.79683" lon="6.48814">
        <ele>1522.329</ele>
        <time>2023-10-12T10:22:27Z</time>
      </trkpt>
      <trkpt lat="46.79683" lon="6.48814">
        <ele>1522.318</ele>
        <time>2023-10-12T10:22:32Z</time>
      </trkpt>
      <trkpt lat="46.79683" lon="6.48814">
        <ele>1522.312</ele>
        <time>2023-10-12T10:22:37Z</time>
      </trkpt>
      <trkpt lat="46.79683" lon="6.48814">
        <ele>1522.303</ele>
        <time>2023-10-12T10:22:42Z</time>
      </trkpt>
      <trkpt lat="46.79683" lon="6.48814">
        <ele>1522.296</ele>
        <time>2023-10-12T10:22:47Z</time>
      </trkpt>
      <trkpt lat="46.79683" lon="6.48814">
        <ele>1522.286</ele>
        <time>2023-10-12T10:22:52Z</time>
      </trkpt>
      <trkpt lat="46.79683" lon="6.48814">
        <ele>1522.281</ele>
        <time>2023-10-12T10:22:57Z</time>
      </trkpt>
      <trkpt lat="46.79683" lon="6.48814">
        <ele>1522.273</ele>
        <time>2023-10-12T10:23:02Z</time>
      </trkpt>
      <trkpt lat="46.79683" lon="6.48814">
        <ele>1522.264</ele>
        <time>2023-10-12T10:23:07Z</time>
      </trkpt>
      <trkpt lat="46.79683" lon="6.48814">
        <ele>1522.256</ele>
        <time>2023-10-12T10:23:12Z</time>
      </trkpt>
      <trkpt lat="46.79683" lon="6.48814">
        <ele>1522.251</ele>
        <time>2023-10-12T10:23:17Z</time>
      </trkpt>
      <trkpt lat="46.79683" lon="6.48814">
        <ele>1522.25</ele>
        <time>2023-10-12T10:23:22Z</time>
      </trkpt>
      <trkpt lat="46.79683" lon="6.48814">
        <ele>1522.242</ele>
        <time>2023-10-12T10:23:27Z</time>
      </trkpt>
      <trkpt lat="46.79683" lon="6.48814">
        <ele>1522.236</ele>
        <time>2023-10-12T10:23:32Z</time>
      </trkpt>
      <trkpt lat="46.79683" lon="6.48814">
        <ele>1522.228</ele>
        <time>2023-10-12T10:23:37Z</time>
      </trkpt>
      <trkpt lat="46.79683" lon="6.48814">
        <ele>1522.221</ele>
        <time>2023-10-12T10:23:42Z</time>
      </trkpt>
      <trkpt lat="46.79683" lon="6.48814">
        <ele>1522.217</ele>
        <time>2023-10-12T10:23:47Z</time>
      </trkpt>
      <trkpt lat="46.79683" lon="6.48814">
        <ele>1522.211</ele>
        <time>2023-10-12T10:23:52Z</time>
      </trkpt>
      <trkpt lat="46.79683" lon="6.48814">
        <ele>1522.204</ele>
        <time>2023-10-12T10:23:57Z</time>
      </trkpt>
      <trkpt lat="46.79683" lon="6.48814">
        <ele>1522.197</ele>
        <time>2023-10-12T10:24:02Z</time>
      </trkpt>
      <trkpt lat="46.79683" lon="6.48814">
        <ele>1522.192</ele>
        <time>2023-10-12T10:24:07Z</time>
      </trkpt>
      <trkpt lat="46.79683" lon="6.48814">
        <ele>1522.188</ele>
        <time>2023-10-12T10:24:12Z</time>
      </trkpt>
      <trkpt lat="46.79683" lon="6.48814">
        <ele>1522.184</ele>
        <time>2023-10-12T10:24:17Z</time>
      </trkpt>
      <trkpt lat="46.79683" lon="6.48814">
        <ele>1522.176</ele>
        <time>2023-10-12T10:24:22Z</time>
      </trkpt>
      <trkpt lat="46.79683" lon="6.48814">
        <ele>1522.174</ele>
        <time>2023-10-12T10:24:27Z</time>
      </trkpt>
      <trkpt lat="46.79683" lon="6.48814">
        <ele>1522.17</ele>
        <time>2023-10-12T10:24:32Z</time>
      </trkpt>
      <trkpt lat="46.79683" lon="6.48814">
        <ele>1522.176</ele>
        <time>2023-10-12T10:24:37Z</time>
      </trkpt>
      <trkpt lat="46.79683" lon="6.48814">
        <ele>1522.176</ele>
        <time>2023-10-12T10:24:42Z</time>
      </trkpt>
      <trkpt lat="46.79683" lon="6.48814">
        <ele>1522.173</ele>
        <time>2023-10-12T10:24:47Z</time>
      </trkpt>
      <trkpt lat="46.79683" lon="6.48814">
        <ele>1522.172</ele>
        <time>2023-10-12T10:24:52Z</time>
      </trkpt>
      <trkpt lat="46.79683" lon="6.48814">
        <ele>1522.171</ele>
        <time>2023-10-12T10:24:57Z</time>
      </trkpt>
      <trkpt lat="46.79683" lon="6.48814">
        <ele>1522.154</ele>
        <time>2023-10-12T10:25:02Z</time>
      </trkpt>
      <trkpt lat="46.79683" lon="6.48814">
        <ele>1522.143</ele>
        <time>2023-10-12T10:25:07Z</time>
      </trkpt>
      <trkpt lat="46.79683" lon="6.48814">
        <ele>1522.128</ele>
        <time>2023-10-12T10:25:12Z</time>
      </trkpt>
      <trkpt lat="46.79683" lon="6.48814">
        <ele>1522.117</ele>
        <time>2023-10-12T10:25:17Z</time>
      </trkpt>
      <trkpt lat="46.79683" lon="6.48814">
        <ele>1522.109</ele>
        <time>2023-10-12T10:25:22Z</time>
      </trkpt>
      <trkpt lat="46.79683" lon="6.48814">
        <ele>1522.099</ele>
        <time>2023-10-12T10:25:27Z</time>
      </trkpt>
      <trkpt lat="46.79683" lon="6.48814">
        <ele>1522.088</ele>
        <time>2023-10-12T10:25:32Z</time>
      </trkpt>
      <trkpt lat="46.79683" lon="6.48814">
        <ele>1522.079</ele>
        <time>2023-10-12T10:25:37Z</time>
      </trkpt>
      <trkpt lat="46.79683" lon="6.48814">
        <ele>1522.064</ele>
        <time>2023-10-12T10:25:42Z</time>
      </trkpt>
      <trkpt lat="46.79683" lon="6.48814">
        <ele>1522.054</ele>
        <time>2023-10-12T10:25:47Z</time>
      </trkpt>
      <trkpt lat="46.79683" lon="6.48814">
        <ele>1522.039</ele>
        <time>2023-10-12T10:25:52Z</time>
      </trkpt>
      <trkpt lat="46.79683" lon="6.48814">
        <ele>1522.027</ele>
        <time>2023-10-12T10:25:57Z</time>
      </trkpt>
      <trkpt lat="46.79683" lon="6.48814">
        <ele>1522.014</ele>
        <time>2023-10-12T10:26:02Z</time>
      </trkpt>
      <trkpt lat="46.79683" lon="6.48814">
        <ele>1522</ele>
        <time>2023-10-12T10:26:07Z</time>
      </trkpt>
      <trkpt lat="46.79683" lon="6.48814">
        <ele>1521.985</ele>
        <time>2023-10-12T10:26:12Z</time>
      </trkpt>
      <trkpt lat="46.79683" lon="6.48814">
        <ele>1521.976</ele>
        <time>2023-10-12T10:26:17Z</time>
      </trkpt>
      <trkpt lat="46.79683" lon="6.48814">
        <ele>1521.966</ele>
        <time>2023-10-12T10:26:22Z</time>
      </trkpt>
      <trkpt lat="46.79683" lon="6.48814">
        <ele>1521.952</ele>
        <time>2023-10-12T10:26:27Z</time>
      </trkpt>
      <trkpt lat="46.79683" lon="6.48814">
        <ele>1521.939</ele>
        <time>2023-10-12T10:26:32Z</time>
      </trkpt>
      <trkpt lat="46.79683" lon="6.48814">
        <ele>1521.927</ele>
        <time>2023-10-12T10:26:37Z</time>
      </trkpt>
      <trkpt lat="46.79683" lon="6.48814">
        <ele>1521.916</ele>
        <time>2023-10-12T10:26:42Z</time>
      </trkpt>
      <trkpt lat="46.79683" lon="6.48814">
        <ele>1521.905</ele>
        <time>2023-10-12T10:26:47Z</time>
      </trkpt>
      <trkpt lat="46.79683" lon="6.48814">
        <ele>1521.891</ele>
        <time>2023-10-12T10:26:52Z</time>
      </trkpt>
      <trkpt lat="46.79683" lon="6.48814">
        <ele>1521.88</ele>
        <time>2023-10-12T10:26:57Z</time>
      </trkpt>
      <trkpt lat="46.79683" lon="6.48814">
        <ele>1521.868</ele>
        <time>2023-10-12T10:27:02Z</time>
      </trkpt>
      <trkpt lat="46.79683" lon="6.48814">
        <ele>1521.855</ele>
        <time>2023-10-12T10:27:07Z</time>
      </trkpt>
      <trkpt lat="46.79683" lon="6.48814">
        <ele>1521.844</ele>
        <time>2023-10-12T10:27:12Z</time>
      </trkpt>
      <trkpt lat="46.79683" lon="6.48814">
        <ele>1521.833</ele>
        <time>2023-10-12T10:27:17Z</time>
      </trkpt>
      <trkpt lat="46.79683" lon="6.48814">
        <ele>1521.822</ele>
        <time>2023-10-12T10:27:22Z</time>
      </trkpt>
      <trkpt lat="46.79683" lon="6.48814">
        <ele>1521.812</ele>
        <time>2023-10-12T10:27:27Z</time>
      </trkpt>
      <trkpt lat="46.79683" lon="6.48814">
        <ele>1521.799</ele>
        <time>2023-10-12T10:27:32Z</time>
      </trkpt>
      <trkpt lat="46.79683" lon="6.48814">
        <ele>1521.788</ele>
        <time>2023-10-12T10:27:37Z</time>
      </trkpt>
      <trkpt lat="46.79683" lon="6.48814">
        <ele>1521.782</ele>
        <time>2023-10-12T10:27:42Z</time>
      </trkpt>
      <trkpt lat="46.79683" lon="6.48814">
        <ele>1521.768</ele>
        <time>2023-10-12T10:27:47Z</time>
      </trkpt>
      <trkpt lat="46.79683" lon="6.48814">
        <ele>1521.759</ele>
        <time>2023-10-12T10:27:52Z</time>
      </trkpt>
      <trkpt lat="46.79683" lon="6.48814">
        <ele>1521.753</ele>
        <time>2023-10-12T10:27:57Z</time>
      </trkpt>
      <trkpt lat="46.79683" lon="6.48814">
        <ele>1521.747</ele>
        <time>2023-10-12T10:28:02Z</time>
      </trkpt>
      <trkpt lat="46.79683" lon="6.48814">
        <ele>1521.74</ele>
        <time>2023-10-12T10:28:07Z</time>
      </trkpt>
      <trkpt lat="46.79683" lon="6.48814">
        <ele>1521.732</ele>
        <time>2023-10-12T10:28:12Z</time>
      </trkpt>
      <trkpt lat="46.79683" lon="6.48814">
        <ele>1521.727</ele>
        <time>2023-10-12T10:28:17Z</time>
      </trkpt>
      <trkpt lat="46.79683" lon="6.48814">
        <ele>1521.721</ele>
        <time>2023-10-12T10:28:22Z</time>
      </trkpt>
      <trkpt lat="46.79683" lon="6.48814">
        <ele>1521.715</ele>
        <time>2023-10-12T10:28:27Z</time>
      </trkpt>
      <trkpt lat="46.79683" lon="6.48814">
        <ele>1521.707</ele>
        <time>2023-10-12T10:28:32Z</time>
      </trkpt>
      <trkpt lat="46.79683" lon="6.48814">
        <ele>1521.7</ele>
        <time>2023-10-12T10:28:37Z</time>
      </trkpt>
      <trkpt lat="46.79683" lon="6.48814">
        <ele>1521.689</ele>
        <time>2023-10-12T10:28:42Z</time>
      </trkpt>
      <trkpt lat="46.79683" lon="6.48814">
        <ele>1521.679</ele>
        <time>2023-10-12T10:28:47Z</time>
      </trkpt>
      <trkpt lat="46.79683" lon="6.48814">
        <ele>1521.668</ele>
        <time>2023-10-12T10:28:52Z</time>
      </trkpt>
      <trkpt lat="46.79683" lon="6.48814">
        <ele>1521.657</ele>
        <time>2023-10-12T10:28:57Z</time>
      </trkpt>
      <trkpt lat="46.79683" lon="6.48814">
        <ele>1521.648</ele>
        <time>2023-10-12T10:29:02Z</time>
      </trkpt>
      <trkpt lat="46.79683" lon="6.48814">
        <ele>1521.64</ele>
        <time>2023-10-12T10:29:07Z</time>
      </trkpt>
      <trkpt lat="46.79683" lon="6.48814">
        <ele>1521.633</ele>
        <time>2023-10-12T10:29:12Z</time>
      </trkpt>
      <trkpt lat="46.79683" lon="6.48814">
        <ele>1521.625</ele>
        <time>2023-10-12T10:29:17Z</time>
      </trkpt>
      <trkpt lat="46.79683" lon="6.48814">
        <ele>1521.615</ele>
        <time>2023-10-12T10:29:22Z</time>
      </trkpt>
      <trkpt lat="46.79683" lon="6.48814">
        <ele>1521.606</ele>
        <time>2023-10-12T10:29:27Z</time>
      </trkpt>
      <trkpt lat="46.79683" lon="6.48814">
        <ele>1521.601</ele>
        <time>2023-10-12T10:29:32Z</time>
      </trkpt>
      <trkpt lat="46.79683" lon="6.48814">
        <ele>1521.598</ele>
        <time>2023-10-12T10:29:37Z</time>
      </trkpt>
      <trkpt lat="46.79683" lon="6.48814">
        <ele>1521.594</ele>
        <time>2023-10-12T10:29:42Z</time>
      </trkpt>
      <trkpt lat="46.79683" lon="6.48814">
        <ele>1521.586</ele>
        <time>2023-10-12T10:29:47Z</time>
      </trkpt>
      <trkpt lat="46.79683" lon="6.48814">
        <ele>1521.58</ele>
        <time>2023-10-12T10:29:52Z</time>
      </trkpt>
      <trkpt lat="46.79683" lon="6.48814">
        <ele>1521.574</ele>
        <time>2023-10-12T10:29:57Z</time>
      </trkpt>
      <trkpt lat="46.79683" lon="6.48814">
        <ele>1521.569</ele>
        <time>2023-10-12T10:30:02Z</time>
      </trkpt>
      <trkpt lat="46.79683" lon="6.48814">
        <ele>1521.564</ele>
        <time>2023-10-12T10:30:07Z</time>
      </trkpt>
      <trkpt lat="46.79683" lon="6.48814">
        <ele>1521.56</ele>
        <time>2023-10-12T10:30:12Z</time>
      </trkpt>
      <trkpt lat="46.79683" lon="6.48814">
        <ele>1521.555</ele>
        <time>2023-10-12T10:30:17Z</time>
      </trkpt>
      <trkpt lat="46.79683" lon="6.48814">
        <ele>1521.55</ele>
        <time>2023-10-12T10:30:22Z</time>
      </trkpt>
      <trkpt lat="46.79683" lon="6.48814">
        <ele>1521.542</ele>
        <time>2023-10-12T10:30:27Z</time>
      </trkpt>
      <trkpt lat="46.79683" lon="6.48814">
        <ele>1521.537</ele>
        <time>2023-10-12T10:30:32Z</time>
      </trkpt>
      <trkpt lat="46.79683" lon="6.48814">
        <ele>1521.528</ele>
        <time>2023-10-12T10:30:37Z</time>
      </trkpt>
      <trkpt lat="46.79683" lon="6.48814">
        <ele>1521.522</ele>
        <time>2023-10-12T10:30:42Z</time>
      </trkpt>
      <trkpt lat="46.79683" lon="6.48814">
        <ele>1521.521</ele>
        <time>2023-10-12T10:30:48Z</time>
      </trkpt>
      <trkpt lat="46.79683" lon="6.48814">
        <ele>1521.513</ele>
        <time>2023-10-12T10:30:53Z</time>
      </trkpt>
      <trkpt lat="46.79683" lon="6.48814">
        <ele>1521.51</ele>
        <time>2023-10-12T10:30:58Z</time>
      </trkpt>
      <trkpt lat="46.79683" lon="6.48814">
        <ele>1521.507</ele>
        <time>2023-10-12T10:31:03Z</time>
      </trkpt>
      <trkpt lat="46.79683" lon="6.48814">
        <ele>1521.5</ele>
        <time>2023-10-12T10:31:08Z</time>
      </trkpt>
      <trkpt lat="46.79683" lon="6.48814">
        <ele>1521.493</ele>
        <time>2023-10-12T10:31:13Z</time>
      </trkpt>
      <trkpt lat="46.79683" lon="6.48814">
        <ele>1521.488</ele>
        <time>2023-10-12T10:31:18Z</time>
      </trkpt>
      <trkpt lat="46.79683" lon="6.48814">
        <ele>1521.481</ele>
        <time>2023-10-12T10:31:23Z</time>
      </trkpt>
      <trkpt lat="46.79683" lon="6.48814">
        <ele>1521.473</ele>
        <time>2023-10-12T10:31:28Z</time>
      </trkpt>
      <trkpt lat="46.79683" lon="6.48814">
        <ele>1521.464</ele>
        <time>2023-10-12T10:31:33Z</time>
      </trkpt>
      <trkpt lat="46.79683" lon="6.48814">
        <ele>1521.458</ele>
        <time>2023-10-12T10:31:38Z</time>
      </trkpt>
      <trkpt lat="46.79683" lon="6.48814">
        <ele>1521.453</ele>
        <time>2023-10-12T10:31:43Z</time>
      </trkpt>
      <trkpt lat="46.79683" lon="6.48814">
        <ele>1521.447</ele>
        <time>2023-10-12T10:31:48Z</time>
      </trkpt>
      <trkpt lat="46.79683" lon="6.48814">
        <ele>1521.441</ele>
        <time>2023-10-12T10:31:53Z</time>
      </trkpt>
      <trkpt lat="46.79683" lon="6.48814">
        <ele>1521.433</ele>
        <time>2023-10-12T10:31:58Z</time>
      </trkpt>
      <trkpt lat="46.79683" lon="6.48814">
        <ele>1521.426</ele>
        <time>2023-10-12T10:32:03Z</time>
      </trkpt>
      <trkpt lat="46.79683" lon="6.48814">
        <ele>1521.421</ele>
        <time>2023-10-12T10:32:08Z</time>
      </trkpt>
      <trkpt lat="46.79683" lon="6.48814">
        <ele>1521.414</ele>
        <time>2023-10-12T10:32:13Z</time>
      </trkpt>
      <trkpt lat="46.79683" lon="6.48814">
        <ele>1521.406</ele>
        <time>2023-10-12T10:32:18Z</time>
      </trkpt>
      <trkpt lat="46.79683" lon="6.48814">
        <ele>1521.4</ele>
        <time>2023-10-12T10:32:23Z</time>
      </trkpt>
      <trkpt lat="46.79683" lon="6.48814">
        <ele>1521.397</ele>
        <time>2023-10-12T10:32:28Z</time>
      </trkpt>
      <trkpt lat="46.79683" lon="6.48814">
        <ele>1521.392</ele>
        <time>2023-10-12T10:32:33Z</time>
      </trkpt>
      <trkpt lat="46.79683" lon="6.48814">
        <ele>1521.392</ele>
        <time>2023-10-12T10:32:38Z</time>
      </trkpt>
      <trkpt lat="46.79683" lon="6.48814">
        <ele>1521.39</ele>
        <time>2023-10-12T10:32:43Z</time>
      </trkpt>
      <trkpt lat="46.79683" lon="6.48814">
        <ele>1521.386</ele>
        <time>2023-10-12T10:32:48Z</time>
      </trkpt>
      <trkpt lat="46.79683" lon="6.48814">
        <ele>1521.38</ele>
        <time>2023-10-12T10:32:53Z</time>
      </trkpt>
      <trkpt lat="46.79683" lon="6.48814">
        <ele>1521.373</ele>
        <time>2023-10-12T10:32:58Z</time>
      </trkpt>
      <trkpt lat="46.79683" lon="6.48814">
        <ele>1521.367</ele>
        <time>2023-10-12T10:33:03Z</time>
      </trkpt>
      <trkpt lat="46.79683" lon="6.48814">
        <ele>1521.361</ele>
        <time>2023-10-12T10:33:08Z</time>
      </trkpt>
      <trkpt lat="46.79683" lon="6.48814">
        <ele>1521.358</ele>
        <time>2023-10-12T10:33:13Z</time>
      </trkpt>
      <trkpt lat="46.79683" lon="6.48814">
        <ele>1521.354</ele>
        <time>2023-10-12T10:33:18Z</time>
      </trkpt>
      <trkpt lat="46.79683" lon="6.48814">
        <ele>1521.348</ele>
        <time>2023-10-12T10:33:23Z</time>
      </trkpt>
      <trkpt lat="46.79683" lon="6.48814">
        <ele>1521.343</ele>
        <time>2023-10-12T10:33:28Z</time>
      </trkpt>
      <trkpt lat="46.79683" lon="6.48814">
        <ele>1521.338</ele>
        <time>2023-10-12T10:33:33Z</time>
      </trkpt>
      <trkpt lat="46.79683" lon="6.48814">
        <ele>1521.335</ele>
        <time>2023-10-12T10:33:38Z</time>
      </trkpt>
      <trkpt lat="46.79683" lon="6.48814">
        <ele>1521.332</ele>
        <time>2023-10-12T10:33:43Z</time>
      </trkpt>
      <trkpt lat="46.79683" lon="6.48814">
        <ele>1521.324</ele>
        <time>2023-10-12T10:33:48Z</time>
      </trkpt>
      <trkpt lat="46.79683" lon="6.48814">
        <ele>1521.319</ele>
        <time>2023-10-12T10:33:53Z</time>
      </trkpt>
      <trkpt lat="46.79683" lon="6.48814">
        <ele>1521.315</ele>
        <time>2023-10-12T10:33:58Z</time>
      </trkpt>
      <trkpt lat="46.79683" lon="6.48814">
        <ele>1521.311</ele>
        <time>2023-10-12T10:34:03Z</time>
      </trkpt>
      <trkpt lat="46.79683" lon="6.48814">
        <ele>1521.305</ele>
        <time>2023-10-12T10:34:08Z</time>
      </trkpt>
      <trkpt lat="46.79683" lon="6.48814">
        <ele>1521.299</ele>
        <time>2023-10-12T10:34:13Z</time>
      </trkpt>
      <trkpt lat="46.79683" lon="6.48814">
        <ele>1521.295</ele>
        <time>2023-10-12T10:34:18Z</time>
      </trkpt>
      <trkpt lat="46.79683" lon="6.48814">
        <ele>1521.29</ele>
        <time>2023-10-12T10:34:23Z</time>
      </trkpt>
      <trkpt lat="46.79683" lon="6.48814">
        <ele>1521.283</ele>
        <time>2023-10-12T10:34:28Z</time>
      </trkpt>
      <trkpt lat="46.79683" lon="6.48814">
        <ele>1521.276</ele>
        <time>2023-10-12T10:34:33Z</time>
      </trkpt>
      <trkpt lat="46.79683" lon="6.48814">
        <ele>1521.272</ele>
        <time>2023-10-12T10:34:37Z</time>
      </trkpt>
      <trkpt lat="46.79683" lon="6.48814">
        <ele>1521.265</ele>
        <time>2023-10-12T10:34:43Z</time>
      </trkpt>
      <trkpt lat="46.79683" lon="6.48814">
        <ele>1521.26</ele>
        <time>2023-10-12T10:34:48Z</time>
      </trkpt>
      <trkpt lat="46.79683" lon="6.48814">
        <ele>1521.251</ele>
        <time>2023-10-12T10:34:53Z</time>
      </trkpt>
      <trkpt lat="46.79683" lon="6.48814">
        <ele>1521.247</ele>
        <time>2023-10-12T10:34:58Z</time>
      </trkpt>
      <trkpt lat="46.79683" lon="6.48814">
        <ele>1521.238</ele>
        <time>2023-10-12T10:35:03Z</time>
      </trkpt>
      <trkpt lat="46.79683" lon="6.48814">
        <ele>1521.229</ele>
        <time>2023-10-12T10:35:08Z</time>
      </trkpt>
      <trkpt lat="46.79683" lon="6.48814">
        <ele>1521.224</ele>
        <time>2023-10-12T10:35:13Z</time>
      </trkpt>
      <trkpt lat="46.79683" lon="6.48814">
        <ele>1521.217</ele>
        <time>2023-10-12T10:35:18Z</time>
      </trkpt>
      <trkpt lat="46.79683" lon="6.48814">
        <ele>1521.209</ele>
        <time>2023-10-12T10:35:23Z</time>
      </trkpt>
      <trkpt lat="46.79683" lon="6.48814">
        <ele>1521.202</ele>
        <time>2023-10-12T10:35:28Z</time>
      </trkpt>
      <trkpt lat="46.79683" lon="6.48814">
        <ele>1521.193</ele>
        <time>2023-10-12T10:35:33Z</time>
      </trkpt>
      <trkpt lat="46.79683" lon="6.48814">
        <ele>1521.186</ele>
        <time>2023-10-12T10:35:38Z</time>
      </trkpt>
      <trkpt lat="46.79683" lon="6.48814">
        <ele>1521.183</ele>
        <time>2023-10-12T10:35:43Z</time>
      </trkpt>
      <trkpt lat="46.79683" lon="6.48814">
        <ele>1521.18</ele>
        <time>2023-10-12T10:35:48Z</time>
      </trkpt>
      <trkpt lat="46.79683" lon="6.48814">
        <ele>1521.172</ele>
        <time>2023-10-12T10:35:53Z</time>
      </trkpt>
      <trkpt lat="46.79683" lon="6.48814">
        <ele>1521.165</ele>
        <time>2023-10-12T10:35:58Z</time>
      </trkpt>
      <trkpt lat="46.79683" lon="6.48814">
        <ele>1521.159</ele>
        <time>2023-10-12T10:36:03Z</time>
      </trkpt>
      <trkpt lat="46.79683" lon="6.48814">
        <ele>1521.153</ele>
        <time>2023-10-12T10:36:08Z</time>
      </trkpt>
      <trkpt lat="46.79683" lon="6.48814">
        <ele>1521.147</ele>
        <time>2023-10-12T10:36:13Z</time>
      </trkpt>
      <trkpt lat="46.79683" lon="6.48814">
        <ele>1521.138</ele>
        <time>2023-10-12T10:36:18Z</time>
      </trkpt>
      <trkpt lat="46.79683" lon="6.48814">
        <ele>1521.133</ele>
        <time>2023-10-12T10:36:23Z</time>
      </trkpt>
      <trkpt lat="46.79683" lon="6.48814">
        <ele>1521.128</ele>
        <time>2023-10-12T10:36:28Z</time>
      </trkpt>
      <trkpt lat="46.79683" lon="6.48814">
        <ele>1521.118</ele>
        <time>2023-10-12T10:36:33Z</time>
      </trkpt>
      <trkpt lat="46.79683" lon="6.48814">
        <ele>1521.109</ele>
        <time>2023-10-12T10:36:38Z</time>
      </trkpt>
      <trkpt lat="46.79683" lon="6.48814">
        <ele>1521.105</ele>
        <time>2023-10-12T10:36:43Z</time>
      </trkpt>
      <trkpt lat="46.79683" lon="6.48814">
        <ele>1521.103</ele>
        <time>2023-10-12T10:36:48Z</time>
      </trkpt>
      <trkpt lat="46.79683" lon="6.48814">
        <ele>1521.098</ele>
        <time>2023-10-12T10:36:53Z</time>
      </trkpt>
      <trkpt lat="46.79683" lon="6.48814">
        <ele>1521.097</ele>
        <time>2023-10-12T10:36:58Z</time>
      </trkpt>
      <trkpt lat="46.79683" lon="6.48814">
        <ele>1521.095</ele>
        <time>2023-10-12T10:37:03Z</time>
      </trkpt>
      <trkpt lat="46.79683" lon="6.48814">
        <ele>1521.092</ele>
        <time>2023-10-12T10:37:08Z</time>
      </trkpt>
      <trkpt lat="46.79683" lon="6.48814">
        <ele>1521.091</ele>
        <time>2023-10-12T10:37:13Z</time>
      </trkpt>
      <trkpt lat="46.79683" lon="6.48814">
        <ele>1521.087</ele>
        <time>2023-10-12T10:37:18Z</time>
      </trkpt>
      <trkpt lat="46.79683" lon="6.48814">
        <ele>1521.088</ele>
        <time>2023-10-12T10:37:23Z</time>
      </trkpt>
      <trkpt lat="46.79683" lon="6.48814">
        <ele>1521.087</ele>
        <time>2023-10-12T10:37:28Z</time>
      </trkpt>
      <trkpt lat="46.79683" lon="6.48814">
        <ele>1521.087</ele>
        <time>2023-10-12T10:37:33Z</time>
      </trkpt>
      <trkpt lat="46.79683" lon="6.48814">
        <ele>1521.091</ele>
        <time>2023-10-12T10:37:38Z</time>
      </trkpt>
      <trkpt lat="46.79683" lon="6.48814">
        <ele>1521.09</ele>
        <time>2023-10-12T10:37:43Z</time>
      </trkpt>
      <trkpt lat="46.79683" lon="6.48814">
        <ele>1521.087</ele>
        <time>2023-10-12T10:37:48Z</time>
      </trkpt>
      <trkpt lat="46.79683" lon="6.48814">
        <ele>1521.089</ele>
        <time>2023-10-12T10:37:53Z</time>
      </trkpt>
      <trkpt lat="46.79683" lon="6.48814">
        <ele>1521.084</ele>
        <time>2023-10-12T10:37:58Z</time>
      </trkpt>
      <trkpt lat="46.79683" lon="6.48814">
        <ele>1521.084</ele>
        <time>2023-10-12T10:38:03Z</time>
      </trkpt>
      <trkpt lat="46.79683" lon="6.48814">
        <ele>1521.084</ele>
        <time>2023-10-12T10:38:08Z</time>
      </trkpt>
      <trkpt lat="46.79683" lon="6.48814">
        <ele>1521.083</ele>
        <time>2023-10-12T10:38:13Z</time>
      </trkpt>
      <trkpt lat="46.79683" lon="6.48814">
        <ele>1521.081</ele>
        <time>2023-10-12T10:38:18Z</time>
      </trkpt>
      <trkpt lat="46.79683" lon="6.48814">
        <ele>1521.081</ele>
        <time>2023-10-12T10:38:23Z</time>
      </trkpt>
      <trkpt lat="46.79683" lon="6.48814">
        <ele>1521.076</ele>
        <time>2023-10-12T10:38:28Z</time>
      </trkpt>
      <trkpt lat="46.79683" lon="6.48814">
        <ele>1521.072</ele>
        <time>2023-10-12T10:38:33Z</time>
      </trkpt>
      <trkpt lat="46.79683" lon="6.48814">
        <ele>1521.071</ele>
        <time>2023-10-12T10:38:38Z</time>
      </trkpt>
      <trkpt lat="46.79683" lon="6.48814">
        <ele>1521.071</ele>
        <time>2023-10-12T10:38:43Z</time>
      </trkpt>
      <trkpt lat="46.79683" lon="6.48814">
        <ele>1521.072</ele>
        <time>2023-10-12T10:38:48Z</time>
      </trkpt>
      <trkpt lat="46.79683" lon="6.48814">
        <ele>1521.073</ele>
        <time>2023-10-12T10:38:53Z</time>
      </trkpt>
      <trkpt lat="46.79683" lon="6.48814">
        <ele>1521.07</ele>
        <time>2023-10-12T10:38:58Z</time>
      </trkpt>
      <trkpt lat="46.79683" lon="6.48814">
        <ele>1521.067</ele>
        <time>2023-10-12T10:39:03Z</time>
      </trkpt>
      <trkpt lat="46.79683" lon="6.48814">
        <ele>1521.067</ele>
        <time>2023-10-12T10:39:08Z</time>
      </trkpt>
      <trkpt lat="46.79683" lon="6.48814">
        <ele>1521.068</ele>
        <time>2023-10-12T10:39:13Z</time>
      </trkpt>
      <trkpt lat="46.79683" lon="6.48814">
        <ele>1521.063</ele>
        <time>2023-10-12T10:39:18Z</time>
      </trkpt>
      <trkpt lat="46.79683" lon="6.48814">
        <ele>1521.062</ele>
        <time>2023-10-12T10:39:23Z</time>
      </trkpt>
      <trkpt lat="46.79683" lon="6.48814">
        <ele>1521.061</ele>
        <time>2023-10-12T10:39:28Z</time>
      </trkpt>
      <trkpt lat="46.79683" lon="6.48814">
        <ele>1521.058</ele>
        <time>2023-10-12T10:39:33Z</time>
      </trkpt>
      <trkpt lat="46.79683" lon="6.48814">
        <ele>1521.056</ele>
        <time>2023-10-12T10:39:38Z</time>
      </trkpt>
      <trkpt lat="46.79683" lon="6.48814">
        <ele>1521.052</ele>
        <time>2023-10-12T10:39:43Z</time>
      </trkpt>
      <trkpt lat="46.79683" lon="6.48814">
        <ele>1521.052</ele>
        <time>2023-10-12T10:39:48Z</time>
      </trkpt>
      <trkpt lat="46.79683" lon="6.48814">
        <ele>1521.051</ele>
        <time>2023-10-12T10:39:53Z</time>
      </trkpt>
      <trkpt lat="46.79683" lon="6.48814">
        <ele>1521.052</ele>
        <time>2023-10-12T10:39:58Z</time>
      </trkpt>
      <trkpt lat="46.79683" lon="6.48814">
        <ele>1521.051</ele>
        <time>2023-10-12T10:40:03Z</time>
      </trkpt>
      <trkpt lat="46.79683" lon="6.48814">
        <ele>1521.051</ele>
        <time>2023-10-12T10:40:08Z</time>
      </trkpt>
      <trkpt lat="46.79683" lon="6.48814">
        <ele>1521.046</ele>
        <time>2023-10-12T10:40:13Z</time>
      </trkpt>
      <trkpt lat="46.79683" lon="6.48814">
        <ele>1521.043</ele>
        <time>2023-10-12T10:40:18Z</time>
      </trkpt>
      <trkpt lat="46.79683" lon="6.48814">
        <ele>1521.042</ele>
        <time>2023-10-12T10:40:23Z</time>
      </trkpt>
      <trkpt lat="46.79683" lon="6.48814">
        <ele>1521.042</ele>
        <time>2023-10-12T10:40:28Z</time>
      </trkpt>
      <trkpt lat="46.79683" lon="6.48814">
        <ele>1521.04</ele>
        <time>2023-10-12T10:40:33Z</time>
      </trkpt>
      <trkpt lat="46.79683" lon="6.48814">
        <ele>1521.041</ele>
        <time>2023-10-12T10:40:38Z</time>
      </trkpt>
      <trkpt lat="46.79683" lon="6.48814">
        <ele>1521.039</ele>
        <time>2023-10-12T10:40:43Z</time>
      </trkpt>
      <trkpt lat="46.79683" lon="6.48814">
        <ele>1521.038</ele>
        <time>2023-10-12T10:40:48Z</time>
      </trkpt>
      <trkpt lat="46.79683" lon="6.48814">
        <ele>1521.039</ele>
        <time>2023-10-12T10:40:53Z</time>
      </trkpt>
      <trkpt lat="46.79683" lon="6.48814">
        <ele>1521.037</ele>
        <time>2023-10-12T10:40:58Z</time>
      </trkpt>
      <trkpt lat="46.79683" lon="6.48814">
        <ele>1521.036</ele>
        <time>2023-10-12T10:41:03Z</time>
      </trkpt>
      <trkpt lat="46.79683" lon="6.48814">
        <ele>1521.036</ele>
        <time>2023-10-12T10:41:08Z</time>
      </trkpt>
      <trkpt lat="46.79683" lon="6.48814">
        <ele>1521.036</ele>
        <time>2023-10-12T10:41:13Z</time>
      </trkpt>
      <trkpt lat="46.79683" lon="6.48814">
        <ele>1521.038</ele>
        <time>2023-10-12T10:41:18Z</time>
      </trkpt>
      <trkpt lat="46.79683" lon="6.48814">
        <ele>1521.037</ele>
        <time>2023-10-12T10:41:23Z</time>
      </trkpt>
      <trkpt lat="46.79683" lon="6.48814">
        <ele>1521.037</ele>
        <time>2023-10-12T10:41:28Z</time>
      </trkpt>
      <trkpt lat="46.79683" lon="6.48814">
        <ele>1521.038</ele>
        <time>2023-10-12T10:41:33Z</time>
      </trkpt>
      <trkpt lat="46.79683" lon="6.48814">
        <ele>1521.036</ele>
        <time>2023-10-12T10:41:38Z</time>
      </trkpt>
      <trkpt lat="46.79683" lon="6.48814">
        <ele>1521.035</ele>
        <time>2023-10-12T10:41:43Z</time>
      </trkpt>
      <trkpt lat="46.79683" lon="6.48814">
        <ele>1521.035</ele>
        <time>2023-10-12T10:41:48Z</time>
      </trkpt>
      <trkpt lat="46.79683" lon="6.48814">
        <ele>1521.038</ele>
        <time>2023-10-12T10:41:53Z</time>
      </trkpt>
      <trkpt lat="46.79683" lon="6.48814">
        <ele>1521.038</ele>
        <time>2023-10-12T10:41:58Z</time>
      </trkpt>
      <trkpt lat="46.79683" lon="6.48814">
        <ele>1521.036</ele>
        <time>2023-10-12T10:42:03Z</time>
      </trkpt>
      <trkpt lat="46.79683" lon="6.48814">
        <ele>1521.037</ele>
        <time>2023-10-12T10:42:08Z</time>
      </trkpt>
      <trkpt lat="46.79683" lon="6.48814">
        <ele>1521.037</ele>
        <time>2023-10-12T10:42:13Z</time>
      </trkpt>
      <trkpt lat="46.79683" lon="6.48814">
        <ele>1521.033</ele>
        <time>2023-10-12T10:42:18Z</time>
      </trkpt>
      <trkpt lat="46.79683" lon="6.48814">
        <ele>1521.032</ele>
        <time>2023-10-12T10:42:23Z</time>
      </trkpt>
      <trkpt lat="46.79683" lon="6.48814">
        <ele>1521.027</ele>
        <time>2023-10-12T10:42:28Z</time>
      </trkpt>
      <trkpt lat="46.79683" lon="6.48814">
        <ele>1521.02</ele>
        <time>2023-10-12T10:42:33Z</time>
      </trkpt>
      <trkpt lat="46.79683" lon="6.48814">
        <ele>1521.014</ele>
        <time>2023-10-12T10:42:38Z</time>
      </trkpt>
      <trkpt lat="46.79683" lon="6.48814">
        <ele>1521.007</ele>
        <time>2023-10-12T10:42:43Z</time>
      </trkpt>
      <trkpt lat="46.79683" lon="6.48814">
        <ele>1521.002</ele>
        <time>2023-10-12T10:42:48Z</time>
      </trkpt>
      <trkpt lat="46.79683" lon="6.48814">
        <ele>1521</ele>
        <time>2023-10-12T10:42:53Z</time>
      </trkpt>
      <trkpt lat="46.79683" lon="6.48814">
        <ele>1520.996</ele>
        <time>2023-10-12T10:42:58Z</time>
      </trkpt>
      <trkpt lat="46.79683" lon="6.48814">
        <ele>1520.994</ele>
        <time>2023-10-12T10:43:03Z</time>
      </trkpt>
      <trkpt lat="46.79683" lon="6.48814">
        <ele>1520.993</ele>
        <time>2023-10-12T10:43:08Z</time>
      </trkpt>
      <trkpt lat="46.79683" lon="6.48814">
        <ele>1520.988</ele>
        <time>2023-10-12T10:43:13Z</time>
      </trkpt>
      <trkpt lat="46.79683" lon="6.48814">
        <ele>1520.987</ele>
        <time>2023-10-12T10:43:18Z</time>
      </trkpt>
      <trkpt lat="46.79683" lon="6.48814">
        <ele>1520.986</ele>
        <time>2023-10-12T10:43:23Z</time>
      </trkpt>
      <trkpt lat="46.79683" lon="6.48814">
        <ele>1520.987</ele>
        <time>2023-10-12T10:43:28Z</time>
      </trkpt>
      <trkpt lat="46.79683" lon="6.48814">
        <ele>1520.99</ele>
        <time>2023-10-12T10:43:33Z</time>
      </trkpt>
      <trkpt lat="46.79683" lon="6.48814">
        <ele>1520.99</ele>
        <time>2023-10-12T10:43:38Z</time>
      </trkpt>
      <trkpt lat="46.79683" lon="6.48814">
        <ele>1520.988</ele>
        <time>2023-10-12T10:43:43Z</time>
      </trkpt>
      <trkpt lat="46.79683" lon="6.48814">
        <ele>1520.987</ele>
        <time>2023-10-12T10:43:48Z</time>
      </trkpt>
      <trkpt lat="46.79683" lon="6.48814">
        <ele>1520.983</ele>
        <time>2023-10-12T10:43:53Z</time>
      </trkpt>
      <trkpt lat="46.79683" lon="6.48814">
        <ele>1520.986</ele>
        <time>2023-10-12T10:43:58Z</time>
      </trkpt>
      <trkpt lat="46.79683" lon="6.48814">
        <ele>1520.987</ele>
        <time>2023-10-12T10:44:03Z</time>
      </trkpt>
      <trkpt lat="46.79683" lon="6.48814">
        <ele>1520.984</ele>
        <time>2023-10-12T10:44:08Z</time>
      </trkpt>
      <trkpt lat="46.79683" lon="6.48814">
        <ele>1520.983</ele>
        <time>2023-10-12T10:44:13Z</time>
      </trkpt>
      <trkpt lat="46.79683" lon="6.48814">
        <ele>1520.981</ele>
        <time>2023-10-12T10:44:18Z</time>
      </trkpt>
      <trkpt lat="46.79683" lon="6.48814">
        <ele>1520.979</ele>
        <time>2023-10-12T10:44:23Z</time>
      </trkpt>
      <trkpt lat="46.79683" lon="6.48814">
        <ele>1520.975</ele>
        <time>2023-10-12T10:44:28Z</time>
      </trkpt>
      <trkpt lat="46.79683" lon="6.48814">
        <ele>1520.973</ele>
        <time>2023-10-12T10:44:33Z</time>
      </trkpt>
      <trkpt lat="46.79683" lon="6.48814">
        <ele>1520.969</ele>
        <time>2023-10-12T10:44:38Z</time>
      </trkpt>
      <trkpt lat="46.79683" lon="6.48814">
        <ele>1520.965</ele>
        <time>2023-10-12T10:44:43Z</time>
      </trkpt>
      <trkpt lat="46.79683" lon="6.48814">
        <ele>1520.963</ele>
        <time>2023-10-12T10:44:48Z</time>
      </trkpt>
      <trkpt lat="46.79683" lon="6.48814">
        <ele>1520.958</ele>
        <time>2023-10-12T10:44:53Z</time>
      </trkpt>
      <trkpt lat="46.79683" lon="6.48814">
        <ele>1520.954</ele>
        <time>2023-10-12T10:44:58Z</time>
      </trkpt>
      <trkpt lat="46.79683" lon="6.48814">
        <ele>1520.952</ele>
        <time>2023-10-12T10:45:03Z</time>
      </trkpt>
      <trkpt lat="46.79683" lon="6.48814">
        <ele>1520.948</ele>
        <time>2023-10-12T10:45:08Z</time>
      </trkpt>
      <trkpt lat="46.79683" lon="6.48814">
        <ele>1520.943</ele>
        <time>2023-10-12T10:45:13Z</time>
      </trkpt>
      <trkpt lat="46.79683" lon="6.48814">
        <ele>1520.938</ele>
        <time>2023-10-12T10:45:18Z</time>
      </trkpt>
      <trkpt lat="46.79683" lon="6.48814">
        <ele>1520.936</ele>
        <time>2023-10-12T10:45:23Z</time>
      </trkpt>
      <trkpt lat="46.79683" lon="6.48814">
        <ele>1520.932</ele>
        <time>2023-10-12T10:45:28Z</time>
      </trkpt>
      <trkpt lat="46.79683" lon="6.48814">
        <ele>1520.926</ele>
        <time>2023-10-12T10:45:33Z</time>
      </trkpt>
      <trkpt lat="46.79683" lon="6.48814">
        <ele>1520.92</ele>
        <time>2023-10-12T10:45:38Z</time>
      </trkpt>
      <trkpt lat="46.79683" lon="6.48814">
        <ele>1520.915</ele>
        <time>2023-10-12T10:45:43Z</time>
      </trkpt>
      <trkpt lat="46.79683" lon="6.48814">
        <ele>1520.914</ele>
        <time>2023-10-12T10:45:48Z</time>
      </trkpt>
      <trkpt lat="46.79683" lon="6.48814">
        <ele>1520.913</ele>
        <time>2023-10-12T10:45:53Z</time>
      </trkpt>
      <trkpt lat="46.79683" lon="6.48814">
        <ele>1520.906</ele>
        <time>2023-10-12T10:45:58Z</time>
      </trkpt>
      <trkpt lat="46.79683" lon="6.48814">
        <ele>1520.899</ele>
        <time>2023-10-12T10:46:03Z</time>
      </trkpt>
      <trkpt lat="46.79683" lon="6.48814">
        <ele>1520.895</ele>
        <time>2023-10-12T10:46:08Z</time>
      </trkpt>
      <trkpt lat="46.79683" lon="6.48814">
        <ele>1520.895</ele>
        <time>2023-10-12T10:46:13Z</time>
      </trkpt>
      <trkpt lat="46.79683" lon="6.48814">
        <ele>1520.894</ele>
        <time>2023-10-12T10:46:18Z</time>
      </trkpt>
      <trkpt lat="46.79683" lon="6.48814">
        <ele>1520.892</ele>
        <time>2023-10-12T10:46:23Z</time>
      </trkpt>
      <trkpt lat="46.79683" lon="6.48814">
        <ele>1520.892</ele>
        <time>2023-10-12T10:46:28Z</time>
      </trkpt>
      <trkpt lat="46.79683" lon="6.48814">
        <ele>1520.891</ele>
        <time>2023-10-12T10:46:33Z</time>
      </trkpt>
      <trkpt lat="46.79683" lon="6.48814">
        <ele>1520.89</ele>
        <time>2023-10-12T10:46:38Z</time>
      </trkpt>
      <trkpt lat="46.79683" lon="6.48814">
        <ele>1520.888</ele>
        <time>2023-10-12T10:46:43Z</time>
      </trkpt>
      <trkpt lat="46.79683" lon="6.48814">
        <ele>1520.884</ele>
        <time>2023-10-12T10:46:48Z</time>
      </trkpt>
      <trkpt lat="46.79683" lon="6.48814">
        <ele>1520.882</ele>
        <time>2023-10-12T10:46:53Z</time>
      </trkpt>
      <trkpt lat="46.79683" lon="6.48814">
        <ele>1520.883</ele>
        <time>2023-10-12T10:46:58Z</time>
      </trkpt>
      <trkpt lat="46.79683" lon="6.48814">
        <ele>1520.88</ele>
        <time>2023-10-12T10:47:03Z</time>
      </trkpt>
      <trkpt lat="46.79683" lon="6.48814">
        <ele>1520.88</ele>
        <time>2023-10-12T10:47:08Z</time>
      </trkpt>
      <trkpt lat="46.79683" lon="6.48814">
        <ele>1520.88</ele>
        <time>2023-10-12T10:47:13Z</time>
      </trkpt>
      <trkpt lat="46.79683" lon="6.48814">
        <ele>1520.881</ele>
        <time>2023-10-12T10:47:18Z</time>
      </trkpt>
      <trkpt lat="46.79683" lon="6.48814">
        <ele>1520.883</ele>
        <time>2023-10-12T10:47:23Z</time>
      </trkpt>
      <trkpt lat="46.79683" lon="6.48814">
        <ele>1520.882</ele>
        <time>2023-10-12T10:47:28Z</time>
      </trkpt>
      <trkpt lat="46.79683" lon="6.48814">
        <ele>1520.882</ele>
        <time>2023-10-12T10:47:33Z</time>
      </trkpt>
      <trkpt lat="46.79683" lon="6.48814">
        <ele>1520.883</ele>
        <time>2023-10-12T10:47:38Z</time>
      </trkpt>
      <trkpt lat="46.79683" lon="6.48814">
        <ele>1520.883</ele>
        <time>2023-10-12T10:47:43Z</time>
      </trkpt>
      <trkpt lat="46.79683" lon="6.48814">
        <ele>1520.881</ele>
        <time>2023-10-12T10:47:48Z</time>
      </trkpt>
      <trkpt lat="46.79683" lon="6.48814">
        <ele>1520.88</ele>
        <time>2023-10-12T10:47:53Z</time>
      </trkpt>
      <trkpt lat="46.79683" lon="6.48814">
        <ele>1520.876</ele>
        <time>2023-10-12T10:47:58Z</time>
      </trkpt>
      <trkpt lat="46.79683" lon="6.48814">
        <ele>1520.877</ele>
        <time>2023-10-12T10:48:03Z</time>
      </trkpt>
      <trkpt lat="46.79683" lon="6.48814">
        <ele>1520.875</ele>
        <time>2023-10-12T10:48:08Z</time>
      </trkpt>
      <trkpt lat="46.79683" lon="6.48814">
        <ele>1520.875</ele>
        <time>2023-10-12T10:48:13Z</time>
      </trkpt>
      <trkpt lat="46.79683" lon="6.48814">
        <ele>1520.875</ele>
        <time>2023-10-12T10:48:18Z</time>
      </trkpt>
      <trkpt lat="46.79683" lon="6.48814">
        <ele>1520.874</ele>
        <time>2023-10-12T10:48:23Z</time>
      </trkpt>
      <trkpt lat="46.79683" lon="6.48814">
        <ele>1520.875</ele>
        <time>2023-10-12T10:48:28Z</time>
      </trkpt>
      <trkpt lat="46.79683" lon="6.48814">
        <ele>1520.873</ele>
        <time>2023-10-12T10:48:33Z</time>
      </trkpt>
      <trkpt lat="46.79683" lon="6.48814">
        <ele>1520.873</ele>
        <time>2023-10-12T10:48:38Z</time>
      </trkpt>
      <trkpt lat="46.79683" lon="6.48814">
        <ele>1520.874</ele>
        <time>2023-10-12T10:48:43Z</time>
      </trkpt>
      <trkpt lat="46.79683" lon="6.48814">
        <ele>1520.875</ele>
        <time>2023-10-12T10:48:48Z</time>
      </trkpt>
      <trkpt lat="46.79683" lon="6.48814">
        <ele>1520.876</ele>
        <time>2023-10-12T10:48:53Z</time>
      </trkpt>
      <trkpt lat="46.79683" lon="6.48814">
        <ele>1520.877</ele>
        <time>2023-10-12T10:48:58Z</time>
      </trkpt>
      <trkpt lat="46.79683" lon="6.48814">
        <ele>1520.876</ele>
        <time>2023-10-12T10:49:03Z</time>
      </trkpt>
      <trkpt lat="46.79683" lon="6.48814">
        <ele>1520.875</ele>
        <time>2023-10-12T10:49:08Z</time>
      </trkpt>
      <trkpt lat="46.79683" lon="6.48814">
        <ele>1520.875</ele>
        <time>2023-10-12T10:49:13Z</time>
      </trkpt>
      <trkpt lat="46.79683" lon="6.48814">
        <ele>1520.875</ele>
        <time>2023-10-12T10:49:18Z</time>
      </trkpt>
      <trkpt lat="46.79683" lon="6.48814">
        <ele>1520.875</ele>
        <time>2023-10-12T10:49:23Z</time>
      </trkpt>
      <trkpt lat="46.79683" lon="6.48814">
        <ele>1520.875</ele>
        <time>2023-10-12T10:49:28Z</time>
      </trkpt>
      <trkpt lat="46.79683" lon="6.48814">
        <ele>1520.873</ele>
        <time>2023-10-12T10:49:33Z</time>
      </trkpt>
      <trkpt lat="46.79683" lon="6.48814">
        <ele>1520.873</ele>
        <time>2023-10-12T10:49:38Z</time>
      </trkpt>
      <trkpt lat="46.79683" lon="6.48814">
        <ele>1520.872</ele>
        <time>2023-10-12T10:49:43Z</time>
      </trkpt>
      <trkpt lat="46.79683" lon="6.48814">
        <ele>1520.872</ele>
        <time>2023-10-12T10:49:48Z</time>
      </trkpt>
      <trkpt lat="46.79683" lon="6.48814">
        <ele>1520.871</ele>
        <time>2023-10-12T10:49:53Z</time>
      </trkpt>
      <trkpt lat="46.79683" lon="6.48814">
        <ele>1520.869</ele>
        <time>2023-10-12T10:49:58Z</time>
      </trkpt>
      <trkpt lat="46.79683" lon="6.48814">
        <ele>1520.865</ele>
        <time>2023-10-12T10:50:03Z</time>
      </trkpt>
      <trkpt lat="46.79683" lon="6.48814">
        <ele>1520.863</ele>
        <time>2023-10-12T10:50:08Z</time>
      </trkpt>
      <trkpt lat="46.79683" lon="6.48814">
        <ele>1520.859</ele>
        <time>2023-10-12T10:50:13Z</time>
      </trkpt>
      <trkpt lat="46.79683" lon="6.48814">
        <ele>1520.81</ele>
        <time>2023-10-12T10:50:18Z</time>
      </trkpt>
      <trkpt lat="46.79683" lon="6.48814">
        <ele>1521.139</ele>
        <time>2023-10-12T10:50:23Z</time>
      </trkpt>
      <trkpt lat="46.79686" lon="6.48825">
        <ele>1520.832</ele>
        <time>2023-10-12T10:50:28Z</time>
      </trkpt>
      <trkpt lat="46.79687" lon="6.48825">
        <ele>1520.825</ele>
        <time>2023-10-12T10:50:33Z</time>
      </trkpt>
      <trkpt lat="46.79687" lon="6.48825">
        <ele>1520.828</ele>
        <time>2023-10-12T10:50:38Z</time>
      </trkpt>
      <trkpt lat="46.79687" lon="6.48825">
        <ele>1520.832</ele>
        <time>2023-10-12T10:50:43Z</time>
      </trkpt>
      <trkpt lat="46.79687" lon="6.48825">
        <ele>1520.837</ele>
        <time>2023-10-12T10:50:48Z</time>
      </trkpt>
      <trkpt lat="46.79687" lon="6.48825">
        <ele>1520.84</ele>
        <time>2023-10-12T10:50:53Z</time>
      </trkpt>
      <trkpt lat="46.79687" lon="6.48825">
        <ele>1520.973</ele>
        <time>2023-10-12T10:50:58Z</time>
      </trkpt>
      <trkpt lat="46.79687" lon="6.48821">
        <ele>1521.141</ele>
        <time>2023-10-12T10:51:03Z</time>
      </trkpt>
      <trkpt lat="46.79687" lon="6.48815">
        <ele>1521.455</ele>
        <time>2023-10-12T10:51:08Z</time>
      </trkpt>
      <trkpt lat="46.79685" lon="6.48811">
        <ele>1521.51</ele>
        <time>2023-10-12T10:51:13Z</time>
      </trkpt>
      <trkpt lat="46.79684" lon="6.4881">
        <ele>1521.233</ele>
        <time>2023-10-12T10:51:18Z</time>
      </trkpt>
      <trkpt lat="46.79684" lon="6.48806">
        <ele>1521.782</ele>
        <time>2023-10-12T10:51:23Z</time>
      </trkpt>
      <trkpt lat="46.79684" lon="6.48802">
        <ele>1521.091</ele>
        <time>2023-10-12T10:51:28Z</time>
      </trkpt>
      <trkpt lat="46.79683" lon="6.48797">
        <ele>1520.986</ele>
        <time>2023-10-12T10:51:33Z</time>
      </trkpt>
      <trkpt lat="46.79683" lon="6.48791">
        <ele>1520.232</ele>
        <time>2023-10-12T10:51:38Z</time>
      </trkpt>
      <trkpt lat="46.79682" lon="6.48786">
        <ele>1520.63</ele>
        <time>2023-10-12T10:51:43Z</time>
      </trkpt>
      <trkpt lat="46.79681" lon="6.48781">
        <ele>1519.73</ele>
        <time>2023-10-12T10:51:48Z</time>
      </trkpt>
      <trkpt lat="46.7968" lon="6.48775">
        <ele>1519.457</ele>
        <time>2023-10-12T10:51:53Z</time>
      </trkpt>
      <trkpt lat="46.7968" lon="6.48771">
        <ele>1517.969</ele>
        <time>2023-10-12T10:51:58Z</time>
      </trkpt>
      <trkpt lat="46.79679" lon="6.48766">
        <ele>1516.978</ele>
        <time>2023-10-12T10:52:03Z</time>
      </trkpt>
      <trkpt lat="46.79678" lon="6.48761">
        <ele>1516.216</ele>
        <time>2023-10-12T10:52:08Z</time>
      </trkpt>
      <trkpt lat="46.79677" lon="6.48755">
        <ele>1515.529</ele>
        <time>2023-10-12T10:52:13Z</time>
      </trkpt>
      <trkpt lat="46.79677" lon="6.4875">
        <ele>1514.731</ele>
        <time>2023-10-12T10:52:18Z</time>
      </trkpt>
      <trkpt lat="46.79677" lon="6.48745">
        <ele>1513.838</ele>
        <time>2023-10-12T10:52:23Z</time>
      </trkpt>
      <trkpt lat="46.79676" lon="6.4874">
        <ele>1513.72</ele>
        <time>2023-10-12T10:52:28Z</time>
      </trkpt>
      <trkpt lat="46.79676" lon="6.48739">
        <ele>1513.613</ele>
        <time>2023-10-12T10:52:33Z</time>
      </trkpt>
      <trkpt lat="46.79677" lon="6.48737">
        <ele>1513.473</ele>
        <time>2023-10-12T10:52:38Z</time>
      </trkpt>
      <trkpt lat="46.79677" lon="6.48731">
        <ele>1512.697</ele>
        <time>2023-10-12T10:52:43Z</time>
      </trkpt>
      <trkpt lat="46.79675" lon="6.48725">
        <ele>1511.244</ele>
        <time>2023-10-12T10:52:48Z</time>
      </trkpt>
      <trkpt lat="46.79672" lon="6.4872">
        <ele>1511.574</ele>
        <time>2023-10-12T10:52:53Z</time>
      </trkpt>
      <trkpt lat="46.7967" lon="6.48716">
        <ele>1511.048</ele>
        <time>2023-10-12T10:52:58Z</time>
      </trkpt>
      <trkpt lat="46.79668" lon="6.48711">
        <ele>1509.878</ele>
        <time>2023-10-12T10:53:03Z</time>
      </trkpt>
      <trkpt lat="46.79665" lon="6.48705">
        <ele>1509.521</ele>
        <time>2023-10-12T10:53:08Z</time>
      </trkpt>
      <trkpt lat="46.79663" lon="6.487">
        <ele>1509.109</ele>
        <time>2023-10-12T10:53:13Z</time>
      </trkpt>
      <trkpt lat="46.79662" lon="6.48695">
        <ele>1509.026</ele>
        <time>2023-10-12T10:53:18Z</time>
      </trkpt>
      <trkpt lat="46.79661" lon="6.48691">
        <ele>1508.593</ele>
        <time>2023-10-12T10:53:23Z</time>
      </trkpt>
      <trkpt lat="46.79659" lon="6.48687">
        <ele>1508.746</ele>
        <time>2023-10-12T10:53:28Z</time>
      </trkpt>
      <trkpt lat="46.79657" lon="6.48683">
        <ele>1509.247</ele>
        <time>2023-10-12T10:53:34Z</time>
      </trkpt>
      <trkpt lat="46.79657" lon="6.48679">
        <ele>1508.701</ele>
        <time>2023-10-12T10:53:39Z</time>
      </trkpt>
      <trkpt lat="46.79655" lon="6.48673">
        <ele>1508.488</ele>
        <time>2023-10-12T10:53:44Z</time>
      </trkpt>
      <trkpt lat="46.79653" lon="6.48668">
        <ele>1507.567</ele>
        <time>2023-10-12T10:53:49Z</time>
      </trkpt>
      <trkpt lat="46.79651" lon="6.48664">
        <ele>1504.902</ele>
        <time>2023-10-12T10:53:54Z</time>
      </trkpt>
      <trkpt lat="46.7965" lon="6.48659">
        <ele>1504.698</ele>
        <time>2023-10-12T10:53:59Z</time>
      </trkpt>
      <trkpt lat="46.79648" lon="6.48653">
        <ele>1503.805</ele>
        <time>2023-10-12T10:54:04Z</time>
      </trkpt>
      <trkpt lat="46.79647" lon="6.48648">
        <ele>1503.626</ele>
        <time>2023-10-12T10:54:09Z</time>
      </trkpt>
      <trkpt lat="46.79645" lon="6.48643">
        <ele>1503.753</ele>
        <time>2023-10-12T10:54:14Z</time>
      </trkpt>
      <trkpt lat="46.79643" lon="6.48638">
        <ele>1503.823</ele>
        <time>2023-10-12T10:54:19Z</time>
      </trkpt>
      <trkpt lat="46.79642" lon="6.48633">
        <ele>1504.36</ele>
        <time>2023-10-12T10:54:24Z</time>
      </trkpt>
      <trkpt lat="46.7964" lon="6.48628">
        <ele>1504.27</ele>
        <time>2023-10-12T10:54:29Z</time>
      </trkpt>
      <trkpt lat="46.79636" lon="6.48617">
        <ele>1504.025</ele>
        <time>2023-10-12T10:54:34Z</time>
      </trkpt>
      <trkpt lat="46.79634" lon="6.48615">
        <ele>1504.376</ele>
        <time>2023-10-12T10:54:39Z</time>
      </trkpt>
      <trkpt lat="46.79632" lon="6.48611">
        <ele>1504.147</ele>
        <time>2023-10-12T10:54:44Z</time>
      </trkpt>
      <trkpt lat="46.7963" lon="6.48605">
        <ele>1503.656</ele>
        <time>2023-10-12T10:54:49Z</time>
      </trkpt>
      <trkpt lat="46.79627" lon="6.48601">
        <ele>1503.73</ele>
        <time>2023-10-12T10:54:54Z</time>
      </trkpt>
      <trkpt lat="46.79623" lon="6.48597">
        <ele>1502.882</ele>
        <time>2023-10-12T10:54:59Z</time>
      </trkpt>
      <trkpt lat="46.79619" lon="6.48591">
        <ele>1503.516</ele>
        <time>2023-10-12T10:55:04Z</time>
      </trkpt>
      <trkpt lat="46.79615" lon="6.48587">
        <ele>1503.064</ele>
        <time>2023-10-12T10:55:09Z</time>
      </trkpt>
      <trkpt lat="46.79611" lon="6.48583">
        <ele>1503.166</ele>
        <time>2023-10-12T10:55:14Z</time>
      </trkpt>
      <trkpt lat="46.79608" lon="6.48579">
        <ele>1503.65</ele>
        <time>2023-10-12T10:55:19Z</time>
      </trkpt>
      <trkpt lat="46.79603" lon="6.48577">
        <ele>1504.886</ele>
        <time>2023-10-12T10:55:24Z</time>
      </trkpt>
      <trkpt lat="46.79599" lon="6.48574">
        <ele>1506.309</ele>
        <time>2023-10-12T10:55:29Z</time>
      </trkpt>
      <trkpt lat="46.79595" lon="6.48572">
        <ele>1507.366</ele>
        <time>2023-10-12T10:55:34Z</time>
      </trkpt>
      <trkpt lat="46.79593" lon="6.48572">
        <ele>1508.808</ele>
        <time>2023-10-12T10:55:39Z</time>
      </trkpt>
      <trkpt lat="46.79591" lon="6.4857">
        <ele>1510.758</ele>
        <time>2023-10-12T10:55:44Z</time>
      </trkpt>
      <trkpt lat="46.79589" lon="6.48569">
        <ele>1511.434</ele>
        <time>2023-10-12T10:55:49Z</time>
      </trkpt>
      <trkpt lat="46.79586" lon="6.48567">
        <ele>1512.043</ele>
        <time>2023-10-12T10:55:54Z</time>
      </trkpt>
      <trkpt lat="46.79584" lon="6.48565">
        <ele>1511.999</ele>
        <time>2023-10-12T10:55:59Z</time>
      </trkpt>
      <trkpt lat="46.79583" lon="6.4856">
        <ele>1512.869</ele>
        <time>2023-10-12T10:56:04Z</time>
      </trkpt>
      <trkpt lat="46.79583" lon="6.48556">
        <ele>1511.731</ele>
        <time>2023-10-12T10:56:09Z</time>
      </trkpt>
      <trkpt lat="46.79582" lon="6.48551">
        <ele>1511.869</ele>
        <time>2023-10-12T10:56:14Z</time>
      </trkpt>
      <trkpt lat="46.79582" lon="6.48544">
        <ele>1512.209</ele>
        <time>2023-10-12T10:56:19Z</time>
      </trkpt>
      <trkpt lat="46.7958" lon="6.48537">
        <ele>1511.791</ele>
        <time>2023-10-12T10:56:24Z</time>
      </trkpt>
      <trkpt lat="46.79578" lon="6.48532">
        <ele>1510.52</ele>
        <time>2023-10-12T10:56:29Z</time>
      </trkpt>
      <trkpt lat="46.79576" lon="6.48527">
        <ele>1510.114</ele>
        <time>2023-10-12T10:56:34Z</time>
      </trkpt>
      <trkpt lat="46.79577" lon="6.48521">
        <ele>1510.52</ele>
        <time>2023-10-12T10:56:39Z</time>
      </trkpt>
      <trkpt lat="46.79577" lon="6.48514">
        <ele>1510.07</ele>
        <time>2023-10-12T10:56:44Z</time>
      </trkpt>
      <trkpt lat="46.79575" lon="6.48507">
        <ele>1510.473</ele>
        <time>2023-10-12T10:56:49Z</time>
      </trkpt>
      <trkpt lat="46.79573" lon="6.48501">
        <ele>1511.333</ele>
        <time>2023-10-12T10:56:54Z</time>
      </trkpt>
      <trkpt lat="46.7957" lon="6.48494">
        <ele>1510.222</ele>
        <time>2023-10-12T10:56:59Z</time>
      </trkpt>
      <trkpt lat="46.79565" lon="6.48489">
        <ele>1509.415</ele>
        <time>2023-10-12T10:57:04Z</time>
      </trkpt>
      <trkpt lat="46.7956" lon="6.48487">
        <ele>1509.334</ele>
        <time>2023-10-12T10:57:09Z</time>
      </trkpt>
      <trkpt lat="46.79556" lon="6.48485">
        <ele>1509.754</ele>
        <time>2023-10-12T10:57:14Z</time>
      </trkpt>
      <trkpt lat="46.79554" lon="6.48483">
        <ele>1509.594</ele>
        <time>2023-10-12T10:57:19Z</time>
      </trkpt>
      <trkpt lat="46.79554" lon="6.48479">
        <ele>1510.574</ele>
        <time>2023-10-12T10:57:24Z</time>
      </trkpt>
      <trkpt lat="46.79554" lon="6.48474">
        <ele>1511.562</ele>
        <time>2023-10-12T10:57:29Z</time>
      </trkpt>
      <trkpt lat="46.79552" lon="6.48471">
        <ele>1511.683</ele>
        <time>2023-10-12T10:57:34Z</time>
      </trkpt>
      <trkpt lat="46.79548" lon="6.4847">
        <ele>1512.119</ele>
        <time>2023-10-12T10:57:39Z</time>
      </trkpt>
      <trkpt lat="46.79546" lon="6.48467">
        <ele>1513.79</ele>
        <time>2023-10-12T10:57:44Z</time>
      </trkpt>
      <trkpt lat="46.79544" lon="6.48465">
        <ele>1515.524</ele>
        <time>2023-10-12T10:57:49Z</time>
      </trkpt>
      <trkpt lat="46.79542" lon="6.48461">
        <ele>1516.563</ele>
        <time>2023-10-12T10:57:54Z</time>
      </trkpt>
      <trkpt lat="46.79541" lon="6.4846">
        <ele>1518.013</ele>
        <time>2023-10-12T10:57:59Z</time>
      </trkpt>
      <trkpt lat="46.7954" lon="6.48456">
        <ele>1517.521</ele>
        <time>2023-10-12T10:58:04Z</time>
      </trkpt>
      <trkpt lat="46.79538" lon="6.48452">
        <ele>1519.623</ele>
        <time>2023-10-12T10:58:09Z</time>
      </trkpt>
      <trkpt lat="46.79538" lon="6.48446">
        <ele>1519.688</ele>
        <time>2023-10-12T10:58:14Z</time>
      </trkpt>
      <trkpt lat="46.79537" lon="6.48438">
        <ele>1521.204</ele>
        <time>2023-10-12T10:58:19Z</time>
      </trkpt>
      <trkpt lat="46.79536" lon="6.48435">
        <ele>1520.601</ele>
        <time>2023-10-12T10:58:24Z</time>
      </trkpt>
      <trkpt lat="46.79533" lon="6.48437">
        <ele>1518.778</ele>
        <time>2023-10-12T10:58:29Z</time>
      </trkpt>
      <trkpt lat="46.79531" lon="6.48438">
        <ele>1518.809</ele>
        <time>2023-10-12T10:58:34Z</time>
      </trkpt>
      <trkpt lat="46.7953" lon="6.48437">
        <ele>1519.01</ele>
        <time>2023-10-12T10:58:39Z</time>
      </trkpt>
      <trkpt lat="46.7953" lon="6.48437">
        <ele>1519.005</ele>
        <time>2023-10-12T10:58:44Z</time>
      </trkpt>
      <trkpt lat="46.7953" lon="6.48437">
        <ele>1519.001</ele>
        <time>2023-10-12T10:58:49Z</time>
      </trkpt>
      <trkpt lat="46.7953" lon="6.48437">
        <ele>1519.001</ele>
        <time>2023-10-12T10:58:54Z</time>
      </trkpt>
      <trkpt lat="46.7953" lon="6.48437">
        <ele>1519.014</ele>
        <time>2023-10-12T10:58:59Z</time>
      </trkpt>
      <trkpt lat="46.7953" lon="6.48437">
        <ele>1519.022</ele>
        <time>2023-10-12T10:59:04Z</time>
      </trkpt>
      <trkpt lat="46.7953" lon="6.48437">
        <ele>1519.029</ele>
        <time>2023-10-12T10:59:09Z</time>
      </trkpt>
      <trkpt lat="46.7953" lon="6.48437">
        <ele>1519.034</ele>
        <time>2023-10-12T10:59:14Z</time>
      </trkpt>
      <trkpt lat="46.7953" lon="6.48437">
        <ele>1519.035</ele>
        <time>2023-10-12T10:59:19Z</time>
      </trkpt>
      <trkpt lat="46.7953" lon="6.48437">
        <ele>1519.039</ele>
        <time>2023-10-12T10:59:24Z</time>
      </trkpt>
      <trkpt lat="46.7953" lon="6.48437">
        <ele>1519.04</ele>
        <time>2023-10-12T10:59:29Z</time>
      </trkpt>
      <trkpt lat="46.7953" lon="6.48437">
        <ele>1519.044</ele>
        <time>2023-10-12T10:59:34Z</time>
      </trkpt>
      <trkpt lat="46.7953" lon="6.48437">
        <ele>1519.043</ele>
        <time>2023-10-12T10:59:39Z</time>
      </trkpt>
      <trkpt lat="46.7953" lon="6.48437">
        <ele>1519.043</ele>
        <time>2023-10-12T10:59:44Z</time>
      </trkpt>
      <trkpt lat="46.7953" lon="6.48437">
        <ele>1519.043</ele>
        <time>2023-10-12T10:59:49Z</time>
      </trkpt>
      <trkpt lat="46.7953" lon="6.48437">
        <ele>1518.932</ele>
        <time>2023-10-12T10:59:54Z</time>
      </trkpt>
      <trkpt lat="46.79533" lon="6.48436">
        <ele>1518.103</ele>
        <time>2023-10-12T10:59:59Z</time>
      </trkpt>
      <trkpt lat="46.79534" lon="6.48431">
        <ele>1518.695</ele>
        <time>2023-10-12T11:00:04Z</time>
      </trkpt>
      <trkpt lat="46.79534" lon="6.48425">
        <ele>1519.185</ele>
        <time>2023-10-12T11:00:09Z</time>
      </trkpt>
      <trkpt lat="46.79532" lon="6.48421">
        <ele>1519.985</ele>
        <time>2023-10-12T11:00:14Z</time>
      </trkpt>
      <trkpt lat="46.79534" lon="6.48417">
        <ele>1520.278</ele>
        <time>2023-10-12T11:00:19Z</time>
      </trkpt>
      <trkpt lat="46.79536" lon="6.48412">
        <ele>1519.734</ele>
        <time>2023-10-12T11:00:24Z</time>
      </trkpt>
      <trkpt lat="46.79537" lon="6.48406">
        <ele>1522.437</ele>
        <time>2023-10-12T11:00:29Z</time>
      </trkpt>
      <trkpt lat="46.79536" lon="6.48399">
        <ele>1521.966</ele>
        <time>2023-10-12T11:00:34Z</time>
      </trkpt>
      <trkpt lat="46.79533" lon="6.48393">
        <ele>1521.725</ele>
        <time>2023-10-12T11:00:39Z</time>
      </trkpt>
      <trkpt lat="46.79532" lon="6.48387">
        <ele>1522.171</ele>
        <time>2023-10-12T11:00:44Z</time>
      </trkpt>
      <trkpt lat="46.7953" lon="6.4838">
        <ele>1522.331</ele>
        <time>2023-10-12T11:00:49Z</time>
      </trkpt>
      <trkpt lat="46.79528" lon="6.48376">
        <ele>1522.389</ele>
        <time>2023-10-12T11:00:54Z</time>
      </trkpt>
      <trkpt lat="46.79526" lon="6.4837">
        <ele>1523.137</ele>
        <time>2023-10-12T11:00:59Z</time>
      </trkpt>
      <trkpt lat="46.79525" lon="6.48366">
        <ele>1523.266</ele>
        <time>2023-10-12T11:01:04Z</time>
      </trkpt>
      <trkpt lat="46.79525" lon="6.48362">
        <ele>1523.312</ele>
        <time>2023-10-12T11:01:09Z</time>
      </trkpt>
      <trkpt lat="46.79525" lon="6.48357">
        <ele>1524.911</ele>
        <time>2023-10-12T11:01:14Z</time>
      </trkpt>
      <trkpt lat="46.79522" lon="6.48354">
        <ele>1525.192</ele>
        <time>2023-10-12T11:01:19Z</time>
      </trkpt>
      <trkpt lat="46.79521" lon="6.48351">
        <ele>1526.62</ele>
        <time>2023-10-12T11:01:24Z</time>
      </trkpt>
      <trkpt lat="46.79518" lon="6.48348">
        <ele>1528.145</ele>
        <time>2023-10-12T11:01:29Z</time>
      </trkpt>
      <trkpt lat="46.79515" lon="6.48344">
        <ele>1527.32</ele>
        <time>2023-10-12T11:01:34Z</time>
      </trkpt>
      <trkpt lat="46.79512" lon="6.48341">
        <ele>1526.553</ele>
        <time>2023-10-12T11:01:39Z</time>
      </trkpt>
      <trkpt lat="46.79511" lon="6.48336">
        <ele>1526.088</ele>
        <time>2023-10-12T11:01:44Z</time>
      </trkpt>
      <trkpt lat="46.79512" lon="6.4833">
        <ele>1526.162</ele>
        <time>2023-10-12T11:01:49Z</time>
      </trkpt>
      <trkpt lat="46.79511" lon="6.48323">
        <ele>1525.86</ele>
        <time>2023-10-12T11:01:54Z</time>
      </trkpt>
      <trkpt lat="46.79509" lon="6.48317">
        <ele>1527.039</ele>
        <time>2023-10-12T11:01:59Z</time>
      </trkpt>
      <trkpt lat="46.79507" lon="6.48313">
        <ele>1527.654</ele>
        <time>2023-10-12T11:02:04Z</time>
      </trkpt>
      <trkpt lat="46.79506" lon="6.48308">
        <ele>1527.832</ele>
        <time>2023-10-12T11:02:09Z</time>
      </trkpt>
      <trkpt lat="46.79505" lon="6.48305">
        <ele>1527.331</ele>
        <time>2023-10-12T11:02:14Z</time>
      </trkpt>
      <trkpt lat="46.79502" lon="6.48301">
        <ele>1526.827</ele>
        <time>2023-10-12T11:02:19Z</time>
      </trkpt>
      <trkpt lat="46.79502" lon="6.48296">
        <ele>1525.66</ele>
        <time>2023-10-12T11:02:24Z</time>
      </trkpt>
      <trkpt lat="46.79502" lon="6.4829">
        <ele>1525.439</ele>
        <time>2023-10-12T11:02:29Z</time>
      </trkpt>
      <trkpt lat="46.79504" lon="6.48285">
        <ele>1525.437</ele>
        <time>2023-10-12T11:02:34Z</time>
      </trkpt>
      <trkpt lat="46.79503" lon="6.48277">
        <ele>1525.328</ele>
        <time>2023-10-12T11:02:39Z</time>
      </trkpt>
      <trkpt lat="46.79501" lon="6.48271">
        <ele>1525.422</ele>
        <time>2023-10-12T11:02:44Z</time>
      </trkpt>
      <trkpt lat="46.795" lon="6.48265">
        <ele>1526.149</ele>
        <time>2023-10-12T11:02:49Z</time>
      </trkpt>
      <trkpt lat="46.79499" lon="6.48259">
        <ele>1526.731</ele>
        <time>2023-10-12T11:02:54Z</time>
      </trkpt>
      <trkpt lat="46.79497" lon="6.48252">
        <ele>1526.53</ele>
        <time>2023-10-12T11:02:59Z</time>
      </trkpt>
      <trkpt lat="46.79494" lon="6.48246">
        <ele>1526.25</ele>
        <time>2023-10-12T11:03:04Z</time>
      </trkpt>
      <trkpt lat="46.79492" lon="6.4824">
        <ele>1525.866</ele>
        <time>2023-10-12T11:03:09Z</time>
      </trkpt>
      <trkpt lat="46.7949" lon="6.48233">
        <ele>1525.019</ele>
        <time>2023-10-12T11:03:14Z</time>
      </trkpt>
      <trkpt lat="46.7949" lon="6.48225">
        <ele>1524.77</ele>
        <time>2023-10-12T11:03:19Z</time>
      </trkpt>
      <trkpt lat="46.79489" lon="6.48218">
        <ele>1524.514</ele>
        <time>2023-10-12T11:03:24Z</time>
      </trkpt>
      <trkpt lat="46.79487" lon="6.48212">
        <ele>1524.308</ele>
        <time>2023-10-12T11:03:29Z</time>
      </trkpt>
      <trkpt lat="46.79485" lon="6.48206">
        <ele>1524.558</ele>
        <time>2023-10-12T11:03:34Z</time>
      </trkpt>
      <trkpt lat="46.79482" lon="6.482">
        <ele>1524.921</ele>
        <time>2023-10-12T11:03:39Z</time>
      </trkpt>
      <trkpt lat="46.7948" lon="6.48194">
        <ele>1525.187</ele>
        <time>2023-10-12T11:03:44Z</time>
      </trkpt>
      <trkpt lat="46.79477" lon="6.48189">
        <ele>1524.558</ele>
        <time>2023-10-12T11:03:49Z</time>
      </trkpt>
      <trkpt lat="46.79473" lon="6.48184">
        <ele>1523.84</ele>
        <time>2023-10-12T11:03:54Z</time>
      </trkpt>
      <trkpt lat="46.79469" lon="6.4818">
        <ele>1523.034</ele>
        <time>2023-10-12T11:03:59Z</time>
      </trkpt>
      <trkpt lat="46.79465" lon="6.48175">
        <ele>1522.976</ele>
        <time>2023-10-12T11:04:04Z</time>
      </trkpt>
      <trkpt lat="46.79463" lon="6.48171">
        <ele>1522.203</ele>
        <time>2023-10-12T11:04:09Z</time>
      </trkpt>
      <trkpt lat="46.79461" lon="6.48166">
        <ele>1522.085</ele>
        <time>2023-10-12T11:04:14Z</time>
      </trkpt>
      <trkpt lat="46.7946" lon="6.4816">
        <ele>1521.895</ele>
        <time>2023-10-12T11:04:19Z</time>
      </trkpt>
      <trkpt lat="46.7946" lon="6.48153">
        <ele>1523.567</ele>
        <time>2023-10-12T11:04:24Z</time>
      </trkpt>
      <trkpt lat="46.79458" lon="6.48145">
        <ele>1522.883</ele>
        <time>2023-10-12T11:04:29Z</time>
      </trkpt>
      <trkpt lat="46.79455" lon="6.4814">
        <ele>1521.391</ele>
        <time>2023-10-12T11:04:34Z</time>
      </trkpt>
      <trkpt lat="46.79455" lon="6.4814">
        <ele>1521.365</ele>
        <time>2023-10-12T11:04:39Z</time>
      </trkpt>
      <trkpt lat="46.79454" lon="6.4814">
        <ele>1521.278</ele>
        <time>2023-10-12T11:04:44Z</time>
      </trkpt>
      <trkpt lat="46.7945" lon="6.48135">
        <ele>1521.397</ele>
        <time>2023-10-12T11:04:49Z</time>
      </trkpt>
      <trkpt lat="46.79447" lon="6.48129">
        <ele>1520.446</ele>
        <time>2023-10-12T11:04:54Z</time>
      </trkpt>
      <trkpt lat="46.79445" lon="6.48123">
        <ele>1521.799</ele>
        <time>2023-10-12T11:04:59Z</time>
      </trkpt>
      <trkpt lat="46.79442" lon="6.48119">
        <ele>1522.743</ele>
        <time>2023-10-12T11:05:04Z</time>
      </trkpt>
      <trkpt lat="46.7944" lon="6.48114">
        <ele>1522.828</ele>
        <time>2023-10-12T11:05:09Z</time>
      </trkpt>
      <trkpt lat="46.79439" lon="6.48108">
        <ele>1525.024</ele>
        <time>2023-10-12T11:05:14Z</time>
      </trkpt>
      <trkpt lat="46.79438" lon="6.48102">
        <ele>1526.485</ele>
        <time>2023-10-12T11:05:19Z</time>
      </trkpt>
      <trkpt lat="46.79435" lon="6.48097">
        <ele>1527.44</ele>
        <time>2023-10-12T11:05:24Z</time>
      </trkpt>
      <trkpt lat="46.79434" lon="6.48091">
        <ele>1526.937</ele>
        <time>2023-10-12T11:05:29Z</time>
      </trkpt>
      <trkpt lat="46.79432" lon="6.48085">
        <ele>1525.076</ele>
        <time>2023-10-12T11:05:34Z</time>
      </trkpt>
      <trkpt lat="46.79429" lon="6.48081">
        <ele>1524.639</ele>
        <time>2023-10-12T11:05:39Z</time>
      </trkpt>
      <trkpt lat="46.79428" lon="6.48076">
        <ele>1525.792</ele>
        <time>2023-10-12T11:05:44Z</time>
      </trkpt>
      <trkpt lat="46.79428" lon="6.48069">
        <ele>1526.296</ele>
        <time>2023-10-12T11:05:49Z</time>
      </trkpt>
      <trkpt lat="46.79426" lon="6.48062">
        <ele>1524.318</ele>
        <time>2023-10-12T11:05:54Z</time>
      </trkpt>
      <trkpt lat="46.79423" lon="6.48056">
        <ele>1523.344</ele>
        <time>2023-10-12T11:05:59Z</time>
      </trkpt>
      <trkpt lat="46.7942" lon="6.4805">
        <ele>1522.567</ele>
        <time>2023-10-12T11:06:04Z</time>
      </trkpt>
      <trkpt lat="46.79418" lon="6.48045">
        <ele>1524.975</ele>
        <time>2023-10-12T11:06:09Z</time>
      </trkpt>
      <trkpt lat="46.79415" lon="6.48038">
        <ele>1525.324</ele>
        <time>2023-10-12T11:06:14Z</time>
      </trkpt>
      <trkpt lat="46.79413" lon="6.48032">
        <ele>1524.332</ele>
        <time>2023-10-12T11:06:19Z</time>
      </trkpt>
      <trkpt lat="46.79411" lon="6.48029">
        <ele>1523.717</ele>
        <time>2023-10-12T11:06:24Z</time>
      </trkpt>
      <trkpt lat="46.79411" lon="6.48029">
        <ele>1523.957</ele>
        <time>2023-10-12T11:06:29Z</time>
      </trkpt>
      <trkpt lat="46.79411" lon="6.48029">
        <ele>1523.966</ele>
        <time>2023-10-12T11:06:34Z</time>
      </trkpt>
      <trkpt lat="46.79411" lon="6.48029">
        <ele>1523.975</ele>
        <time>2023-10-12T11:06:39Z</time>
      </trkpt>
      <trkpt lat="46.7941" lon="6.48028">
        <ele>1522.394</ele>
        <time>2023-10-12T11:06:44Z</time>
      </trkpt>
      <trkpt lat="46.79407" lon="6.48022">
        <ele>1520.193</ele>
        <time>2023-10-12T11:06:49Z</time>
      </trkpt>
      <trkpt lat="46.79405" lon="6.48015">
        <ele>1519.291</ele>
        <time>2023-10-12T11:06:54Z</time>
      </trkpt>
      <trkpt lat="46.79403" lon="6.4801">
        <ele>1518.493</ele>
        <time>2023-10-12T11:06:59Z</time>
      </trkpt>
      <trkpt lat="46.79402" lon="6.48004">
        <ele>1518.207</ele>
        <time>2023-10-12T11:07:04Z</time>
      </trkpt>
      <trkpt lat="46.79399" lon="6.48">
        <ele>1516.926</ele>
        <time>2023-10-12T11:07:09Z</time>
      </trkpt>
      <trkpt lat="46.79397" lon="6.47995">
        <ele>1517.041</ele>
        <time>2023-10-12T11:07:14Z</time>
      </trkpt>
      <trkpt lat="46.79395" lon="6.47992">
        <ele>1515.114</ele>
        <time>2023-10-12T11:07:19Z</time>
      </trkpt>
      <trkpt lat="46.79392" lon="6.47987">
        <ele>1514.613</ele>
        <time>2023-10-12T11:07:24Z</time>
      </trkpt>
      <trkpt lat="46.79389" lon="6.47982">
        <ele>1514.312</ele>
        <time>2023-10-12T11:07:29Z</time>
      </trkpt>
      <trkpt lat="46.79388" lon="6.47977">
        <ele>1514.641</ele>
        <time>2023-10-12T11:07:34Z</time>
      </trkpt>
      <trkpt lat="46.79389" lon="6.4797">
        <ele>1515.366</ele>
        <time>2023-10-12T11:07:39Z</time>
      </trkpt>
      <trkpt lat="46.79387" lon="6.47966">
        <ele>1513.388</ele>
        <time>2023-10-12T11:07:44Z</time>
      </trkpt>
      <trkpt lat="46.79384" lon="6.4796">
        <ele>1512.754</ele>
        <time>2023-10-12T11:07:49Z</time>
      </trkpt>
      <trkpt lat="46.79383" lon="6.47957">
        <ele>1512.882</ele>
        <time>2023-10-12T11:07:54Z</time>
      </trkpt>
      <trkpt lat="46.7938" lon="6.47951">
        <ele>1511.616</ele>
        <time>2023-10-12T11:07:59Z</time>
      </trkpt>
      <trkpt lat="46.79377" lon="6.47944">
        <ele>1511.222</ele>
        <time>2023-10-12T11:08:04Z</time>
      </trkpt>
      <trkpt lat="46.79375" lon="6.47936">
        <ele>1511.567</ele>
        <time>2023-10-12T11:08:09Z</time>
      </trkpt>
      <trkpt lat="46.79373" lon="6.47929">
        <ele>1511.722</ele>
        <time>2023-10-12T11:08:14Z</time>
      </trkpt>
      <trkpt lat="46.79371" lon="6.47923">
        <ele>1512.149</ele>
        <time>2023-10-12T11:08:19Z</time>
      </trkpt>
      <trkpt lat="46.7937" lon="6.47918">
        <ele>1511.967</ele>
        <time>2023-10-12T11:08:24Z</time>
      </trkpt>
      <trkpt lat="46.79367" lon="6.47912">
        <ele>1511.225</ele>
        <time>2023-10-12T11:08:29Z</time>
      </trkpt>
      <trkpt lat="46.79364" lon="6.47905">
        <ele>1510.198</ele>
        <time>2023-10-12T11:08:34Z</time>
      </trkpt>
      <trkpt lat="46.79361" lon="6.47901">
        <ele>1510.765</ele>
        <time>2023-10-12T11:08:39Z</time>
      </trkpt>
      <trkpt lat="46.79358" lon="6.47897">
        <ele>1511.584</ele>
        <time>2023-10-12T11:08:44Z</time>
      </trkpt>
      <trkpt lat="46.79356" lon="6.47892">
        <ele>1511.055</ele>
        <time>2023-10-12T11:08:49Z</time>
      </trkpt>
      <trkpt lat="46.79354" lon="6.4789">
        <ele>1510.562</ele>
        <time>2023-10-12T11:08:54Z</time>
      </trkpt>
      <trkpt lat="46.79353" lon="6.47888">
        <ele>1510.794</ele>
        <time>2023-10-12T11:08:59Z</time>
      </trkpt>
      <trkpt lat="46.7935" lon="6.47883">
        <ele>1511.744</ele>
        <time>2023-10-12T11:09:04Z</time>
      </trkpt>
      <trkpt lat="46.79348" lon="6.47878">
        <ele>1513.008</ele>
        <time>2023-10-12T11:09:09Z</time>
      </trkpt>
      <trkpt lat="46.79346" lon="6.47871">
        <ele>1513.23</ele>
        <time>2023-10-12T11:09:14Z</time>
      </trkpt>
      <trkpt lat="46.79344" lon="6.47865">
        <ele>1513.497</ele>
        <time>2023-10-12T11:09:19Z</time>
      </trkpt>
      <trkpt lat="46.79342" lon="6.47859">
        <ele>1513.438</ele>
        <time>2023-10-12T11:09:24Z</time>
      </trkpt>
      <trkpt lat="46.7934" lon="6.47852">
        <ele>1514.884</ele>
        <time>2023-10-12T11:09:29Z</time>
      </trkpt>
      <trkpt lat="46.79337" lon="6.47846">
        <ele>1515.549</ele>
        <time>2023-10-12T11:09:34Z</time>
      </trkpt>
      <trkpt lat="46.79335" lon="6.4784">
        <ele>1514.274</ele>
        <time>2023-10-12T11:09:39Z</time>
      </trkpt>
      <trkpt lat="46.79332" lon="6.47836">
        <ele>1514.724</ele>
        <time>2023-10-12T11:09:44Z</time>
      </trkpt>
      <trkpt lat="46.79329" lon="6.47833">
        <ele>1513.938</ele>
        <time>2023-10-12T11:09:49Z</time>
      </trkpt>
      <trkpt lat="46.79327" lon="6.47828">
        <ele>1512.637</ele>
        <time>2023-10-12T11:09:54Z</time>
      </trkpt>
      <trkpt lat="46.79325" lon="6.47822">
        <ele>1512.662</ele>
        <time>2023-10-12T11:09:59Z</time>
      </trkpt>
      <trkpt lat="46.79323" lon="6.47819">
        <ele>1513.091</ele>
        <time>2023-10-12T11:10:04Z</time>
      </trkpt>
      <trkpt lat="46.79321" lon="6.47813">
        <ele>1516.216</ele>
        <time>2023-10-12T11:10:09Z</time>
      </trkpt>
      <trkpt lat="46.79318" lon="6.47808">
        <ele>1517.242</ele>
        <time>2023-10-12T11:10:14Z</time>
      </trkpt>
      <trkpt lat="46.79316" lon="6.47805">
        <ele>1519.881</ele>
        <time>2023-10-12T11:10:19Z</time>
      </trkpt>
      <trkpt lat="46.79315" lon="6.478">
        <ele>1517.93</ele>
        <time>2023-10-12T11:10:24Z</time>
      </trkpt>
      <trkpt lat="46.79314" lon="6.47795">
        <ele>1519.515</ele>
        <time>2023-10-12T11:10:29Z</time>
      </trkpt>
      <trkpt lat="46.79313" lon="6.47789">
        <ele>1520.244</ele>
        <time>2023-10-12T11:10:34Z</time>
      </trkpt>
      <trkpt lat="46.79311" lon="6.47785">
        <ele>1521.153</ele>
        <time>2023-10-12T11:10:39Z</time>
      </trkpt>
      <trkpt lat="46.7931" lon="6.4778">
        <ele>1518.472</ele>
        <time>2023-10-12T11:10:44Z</time>
      </trkpt>
      <trkpt lat="46.79309" lon="6.47776">
        <ele>1517.414</ele>
        <time>2023-10-12T11:10:49Z</time>
      </trkpt>
      <trkpt lat="46.79308" lon="6.47771">
        <ele>1517.554</ele>
        <time>2023-10-12T11:10:54Z</time>
      </trkpt>
      <trkpt lat="46.79306" lon="6.47764">
        <ele>1518.248</ele>
        <time>2023-10-12T11:10:59Z</time>
      </trkpt>
      <trkpt lat="46.79305" lon="6.47757">
        <ele>1518.43</ele>
        <time>2023-10-12T11:11:04Z</time>
      </trkpt>
      <trkpt lat="46.79303" lon="6.47751">
        <ele>1518.806</ele>
        <time>2023-10-12T11:11:09Z</time>
      </trkpt>
      <trkpt lat="46.793" lon="6.47745">
        <ele>1518.581</ele>
        <time>2023-10-12T11:11:14Z</time>
      </trkpt>
      <trkpt lat="46.79297" lon="6.47741">
        <ele>1519.589</ele>
        <time>2023-10-12T11:11:19Z</time>
      </trkpt>
      <trkpt lat="46.79294" lon="6.47737">
        <ele>1521.696</ele>
        <time>2023-10-12T11:11:24Z</time>
      </trkpt>
      <trkpt lat="46.79291" lon="6.47733">
        <ele>1521.095</ele>
        <time>2023-10-12T11:11:29Z</time>
      </trkpt>
      <trkpt lat="46.79289" lon="6.4773">
        <ele>1521.571</ele>
        <time>2023-10-12T11:11:34Z</time>
      </trkpt>
      <trkpt lat="46.79287" lon="6.47726">
        <ele>1522.662</ele>
        <time>2023-10-12T11:11:39Z</time>
      </trkpt>
      <trkpt lat="46.79286" lon="6.47723">
        <ele>1525.502</ele>
        <time>2023-10-12T11:11:44Z</time>
      </trkpt>
      <trkpt lat="46.79284" lon="6.4772">
        <ele>1527.089</ele>
        <time>2023-10-12T11:11:49Z</time>
      </trkpt>
      <trkpt lat="46.79282" lon="6.47717">
        <ele>1528.073</ele>
        <time>2023-10-12T11:11:54Z</time>
      </trkpt>
      <trkpt lat="46.79281" lon="6.47714">
        <ele>1528.678</ele>
        <time>2023-10-12T11:11:59Z</time>
      </trkpt>
      <trkpt lat="46.79281" lon="6.47711">
        <ele>1529.637</ele>
        <time>2023-10-12T11:12:04Z</time>
      </trkpt>
      <trkpt lat="46.79281" lon="6.4771">
        <ele>1528.935</ele>
        <time>2023-10-12T11:12:09Z</time>
      </trkpt>
      <trkpt lat="46.79283" lon="6.47706">
        <ele>1528.035</ele>
        <time>2023-10-12T11:12:14Z</time>
      </trkpt>
      <trkpt lat="46.79284" lon="6.477">
        <ele>1527.341</ele>
        <time>2023-10-12T11:12:19Z</time>
      </trkpt>
      <trkpt lat="46.79283" lon="6.47694">
        <ele>1527.344</ele>
        <time>2023-10-12T11:12:24Z</time>
      </trkpt>
      <trkpt lat="46.79281" lon="6.47691">
        <ele>1528.546</ele>
        <time>2023-10-12T11:12:29Z</time>
      </trkpt>
      <trkpt lat="46.79279" lon="6.47688">
        <ele>1528.5</ele>
        <time>2023-10-12T11:12:34Z</time>
      </trkpt>
      <trkpt lat="46.79277" lon="6.47685">
        <ele>1530.214</ele>
        <time>2023-10-12T11:12:39Z</time>
      </trkpt>
      <trkpt lat="46.79277" lon="6.47681">
        <ele>1530.033</ele>
        <time>2023-10-12T11:12:44Z</time>
      </trkpt>
      <trkpt lat="46.79278" lon="6.4768">
        <ele>1529.729</ele>
        <time>2023-10-12T11:12:49Z</time>
      </trkpt>
      <trkpt lat="46.79278" lon="6.4768">
        <ele>1529.734</ele>
        <time>2023-10-12T11:12:54Z</time>
      </trkpt>
      <trkpt lat="46.79278" lon="6.4768">
        <ele>1529.744</ele>
        <time>2023-10-12T11:12:59Z</time>
      </trkpt>
      <trkpt lat="46.79278" lon="6.4768">
        <ele>1529.763</ele>
        <time>2023-10-12T11:13:04Z</time>
      </trkpt>
      <trkpt lat="46.79278" lon="6.4768">
        <ele>1529.764</ele>
        <time>2023-10-12T11:13:09Z</time>
      </trkpt>
      <trkpt lat="46.79278" lon="6.4768">
        <ele>1529.76</ele>
        <time>2023-10-12T11:13:14Z</time>
      </trkpt>
      <trkpt lat="46.79278" lon="6.4768">
        <ele>1530.167</ele>
        <time>2023-10-12T11:13:19Z</time>
      </trkpt>
      <trkpt lat="46.79274" lon="6.4768">
        <ele>1530.632</ele>
        <time>2023-10-12T11:13:24Z</time>
      </trkpt>
      <trkpt lat="46.79271" lon="6.47677">
        <ele>1530.854</ele>
        <time>2023-10-12T11:13:29Z</time>
      </trkpt>
      <trkpt lat="46.7927" lon="6.47672">
        <ele>1531.344</ele>
        <time>2023-10-12T11:13:34Z</time>
      </trkpt>
      <trkpt lat="46.7927" lon="6.47666">
        <ele>1532.006</ele>
        <time>2023-10-12T11:13:39Z</time>
      </trkpt>
      <trkpt lat="46.79268" lon="6.47661">
        <ele>1532.878</ele>
        <time>2023-10-12T11:13:44Z</time>
      </trkpt>
      <trkpt lat="46.79266" lon="6.47658">
        <ele>1533.992</ele>
        <time>2023-10-12T11:13:49Z</time>
      </trkpt>
      <trkpt lat="46.79264" lon="6.47654">
        <ele>1535.435</ele>
        <time>2023-10-12T11:13:54Z</time>
      </trkpt>
      <trkpt lat="46.79262" lon="6.47651">
        <ele>1535.767</ele>
        <time>2023-10-12T11:13:59Z</time>
      </trkpt>
      <trkpt lat="46.79259" lon="6.4765">
        <ele>1537.069</ele>
        <time>2023-10-12T11:14:04Z</time>
      </trkpt>
      <trkpt lat="46.79258" lon="6.47646">
        <ele>1539.394</ele>
        <time>2023-10-12T11:14:09Z</time>
      </trkpt>
      <trkpt lat="46.79257" lon="6.4764">
        <ele>1538.405</ele>
        <time>2023-10-12T11:14:14Z</time>
      </trkpt>
      <trkpt lat="46.79258" lon="6.47633">
        <ele>1537.532</ele>
        <time>2023-10-12T11:14:19Z</time>
      </trkpt>
      <trkpt lat="46.7926" lon="6.47625">
        <ele>1538.666</ele>
        <time>2023-10-12T11:14:24Z</time>
      </trkpt>
      <trkpt lat="46.79261" lon="6.4762">
        <ele>1537.789</ele>
        <time>2023-10-12T11:14:29Z</time>
      </trkpt>
      <trkpt lat="46.79262" lon="6.47616">
        <ele>1538.279</ele>
        <time>2023-10-12T11:14:34Z</time>
      </trkpt>
      <trkpt lat="46.79262" lon="6.47611">
        <ele>1537.675</ele>
        <time>2023-10-12T11:14:39Z</time>
      </trkpt>
      <trkpt lat="46.79263" lon="6.47608">
        <ele>1537.613</ele>
        <time>2023-10-12T11:14:44Z</time>
      </trkpt>
      <trkpt lat="46.79264" lon="6.47608">
        <ele>1538.364</ele>
        <time>2023-10-12T11:14:49Z</time>
      </trkpt>
      <trkpt lat="46.79264" lon="6.47607">
        <ele>1538.415</ele>
        <time>2023-10-12T11:14:54Z</time>
      </trkpt>
      <trkpt lat="46.79266" lon="6.47602">
        <ele>1536.96</ele>
        <time>2023-10-12T11:14:59Z</time>
      </trkpt>
      <trkpt lat="46.79263" lon="6.47596">
        <ele>1534.166</ele>
        <time>2023-10-12T11:15:04Z</time>
      </trkpt>
      <trkpt lat="46.7926" lon="6.47591">
        <ele>1531.581</ele>
        <time>2023-10-12T11:15:09Z</time>
      </trkpt>
      <trkpt lat="46.79257" lon="6.47585">
        <ele>1530.677</ele>
        <time>2023-10-12T11:15:14Z</time>
      </trkpt>
      <trkpt lat="46.79255" lon="6.47578">
        <ele>1533.374</ele>
        <time>2023-10-12T11:15:19Z</time>
      </trkpt>
      <trkpt lat="46.79253" lon="6.47574">
        <ele>1535.66</ele>
        <time>2023-10-12T11:15:24Z</time>
      </trkpt>
      <trkpt lat="46.79251" lon="6.47569">
        <ele>1535.398</ele>
        <time>2023-10-12T11:15:29Z</time>
      </trkpt>
      <trkpt lat="46.7925" lon="6.47564">
        <ele>1536.566</ele>
        <time>2023-10-12T11:15:34Z</time>
      </trkpt>
      <trkpt lat="46.79249" lon="6.4756">
        <ele>1536.609</ele>
        <time>2023-10-12T11:15:39Z</time>
      </trkpt>
      <trkpt lat="46.79248" lon="6.47554">
        <ele>1535.193</ele>
        <time>2023-10-12T11:15:44Z</time>
      </trkpt>
      <trkpt lat="46.79248" lon="6.47549">
        <ele>1537.961</ele>
        <time>2023-10-12T11:15:49Z</time>
      </trkpt>
      <trkpt lat="46.79248" lon="6.47545">
        <ele>1540.537</ele>
        <time>2023-10-12T11:15:54Z</time>
      </trkpt>
      <trkpt lat="46.79248" lon="6.4754">
        <ele>1540.929</ele>
        <time>2023-10-12T11:15:59Z</time>
      </trkpt>
      <trkpt lat="46.7925" lon="6.47536">
        <ele>1542.943</ele>
        <time>2023-10-12T11:16:04Z</time>
      </trkpt>
      <trkpt lat="46.79248" lon="6.47532">
        <ele>1542.86</ele>
        <time>2023-10-12T11:16:09Z</time>
      </trkpt>
      <trkpt lat="46.79245" lon="6.4753">
        <ele>1543.598</ele>
        <time>2023-10-12T11:16:14Z</time>
      </trkpt>
      <trkpt lat="46.79241" lon="6.47529">
        <ele>1542.295</ele>
        <time>2023-10-12T11:16:19Z</time>
      </trkpt>
      <trkpt lat="46.79239" lon="6.47529">
        <ele>1542.134</ele>
        <time>2023-10-12T11:16:24Z</time>
      </trkpt>
      <trkpt lat="46.79236" lon="6.4753">
        <ele>1541.631</ele>
        <time>2023-10-12T11:16:29Z</time>
      </trkpt>
      <trkpt lat="46.79233" lon="6.4753">
        <ele>1544.049</ele>
        <time>2023-10-12T11:16:34Z</time>
      </trkpt>
      <trkpt lat="46.79231" lon="6.47527">
        <ele>1543.21</ele>
        <time>2023-10-12T11:16:39Z</time>
      </trkpt>
      <trkpt lat="46.79229" lon="6.47522">
        <ele>1544.775</ele>
        <time>2023-10-12T11:16:44Z</time>
      </trkpt>
      <trkpt lat="46.79227" lon="6.47519">
        <ele>1546.391</ele>
        <time>2023-10-12T11:16:49Z</time>
      </trkpt>
      <trkpt lat="46.79226" lon="6.47515">
        <ele>1546.301</ele>
        <time>2023-10-12T11:16:54Z</time>
      </trkpt>
      <trkpt lat="46.79225" lon="6.4751">
        <ele>1547.079</ele>
        <time>2023-10-12T11:16:59Z</time>
      </trkpt>
      <trkpt lat="46.79221" lon="6.47507">
        <ele>1546.743</ele>
        <time>2023-10-12T11:17:04Z</time>
      </trkpt>
      <trkpt lat="46.7922" lon="6.47503">
        <ele>1548.496</ele>
        <time>2023-10-12T11:17:09Z</time>
      </trkpt>
      <trkpt lat="46.79219" lon="6.47499">
        <ele>1549.941</ele>
        <time>2023-10-12T11:17:14Z</time>
      </trkpt>
      <trkpt lat="46.79217" lon="6.47497">
        <ele>1550.483</ele>
        <time>2023-10-12T11:17:19Z</time>
      </trkpt>
      <trkpt lat="46.79216" lon="6.47495">
        <ele>1550.244</ele>
        <time>2023-10-12T11:17:24Z</time>
      </trkpt>
      <trkpt lat="46.79217" lon="6.47491">
        <ele>1549.441</ele>
        <time>2023-10-12T11:17:29Z</time>
      </trkpt>
      <trkpt lat="46.79218" lon="6.47485">
        <ele>1550.408</ele>
        <time>2023-10-12T11:17:34Z</time>
      </trkpt>
      <trkpt lat="46.79215" lon="6.47482">
        <ele>1551.938</ele>
        <time>2023-10-12T11:17:39Z</time>
      </trkpt>
      <trkpt lat="46.79213" lon="6.47477">
        <ele>1551.931</ele>
        <time>2023-10-12T11:17:44Z</time>
      </trkpt>
      <trkpt lat="46.79211" lon="6.4747">
        <ele>1551.409</ele>
        <time>2023-10-12T11:17:49Z</time>
      </trkpt>
      <trkpt lat="46.79209" lon="6.47464">
        <ele>1550.877</ele>
        <time>2023-10-12T11:17:54Z</time>
      </trkpt>
      <trkpt lat="46.79209" lon="6.47457">
        <ele>1551.104</ele>
        <time>2023-10-12T11:17:59Z</time>
      </trkpt>
      <trkpt lat="46.79208" lon="6.47452">
        <ele>1551.887</ele>
        <time>2023-10-12T11:18:04Z</time>
      </trkpt>
      <trkpt lat="46.79209" lon="6.47446">
        <ele>1551.231</ele>
        <time>2023-10-12T11:18:09Z</time>
      </trkpt>
      <trkpt lat="46.7921" lon="6.4744">
        <ele>1551.588</ele>
        <time>2023-10-12T11:18:14Z</time>
      </trkpt>
      <trkpt lat="46.79209" lon="6.47433">
        <ele>1551.372</ele>
        <time>2023-10-12T11:18:19Z</time>
      </trkpt>
      <trkpt lat="46.79208" lon="6.47426">
        <ele>1550.476</ele>
        <time>2023-10-12T11:18:24Z</time>
      </trkpt>
      <trkpt lat="46.79208" lon="6.47421">
        <ele>1547.863</ele>
        <time>2023-10-12T11:18:29Z</time>
      </trkpt>
      <trkpt lat="46.79207" lon="6.47414">
        <ele>1548.73</ele>
        <time>2023-10-12T11:18:34Z</time>
      </trkpt>
      <trkpt lat="46.79207" lon="6.47408">
        <ele>1547.149</ele>
        <time>2023-10-12T11:18:39Z</time>
      </trkpt>
      <trkpt lat="46.79206" lon="6.47402">
        <ele>1547.333</ele>
        <time>2023-10-12T11:18:44Z</time>
      </trkpt>
      <trkpt lat="46.79206" lon="6.47394">
        <ele>1547.621</ele>
        <time>2023-10-12T11:18:49Z</time>
      </trkpt>
      <trkpt lat="46.79204" lon="6.47387">
        <ele>1547.038</ele>
        <time>2023-10-12T11:18:54Z</time>
      </trkpt>
      <trkpt lat="46.792" lon="6.47383">
        <ele>1548.716</ele>
        <time>2023-10-12T11:18:59Z</time>
      </trkpt>
      <trkpt lat="46.79197" lon="6.4738">
        <ele>1550.173</ele>
        <time>2023-10-12T11:19:04Z</time>
      </trkpt>
      <trkpt lat="46.79195" lon="6.4738">
        <ele>1548.868</ele>
        <time>2023-10-12T11:19:09Z</time>
      </trkpt>
      <trkpt lat="46.79195" lon="6.4738">
        <ele>1548.853</ele>
        <time>2023-10-12T11:19:14Z</time>
      </trkpt>
      <trkpt lat="46.79193" lon="6.47379">
        <ele>1548.774</ele>
        <time>2023-10-12T11:19:19Z</time>
      </trkpt>
      <trkpt lat="46.79192" lon="6.47374">
        <ele>1549.984</ele>
        <time>2023-10-12T11:19:24Z</time>
      </trkpt>
      <trkpt lat="46.79188" lon="6.47369">
        <ele>1551.545</ele>
        <time>2023-10-12T11:19:29Z</time>
      </trkpt>
      <trkpt lat="46.79184" lon="6.47362">
        <ele>1551.984</ele>
        <time>2023-10-12T11:19:34Z</time>
      </trkpt>
      <trkpt lat="46.79181" lon="6.47359">
        <ele>1553.44</ele>
        <time>2023-10-12T11:19:39Z</time>
      </trkpt>
      <trkpt lat="46.79179" lon="6.47353">
        <ele>1553.909</ele>
        <time>2023-10-12T11:19:44Z</time>
      </trkpt>
      <trkpt lat="46.79175" lon="6.47347">
        <ele>1554.578</ele>
        <time>2023-10-12T11:19:49Z</time>
      </trkpt>
      <trkpt lat="46.79173" lon="6.47342">
        <ele>1554.014</ele>
        <time>2023-10-12T11:19:54Z</time>
      </trkpt>
      <trkpt lat="46.79171" lon="6.47338">
        <ele>1555.032</ele>
        <time>2023-10-12T11:19:59Z</time>
      </trkpt>
      <trkpt lat="46.7917" lon="6.47335">
        <ele>1555.581</ele>
        <time>2023-10-12T11:20:04Z</time>
      </trkpt>
      <trkpt lat="46.79168" lon="6.47332">
        <ele>1557.195</ele>
        <time>2023-10-12T11:20:09Z</time>
      </trkpt>
      <trkpt lat="46.79167" lon="6.47326">
        <ele>1557.743</ele>
        <time>2023-10-12T11:20:14Z</time>
      </trkpt>
      <trkpt lat="46.79164" lon="6.47319">
        <ele>1556.411</ele>
        <time>2023-10-12T11:20:19Z</time>
      </trkpt>
      <trkpt lat="46.79161" lon="6.47313">
        <ele>1557.272</ele>
        <time>2023-10-12T11:20:24Z</time>
      </trkpt>
      <trkpt lat="46.79157" lon="6.47307">
        <ele>1558.181</ele>
        <time>2023-10-12T11:20:29Z</time>
      </trkpt>
      <trkpt lat="46.79155" lon="6.473">
        <ele>1558.968</ele>
        <time>2023-10-12T11:20:34Z</time>
      </trkpt>
      <trkpt lat="46.79152" lon="6.47294">
        <ele>1558.243</ele>
        <time>2023-10-12T11:20:39Z</time>
      </trkpt>
      <trkpt lat="46.79148" lon="6.47289">
        <ele>1558.99</ele>
        <time>2023-10-12T11:20:44Z</time>
      </trkpt>
      <trkpt lat="46.79144" lon="6.47286">
        <ele>1559.415</ele>
        <time>2023-10-12T11:20:49Z</time>
      </trkpt>
      <trkpt lat="46.7914" lon="6.47282">
        <ele>1560.07</ele>
        <time>2023-10-12T11:20:54Z</time>
      </trkpt>
      <trkpt lat="46.79139" lon="6.47277">
        <ele>1560.838</ele>
        <time>2023-10-12T11:20:59Z</time>
      </trkpt>
      <trkpt lat="46.79136" lon="6.47269">
        <ele>1558.836</ele>
        <time>2023-10-12T11:21:04Z</time>
      </trkpt>
      <trkpt lat="46.79134" lon="6.47262">
        <ele>1559.238</ele>
        <time>2023-10-12T11:21:09Z</time>
      </trkpt>
      <trkpt lat="46.79131" lon="6.47256">
        <ele>1560.505</ele>
        <time>2023-10-12T11:21:14Z</time>
      </trkpt>
      <trkpt lat="46.79129" lon="6.47252">
        <ele>1560.455</ele>
        <time>2023-10-12T11:21:19Z</time>
      </trkpt>
      <trkpt lat="46.79127" lon="6.47249">
        <ele>1561.586</ele>
        <time>2023-10-12T11:21:24Z</time>
      </trkpt>
      <trkpt lat="46.79125" lon="6.47246">
        <ele>1562.145</ele>
        <time>2023-10-12T11:21:29Z</time>
      </trkpt>
      <trkpt lat="46.79124" lon="6.47243">
        <ele>1562.611</ele>
        <time>2023-10-12T11:21:34Z</time>
      </trkpt>
      <trkpt lat="46.79124" lon="6.47239">
        <ele>1563.282</ele>
        <time>2023-10-12T11:21:39Z</time>
      </trkpt>
      <trkpt lat="46.79122" lon="6.47236">
        <ele>1563.102</ele>
        <time>2023-10-12T11:21:44Z</time>
      </trkpt>
      <trkpt lat="46.79119" lon="6.47235">
        <ele>1562.261</ele>
        <time>2023-10-12T11:21:49Z</time>
      </trkpt>
      <trkpt lat="46.79117" lon="6.47235">
        <ele>1560.875</ele>
        <time>2023-10-12T11:21:54Z</time>
      </trkpt>
      <trkpt lat="46.79117" lon="6.47235">
        <ele>1560.671</ele>
        <time>2023-10-12T11:21:59Z</time>
      </trkpt>
      <trkpt lat="46.79117" lon="6.47235">
        <ele>1560.668</ele>
        <time>2023-10-12T11:22:04Z</time>
      </trkpt>
      <trkpt lat="46.79117" lon="6.47235">
        <ele>1560.383</ele>
        <time>2023-10-12T11:22:09Z</time>
      </trkpt>
      <trkpt lat="46.79117" lon="6.47235">
        <ele>1561.537</ele>
        <time>2023-10-12T11:22:14Z</time>
      </trkpt>
      <trkpt lat="46.79117" lon="6.47235">
        <ele>1561.723</ele>
        <time>2023-10-12T11:22:19Z</time>
      </trkpt>
      <trkpt lat="46.79117" lon="6.47235">
        <ele>1561.728</ele>
        <time>2023-10-12T11:22:24Z</time>
      </trkpt>
      <trkpt lat="46.79117" lon="6.47235">
        <ele>1561.468</ele>
        <time>2023-10-12T11:22:29Z</time>
      </trkpt>
      <trkpt lat="46.79117" lon="6.47235">
        <ele>1561.811</ele>
        <time>2023-10-12T11:22:34Z</time>
      </trkpt>
      <trkpt lat="46.79117" lon="6.47235">
        <ele>1561.816</ele>
        <time>2023-10-12T11:22:39Z</time>
      </trkpt>
      <trkpt lat="46.79117" lon="6.47235">
        <ele>1561.813</ele>
        <time>2023-10-12T11:22:44Z</time>
      </trkpt>
      <trkpt lat="46.79117" lon="6.47235">
        <ele>1561.814</ele>
        <time>2023-10-12T11:22:49Z</time>
      </trkpt>
      <trkpt lat="46.79117" lon="6.47235">
        <ele>1561.809</ele>
        <time>2023-10-12T11:22:54Z</time>
      </trkpt>
      <trkpt lat="46.79117" lon="6.47235">
        <ele>1562.297</ele>
        <time>2023-10-12T11:22:59Z</time>
      </trkpt>
      <trkpt lat="46.79117" lon="6.47235">
        <ele>1562.495</ele>
        <time>2023-10-12T11:23:04Z</time>
      </trkpt>
      <trkpt lat="46.79117" lon="6.47235">
        <ele>1562.488</ele>
        <time>2023-10-12T11:23:09Z</time>
      </trkpt>
      <trkpt lat="46.79117" lon="6.47235">
        <ele>1562.733</ele>
        <time>2023-10-12T11:23:14Z</time>
      </trkpt>
      <trkpt lat="46.79117" lon="6.47235">
        <ele>1562.741</ele>
        <time>2023-10-12T11:23:19Z</time>
      </trkpt>
      <trkpt lat="46.79117" lon="6.47235">
        <ele>1562.755</ele>
        <time>2023-10-12T11:23:24Z</time>
      </trkpt>
      <trkpt lat="46.79117" lon="6.47235">
        <ele>1562.77</ele>
        <time>2023-10-12T11:23:29Z</time>
      </trkpt>
      <trkpt lat="46.79117" lon="6.47235">
        <ele>1562.426</ele>
        <time>2023-10-12T11:23:34Z</time>
      </trkpt>
      <trkpt lat="46.79117" lon="6.47235">
        <ele>1562.767</ele>
        <time>2023-10-12T11:23:39Z</time>
      </trkpt>
      <trkpt lat="46.79117" lon="6.47235">
        <ele>1562.796</ele>
        <time>2023-10-12T11:23:44Z</time>
      </trkpt>
      <trkpt lat="46.79117" lon="6.47235">
        <ele>1562.446</ele>
        <time>2023-10-12T11:23:49Z</time>
      </trkpt>
      <trkpt lat="46.79117" lon="6.47235">
        <ele>1562.052</ele>
        <time>2023-10-12T11:23:54Z</time>
      </trkpt>
      <trkpt lat="46.79117" lon="6.47235">
        <ele>1562.374</ele>
        <time>2023-10-12T11:23:59Z</time>
      </trkpt>
      <trkpt lat="46.79117" lon="6.47235">
        <ele>1562.37</ele>
        <time>2023-10-12T11:24:04Z</time>
      </trkpt>
      <trkpt lat="46.79117" lon="6.47235">
        <ele>1562.287</ele>
        <time>2023-10-12T11:24:09Z</time>
      </trkpt>
      <trkpt lat="46.79117" lon="6.47235">
        <ele>1562.279</ele>
        <time>2023-10-12T11:24:14Z</time>
      </trkpt>
      <trkpt lat="46.79117" lon="6.47235">
        <ele>1562.276</ele>
        <time>2023-10-12T11:24:19Z</time>
      </trkpt>
      <trkpt lat="46.79117" lon="6.47235">
        <ele>1562.267</ele>
        <time>2023-10-12T11:24:24Z</time>
      </trkpt>
      <trkpt lat="46.79117" lon="6.47235">
        <ele>1562.261</ele>
        <time>2023-10-12T11:24:29Z</time>
      </trkpt>
      <trkpt lat="46.79117" lon="6.47235">
        <ele>1562.255</ele>
        <time>2023-10-12T11:24:34Z</time>
      </trkpt>
      <trkpt lat="46.79117" lon="6.47235">
        <ele>1562.254</ele>
        <time>2023-10-12T11:24:39Z</time>
      </trkpt>
      <trkpt lat="46.79117" lon="6.47235">
        <ele>1562.25</ele>
        <time>2023-10-12T11:24:44Z</time>
      </trkpt>
      <trkpt lat="46.79117" lon="6.47235">
        <ele>1562.242</ele>
        <time>2023-10-12T11:24:49Z</time>
      </trkpt>
      <trkpt lat="46.79117" lon="6.47235">
        <ele>1562.239</ele>
        <time>2023-10-12T11:24:54Z</time>
      </trkpt>
      <trkpt lat="46.79117" lon="6.47235">
        <ele>1562.237</ele>
        <time>2023-10-12T11:24:59Z</time>
      </trkpt>
      <trkpt lat="46.79117" lon="6.47235">
        <ele>1562.234</ele>
        <time>2023-10-12T11:25:04Z</time>
      </trkpt>
      <trkpt lat="46.79117" lon="6.47235">
        <ele>1562.228</ele>
        <time>2023-10-12T11:25:09Z</time>
      </trkpt>
      <trkpt lat="46.79117" lon="6.47235">
        <ele>1562.222</ele>
        <time>2023-10-12T11:25:14Z</time>
      </trkpt>
      <trkpt lat="46.79117" lon="6.47235">
        <ele>1562.214</ele>
        <time>2023-10-12T11:25:19Z</time>
      </trkpt>
      <trkpt lat="46.79117" lon="6.47235">
        <ele>1562.211</ele>
        <time>2023-10-12T11:25:24Z</time>
      </trkpt>
      <trkpt lat="46.79117" lon="6.47235">
        <ele>1562.206</ele>
        <time>2023-10-12T11:25:29Z</time>
      </trkpt>
      <trkpt lat="46.79117" lon="6.47235">
        <ele>1562.203</ele>
        <time>2023-10-12T11:25:34Z</time>
      </trkpt>
      <trkpt lat="46.79117" lon="6.47235">
        <ele>1562.2</ele>
        <time>2023-10-12T11:25:39Z</time>
      </trkpt>
      <trkpt lat="46.79117" lon="6.47235">
        <ele>1562.195</ele>
        <time>2023-10-12T11:25:44Z</time>
      </trkpt>
      <trkpt lat="46.79117" lon="6.47235">
        <ele>1562.19</ele>
        <time>2023-10-12T11:25:49Z</time>
      </trkpt>
      <trkpt lat="46.79117" lon="6.47235">
        <ele>1562.185</ele>
        <time>2023-10-12T11:25:54Z</time>
      </trkpt>
      <trkpt lat="46.79117" lon="6.47235">
        <ele>1562.178</ele>
        <time>2023-10-12T11:25:59Z</time>
      </trkpt>
      <trkpt lat="46.79117" lon="6.47235">
        <ele>1562.177</ele>
        <time>2023-10-12T11:26:04Z</time>
      </trkpt>
      <trkpt lat="46.79117" lon="6.47235">
        <ele>1562.174</ele>
        <time>2023-10-12T11:26:09Z</time>
      </trkpt>
      <trkpt lat="46.79117" lon="6.47235">
        <ele>1562.17</ele>
        <time>2023-10-12T11:26:14Z</time>
      </trkpt>
      <trkpt lat="46.79117" lon="6.47235">
        <ele>1562.167</ele>
        <time>2023-10-12T11:26:19Z</time>
      </trkpt>
      <trkpt lat="46.79117" lon="6.47235">
        <ele>1562.163</ele>
        <time>2023-10-12T11:26:24Z</time>
      </trkpt>
      <trkpt lat="46.79117" lon="6.47235">
        <ele>1562.16</ele>
        <time>2023-10-12T11:26:29Z</time>
      </trkpt>
      <trkpt lat="46.79117" lon="6.47235">
        <ele>1562.151</ele>
        <time>2023-10-12T11:26:34Z</time>
      </trkpt>
      <trkpt lat="46.79117" lon="6.47235">
        <ele>1562.165</ele>
        <time>2023-10-12T11:26:39Z</time>
      </trkpt>
      <trkpt lat="46.79117" lon="6.47235">
        <ele>1562.165</ele>
        <time>2023-10-12T11:26:44Z</time>
      </trkpt>
      <trkpt lat="46.79117" lon="6.47235">
        <ele>1562.167</ele>
        <time>2023-10-12T11:26:49Z</time>
      </trkpt>
      <trkpt lat="46.79117" lon="6.47235">
        <ele>1562.168</ele>
        <time>2023-10-12T11:26:54Z</time>
      </trkpt>
      <trkpt lat="46.79117" lon="6.47235">
        <ele>1562.169</ele>
        <time>2023-10-12T11:26:59Z</time>
      </trkpt>
      <trkpt lat="46.79117" lon="6.47235">
        <ele>1562.172</ele>
        <time>2023-10-12T11:27:04Z</time>
      </trkpt>
      <trkpt lat="46.79117" lon="6.47235">
        <ele>1562.17</ele>
        <time>2023-10-12T11:27:09Z</time>
      </trkpt>
      <trkpt lat="46.79117" lon="6.47235">
        <ele>1562.08</ele>
        <time>2023-10-12T11:27:14Z</time>
      </trkpt>
      <trkpt lat="46.79117" lon="6.47235">
        <ele>1562.355</ele>
        <time>2023-10-12T11:27:19Z</time>
      </trkpt>
      <trkpt lat="46.79117" lon="6.47235">
        <ele>1561.423</ele>
        <time>2023-10-12T11:27:24Z</time>
      </trkpt>
      <trkpt lat="46.79117" lon="6.47235">
        <ele>1561.406</ele>
        <time>2023-10-12T11:27:29Z</time>
      </trkpt>
      <trkpt lat="46.79117" lon="6.47235">
        <ele>1561.401</ele>
        <time>2023-10-12T11:27:34Z</time>
      </trkpt>
      <trkpt lat="46.79117" lon="6.47235">
        <ele>1561.399</ele>
        <time>2023-10-12T11:27:39Z</time>
      </trkpt>
      <trkpt lat="46.79117" lon="6.47235">
        <ele>1561.395</ele>
        <time>2023-10-12T11:27:44Z</time>
      </trkpt>
      <trkpt lat="46.79117" lon="6.47235">
        <ele>1561.391</ele>
        <time>2023-10-12T11:27:49Z</time>
      </trkpt>
      <trkpt lat="46.79117" lon="6.47235">
        <ele>1561.389</ele>
        <time>2023-10-12T11:27:54Z</time>
      </trkpt>
      <trkpt lat="46.79117" lon="6.47235">
        <ele>1561.384</ele>
        <time>2023-10-12T11:27:59Z</time>
      </trkpt>
      <trkpt lat="46.79117" lon="6.47235">
        <ele>1561.383</ele>
        <time>2023-10-12T11:28:04Z</time>
      </trkpt>
      <trkpt lat="46.79117" lon="6.47235">
        <ele>1561.663</ele>
        <time>2023-10-12T11:28:09Z</time>
      </trkpt>
      <trkpt lat="46.79117" lon="6.47235">
        <ele>1561.795</ele>
        <time>2023-10-12T11:28:14Z</time>
      </trkpt>
      <trkpt lat="46.79126" lon="6.4724">
        <ele>1561.794</ele>
        <time>2023-10-12T11:28:19Z</time>
      </trkpt>
      <trkpt lat="46.79126" lon="6.4724">
        <ele>1561.74</ele>
        <time>2023-10-12T11:28:24Z</time>
      </trkpt>
      <trkpt lat="46.79129" lon="6.47241">
        <ele>1560.968</ele>
        <time>2023-10-12T11:28:29Z</time>
      </trkpt>
      <trkpt lat="46.79131" lon="6.47242">
        <ele>1559.754</ele>
        <time>2023-10-12T11:28:34Z</time>
      </trkpt>
      <trkpt lat="46.79134" lon="6.47246">
        <ele>1558.532</ele>
        <time>2023-10-12T11:28:39Z</time>
      </trkpt>
      <trkpt lat="46.79136" lon="6.47248">
        <ele>1557.601</ele>
        <time>2023-10-12T11:28:44Z</time>
      </trkpt>
      <trkpt lat="46.79139" lon="6.4725">
        <ele>1557.281</ele>
        <time>2023-10-12T11:28:49Z</time>
      </trkpt>
      <trkpt lat="46.79143" lon="6.47251">
        <ele>1557.948</ele>
        <time>2023-10-12T11:28:54Z</time>
      </trkpt>
      <trkpt lat="46.79147" lon="6.47251">
        <ele>1556.483</ele>
        <time>2023-10-12T11:28:59Z</time>
      </trkpt>
      <trkpt lat="46.7915" lon="6.47248">
        <ele>1556.439</ele>
        <time>2023-10-12T11:29:04Z</time>
      </trkpt>
      <trkpt lat="46.79152" lon="6.47249">
        <ele>1556.229</ele>
        <time>2023-10-12T11:29:09Z</time>
      </trkpt>
      <trkpt lat="46.79155" lon="6.4725">
        <ele>1555.821</ele>
        <time>2023-10-12T11:29:14Z</time>
      </trkpt>
      <trkpt lat="46.79158" lon="6.47254">
        <ele>1555.017</ele>
        <time>2023-10-12T11:29:19Z</time>
      </trkpt>
      <trkpt lat="46.79161" lon="6.47258">
        <ele>1553.287</ele>
        <time>2023-10-12T11:29:24Z</time>
      </trkpt>
      <trkpt lat="46.79161" lon="6.4726">
        <ele>1553.486</ele>
        <time>2023-10-12T11:29:29Z</time>
      </trkpt>
      <trkpt lat="46.79161" lon="6.4726">
        <ele>1553.487</ele>
        <time>2023-10-12T11:29:34Z</time>
      </trkpt>
      <trkpt lat="46.79161" lon="6.4726">
        <ele>1553.513</ele>
        <time>2023-10-12T11:29:39Z</time>
      </trkpt>
      <trkpt lat="46.79161" lon="6.4726">
        <ele>1553.514</ele>
        <time>2023-10-12T11:29:44Z</time>
      </trkpt>
      <trkpt lat="46.79161" lon="6.4726">
        <ele>1553.515</ele>
        <time>2023-10-12T11:29:49Z</time>
      </trkpt>
      <trkpt lat="46.79161" lon="6.4726">
        <ele>1553.52</ele>
        <time>2023-10-12T11:29:54Z</time>
      </trkpt>
      <trkpt lat="46.79161" lon="6.4726">
        <ele>1553.523</ele>
        <time>2023-10-12T11:29:59Z</time>
      </trkpt>
      <trkpt lat="46.79161" lon="6.4726">
        <ele>1553.53</ele>
        <time>2023-10-12T11:30:04Z</time>
      </trkpt>
      <trkpt lat="46.79161" lon="6.4726">
        <ele>1553.537</ele>
        <time>2023-10-12T11:30:09Z</time>
      </trkpt>
      <trkpt lat="46.79161" lon="6.4726">
        <ele>1553.384</ele>
        <time>2023-10-12T11:30:14Z</time>
      </trkpt>
      <trkpt lat="46.79161" lon="6.4726">
        <ele>1553.407</ele>
        <time>2023-10-12T11:30:19Z</time>
      </trkpt>
      <trkpt lat="46.79161" lon="6.4726">
        <ele>1553.415</ele>
        <time>2023-10-12T11:30:24Z</time>
      </trkpt>
      <trkpt lat="46.79161" lon="6.4726">
        <ele>1553.425</ele>
        <time>2023-10-12T11:30:29Z</time>
      </trkpt>
      <trkpt lat="46.79161" lon="6.4726">
        <ele>1553.425</ele>
        <time>2023-10-12T11:30:34Z</time>
      </trkpt>
      <trkpt lat="46.79161" lon="6.4726">
        <ele>1552.944</ele>
        <time>2023-10-12T11:30:39Z</time>
      </trkpt>
      <trkpt lat="46.79161" lon="6.47261">
        <ele>1552.727</ele>
        <time>2023-10-12T11:30:44Z</time>
      </trkpt>
      <trkpt lat="46.79164" lon="6.47263">
        <ele>1551.662</ele>
        <time>2023-10-12T11:30:49Z</time>
      </trkpt>
      <trkpt lat="46.79167" lon="6.47265">
        <ele>1552.293</ele>
        <time>2023-10-12T11:30:54Z</time>
      </trkpt>
      <trkpt lat="46.7917" lon="6.47269">
        <ele>1552.704</ele>
        <time>2023-10-12T11:30:59Z</time>
      </trkpt>
      <trkpt lat="46.79172" lon="6.47271">
        <ele>1551.793</ele>
        <time>2023-10-12T11:31:04Z</time>
      </trkpt>
      <trkpt lat="46.79175" lon="6.47273">
        <ele>1551.097</ele>
        <time>2023-10-12T11:31:09Z</time>
      </trkpt>
      <trkpt lat="46.79178" lon="6.47275">
        <ele>1551.343</ele>
        <time>2023-10-12T11:31:14Z</time>
      </trkpt>
      <trkpt lat="46.79181" lon="6.47276">
        <ele>1551.066</ele>
        <time>2023-10-12T11:31:19Z</time>
      </trkpt>
      <trkpt lat="46.79183" lon="6.47278">
        <ele>1552.691</ele>
        <time>2023-10-12T11:31:24Z</time>
      </trkpt>
      <trkpt lat="46.79185" lon="6.47282">
        <ele>1549.791</ele>
        <time>2023-10-12T11:31:29Z</time>
      </trkpt>
      <trkpt lat="46.79186" lon="6.47283">
        <ele>1549.32</ele>
        <time>2023-10-12T11:31:34Z</time>
      </trkpt>
      <trkpt lat="46.79188" lon="6.47285">
        <ele>1548.178</ele>
        <time>2023-10-12T11:31:39Z</time>
      </trkpt>
      <trkpt lat="46.79193" lon="6.47289">
        <ele>1547.184</ele>
        <time>2023-10-12T11:31:44Z</time>
      </trkpt>
      <trkpt lat="46.79196" lon="6.47294">
        <ele>1546.035</ele>
        <time>2023-10-12T11:31:49Z</time>
      </trkpt>
      <trkpt lat="46.79199" lon="6.47298">
        <ele>1545.874</ele>
        <time>2023-10-12T11:31:54Z</time>
      </trkpt>
      <trkpt lat="46.79202" lon="6.47301">
        <ele>1544.567</ele>
        <time>2023-10-12T11:31:59Z</time>
      </trkpt>
      <trkpt lat="46.79204" lon="6.47308">
        <ele>1543.066</ele>
        <time>2023-10-12T11:32:04Z</time>
      </trkpt>
      <trkpt lat="46.79206" lon="6.47314">
        <ele>1543.405</ele>
        <time>2023-10-12T11:32:09Z</time>
      </trkpt>
      <trkpt lat="46.79209" lon="6.47318">
        <ele>1543.478</ele>
        <time>2023-10-12T11:32:14Z</time>
      </trkpt>
      <trkpt lat="46.79213" lon="6.47322">
        <ele>1542.759</ele>
        <time>2023-10-12T11:32:19Z</time>
      </trkpt>
      <trkpt lat="46.79216" lon="6.47327">
        <ele>1541.236</ele>
        <time>2023-10-12T11:32:24Z</time>
      </trkpt>
      <trkpt lat="46.79219" lon="6.47333">
        <ele>1539.374</ele>
        <time>2023-10-12T11:32:29Z</time>
      </trkpt>
      <trkpt lat="46.79222" lon="6.47336">
        <ele>1539.097</ele>
        <time>2023-10-12T11:32:34Z</time>
      </trkpt>
      <trkpt lat="46.79225" lon="6.47338">
        <ele>1537.706</ele>
        <time>2023-10-12T11:32:39Z</time>
      </trkpt>
      <trkpt lat="46.79227" lon="6.47333">
        <ele>1536.119</ele>
        <time>2023-10-12T11:32:44Z</time>
      </trkpt>
      <trkpt lat="46.79228" lon="6.47327">
        <ele>1534.408</ele>
        <time>2023-10-12T11:32:49Z</time>
      </trkpt>
      <trkpt lat="46.7923" lon="6.47325">
        <ele>1533.379</ele>
        <time>2023-10-12T11:32:54Z</time>
      </trkpt>
      <trkpt lat="46.79233" lon="6.47329">
        <ele>1532.554</ele>
        <time>2023-10-12T11:32:59Z</time>
      </trkpt>
      <trkpt lat="46.79236" lon="6.47332">
        <ele>1531.952</ele>
        <time>2023-10-12T11:33:04Z</time>
      </trkpt>
      <trkpt lat="46.79239" lon="6.47334">
        <ele>1530.142</ele>
        <time>2023-10-12T11:33:09Z</time>
      </trkpt>
      <trkpt lat="46.7924" lon="6.47328">
        <ele>1528.43</ele>
        <time>2023-10-12T11:33:14Z</time>
      </trkpt>
      <trkpt lat="46.79242" lon="6.47324">
        <ele>1527.786</ele>
        <time>2023-10-12T11:33:19Z</time>
      </trkpt>
      <trkpt lat="46.79246" lon="6.47323">
        <ele>1526.495</ele>
        <time>2023-10-12T11:33:24Z</time>
      </trkpt>
      <trkpt lat="46.7925" lon="6.47324">
        <ele>1524.87</ele>
        <time>2023-10-12T11:33:29Z</time>
      </trkpt>
      <trkpt lat="46.79253" lon="6.47323">
        <ele>1523.892</ele>
        <time>2023-10-12T11:33:34Z</time>
      </trkpt>
      <trkpt lat="46.79256" lon="6.47321">
        <ele>1522.778</ele>
        <time>2023-10-12T11:33:39Z</time>
      </trkpt>
      <trkpt lat="46.79257" lon="6.47315">
        <ele>1521.691</ele>
        <time>2023-10-12T11:33:44Z</time>
      </trkpt>
      <trkpt lat="46.79257" lon="6.47309">
        <ele>1521.162</ele>
        <time>2023-10-12T11:33:49Z</time>
      </trkpt>
      <trkpt lat="46.79256" lon="6.47302">
        <ele>1520.649</ele>
        <time>2023-10-12T11:33:54Z</time>
      </trkpt>
      <trkpt lat="46.79256" lon="6.47296">
        <ele>1519.769</ele>
        <time>2023-10-12T11:33:59Z</time>
      </trkpt>
      <trkpt lat="46.79256" lon="6.47291">
        <ele>1518.159</ele>
        <time>2023-10-12T11:34:04Z</time>
      </trkpt>
      <trkpt lat="46.79256" lon="6.47286">
        <ele>1517.533</ele>
        <time>2023-10-12T11:34:09Z</time>
      </trkpt>
      <trkpt lat="46.79257" lon="6.47282">
        <ele>1516.998</ele>
        <time>2023-10-12T11:34:14Z</time>
      </trkpt>
      <trkpt lat="46.79256" lon="6.47277">
        <ele>1516.336</ele>
        <time>2023-10-12T11:34:19Z</time>
      </trkpt>
      <trkpt lat="46.79257" lon="6.47273">
        <ele>1515.145</ele>
        <time>2023-10-12T11:34:24Z</time>
      </trkpt>
      <trkpt lat="46.79257" lon="6.4727">
        <ele>1514.104</ele>
        <time>2023-10-12T11:34:29Z</time>
      </trkpt>
      <trkpt lat="46.79258" lon="6.47267">
        <ele>1513.412</ele>
        <time>2023-10-12T11:34:34Z</time>
      </trkpt>
      <trkpt lat="46.79258" lon="6.47265">
        <ele>1512.066</ele>
        <time>2023-10-12T11:34:39Z</time>
      </trkpt>
      <trkpt lat="46.7926" lon="6.47264">
        <ele>1510.3</ele>
        <time>2023-10-12T11:34:44Z</time>
      </trkpt>
      <trkpt lat="46.79262" lon="6.4726">
        <ele>1509.324</ele>
        <time>2023-10-12T11:34:49Z</time>
      </trkpt>
      <trkpt lat="46.79261" lon="6.47255">
        <ele>1508.318</ele>
        <time>2023-10-12T11:34:54Z</time>
      </trkpt>
      <trkpt lat="46.79263" lon="6.47251">
        <ele>1506.498</ele>
        <time>2023-10-12T11:34:59Z</time>
      </trkpt>
      <trkpt lat="46.79263" lon="6.47246">
        <ele>1506.543</ele>
        <time>2023-10-12T11:35:04Z</time>
      </trkpt>
      <trkpt lat="46.79265" lon="6.47242">
        <ele>1505.405</ele>
        <time>2023-10-12T11:35:09Z</time>
      </trkpt>
      <trkpt lat="46.79267" lon="6.47245">
        <ele>1504.124</ele>
        <time>2023-10-12T11:35:14Z</time>
      </trkpt>
      <trkpt lat="46.7927" lon="6.47248">
        <ele>1502.363</ele>
        <time>2023-10-12T11:35:19Z</time>
      </trkpt>
      <trkpt lat="46.79271" lon="6.47251">
        <ele>1500.971</ele>
        <time>2023-10-12T11:35:24Z</time>
      </trkpt>
      <trkpt lat="46.79273" lon="6.47254">
        <ele>1500.701</ele>
        <time>2023-10-12T11:35:29Z</time>
      </trkpt>
      <trkpt lat="46.79274" lon="6.47254">
        <ele>1500.211</ele>
        <time>2023-10-12T11:35:34Z</time>
      </trkpt>
      <trkpt lat="46.79277" lon="6.47255">
        <ele>1498.231</ele>
        <time>2023-10-12T11:35:39Z</time>
      </trkpt>
      <trkpt lat="46.79281" lon="6.47256">
        <ele>1497.7</ele>
        <time>2023-10-12T11:35:44Z</time>
      </trkpt>
      <trkpt lat="46.79282" lon="6.47255">
        <ele>1497.3</ele>
        <time>2023-10-12T11:35:49Z</time>
      </trkpt>
      <trkpt lat="46.79283" lon="6.47252">
        <ele>1495.674</ele>
        <time>2023-10-12T11:35:54Z</time>
      </trkpt>
      <trkpt lat="46.79283" lon="6.47249">
        <ele>1493.696</ele>
        <time>2023-10-12T11:35:59Z</time>
      </trkpt>
      <trkpt lat="46.79282" lon="6.47245">
        <ele>1493.323</ele>
        <time>2023-10-12T11:36:04Z</time>
      </trkpt>
      <trkpt lat="46.79283" lon="6.47241">
        <ele>1490.62</ele>
        <time>2023-10-12T11:36:09Z</time>
      </trkpt>
      <trkpt lat="46.79284" lon="6.47236">
        <ele>1489.659</ele>
        <time>2023-10-12T11:36:14Z</time>
      </trkpt>
      <trkpt lat="46.79285" lon="6.47232">
        <ele>1489.064</ele>
        <time>2023-10-12T11:36:19Z</time>
      </trkpt>
      <trkpt lat="46.79284" lon="6.47228">
        <ele>1488.466</ele>
        <time>2023-10-12T11:36:24Z</time>
      </trkpt>
      <trkpt lat="46.79284" lon="6.47224">
        <ele>1487.076</ele>
        <time>2023-10-12T11:36:29Z</time>
      </trkpt>
      <trkpt lat="46.79284" lon="6.47219">
        <ele>1486.892</ele>
        <time>2023-10-12T11:36:34Z</time>
      </trkpt>
      <trkpt lat="46.79284" lon="6.47217">
        <ele>1487.326</ele>
        <time>2023-10-12T11:36:39Z</time>
      </trkpt>
      <trkpt lat="46.79286" lon="6.47214">
        <ele>1486.337</ele>
        <time>2023-10-12T11:36:44Z</time>
      </trkpt>
      <trkpt lat="46.79285" lon="6.47208">
        <ele>1485.373</ele>
        <time>2023-10-12T11:36:49Z</time>
      </trkpt>
      <trkpt lat="46.79283" lon="6.47204">
        <ele>1485.183</ele>
        <time>2023-10-12T11:36:54Z</time>
      </trkpt>
      <trkpt lat="46.79282" lon="6.472">
        <ele>1484.321</ele>
        <time>2023-10-12T11:36:59Z</time>
      </trkpt>
      <trkpt lat="46.79283" lon="6.47196">
        <ele>1482.426</ele>
        <time>2023-10-12T11:37:04Z</time>
      </trkpt>
      <trkpt lat="46.79283" lon="6.47193">
        <ele>1480.771</ele>
        <time>2023-10-12T11:37:09Z</time>
      </trkpt>
      <trkpt lat="46.79284" lon="6.47189">
        <ele>1479.106</ele>
        <time>2023-10-12T11:37:14Z</time>
      </trkpt>
      <trkpt lat="46.79282" lon="6.47183">
        <ele>1477.865</ele>
        <time>2023-10-12T11:37:19Z</time>
      </trkpt>
      <trkpt lat="46.79281" lon="6.47179">
        <ele>1477.249</ele>
        <time>2023-10-12T11:37:24Z</time>
      </trkpt>
      <trkpt lat="46.79282" lon="6.47177">
        <ele>1476.057</ele>
        <time>2023-10-12T11:37:29Z</time>
      </trkpt>
      <trkpt lat="46.79281" lon="6.47173">
        <ele>1474.546</ele>
        <time>2023-10-12T11:37:34Z</time>
      </trkpt>
      <trkpt lat="46.7928" lon="6.47169">
        <ele>1473.531</ele>
        <time>2023-10-12T11:37:39Z</time>
      </trkpt>
      <trkpt lat="46.7928" lon="6.47166">
        <ele>1472.146</ele>
        <time>2023-10-12T11:37:44Z</time>
      </trkpt>
      <trkpt lat="46.7928" lon="6.47162">
        <ele>1471.533</ele>
        <time>2023-10-12T11:37:49Z</time>
      </trkpt>
      <trkpt lat="46.79279" lon="6.47158">
        <ele>1470.196</ele>
        <time>2023-10-12T11:37:54Z</time>
      </trkpt>
      <trkpt lat="46.79279" lon="6.47153">
        <ele>1468.714</ele>
        <time>2023-10-12T11:37:59Z</time>
      </trkpt>
      <trkpt lat="46.79278" lon="6.47149">
        <ele>1467.948</ele>
        <time>2023-10-12T11:38:04Z</time>
      </trkpt>
      <trkpt lat="46.79276" lon="6.47144">
        <ele>1467.599</ele>
        <time>2023-10-12T11:38:09Z</time>
      </trkpt>
      <trkpt lat="46.79276" lon="6.47141">
        <ele>1466.936</ele>
        <time>2023-10-12T11:38:14Z</time>
      </trkpt>
      <trkpt lat="46.79274" lon="6.47135">
        <ele>1466.692</ele>
        <time>2023-10-12T11:38:19Z</time>
      </trkpt>
      <trkpt lat="46.79273" lon="6.47133">
        <ele>1465.337</ele>
        <time>2023-10-12T11:38:24Z</time>
      </trkpt>
      <trkpt lat="46.79273" lon="6.47129">
        <ele>1464.12</ele>
        <time>2023-10-12T11:38:29Z</time>
      </trkpt>
      <trkpt lat="46.79272" lon="6.47125">
        <ele>1463.223</ele>
        <time>2023-10-12T11:38:34Z</time>
      </trkpt>
      <trkpt lat="46.7927" lon="6.47121">
        <ele>1462.744</ele>
        <time>2023-10-12T11:38:39Z</time>
      </trkpt>
      <trkpt lat="46.79269" lon="6.47116">
        <ele>1461.695</ele>
        <time>2023-10-12T11:38:44Z</time>
      </trkpt>
      <trkpt lat="46.79268" lon="6.47114">
        <ele>1461.567</ele>
        <time>2023-10-12T11:38:49Z</time>
      </trkpt>
      <trkpt lat="46.79267" lon="6.4711">
        <ele>1460.948</ele>
        <time>2023-10-12T11:38:54Z</time>
      </trkpt>
      <trkpt lat="46.79266" lon="6.47105">
        <ele>1459.809</ele>
        <time>2023-10-12T11:38:59Z</time>
      </trkpt>
      <trkpt lat="46.79266" lon="6.47105">
        <ele>1458.448</ele>
        <time>2023-10-12T11:39:04Z</time>
      </trkpt>
      <trkpt lat="46.79266" lon="6.47105">
        <ele>1457.256</ele>
        <time>2023-10-12T11:39:09Z</time>
      </trkpt>
      <trkpt lat="46.79266" lon="6.47105">
        <ele>1456.462</ele>
        <time>2023-10-12T11:39:14Z</time>
      </trkpt>
      <trkpt lat="46.79266" lon="6.47105">
        <ele>1455.202</ele>
        <time>2023-10-12T11:39:19Z</time>
      </trkpt>
      <trkpt lat="46.79266" lon="6.47105">
        <ele>1454.572</ele>
        <time>2023-10-12T11:39:24Z</time>
      </trkpt>
      <trkpt lat="46.79266" lon="6.47105">
        <ele>1454.332</ele>
        <time>2023-10-12T11:39:29Z</time>
      </trkpt>
      <trkpt lat="46.79266" lon="6.47105">
        <ele>1452.504</ele>
        <time>2023-10-12T11:39:34Z</time>
      </trkpt>
      <trkpt lat="46.79268" lon="6.47092">
        <ele>1451.535</ele>
        <time>2023-10-12T11:39:39Z</time>
      </trkpt>
      <trkpt lat="46.79271" lon="6.47091">
        <ele>1450.956</ele>
        <time>2023-10-12T11:39:44Z</time>
      </trkpt>
      <trkpt lat="46.7927" lon="6.47086">
        <ele>1448.715</ele>
        <time>2023-10-12T11:39:49Z</time>
      </trkpt>
      <trkpt lat="46.79268" lon="6.47081">
        <ele>1446.998</ele>
        <time>2023-10-12T11:39:54Z</time>
      </trkpt>
      <trkpt lat="46.79268" lon="6.47079">
        <ele>1446.298</ele>
        <time>2023-10-12T11:39:59Z</time>
      </trkpt>
      <trkpt lat="46.79269" lon="6.47078">
        <ele>1444.749</ele>
        <time>2023-10-12T11:40:04Z</time>
      </trkpt>
      <trkpt lat="46.79267" lon="6.47071">
        <ele>1443.243</ele>
        <time>2023-10-12T11:40:09Z</time>
      </trkpt>
      <trkpt lat="46.79265" lon="6.47066">
        <ele>1443.108</ele>
        <time>2023-10-12T11:40:14Z</time>
      </trkpt>
      <trkpt lat="46.79265" lon="6.47062">
        <ele>1440.873</ele>
        <time>2023-10-12T11:40:19Z</time>
      </trkpt>
      <trkpt lat="46.79262" lon="6.47056">
        <ele>1439.907</ele>
        <time>2023-10-12T11:40:24Z</time>
      </trkpt>
      <trkpt lat="46.7926" lon="6.4705">
        <ele>1438.564</ele>
        <time>2023-10-12T11:40:29Z</time>
      </trkpt>
      <trkpt lat="46.79257" lon="6.47045">
        <ele>1438.664</ele>
        <time>2023-10-12T11:40:34Z</time>
      </trkpt>
      <trkpt lat="46.79256" lon="6.4704">
        <ele>1437.665</ele>
        <time>2023-10-12T11:40:39Z</time>
      </trkpt>
      <trkpt lat="46.79255" lon="6.47035">
        <ele>1435.556</ele>
        <time>2023-10-12T11:40:44Z</time>
      </trkpt>
      <trkpt lat="46.79254" lon="6.47032">
        <ele>1435.03</ele>
        <time>2023-10-12T11:40:49Z</time>
      </trkpt>
      <trkpt lat="46.79253" lon="6.47028">
        <ele>1433.812</ele>
        <time>2023-10-12T11:40:54Z</time>
      </trkpt>
      <trkpt lat="46.79252" lon="6.47023">
        <ele>1432.555</ele>
        <time>2023-10-12T11:40:59Z</time>
      </trkpt>
      <trkpt lat="46.79252" lon="6.4702">
        <ele>1430.934</ele>
        <time>2023-10-12T11:41:04Z</time>
      </trkpt>
      <trkpt lat="46.7925" lon="6.47015">
        <ele>1430.355</ele>
        <time>2023-10-12T11:41:09Z</time>
      </trkpt>
      <trkpt lat="46.79248" lon="6.47009">
        <ele>1429.602</ele>
        <time>2023-10-12T11:41:14Z</time>
      </trkpt>
      <trkpt lat="46.79247" lon="6.47004">
        <ele>1428.152</ele>
        <time>2023-10-12T11:41:19Z</time>
      </trkpt>
      <trkpt lat="46.79246" lon="6.46999">
        <ele>1426.991</ele>
        <time>2023-10-12T11:41:24Z</time>
      </trkpt>
      <trkpt lat="46.79244" lon="6.46994">
        <ele>1426.633</ele>
        <time>2023-10-12T11:41:29Z</time>
      </trkpt>
      <trkpt lat="46.79244" lon="6.46989">
        <ele>1425.838</ele>
        <time>2023-10-12T11:41:34Z</time>
      </trkpt>
      <trkpt lat="46.79244" lon="6.46987">
        <ele>1423.799</ele>
        <time>2023-10-12T11:41:39Z</time>
      </trkpt>
      <trkpt lat="46.79244" lon="6.46987">
        <ele>1421.795</ele>
        <time>2023-10-12T11:41:44Z</time>
      </trkpt>
      <trkpt lat="46.79244" lon="6.46987">
        <ele>1420.54</ele>
        <time>2023-10-12T11:41:49Z</time>
      </trkpt>
      <trkpt lat="46.79244" lon="6.46987">
        <ele>1420.023</ele>
        <time>2023-10-12T11:41:54Z</time>
      </trkpt>
      <trkpt lat="46.79244" lon="6.46987">
        <ele>1418.21</ele>
        <time>2023-10-12T11:41:59Z</time>
      </trkpt>
      <trkpt lat="46.79248" lon="6.46978">
        <ele>1416.22</ele>
        <time>2023-10-12T11:42:04Z</time>
      </trkpt>
      <trkpt lat="46.79253" lon="6.46978">
        <ele>1414.859</ele>
        <time>2023-10-12T11:42:09Z</time>
      </trkpt>
      <trkpt lat="46.79256" lon="6.46981">
        <ele>1414.963</ele>
        <time>2023-10-12T11:42:14Z</time>
      </trkpt>
      <trkpt lat="46.7926" lon="6.46982">
        <ele>1414.87</ele>
        <time>2023-10-12T11:42:19Z</time>
      </trkpt>
      <trkpt lat="46.79263" lon="6.46984">
        <ele>1413.47</ele>
        <time>2023-10-12T11:42:24Z</time>
      </trkpt>
      <trkpt lat="46.79267" lon="6.46986">
        <ele>1412.187</ele>
        <time>2023-10-12T11:42:29Z</time>
      </trkpt>
      <trkpt lat="46.7927" lon="6.46989">
        <ele>1412.178</ele>
        <time>2023-10-12T11:42:34Z</time>
      </trkpt>
      <trkpt lat="46.79272" lon="6.46989">
        <ele>1410.129</ele>
        <time>2023-10-12T11:42:39Z</time>
      </trkpt>
      <trkpt lat="46.79276" lon="6.46991">
        <ele>1409.799</ele>
        <time>2023-10-12T11:42:44Z</time>
      </trkpt>
      <trkpt lat="46.7928" lon="6.46993">
        <ele>1409.48</ele>
        <time>2023-10-12T11:42:49Z</time>
      </trkpt>
      <trkpt lat="46.79285" lon="6.46996">
        <ele>1409.571</ele>
        <time>2023-10-12T11:42:54Z</time>
      </trkpt>
      <trkpt lat="46.79288" lon="6.46998">
        <ele>1410.491</ele>
        <time>2023-10-12T11:42:59Z</time>
      </trkpt>
      <trkpt lat="46.79292" lon="6.46997">
        <ele>1409.867</ele>
        <time>2023-10-12T11:43:04Z</time>
      </trkpt>
      <trkpt lat="46.79296" lon="6.47">
        <ele>1406.527</ele>
        <time>2023-10-12T11:43:09Z</time>
      </trkpt>
      <trkpt lat="46.793" lon="6.47003">
        <ele>1404.908</ele>
        <time>2023-10-12T11:43:14Z</time>
      </trkpt>
      <trkpt lat="46.79305" lon="6.47006">
        <ele>1404.599</ele>
        <time>2023-10-12T11:43:19Z</time>
      </trkpt>
      <trkpt lat="46.79307" lon="6.47005">
        <ele>1402.886</ele>
        <time>2023-10-12T11:43:24Z</time>
      </trkpt>
      <trkpt lat="46.79312" lon="6.47008">
        <ele>1401.275</ele>
        <time>2023-10-12T11:43:29Z</time>
      </trkpt>
      <trkpt lat="46.79315" lon="6.47009">
        <ele>1400.67</ele>
        <time>2023-10-12T11:43:34Z</time>
      </trkpt>
      <trkpt lat="46.79319" lon="6.47012">
        <ele>1398.78</ele>
        <time>2023-10-12T11:43:39Z</time>
      </trkpt>
      <trkpt lat="46.79322" lon="6.47016">
        <ele>1398.379</ele>
        <time>2023-10-12T11:43:44Z</time>
      </trkpt>
      <trkpt lat="46.79328" lon="6.47019">
        <ele>1398.06</ele>
        <time>2023-10-12T11:43:49Z</time>
      </trkpt>
      <trkpt lat="46.79331" lon="6.47021">
        <ele>1394.962</ele>
        <time>2023-10-12T11:43:54Z</time>
      </trkpt>
      <trkpt lat="46.79337" lon="6.47025">
        <ele>1395.538</ele>
        <time>2023-10-12T11:43:59Z</time>
      </trkpt>
      <trkpt lat="46.7934" lon="6.4703">
        <ele>1394.608</ele>
        <time>2023-10-12T11:44:04Z</time>
      </trkpt>
      <trkpt lat="46.79346" lon="6.47032">
        <ele>1392.925</ele>
        <time>2023-10-12T11:44:09Z</time>
      </trkpt>
      <trkpt lat="46.79351" lon="6.47035">
        <ele>1390.657</ele>
        <time>2023-10-12T11:44:14Z</time>
      </trkpt>
      <trkpt lat="46.79353" lon="6.47036">
        <ele>1391.31</ele>
        <time>2023-10-12T11:44:19Z</time>
      </trkpt>
      <trkpt lat="46.79357" lon="6.47037">
        <ele>1389.416</ele>
        <time>2023-10-12T11:44:24Z</time>
      </trkpt>
      <trkpt lat="46.79362" lon="6.47038">
        <ele>1388.422</ele>
        <time>2023-10-12T11:44:29Z</time>
      </trkpt>
      <trkpt lat="46.79362" lon="6.47039">
        <ele>1389.485</ele>
        <time>2023-10-12T11:44:34Z</time>
      </trkpt>
      <trkpt lat="46.79363" lon="6.47038">
        <ele>1388.67</ele>
        <time>2023-10-12T11:44:39Z</time>
      </trkpt>
      <trkpt lat="46.79363" lon="6.47037">
        <ele>1388.666</ele>
        <time>2023-10-12T11:44:44Z</time>
      </trkpt>
      <trkpt lat="46.79363" lon="6.47037">
        <ele>1388.677</ele>
        <time>2023-10-12T11:44:49Z</time>
      </trkpt>
      <trkpt lat="46.79363" lon="6.47037">
        <ele>1388.692</ele>
        <time>2023-10-12T11:44:54Z</time>
      </trkpt>
      <trkpt lat="46.79363" lon="6.47037">
        <ele>1388.687</ele>
        <time>2023-10-12T11:44:59Z</time>
      </trkpt>
      <trkpt lat="46.79363" lon="6.47037">
        <ele>1388.682</ele>
        <time>2023-10-12T11:45:04Z</time>
      </trkpt>
      <trkpt lat="46.79363" lon="6.47037">
        <ele>1388.7</ele>
        <time>2023-10-12T11:45:09Z</time>
      </trkpt>
      <trkpt lat="46.79365" lon="6.4704">
        <ele>1386.205</ele>
        <time>2023-10-12T11:45:14Z</time>
      </trkpt>
      <trkpt lat="46.79366" lon="6.47042">
        <ele>1387.093</ele>
        <time>2023-10-12T11:45:19Z</time>
      </trkpt>
      <trkpt lat="46.79369" lon="6.47044">
        <ele>1388.196</ele>
        <time>2023-10-12T11:45:24Z</time>
      </trkpt>
      <trkpt lat="46.79372" lon="6.47046">
        <ele>1386.728</ele>
        <time>2023-10-12T11:45:29Z</time>
      </trkpt>
      <trkpt lat="46.79375" lon="6.47048">
        <ele>1386.78</ele>
        <time>2023-10-12T11:45:34Z</time>
      </trkpt>
      <trkpt lat="46.79378" lon="6.47049">
        <ele>1385.22</ele>
        <time>2023-10-12T11:45:39Z</time>
      </trkpt>
      <trkpt lat="46.79382" lon="6.47051">
        <ele>1384.491</ele>
        <time>2023-10-12T11:45:44Z</time>
      </trkpt>
      <trkpt lat="46.79385" lon="6.47053">
        <ele>1382.544</ele>
        <time>2023-10-12T11:45:49Z</time>
      </trkpt>
      <trkpt lat="46.79388" lon="6.47056">
        <ele>1379.049</ele>
        <time>2023-10-12T11:45:54Z</time>
      </trkpt>
      <trkpt lat="46.79393" lon="6.47059">
        <ele>1379.484</ele>
        <time>2023-10-12T11:45:59Z</time>
      </trkpt>
      <trkpt lat="46.79396" lon="6.47062">
        <ele>1380.61</ele>
        <time>2023-10-12T11:46:04Z</time>
      </trkpt>
      <trkpt lat="46.79399" lon="6.47062">
        <ele>1379.243</ele>
        <time>2023-10-12T11:46:09Z</time>
      </trkpt>
      <trkpt lat="46.79403" lon="6.47063">
        <ele>1377.722</ele>
        <time>2023-10-12T11:46:14Z</time>
      </trkpt>
      <trkpt lat="46.79406" lon="6.47066">
        <ele>1377.699</ele>
        <time>2023-10-12T11:46:19Z</time>
      </trkpt>
      <trkpt lat="46.79408" lon="6.4707">
        <ele>1374.906</ele>
        <time>2023-10-12T11:46:24Z</time>
      </trkpt>
      <trkpt lat="46.79413" lon="6.47072">
        <ele>1376.34</ele>
        <time>2023-10-12T11:46:29Z</time>
      </trkpt>
      <trkpt lat="46.79417" lon="6.47068">
        <ele>1375.422</ele>
        <time>2023-10-12T11:46:34Z</time>
      </trkpt>
      <trkpt lat="46.7942" lon="6.47068">
        <ele>1372.616</ele>
        <time>2023-10-12T11:46:39Z</time>
      </trkpt>
      <trkpt lat="46.79423" lon="6.47069">
        <ele>1370.891</ele>
        <time>2023-10-12T11:46:44Z</time>
      </trkpt>
      <trkpt lat="46.79427" lon="6.47069">
        <ele>1370.253</ele>
        <time>2023-10-12T11:46:49Z</time>
      </trkpt>
      <trkpt lat="46.7943" lon="6.47071">
        <ele>1370.739</ele>
        <time>2023-10-12T11:46:54Z</time>
      </trkpt>
      <trkpt lat="46.79434" lon="6.47073">
        <ele>1368.96</ele>
        <time>2023-10-12T11:46:59Z</time>
      </trkpt>
      <trkpt lat="46.79438" lon="6.47075">
        <ele>1367.321</ele>
        <time>2023-10-12T11:47:04Z</time>
      </trkpt>
      <trkpt lat="46.79442" lon="6.47077">
        <ele>1366.686</ele>
        <time>2023-10-12T11:47:09Z</time>
      </trkpt>
      <trkpt lat="46.79446" lon="6.47079">
        <ele>1364.65</ele>
        <time>2023-10-12T11:47:14Z</time>
      </trkpt>
      <trkpt lat="46.7945" lon="6.47081">
        <ele>1364.355</ele>
        <time>2023-10-12T11:47:19Z</time>
      </trkpt>
      <trkpt lat="46.79454" lon="6.47083">
        <ele>1363.861</ele>
        <time>2023-10-12T11:47:24Z</time>
      </trkpt>
      <trkpt lat="46.79457" lon="6.47085">
        <ele>1362.651</ele>
        <time>2023-10-12T11:47:29Z</time>
      </trkpt>
      <trkpt lat="46.7946" lon="6.47087">
        <ele>1362.135</ele>
        <time>2023-10-12T11:47:34Z</time>
      </trkpt>
      <trkpt lat="46.79463" lon="6.47089">
        <ele>1363.758</ele>
        <time>2023-10-12T11:47:39Z</time>
      </trkpt>
      <trkpt lat="46.79467" lon="6.47092">
        <ele>1358.958</ele>
        <time>2023-10-12T11:47:44Z</time>
      </trkpt>
      <trkpt lat="46.79471" lon="6.47096">
        <ele>1357.869</ele>
        <time>2023-10-12T11:47:49Z</time>
      </trkpt>
      <trkpt lat="46.79474" lon="6.47102">
        <ele>1356.601</ele>
        <time>2023-10-12T11:47:54Z</time>
      </trkpt>
      <trkpt lat="46.79478" lon="6.47106">
        <ele>1355.81</ele>
        <time>2023-10-12T11:47:59Z</time>
      </trkpt>
      <trkpt lat="46.79482" lon="6.47111">
        <ele>1354.429</ele>
        <time>2023-10-12T11:48:04Z</time>
      </trkpt>
      <trkpt lat="46.79487" lon="6.47116">
        <ele>1350.072</ele>
        <time>2023-10-12T11:48:09Z</time>
      </trkpt>
      <trkpt lat="46.79491" lon="6.47119">
        <ele>1347.883</ele>
        <time>2023-10-12T11:48:14Z</time>
      </trkpt>
      <trkpt lat="46.79495" lon="6.47121">
        <ele>1347.675</ele>
        <time>2023-10-12T11:48:19Z</time>
      </trkpt>
      <trkpt lat="46.79501" lon="6.47123">
        <ele>1346.341</ele>
        <time>2023-10-12T11:48:24Z</time>
      </trkpt>
      <trkpt lat="46.79504" lon="6.47126">
        <ele>1343.231</ele>
        <time>2023-10-12T11:48:29Z</time>
      </trkpt>
      <trkpt lat="46.79507" lon="6.47128">
        <ele>1342.792</ele>
        <time>2023-10-12T11:48:34Z</time>
      </trkpt>
      <trkpt lat="46.79511" lon="6.47129">
        <ele>1340.891</ele>
        <time>2023-10-12T11:48:39Z</time>
      </trkpt>
      <trkpt lat="46.79514" lon="6.47131">
        <ele>1338.194</ele>
        <time>2023-10-12T11:48:44Z</time>
      </trkpt>
      <trkpt lat="46.79517" lon="6.47134">
        <ele>1338.014</ele>
        <time>2023-10-12T11:48:49Z</time>
      </trkpt>
      <trkpt lat="46.7952" lon="6.47137">
        <ele>1335.171</ele>
        <time>2023-10-12T11:48:54Z</time>
      </trkpt>
      <trkpt lat="46.79524" lon="6.47138">
        <ele>1334.696</ele>
        <time>2023-10-12T11:48:59Z</time>
      </trkpt>
      <trkpt lat="46.79528" lon="6.47142">
        <ele>1333.444</ele>
        <time>2023-10-12T11:49:04Z</time>
      </trkpt>
      <trkpt lat="46.7953" lon="6.47142">
        <ele>1333.378</ele>
        <time>2023-10-12T11:49:09Z</time>
      </trkpt>
      <trkpt lat="46.79534" lon="6.47145">
        <ele>1332.516</ele>
        <time>2023-10-12T11:49:14Z</time>
      </trkpt>
      <trkpt lat="46.79538" lon="6.47147">
        <ele>1332.383</ele>
        <time>2023-10-12T11:49:19Z</time>
      </trkpt>
      <trkpt lat="46.79542" lon="6.47149">
        <ele>1330.875</ele>
        <time>2023-10-12T11:49:24Z</time>
      </trkpt>
      <trkpt lat="46.79546" lon="6.47152">
        <ele>1329.773</ele>
        <time>2023-10-12T11:49:29Z</time>
      </trkpt>
      <trkpt lat="46.79551" lon="6.47153">
        <ele>1329.121</ele>
        <time>2023-10-12T11:49:34Z</time>
      </trkpt>
      <trkpt lat="46.79555" lon="6.47156">
        <ele>1327.517</ele>
        <time>2023-10-12T11:49:39Z</time>
      </trkpt>
      <trkpt lat="46.7956" lon="6.47159">
        <ele>1327.672</ele>
        <time>2023-10-12T11:49:44Z</time>
      </trkpt>
      <trkpt lat="46.79562" lon="6.47161">
        <ele>1327.403</ele>
        <time>2023-10-12T11:49:49Z</time>
      </trkpt>
      <trkpt lat="46.79563" lon="6.47164">
        <ele>1326.729</ele>
        <time>2023-10-12T11:49:54Z</time>
      </trkpt>
      <trkpt lat="46.79566" lon="6.47171">
        <ele>1327.461</ele>
        <time>2023-10-12T11:49:59Z</time>
      </trkpt>
      <trkpt lat="46.79569" lon="6.47177">
        <ele>1327.945</ele>
        <time>2023-10-12T11:50:04Z</time>
      </trkpt>
      <trkpt lat="46.79573" lon="6.47183">
        <ele>1327.876</ele>
        <time>2023-10-12T11:50:09Z</time>
      </trkpt>
      <trkpt lat="46.79576" lon="6.47189">
        <ele>1327.156</ele>
        <time>2023-10-12T11:50:14Z</time>
      </trkpt>
      <trkpt lat="46.7958" lon="6.47195">
        <ele>1327.213</ele>
        <time>2023-10-12T11:50:19Z</time>
      </trkpt>
      <trkpt lat="46.79584" lon="6.47201">
        <ele>1326.818</ele>
        <time>2023-10-12T11:50:24Z</time>
      </trkpt>
      <trkpt lat="46.79588" lon="6.47206">
        <ele>1325.785</ele>
        <time>2023-10-12T11:50:29Z</time>
      </trkpt>
      <trkpt lat="46.79591" lon="6.47213">
        <ele>1325.271</ele>
        <time>2023-10-12T11:50:34Z</time>
      </trkpt>
      <trkpt lat="46.79593" lon="6.4722">
        <ele>1326.014</ele>
        <time>2023-10-12T11:50:39Z</time>
      </trkpt>
      <trkpt lat="46.79593" lon="6.47228">
        <ele>1326.71</ele>
        <time>2023-10-12T11:50:44Z</time>
      </trkpt>
      <trkpt lat="46.79593" lon="6.47236">
        <ele>1326.893</ele>
        <time>2023-10-12T11:50:49Z</time>
      </trkpt>
      <trkpt lat="46.79594" lon="6.47244">
        <ele>1326.82</ele>
        <time>2023-10-12T11:50:54Z</time>
      </trkpt>
      <trkpt lat="46.79595" lon="6.47252">
        <ele>1327.294</ele>
        <time>2023-10-12T11:50:59Z</time>
      </trkpt>
      <trkpt lat="46.79596" lon="6.47259">
        <ele>1326.517</ele>
        <time>2023-10-12T11:51:04Z</time>
      </trkpt>
      <trkpt lat="46.79597" lon="6.47266">
        <ele>1325.209</ele>
        <time>2023-10-12T11:51:09Z</time>
      </trkpt>
      <trkpt lat="46.79599" lon="6.47273">
        <ele>1325.096</ele>
        <time>2023-10-12T11:51:14Z</time>
      </trkpt>
      <trkpt lat="46.79603" lon="6.47279">
        <ele>1324.504</ele>
        <time>2023-10-12T11:51:19Z</time>
      </trkpt>
      <trkpt lat="46.79607" lon="6.47285">
        <ele>1324.258</ele>
        <time>2023-10-12T11:51:24Z</time>
      </trkpt>
      <trkpt lat="46.7961" lon="6.47291">
        <ele>1323.138</ele>
        <time>2023-10-12T11:51:29Z</time>
      </trkpt>
      <trkpt lat="46.79615" lon="6.47296">
        <ele>1321.952</ele>
        <time>2023-10-12T11:51:34Z</time>
      </trkpt>
      <trkpt lat="46.79617" lon="6.47299">
        <ele>1321.283</ele>
        <time>2023-10-12T11:51:39Z</time>
      </trkpt>
      <trkpt lat="46.79621" lon="6.47301">
        <ele>1321.204</ele>
        <time>2023-10-12T11:51:44Z</time>
      </trkpt>
      <trkpt lat="46.79624" lon="6.47307">
        <ele>1322.961</ele>
        <time>2023-10-12T11:51:49Z</time>
      </trkpt>
      <trkpt lat="46.79627" lon="6.47311">
        <ele>1323.81</ele>
        <time>2023-10-12T11:51:54Z</time>
      </trkpt>
      <trkpt lat="46.79628" lon="6.4731">
        <ele>1323.14</ele>
        <time>2023-10-12T11:51:59Z</time>
      </trkpt>
      <trkpt lat="46.79628" lon="6.4731">
        <ele>1323.13</ele>
        <time>2023-10-12T11:52:04Z</time>
      </trkpt>
      <trkpt lat="46.79628" lon="6.4731">
        <ele>1323.125</ele>
        <time>2023-10-12T11:52:09Z</time>
      </trkpt>
      <trkpt lat="46.79628" lon="6.4731">
        <ele>1322.964</ele>
        <time>2023-10-12T11:52:14Z</time>
      </trkpt>
      <trkpt lat="46.79628" lon="6.47309">
        <ele>1322.788</ele>
        <time>2023-10-12T11:52:19Z</time>
      </trkpt>
      <trkpt lat="46.7963" lon="6.4731">
        <ele>1322.921</ele>
        <time>2023-10-12T11:52:24Z</time>
      </trkpt>
      <trkpt lat="46.79631" lon="6.47317">
        <ele>1323.384</ele>
        <time>2023-10-12T11:52:29Z</time>
      </trkpt>
      <trkpt lat="46.79633" lon="6.47322">
        <ele>1323.153</ele>
        <time>2023-10-12T11:52:34Z</time>
      </trkpt>
      <trkpt lat="46.79637" lon="6.47328">
        <ele>1323.083</ele>
        <time>2023-10-12T11:52:39Z</time>
      </trkpt>
      <trkpt lat="46.7964" lon="6.47335">
        <ele>1323.184</ele>
        <time>2023-10-12T11:52:44Z</time>
      </trkpt>
      <trkpt lat="46.79643" lon="6.47341">
        <ele>1323.14</ele>
        <time>2023-10-12T11:52:49Z</time>
      </trkpt>
      <trkpt lat="46.79647" lon="6.47346">
        <ele>1322.958</ele>
        <time>2023-10-12T11:52:54Z</time>
      </trkpt>
      <trkpt lat="46.79652" lon="6.47351">
        <ele>1323.282</ele>
        <time>2023-10-12T11:52:59Z</time>
      </trkpt>
      <trkpt lat="46.79657" lon="6.47355">
        <ele>1323.275</ele>
        <time>2023-10-12T11:53:04Z</time>
      </trkpt>
      <trkpt lat="46.7966" lon="6.47361">
        <ele>1323.46</ele>
        <time>2023-10-12T11:53:09Z</time>
      </trkpt>
      <trkpt lat="46.7966" lon="6.4737">
        <ele>1323.299</ele>
        <time>2023-10-12T11:53:14Z</time>
      </trkpt>
      <trkpt lat="46.7966" lon="6.47378">
        <ele>1322.843</ele>
        <time>2023-10-12T11:53:19Z</time>
      </trkpt>
      <trkpt lat="46.79661" lon="6.47386">
        <ele>1323.529</ele>
        <time>2023-10-12T11:53:24Z</time>
      </trkpt>
      <trkpt lat="46.79663" lon="6.47394">
        <ele>1323.762</ele>
        <time>2023-10-12T11:53:29Z</time>
      </trkpt>
      <trkpt lat="46.79665" lon="6.47402">
        <ele>1323.275</ele>
        <time>2023-10-12T11:53:34Z</time>
      </trkpt>
      <trkpt lat="46.79667" lon="6.4741">
        <ele>1323.539</ele>
        <time>2023-10-12T11:53:39Z</time>
      </trkpt>
      <trkpt lat="46.7967" lon="6.47417">
        <ele>1323.797</ele>
        <time>2023-10-12T11:53:44Z</time>
      </trkpt>
      <trkpt lat="46.79673" lon="6.47425">
        <ele>1324.236</ele>
        <time>2023-10-12T11:53:49Z</time>
      </trkpt>
      <trkpt lat="46.79677" lon="6.47432">
        <ele>1324.4</ele>
        <time>2023-10-12T11:53:54Z</time>
      </trkpt>
      <trkpt lat="46.7968" lon="6.47438">
        <ele>1323.878</ele>
        <time>2023-10-12T11:53:59Z</time>
      </trkpt>
      <trkpt lat="46.79684" lon="6.47446">
        <ele>1324.051</ele>
        <time>2023-10-12T11:54:04Z</time>
      </trkpt>
      <trkpt lat="46.79687" lon="6.47453">
        <ele>1323.776</ele>
        <time>2023-10-12T11:54:09Z</time>
      </trkpt>
      <trkpt lat="46.79689" lon="6.47461">
        <ele>1323.614</ele>
        <time>2023-10-12T11:54:14Z</time>
      </trkpt>
      <trkpt lat="46.79692" lon="6.47468">
        <ele>1323.076</ele>
        <time>2023-10-12T11:54:19Z</time>
      </trkpt>
      <trkpt lat="46.79696" lon="6.47475">
        <ele>1323.487</ele>
        <time>2023-10-12T11:54:24Z</time>
      </trkpt>
      <trkpt lat="46.79699" lon="6.47481">
        <ele>1322.729</ele>
        <time>2023-10-12T11:54:29Z</time>
      </trkpt>
      <trkpt lat="46.79703" lon="6.47488">
        <ele>1322.196</ele>
        <time>2023-10-12T11:54:34Z</time>
      </trkpt>
      <trkpt lat="46.79707" lon="6.47494">
        <ele>1321.488</ele>
        <time>2023-10-12T11:54:39Z</time>
      </trkpt>
      <trkpt lat="46.79711" lon="6.475">
        <ele>1321.133</ele>
        <time>2023-10-12T11:54:44Z</time>
      </trkpt>
      <trkpt lat="46.79714" lon="6.47507">
        <ele>1320.791</ele>
        <time>2023-10-12T11:54:49Z</time>
      </trkpt>
      <trkpt lat="46.79717" lon="6.47514">
        <ele>1319.639</ele>
        <time>2023-10-12T11:54:54Z</time>
      </trkpt>
      <trkpt lat="46.79721" lon="6.47521">
        <ele>1318.81</ele>
        <time>2023-10-12T11:54:59Z</time>
      </trkpt>
      <trkpt lat="46.79724" lon="6.47528">
        <ele>1317.926</ele>
        <time>2023-10-12T11:55:04Z</time>
      </trkpt>
      <trkpt lat="46.79727" lon="6.47536">
        <ele>1316.859</ele>
        <time>2023-10-12T11:55:09Z</time>
      </trkpt>
      <trkpt lat="46.79731" lon="6.47542">
        <ele>1316.265</ele>
        <time>2023-10-12T11:55:14Z</time>
      </trkpt>
      <trkpt lat="46.79735" lon="6.47549">
        <ele>1316.88</ele>
        <time>2023-10-12T11:55:19Z</time>
      </trkpt>
      <trkpt lat="46.79739" lon="6.47554">
        <ele>1316.242</ele>
        <time>2023-10-12T11:55:24Z</time>
      </trkpt>
      <trkpt lat="46.79744" lon="6.47558">
        <ele>1315.004</ele>
        <time>2023-10-12T11:55:29Z</time>
      </trkpt>
      <trkpt lat="46.79748" lon="6.47564">
        <ele>1314.434</ele>
        <time>2023-10-12T11:55:34Z</time>
      </trkpt>
      <trkpt lat="46.79752" lon="6.4757">
        <ele>1313.515</ele>
        <time>2023-10-12T11:55:39Z</time>
      </trkpt>
      <trkpt lat="46.79756" lon="6.47577">
        <ele>1313.655</ele>
        <time>2023-10-12T11:55:44Z</time>
      </trkpt>
      <trkpt lat="46.79759" lon="6.47584">
        <ele>1313.369</ele>
        <time>2023-10-12T11:55:49Z</time>
      </trkpt>
      <trkpt lat="46.79764" lon="6.47591">
        <ele>1312.84</ele>
        <time>2023-10-12T11:55:54Z</time>
      </trkpt>
      <trkpt lat="46.79769" lon="6.47595">
        <ele>1312.369</ele>
        <time>2023-10-12T11:55:59Z</time>
      </trkpt>
      <trkpt lat="46.79774" lon="6.47599">
        <ele>1311.321</ele>
        <time>2023-10-12T11:56:04Z</time>
      </trkpt>
      <trkpt lat="46.79779" lon="6.47604">
        <ele>1310.755</ele>
        <time>2023-10-12T11:56:09Z</time>
      </trkpt>
      <trkpt lat="46.79784" lon="6.47608">
        <ele>1310.456</ele>
        <time>2023-10-12T11:56:14Z</time>
      </trkpt>
      <trkpt lat="46.79789" lon="6.47612">
        <ele>1309.623</ele>
        <time>2023-10-12T11:56:19Z</time>
      </trkpt>
      <trkpt lat="46.79794" lon="6.47617">
        <ele>1309.069</ele>
        <time>2023-10-12T11:56:24Z</time>
      </trkpt>
      <trkpt lat="46.79798" lon="6.47622">
        <ele>1309.076</ele>
        <time>2023-10-12T11:56:29Z</time>
      </trkpt>
      <trkpt lat="46.79801" lon="6.47628">
        <ele>1309.378</ele>
        <time>2023-10-12T11:56:34Z</time>
      </trkpt>
      <trkpt lat="46.79806" lon="6.47633">
        <ele>1309.704</ele>
        <time>2023-10-12T11:56:39Z</time>
      </trkpt>
      <trkpt lat="46.7981" lon="6.47639">
        <ele>1309.979</ele>
        <time>2023-10-12T11:56:44Z</time>
      </trkpt>
      <trkpt lat="46.79814" lon="6.47643">
        <ele>1309.402</ele>
        <time>2023-10-12T11:56:49Z</time>
      </trkpt>
      <trkpt lat="46.7982" lon="6.47647">
        <ele>1308.496</ele>
        <time>2023-10-12T11:56:54Z</time>
      </trkpt>
      <trkpt lat="46.79825" lon="6.4765">
        <ele>1307.74</ele>
        <time>2023-10-12T11:56:59Z</time>
      </trkpt>
      <trkpt lat="46.79829" lon="6.47655">
        <ele>1307.458</ele>
        <time>2023-10-12T11:57:04Z</time>
      </trkpt>
      <trkpt lat="46.79834" lon="6.47659">
        <ele>1307.338</ele>
        <time>2023-10-12T11:57:09Z</time>
      </trkpt>
      <trkpt lat="46.79839" lon="6.47664">
        <ele>1307.102</ele>
        <time>2023-10-12T11:57:14Z</time>
      </trkpt>
      <trkpt lat="46.79844" lon="6.47669">
        <ele>1306.053</ele>
        <time>2023-10-12T11:57:19Z</time>
      </trkpt>
      <trkpt lat="46.79849" lon="6.47674">
        <ele>1309.05</ele>
        <time>2023-10-12T11:57:24Z</time>
      </trkpt>
      <trkpt lat="46.79853" lon="6.47679">
        <ele>1310.112</ele>
        <time>2023-10-12T11:57:29Z</time>
      </trkpt>
      <trkpt lat="46.79857" lon="6.47685">
        <ele>1310.726</ele>
        <time>2023-10-12T11:57:34Z</time>
      </trkpt>
      <trkpt lat="46.79861" lon="6.47691">
        <ele>1310.714</ele>
        <time>2023-10-12T11:57:39Z</time>
      </trkpt>
      <trkpt lat="46.79866" lon="6.47698">
        <ele>1312.098</ele>
        <time>2023-10-12T11:57:44Z</time>
      </trkpt>
      <trkpt lat="46.79869" lon="6.47705">
        <ele>1312.666</ele>
        <time>2023-10-12T11:57:49Z</time>
      </trkpt>
      <trkpt lat="46.79873" lon="6.4771">
        <ele>1311.779</ele>
        <time>2023-10-12T11:57:54Z</time>
      </trkpt>
      <trkpt lat="46.79879" lon="6.47713">
        <ele>1309.145</ele>
        <time>2023-10-12T11:57:59Z</time>
      </trkpt>
      <trkpt lat="46.79882" lon="6.47718">
        <ele>1309.655</ele>
        <time>2023-10-12T11:58:04Z</time>
      </trkpt>
      <trkpt lat="46.79885" lon="6.47724">
        <ele>1308.797</ele>
        <time>2023-10-12T11:58:09Z</time>
      </trkpt>
      <trkpt lat="46.79887" lon="6.47727">
        <ele>1308.348</ele>
        <time>2023-10-12T11:58:14Z</time>
      </trkpt>
      <trkpt lat="46.79889" lon="6.47734">
        <ele>1308.086</ele>
        <time>2023-10-12T11:58:19Z</time>
      </trkpt>
      <trkpt lat="46.79893" lon="6.47739">
        <ele>1306.384</ele>
        <time>2023-10-12T11:58:24Z</time>
      </trkpt>
      <trkpt lat="46.79898" lon="6.47743">
        <ele>1303.814</ele>
        <time>2023-10-12T11:58:29Z</time>
      </trkpt>
      <trkpt lat="46.79903" lon="6.47746">
        <ele>1304.205</ele>
        <time>2023-10-12T11:58:34Z</time>
      </trkpt>
      <trkpt lat="46.79908" lon="6.4775">
        <ele>1302.377</ele>
        <time>2023-10-12T11:58:39Z</time>
      </trkpt>
      <trkpt lat="46.79911" lon="6.47756">
        <ele>1301.015</ele>
        <time>2023-10-12T11:58:44Z</time>
      </trkpt>
      <trkpt lat="46.79914" lon="6.47761">
        <ele>1299.586</ele>
        <time>2023-10-12T11:58:49Z</time>
      </trkpt>
      <trkpt lat="46.79917" lon="6.47767">
        <ele>1300.907</ele>
        <time>2023-10-12T11:58:54Z</time>
      </trkpt>
      <trkpt lat="46.7992" lon="6.47772">
        <ele>1300.744</ele>
        <time>2023-10-12T11:58:59Z</time>
      </trkpt>
      <trkpt lat="46.79924" lon="6.47778">
        <ele>1300.141</ele>
        <time>2023-10-12T11:59:04Z</time>
      </trkpt>
      <trkpt lat="46.79926" lon="6.47783">
        <ele>1298.26</ele>
        <time>2023-10-12T11:59:09Z</time>
      </trkpt>
      <trkpt lat="46.79929" lon="6.4779">
        <ele>1298.381</ele>
        <time>2023-10-12T11:59:14Z</time>
      </trkpt>
      <trkpt lat="46.79933" lon="6.47798">
        <ele>1298.331</ele>
        <time>2023-10-12T11:59:19Z</time>
      </trkpt>
      <trkpt lat="46.79935" lon="6.47805">
        <ele>1298.199</ele>
        <time>2023-10-12T11:59:24Z</time>
      </trkpt>
      <trkpt lat="46.79939" lon="6.47813">
        <ele>1297.296</ele>
        <time>2023-10-12T11:59:29Z</time>
      </trkpt>
      <trkpt lat="46.79942" lon="6.4782">
        <ele>1295.56</ele>
        <time>2023-10-12T11:59:34Z</time>
      </trkpt>
      <trkpt lat="46.79947" lon="6.47826">
        <ele>1294.392</ele>
        <time>2023-10-12T11:59:39Z</time>
      </trkpt>
      <trkpt lat="46.79951" lon="6.47831">
        <ele>1293.148</ele>
        <time>2023-10-12T11:59:44Z</time>
      </trkpt>
      <trkpt lat="46.79955" lon="6.47836">
        <ele>1291.842</ele>
        <time>2023-10-12T11:59:49Z</time>
      </trkpt>
      <trkpt lat="46.79958" lon="6.47842">
        <ele>1290.806</ele>
        <time>2023-10-12T11:59:54Z</time>
      </trkpt>
      <trkpt lat="46.79961" lon="6.47849">
        <ele>1288.945</ele>
        <time>2023-10-12T11:59:59Z</time>
      </trkpt>
      <trkpt lat="46.79962" lon="6.47855">
        <ele>1287.971</ele>
        <time>2023-10-12T12:00:04Z</time>
      </trkpt>
      <trkpt lat="46.79965" lon="6.47861">
        <ele>1289.179</ele>
        <time>2023-10-12T12:00:09Z</time>
      </trkpt>
      <trkpt lat="46.79968" lon="6.47867">
        <ele>1287.651</ele>
        <time>2023-10-12T12:00:14Z</time>
      </trkpt>
      <trkpt lat="46.79972" lon="6.47872">
        <ele>1287.76</ele>
        <time>2023-10-12T12:00:19Z</time>
      </trkpt>
      <trkpt lat="46.79975" lon="6.47879">
        <ele>1287.638</ele>
        <time>2023-10-12T12:00:24Z</time>
      </trkpt>
      <trkpt lat="46.79978" lon="6.47885">
        <ele>1286.548</ele>
        <time>2023-10-12T12:00:29Z</time>
      </trkpt>
      <trkpt lat="46.79981" lon="6.47891">
        <ele>1285.749</ele>
        <time>2023-10-12T12:00:34Z</time>
      </trkpt>
      <trkpt lat="46.79985" lon="6.47896">
        <ele>1285.763</ele>
        <time>2023-10-12T12:00:39Z</time>
      </trkpt>
      <trkpt lat="46.79987" lon="6.47903">
        <ele>1285.747</ele>
        <time>2023-10-12T12:00:44Z</time>
      </trkpt>
      <trkpt lat="46.79989" lon="6.47911">
        <ele>1286.271</ele>
        <time>2023-10-12T12:00:49Z</time>
      </trkpt>
      <trkpt lat="46.79992" lon="6.47917">
        <ele>1286.293</ele>
        <time>2023-10-12T12:00:54Z</time>
      </trkpt>
      <trkpt lat="46.79996" lon="6.47921">
        <ele>1285.29</ele>
        <time>2023-10-12T12:00:59Z</time>
      </trkpt>
      <trkpt lat="46.79999" lon="6.47927">
        <ele>1284.135</ele>
        <time>2023-10-12T12:01:04Z</time>
      </trkpt>
      <trkpt lat="46.80002" lon="6.47932">
        <ele>1283.037</ele>
        <time>2023-10-12T12:01:09Z</time>
      </trkpt>
      <trkpt lat="46.80005" lon="6.47939">
        <ele>1282.983</ele>
        <time>2023-10-12T12:01:14Z</time>
      </trkpt>
      <trkpt lat="46.80008" lon="6.47945">
        <ele>1280.322</ele>
        <time>2023-10-12T12:01:19Z</time>
      </trkpt>
      <trkpt lat="46.8001" lon="6.47951">
        <ele>1279.394</ele>
        <time>2023-10-12T12:01:24Z</time>
      </trkpt>
      <trkpt lat="46.80013" lon="6.47957">
        <ele>1278.131</ele>
        <time>2023-10-12T12:01:29Z</time>
      </trkpt>
      <trkpt lat="46.80017" lon="6.47962">
        <ele>1277.136</ele>
        <time>2023-10-12T12:01:34Z</time>
      </trkpt>
      <trkpt lat="46.80019" lon="6.47964">
        <ele>1276.243</ele>
        <time>2023-10-12T12:01:39Z</time>
      </trkpt>
      <trkpt lat="46.80022" lon="6.47971">
        <ele>1275.855</ele>
        <time>2023-10-12T12:01:44Z</time>
      </trkpt>
      <trkpt lat="46.80026" lon="6.47976">
        <ele>1274.069</ele>
        <time>2023-10-12T12:01:49Z</time>
      </trkpt>
      <trkpt lat="46.80029" lon="6.47983">
        <ele>1273.419</ele>
        <time>2023-10-12T12:01:54Z</time>
      </trkpt>
      <trkpt lat="46.80033" lon="6.47988">
        <ele>1272.813</ele>
        <time>2023-10-12T12:01:59Z</time>
      </trkpt>
      <trkpt lat="46.80038" lon="6.47992">
        <ele>1272.41</ele>
        <time>2023-10-12T12:02:04Z</time>
      </trkpt>
      <trkpt lat="46.80042" lon="6.47997">
        <ele>1271.047</ele>
        <time>2023-10-12T12:02:09Z</time>
      </trkpt>
      <trkpt lat="46.80046" lon="6.48003">
        <ele>1271.536</ele>
        <time>2023-10-12T12:02:14Z</time>
      </trkpt>
      <trkpt lat="46.80049" lon="6.48009">
        <ele>1271.236</ele>
        <time>2023-10-12T12:02:19Z</time>
      </trkpt>
      <trkpt lat="46.80053" lon="6.48015">
        <ele>1270.838</ele>
        <time>2023-10-12T12:02:24Z</time>
      </trkpt>
      <trkpt lat="46.80056" lon="6.48021">
        <ele>1270.096</ele>
        <time>2023-10-12T12:02:29Z</time>
      </trkpt>
      <trkpt lat="46.80059" lon="6.48027">
        <ele>1267.503</ele>
        <time>2023-10-12T12:02:34Z</time>
      </trkpt>
      <trkpt lat="46.80064" lon="6.48033">
        <ele>1266.141</ele>
        <time>2023-10-12T12:02:40Z</time>
      </trkpt>
      <trkpt lat="46.80068" lon="6.48038">
        <ele>1266.466</ele>
        <time>2023-10-12T12:02:45Z</time>
      </trkpt>
      <trkpt lat="46.80072" lon="6.48042">
        <ele>1265.703</ele>
        <time>2023-10-12T12:02:50Z</time>
      </trkpt>
      <trkpt lat="46.80077" lon="6.48047">
        <ele>1265.403</ele>
        <time>2023-10-12T12:02:55Z</time>
      </trkpt>
      <trkpt lat="46.80081" lon="6.4805">
        <ele>1264.154</ele>
        <time>2023-10-12T12:03:00Z</time>
      </trkpt>
      <trkpt lat="46.80085" lon="6.48053">
        <ele>1262.537</ele>
        <time>2023-10-12T12:03:05Z</time>
      </trkpt>
      <trkpt lat="46.8009" lon="6.48055">
        <ele>1261.308</ele>
        <time>2023-10-12T12:03:10Z</time>
      </trkpt>
      <trkpt lat="46.80096" lon="6.48055">
        <ele>1260.703</ele>
        <time>2023-10-12T12:03:15Z</time>
      </trkpt>
      <trkpt lat="46.80101" lon="6.48052">
        <ele>1260.105</ele>
        <time>2023-10-12T12:03:20Z</time>
      </trkpt>
      <trkpt lat="46.80102" lon="6.48047">
        <ele>1259.234</ele>
        <time>2023-10-12T12:03:25Z</time>
      </trkpt>
      <trkpt lat="46.80103" lon="6.48047">
        <ele>1258.007</ele>
        <time>2023-10-12T12:03:30Z</time>
      </trkpt>
      <trkpt lat="46.80105" lon="6.48048">
        <ele>1257.855</ele>
        <time>2023-10-12T12:03:35Z</time>
      </trkpt>
      <trkpt lat="46.80104" lon="6.48051">
        <ele>1257.361</ele>
        <time>2023-10-12T12:03:40Z</time>
      </trkpt>
      <trkpt lat="46.80102" lon="6.48057">
        <ele>1258.421</ele>
        <time>2023-10-12T12:03:45Z</time>
      </trkpt>
      <trkpt lat="46.80101" lon="6.48063">
        <ele>1257.402</ele>
        <time>2023-10-12T12:03:50Z</time>
      </trkpt>
      <trkpt lat="46.80105" lon="6.48066">
        <ele>1255.945</ele>
        <time>2023-10-12T12:03:55Z</time>
      </trkpt>
      <trkpt lat="46.80108" lon="6.48071">
        <ele>1256.086</ele>
        <time>2023-10-12T12:04:00Z</time>
      </trkpt>
      <trkpt lat="46.80112" lon="6.48076">
        <ele>1255.419</ele>
        <time>2023-10-12T12:04:05Z</time>
      </trkpt>
      <trkpt lat="46.80116" lon="6.48082">
        <ele>1254.86</ele>
        <time>2023-10-12T12:04:10Z</time>
      </trkpt>
      <trkpt lat="46.80119" lon="6.48088">
        <ele>1255.026</ele>
        <time>2023-10-12T12:04:15Z</time>
      </trkpt>
      <trkpt lat="46.80123" lon="6.48095">
        <ele>1254.541</ele>
        <time>2023-10-12T12:04:20Z</time>
      </trkpt>
      <trkpt lat="46.80127" lon="6.481">
        <ele>1253.828</ele>
        <time>2023-10-12T12:04:25Z</time>
      </trkpt>
      <trkpt lat="46.80132" lon="6.48105">
        <ele>1252.964</ele>
        <time>2023-10-12T12:04:30Z</time>
      </trkpt>
      <trkpt lat="46.80136" lon="6.48111">
        <ele>1252.828</ele>
        <time>2023-10-12T12:04:35Z</time>
      </trkpt>
      <trkpt lat="46.8014" lon="6.48121">
        <ele>1252.862</ele>
        <time>2023-10-12T12:04:40Z</time>
      </trkpt>
      <trkpt lat="46.80145" lon="6.48126">
        <ele>1252.102</ele>
        <time>2023-10-12T12:04:45Z</time>
      </trkpt>
      <trkpt lat="46.8015" lon="6.4813">
        <ele>1250.867</ele>
        <time>2023-10-12T12:04:50Z</time>
      </trkpt>
      <trkpt lat="46.80155" lon="6.48134">
        <ele>1250.958</ele>
        <time>2023-10-12T12:04:55Z</time>
      </trkpt>
      <trkpt lat="46.80159" lon="6.4814">
        <ele>1249.694</ele>
        <time>2023-10-12T12:05:00Z</time>
      </trkpt>
      <trkpt lat="46.80162" lon="6.48147">
        <ele>1249.022</ele>
        <time>2023-10-12T12:05:05Z</time>
      </trkpt>
      <trkpt lat="46.80166" lon="6.48154">
        <ele>1245.939</ele>
        <time>2023-10-12T12:05:10Z</time>
      </trkpt>
      <trkpt lat="46.80169" lon="6.48159">
        <ele>1244.301</ele>
        <time>2023-10-12T12:05:15Z</time>
      </trkpt>
      <trkpt lat="46.80173" lon="6.48166">
        <ele>1243.808</ele>
        <time>2023-10-12T12:05:20Z</time>
      </trkpt>
      <trkpt lat="46.80177" lon="6.48172">
        <ele>1242.277</ele>
        <time>2023-10-12T12:05:25Z</time>
      </trkpt>
      <trkpt lat="46.80182" lon="6.48178">
        <ele>1243.086</ele>
        <time>2023-10-12T12:05:30Z</time>
      </trkpt>
      <trkpt lat="46.80186" lon="6.48184">
        <ele>1243.291</ele>
        <time>2023-10-12T12:05:35Z</time>
      </trkpt>
      <trkpt lat="46.80191" lon="6.4819">
        <ele>1244.461</ele>
        <time>2023-10-12T12:05:40Z</time>
      </trkpt>
      <trkpt lat="46.80195" lon="6.48195">
        <ele>1242.308</ele>
        <time>2023-10-12T12:05:45Z</time>
      </trkpt>
      <trkpt lat="46.80199" lon="6.48202">
        <ele>1242.302</ele>
        <time>2023-10-12T12:05:50Z</time>
      </trkpt>
      <trkpt lat="46.80204" lon="6.48204">
        <ele>1239.07</ele>
        <time>2023-10-12T12:05:55Z</time>
      </trkpt>
      <trkpt lat="46.8021" lon="6.48208">
        <ele>1239.965</ele>
        <time>2023-10-12T12:06:00Z</time>
      </trkpt>
      <trkpt lat="46.80213" lon="6.48213">
        <ele>1241.377</ele>
        <time>2023-10-12T12:06:05Z</time>
      </trkpt>
      <trkpt lat="46.80218" lon="6.48218">
        <ele>1243.954</ele>
        <time>2023-10-12T12:06:10Z</time>
      </trkpt>
      <trkpt lat="46.80224" lon="6.4822">
        <ele>1242.533</ele>
        <time>2023-10-12T12:06:15Z</time>
      </trkpt>
      <trkpt lat="46.80229" lon="6.48227">
        <ele>1241.86</ele>
        <time>2023-10-12T12:06:20Z</time>
      </trkpt>
      <trkpt lat="46.80233" lon="6.48231">
        <ele>1239.26</ele>
        <time>2023-10-12T12:06:25Z</time>
      </trkpt>
      <trkpt lat="46.80238" lon="6.48236">
        <ele>1238.819</ele>
        <time>2023-10-12T12:06:30Z</time>
      </trkpt>
      <trkpt lat="46.80242" lon="6.48243">
        <ele>1240.243</ele>
        <time>2023-10-12T12:06:35Z</time>
      </trkpt>
      <trkpt lat="46.80246" lon="6.48248">
        <ele>1237.415</ele>
        <time>2023-10-12T12:06:40Z</time>
      </trkpt>
      <trkpt lat="46.8025" lon="6.48254">
        <ele>1234.058</ele>
        <time>2023-10-12T12:06:45Z</time>
      </trkpt>
      <trkpt lat="46.80252" lon="6.48261">
        <ele>1235.554</ele>
        <time>2023-10-12T12:06:50Z</time>
      </trkpt>
      <trkpt lat="46.80256" lon="6.48266">
        <ele>1236.001</ele>
        <time>2023-10-12T12:06:55Z</time>
      </trkpt>
      <trkpt lat="46.80259" lon="6.48273">
        <ele>1233.277</ele>
        <time>2023-10-12T12:07:00Z</time>
      </trkpt>
      <trkpt lat="46.80263" lon="6.48281">
        <ele>1232.971</ele>
        <time>2023-10-12T12:07:05Z</time>
      </trkpt>
      <trkpt lat="46.80267" lon="6.48288">
        <ele>1232.265</ele>
        <time>2023-10-12T12:07:10Z</time>
      </trkpt>
      <trkpt lat="46.80271" lon="6.48296">
        <ele>1233.22</ele>
        <time>2023-10-12T12:07:15Z</time>
      </trkpt>
      <trkpt lat="46.80276" lon="6.48303">
        <ele>1233.571</ele>
        <time>2023-10-12T12:07:20Z</time>
      </trkpt>
      <trkpt lat="46.8028" lon="6.48309">
        <ele>1232.158</ele>
        <time>2023-10-12T12:07:25Z</time>
      </trkpt>
      <trkpt lat="46.80283" lon="6.48314">
        <ele>1232.827</ele>
        <time>2023-10-12T12:07:30Z</time>
      </trkpt>
      <trkpt lat="46.80286" lon="6.48321">
        <ele>1232.505</ele>
        <time>2023-10-12T12:07:35Z</time>
      </trkpt>
      <trkpt lat="46.8029" lon="6.48325">
        <ele>1228.564</ele>
        <time>2023-10-12T12:07:40Z</time>
      </trkpt>
      <trkpt lat="46.80292" lon="6.48334">
        <ele>1227.033</ele>
        <time>2023-10-12T12:07:45Z</time>
      </trkpt>
      <trkpt lat="46.80296" lon="6.4834">
        <ele>1225.968</ele>
        <time>2023-10-12T12:07:50Z</time>
      </trkpt>
      <trkpt lat="46.803" lon="6.48348">
        <ele>1227.931</ele>
        <time>2023-10-12T12:07:55Z</time>
      </trkpt>
      <trkpt lat="46.80304" lon="6.48353">
        <ele>1228.699</ele>
        <time>2023-10-12T12:08:00Z</time>
      </trkpt>
      <trkpt lat="46.80309" lon="6.48359">
        <ele>1227.52</ele>
        <time>2023-10-12T12:08:05Z</time>
      </trkpt>
      <trkpt lat="46.80311" lon="6.48367">
        <ele>1228.701</ele>
        <time>2023-10-12T12:08:10Z</time>
      </trkpt>
      <trkpt lat="46.80315" lon="6.48372">
        <ele>1226.454</ele>
        <time>2023-10-12T12:08:15Z</time>
      </trkpt>
      <trkpt lat="46.8032" lon="6.48375">
        <ele>1224.915</ele>
        <time>2023-10-12T12:08:20Z</time>
      </trkpt>
      <trkpt lat="46.80326" lon="6.48379">
        <ele>1224.234</ele>
        <time>2023-10-12T12:08:25Z</time>
      </trkpt>
      <trkpt lat="46.8033" lon="6.48386">
        <ele>1224.86</ele>
        <time>2023-10-12T12:08:30Z</time>
      </trkpt>
      <trkpt lat="46.80333" lon="6.48395">
        <ele>1223.77</ele>
        <time>2023-10-12T12:08:35Z</time>
      </trkpt>
      <trkpt lat="46.80337" lon="6.48401">
        <ele>1221.431</ele>
        <time>2023-10-12T12:08:40Z</time>
      </trkpt>
      <trkpt lat="46.80339" lon="6.48408">
        <ele>1219.331</ele>
        <time>2023-10-12T12:08:45Z</time>
      </trkpt>
      <trkpt lat="46.80342" lon="6.48417">
        <ele>1218.882</ele>
        <time>2023-10-12T12:08:50Z</time>
      </trkpt>
      <trkpt lat="46.80346" lon="6.48425">
        <ele>1219.084</ele>
        <time>2023-10-12T12:08:55Z</time>
      </trkpt>
      <trkpt lat="46.80349" lon="6.48433">
        <ele>1218.889</ele>
        <time>2023-10-12T12:09:00Z</time>
      </trkpt>
      <trkpt lat="46.80352" lon="6.4844">
        <ele>1218.022</ele>
        <time>2023-10-12T12:09:05Z</time>
      </trkpt>
      <trkpt lat="46.80355" lon="6.48447">
        <ele>1216.956</ele>
        <time>2023-10-12T12:09:10Z</time>
      </trkpt>
      <trkpt lat="46.80359" lon="6.48454">
        <ele>1214.637</ele>
        <time>2023-10-12T12:09:15Z</time>
      </trkpt>
      <trkpt lat="46.80362" lon="6.48461">
        <ele>1214.972</ele>
        <time>2023-10-12T12:09:20Z</time>
      </trkpt>
      <trkpt lat="46.80367" lon="6.48468">
        <ele>1214.748</ele>
        <time>2023-10-12T12:09:25Z</time>
      </trkpt>
      <trkpt lat="46.8037" lon="6.48475">
        <ele>1214.739</ele>
        <time>2023-10-12T12:09:30Z</time>
      </trkpt>
      <trkpt lat="46.80373" lon="6.48483">
        <ele>1214.403</ele>
        <time>2023-10-12T12:09:35Z</time>
      </trkpt>
      <trkpt lat="46.80378" lon="6.48491">
        <ele>1214.672</ele>
        <time>2023-10-12T12:09:40Z</time>
      </trkpt>
      <trkpt lat="46.80383" lon="6.48497">
        <ele>1214.043</ele>
        <time>2023-10-12T12:09:45Z</time>
      </trkpt>
      <trkpt lat="46.80386" lon="6.48505">
        <ele>1214.768</ele>
        <time>2023-10-12T12:09:50Z</time>
      </trkpt>
      <trkpt lat="46.80389" lon="6.48513">
        <ele>1213.012</ele>
        <time>2023-10-12T12:09:55Z</time>
      </trkpt>
      <trkpt lat="46.80392" lon="6.4852">
        <ele>1211.942</ele>
        <time>2023-10-12T12:10:00Z</time>
      </trkpt>
      <trkpt lat="46.80398" lon="6.48526">
        <ele>1210.696</ele>
        <time>2023-10-12T12:10:05Z</time>
      </trkpt>
      <trkpt lat="46.80403" lon="6.48531">
        <ele>1209.823</ele>
        <time>2023-10-12T12:10:10Z</time>
      </trkpt>
      <trkpt lat="46.80409" lon="6.48536">
        <ele>1210.766</ele>
        <time>2023-10-12T12:10:15Z</time>
      </trkpt>
      <trkpt lat="46.80415" lon="6.48541">
        <ele>1211.85</ele>
        <time>2023-10-12T12:10:20Z</time>
      </trkpt>
      <trkpt lat="46.80418" lon="6.48547">
        <ele>1211.02</ele>
        <time>2023-10-12T12:10:25Z</time>
      </trkpt>
      <trkpt lat="46.80422" lon="6.48553">
        <ele>1209.73</ele>
        <time>2023-10-12T12:10:30Z</time>
      </trkpt>
      <trkpt lat="46.80428" lon="6.48556">
        <ele>1207.157</ele>
        <time>2023-10-12T12:10:35Z</time>
      </trkpt>
      <trkpt lat="46.80433" lon="6.4856">
        <ele>1206.604</ele>
        <time>2023-10-12T12:10:40Z</time>
      </trkpt>
      <trkpt lat="46.80439" lon="6.48565">
        <ele>1205.201</ele>
        <time>2023-10-12T12:10:45Z</time>
      </trkpt>
      <trkpt lat="46.80444" lon="6.4857">
        <ele>1205.934</ele>
        <time>2023-10-12T12:10:50Z</time>
      </trkpt>
      <trkpt lat="46.80449" lon="6.48573">
        <ele>1204.09</ele>
        <time>2023-10-12T12:10:55Z</time>
      </trkpt>
      <trkpt lat="46.80453" lon="6.4858">
        <ele>1203.829</ele>
        <time>2023-10-12T12:11:00Z</time>
      </trkpt>
      <trkpt lat="46.80458" lon="6.48587">
        <ele>1204.099</ele>
        <time>2023-10-12T12:11:05Z</time>
      </trkpt>
      <trkpt lat="46.80462" lon="6.48593">
        <ele>1204.373</ele>
        <time>2023-10-12T12:11:10Z</time>
      </trkpt>
      <trkpt lat="46.80466" lon="6.48599">
        <ele>1201.909</ele>
        <time>2023-10-12T12:11:15Z</time>
      </trkpt>
      <trkpt lat="46.80471" lon="6.48605">
        <ele>1201.163</ele>
        <time>2023-10-12T12:11:20Z</time>
      </trkpt>
      <trkpt lat="46.80475" lon="6.48611">
        <ele>1202.048</ele>
        <time>2023-10-12T12:11:25Z</time>
      </trkpt>
      <trkpt lat="46.80478" lon="6.4862">
        <ele>1199.017</ele>
        <time>2023-10-12T12:11:30Z</time>
      </trkpt>
      <trkpt lat="46.80481" lon="6.48628">
        <ele>1198.679</ele>
        <time>2023-10-12T12:11:35Z</time>
      </trkpt>
      <trkpt lat="46.80483" lon="6.48635">
        <ele>1198.585</ele>
        <time>2023-10-12T12:11:40Z</time>
      </trkpt>
      <trkpt lat="46.80486" lon="6.48643">
        <ele>1198.1</ele>
        <time>2023-10-12T12:11:45Z</time>
      </trkpt>
      <trkpt lat="46.8049" lon="6.48651">
        <ele>1197.237</ele>
        <time>2023-10-12T12:11:50Z</time>
      </trkpt>
      <trkpt lat="46.80495" lon="6.48655">
        <ele>1197.275</ele>
        <time>2023-10-12T12:11:55Z</time>
      </trkpt>
      <trkpt lat="46.805" lon="6.48662">
        <ele>1197.529</ele>
        <time>2023-10-12T12:12:00Z</time>
      </trkpt>
      <trkpt lat="46.80504" lon="6.48669">
        <ele>1197.626</ele>
        <time>2023-10-12T12:12:05Z</time>
      </trkpt>
      <trkpt lat="46.8051" lon="6.48672">
        <ele>1195.308</ele>
        <time>2023-10-12T12:12:10Z</time>
      </trkpt>
      <trkpt lat="46.80515" lon="6.48678">
        <ele>1195.636</ele>
        <time>2023-10-12T12:12:15Z</time>
      </trkpt>
      <trkpt lat="46.80519" lon="6.48683">
        <ele>1195.46</ele>
        <time>2023-10-12T12:12:20Z</time>
      </trkpt>
      <trkpt lat="46.80524" lon="6.48689">
        <ele>1195.935</ele>
        <time>2023-10-12T12:12:25Z</time>
      </trkpt>
      <trkpt lat="46.80528" lon="6.48694">
        <ele>1195.349</ele>
        <time>2023-10-12T12:12:30Z</time>
      </trkpt>
      <trkpt lat="46.80531" lon="6.487">
        <ele>1195.904</ele>
        <time>2023-10-12T12:12:35Z</time>
      </trkpt>
      <trkpt lat="46.80535" lon="6.48705">
        <ele>1196.935</ele>
        <time>2023-10-12T12:12:40Z</time>
      </trkpt>
      <trkpt lat="46.8054" lon="6.48713">
        <ele>1197.709</ele>
        <time>2023-10-12T12:12:45Z</time>
      </trkpt>
      <trkpt lat="46.80545" lon="6.48718">
        <ele>1195.942</ele>
        <time>2023-10-12T12:12:50Z</time>
      </trkpt>
      <trkpt lat="46.80551" lon="6.48724">
        <ele>1194.219</ele>
        <time>2023-10-12T12:12:55Z</time>
      </trkpt>
      <trkpt lat="46.80556" lon="6.4873">
        <ele>1193.354</ele>
        <time>2023-10-12T12:13:00Z</time>
      </trkpt>
      <trkpt lat="46.80561" lon="6.48734">
        <ele>1192.553</ele>
        <time>2023-10-12T12:13:05Z</time>
      </trkpt>
      <trkpt lat="46.80566" lon="6.48739">
        <ele>1191.267</ele>
        <time>2023-10-12T12:13:10Z</time>
      </trkpt>
      <trkpt lat="46.80571" lon="6.48744">
        <ele>1189.604</ele>
        <time>2023-10-12T12:13:15Z</time>
      </trkpt>
      <trkpt lat="46.80576" lon="6.4875">
        <ele>1187.788</ele>
        <time>2023-10-12T12:13:20Z</time>
      </trkpt>
      <trkpt lat="46.8058" lon="6.48755">
        <ele>1185.779</ele>
        <time>2023-10-12T12:13:25Z</time>
      </trkpt>
      <trkpt lat="46.80585" lon="6.4876">
        <ele>1186.267</ele>
        <time>2023-10-12T12:13:30Z</time>
      </trkpt>
      <trkpt lat="46.8059" lon="6.48764">
        <ele>1185.611</ele>
        <time>2023-10-12T12:13:35Z</time>
      </trkpt>
      <trkpt lat="46.80595" lon="6.48769">
        <ele>1185.744</ele>
        <time>2023-10-12T12:13:40Z</time>
      </trkpt>
      <trkpt lat="46.80599" lon="6.48773">
        <ele>1187.305</ele>
        <time>2023-10-12T12:13:45Z</time>
      </trkpt>
      <trkpt lat="46.80604" lon="6.48776">
        <ele>1187.238</ele>
        <time>2023-10-12T12:13:50Z</time>
      </trkpt>
      <trkpt lat="46.80608" lon="6.48779">
        <ele>1186.944</ele>
        <time>2023-10-12T12:13:55Z</time>
      </trkpt>
      <trkpt lat="46.80613" lon="6.48783">
        <ele>1186.601</ele>
        <time>2023-10-12T12:14:00Z</time>
      </trkpt>
      <trkpt lat="46.80613" lon="6.48784">
        <ele>1187.172</ele>
        <time>2023-10-12T12:14:05Z</time>
      </trkpt>
      <trkpt lat="46.80614" lon="6.48785">
        <ele>1187.503</ele>
        <time>2023-10-12T12:14:10Z</time>
      </trkpt>
      <trkpt lat="46.80619" lon="6.48787">
        <ele>1185.993</ele>
        <time>2023-10-12T12:14:15Z</time>
      </trkpt>
      <trkpt lat="46.80624" lon="6.48791">
        <ele>1185.046</ele>
        <time>2023-10-12T12:14:20Z</time>
      </trkpt>
      <trkpt lat="46.80629" lon="6.48793">
        <ele>1183.563</ele>
        <time>2023-10-12T12:14:25Z</time>
      </trkpt>
      <trkpt lat="46.80635" lon="6.48797">
        <ele>1183.812</ele>
        <time>2023-10-12T12:14:30Z</time>
      </trkpt>
      <trkpt lat="46.80641" lon="6.48802">
        <ele>1183.51</ele>
        <time>2023-10-12T12:14:35Z</time>
      </trkpt>
      <trkpt lat="46.80645" lon="6.48807">
        <ele>1182.535</ele>
        <time>2023-10-12T12:14:40Z</time>
      </trkpt>
      <trkpt lat="46.8065" lon="6.48812">
        <ele>1180.503</ele>
        <time>2023-10-12T12:14:45Z</time>
      </trkpt>
      <trkpt lat="46.80654" lon="6.48816">
        <ele>1180.605</ele>
        <time>2023-10-12T12:14:50Z</time>
      </trkpt>
      <trkpt lat="46.80659" lon="6.48819">
        <ele>1179.361</ele>
        <time>2023-10-12T12:14:55Z</time>
      </trkpt>
      <trkpt lat="46.80664" lon="6.48823">
        <ele>1179.017</ele>
        <time>2023-10-12T12:15:00Z</time>
      </trkpt>
      <trkpt lat="46.80669" lon="6.48827">
        <ele>1177.842</ele>
        <time>2023-10-12T12:15:05Z</time>
      </trkpt>
      <trkpt lat="46.80674" lon="6.4883">
        <ele>1176.82</ele>
        <time>2023-10-12T12:15:10Z</time>
      </trkpt>
      <trkpt lat="46.8068" lon="6.48835">
        <ele>1175.981</ele>
        <time>2023-10-12T12:15:15Z</time>
      </trkpt>
      <trkpt lat="46.80686" lon="6.48838">
        <ele>1175.554</ele>
        <time>2023-10-12T12:15:20Z</time>
      </trkpt>
      <trkpt lat="46.80692" lon="6.48841">
        <ele>1175.618</ele>
        <time>2023-10-12T12:15:25Z</time>
      </trkpt>
      <trkpt lat="46.80697" lon="6.48846">
        <ele>1174.773</ele>
        <time>2023-10-12T12:15:30Z</time>
      </trkpt>
      <trkpt lat="46.80703" lon="6.4885">
        <ele>1175.2</ele>
        <time>2023-10-12T12:15:35Z</time>
      </trkpt>
      <trkpt lat="46.80708" lon="6.48854">
        <ele>1174.961</ele>
        <time>2023-10-12T12:15:40Z</time>
      </trkpt>
      <trkpt lat="46.80714" lon="6.48859">
        <ele>1174.237</ele>
        <time>2023-10-12T12:15:45Z</time>
      </trkpt>
      <trkpt lat="46.80719" lon="6.48862">
        <ele>1173.216</ele>
        <time>2023-10-12T12:15:50Z</time>
      </trkpt>
      <trkpt lat="46.80724" lon="6.48867">
        <ele>1172.728</ele>
        <time>2023-10-12T12:15:55Z</time>
      </trkpt>
      <trkpt lat="46.80729" lon="6.48872">
        <ele>1172.762</ele>
        <time>2023-10-12T12:16:00Z</time>
      </trkpt>
      <trkpt lat="46.80735" lon="6.48876">
        <ele>1172.545</ele>
        <time>2023-10-12T12:16:05Z</time>
      </trkpt>
      <trkpt lat="46.8074" lon="6.48881">
        <ele>1171.875</ele>
        <time>2023-10-12T12:16:10Z</time>
      </trkpt>
      <trkpt lat="46.80745" lon="6.48885">
        <ele>1169.916</ele>
        <time>2023-10-12T12:16:15Z</time>
      </trkpt>
      <trkpt lat="46.8075" lon="6.4889">
        <ele>1168.553</ele>
        <time>2023-10-12T12:16:20Z</time>
      </trkpt>
      <trkpt lat="46.80755" lon="6.48897">
        <ele>1168.045</ele>
        <time>2023-10-12T12:16:25Z</time>
      </trkpt>
      <trkpt lat="46.80759" lon="6.48904">
        <ele>1168.609</ele>
        <time>2023-10-12T12:16:30Z</time>
      </trkpt>
      <trkpt lat="46.80763" lon="6.48909">
        <ele>1167.064</ele>
        <time>2023-10-12T12:16:35Z</time>
      </trkpt>
      <trkpt lat="46.80768" lon="6.48914">
        <ele>1165.733</ele>
        <time>2023-10-12T12:16:40Z</time>
      </trkpt>
      <trkpt lat="46.80772" lon="6.48921">
        <ele>1166.258</ele>
        <time>2023-10-12T12:16:45Z</time>
      </trkpt>
      <trkpt lat="46.80776" lon="6.48928">
        <ele>1165.502</ele>
        <time>2023-10-12T12:16:50Z</time>
      </trkpt>
      <trkpt lat="46.8078" lon="6.48936">
        <ele>1165.823</ele>
        <time>2023-10-12T12:16:55Z</time>
      </trkpt>
      <trkpt lat="46.80784" lon="6.48941">
        <ele>1165.7</ele>
        <time>2023-10-12T12:17:00Z</time>
      </trkpt>
      <trkpt lat="46.80788" lon="6.48947">
        <ele>1164.183</ele>
        <time>2023-10-12T12:17:05Z</time>
      </trkpt>
      <trkpt lat="46.80792" lon="6.48953">
        <ele>1163.451</ele>
        <time>2023-10-12T12:17:10Z</time>
      </trkpt>
      <trkpt lat="46.80797" lon="6.48961">
        <ele>1164.201</ele>
        <time>2023-10-12T12:17:15Z</time>
      </trkpt>
      <trkpt lat="46.80801" lon="6.48966">
        <ele>1163.058</ele>
        <time>2023-10-12T12:17:20Z</time>
      </trkpt>
      <trkpt lat="46.80804" lon="6.48973">
        <ele>1161.919</ele>
        <time>2023-10-12T12:17:25Z</time>
      </trkpt>
      <trkpt lat="46.80808" lon="6.48979">
        <ele>1161.469</ele>
        <time>2023-10-12T12:17:30Z</time>
      </trkpt>
      <trkpt lat="46.80813" lon="6.48986">
        <ele>1161.279</ele>
        <time>2023-10-12T12:17:35Z</time>
      </trkpt>
      <trkpt lat="46.80817" lon="6.48992">
        <ele>1160.02</ele>
        <time>2023-10-12T12:17:40Z</time>
      </trkpt>
      <trkpt lat="46.80821" lon="6.48999">
        <ele>1159.059</ele>
        <time>2023-10-12T12:17:45Z</time>
      </trkpt>
      <trkpt lat="46.80825" lon="6.49005">
        <ele>1159.229</ele>
        <time>2023-10-12T12:17:50Z</time>
      </trkpt>
      <trkpt lat="46.80829" lon="6.49011">
        <ele>1157.946</ele>
        <time>2023-10-12T12:17:55Z</time>
      </trkpt>
      <trkpt lat="46.80833" lon="6.49017">
        <ele>1156.898</ele>
        <time>2023-10-12T12:18:00Z</time>
      </trkpt>
      <trkpt lat="46.80837" lon="6.49024">
        <ele>1156.707</ele>
        <time>2023-10-12T12:18:05Z</time>
      </trkpt>
      <trkpt lat="46.8084" lon="6.49032">
        <ele>1157.889</ele>
        <time>2023-10-12T12:18:10Z</time>
      </trkpt>
      <trkpt lat="46.80843" lon="6.49039">
        <ele>1156.541</ele>
        <time>2023-10-12T12:18:15Z</time>
      </trkpt>
      <trkpt lat="46.80846" lon="6.49045">
        <ele>1156.142</ele>
        <time>2023-10-12T12:18:20Z</time>
      </trkpt>
      <trkpt lat="46.80851" lon="6.49051">
        <ele>1155.669</ele>
        <time>2023-10-12T12:18:25Z</time>
      </trkpt>
      <trkpt lat="46.80856" lon="6.49056">
        <ele>1154.322</ele>
        <time>2023-10-12T12:18:30Z</time>
      </trkpt>
      <trkpt lat="46.80861" lon="6.49061">
        <ele>1154.319</ele>
        <time>2023-10-12T12:18:35Z</time>
      </trkpt>
      <trkpt lat="46.80864" lon="6.49068">
        <ele>1153.98</ele>
        <time>2023-10-12T12:18:40Z</time>
      </trkpt>
      <trkpt lat="46.80868" lon="6.49075">
        <ele>1154.058</ele>
        <time>2023-10-12T12:18:45Z</time>
      </trkpt>
      <trkpt lat="46.80872" lon="6.49081">
        <ele>1153.176</ele>
        <time>2023-10-12T12:18:50Z</time>
      </trkpt>
      <trkpt lat="46.80877" lon="6.49085">
        <ele>1151.788</ele>
        <time>2023-10-12T12:18:55Z</time>
      </trkpt>
      <trkpt lat="46.80881" lon="6.49091">
        <ele>1151.002</ele>
        <time>2023-10-12T12:19:00Z</time>
      </trkpt>
      <trkpt lat="46.80886" lon="6.49097">
        <ele>1150.072</ele>
        <time>2023-10-12T12:19:05Z</time>
      </trkpt>
      <trkpt lat="46.80891" lon="6.49102">
        <ele>1150.988</ele>
        <time>2023-10-12T12:19:10Z</time>
      </trkpt>
      <trkpt lat="46.80895" lon="6.49107">
        <ele>1149.464</ele>
        <time>2023-10-12T12:19:15Z</time>
      </trkpt>
      <trkpt lat="46.80899" lon="6.49113">
        <ele>1148.185</ele>
        <time>2023-10-12T12:19:20Z</time>
      </trkpt>
      <trkpt lat="46.80903" lon="6.49118">
        <ele>1147.038</ele>
        <time>2023-10-12T12:19:25Z</time>
      </trkpt>
      <trkpt lat="46.80907" lon="6.49124">
        <ele>1146.906</ele>
        <time>2023-10-12T12:19:30Z</time>
      </trkpt>
      <trkpt lat="46.80911" lon="6.4913">
        <ele>1145.513</ele>
        <time>2023-10-12T12:19:35Z</time>
      </trkpt>
      <trkpt lat="46.80915" lon="6.49136">
        <ele>1144.752</ele>
        <time>2023-10-12T12:19:40Z</time>
      </trkpt>
      <trkpt lat="46.80919" lon="6.49142">
        <ele>1144.015</ele>
        <time>2023-10-12T12:19:45Z</time>
      </trkpt>
      <trkpt lat="46.80924" lon="6.49147">
        <ele>1144.331</ele>
        <time>2023-10-12T12:19:50Z</time>
      </trkpt>
      <trkpt lat="46.80929" lon="6.49152">
        <ele>1142.846</ele>
        <time>2023-10-12T12:19:55Z</time>
      </trkpt>
      <trkpt lat="46.80933" lon="6.49159">
        <ele>1142.229</ele>
        <time>2023-10-12T12:20:00Z</time>
      </trkpt>
      <trkpt lat="46.80938" lon="6.49163">
        <ele>1139.795</ele>
        <time>2023-10-12T12:20:05Z</time>
      </trkpt>
      <trkpt lat="46.80942" lon="6.49167">
        <ele>1138.741</ele>
        <time>2023-10-12T12:20:10Z</time>
      </trkpt>
      <trkpt lat="46.80946" lon="6.49172">
        <ele>1138.099</ele>
        <time>2023-10-12T12:20:15Z</time>
      </trkpt>
      <trkpt lat="46.80952" lon="6.49176">
        <ele>1138.746</ele>
        <time>2023-10-12T12:20:20Z</time>
      </trkpt>
      <trkpt lat="46.80957" lon="6.49181">
        <ele>1138.182</ele>
        <time>2023-10-12T12:20:25Z</time>
      </trkpt>
      <trkpt lat="46.80961" lon="6.49184">
        <ele>1136.794</ele>
        <time>2023-10-12T12:20:30Z</time>
      </trkpt>
      <trkpt lat="46.80966" lon="6.49188">
        <ele>1135.9</ele>
        <time>2023-10-12T12:20:35Z</time>
      </trkpt>
      <trkpt lat="46.80971" lon="6.4919">
        <ele>1134.817</ele>
        <time>2023-10-12T12:20:40Z</time>
      </trkpt>
      <trkpt lat="46.80977" lon="6.49192">
        <ele>1133.278</ele>
        <time>2023-10-12T12:20:45Z</time>
      </trkpt>
      <trkpt lat="46.80983" lon="6.49195">
        <ele>1132.743</ele>
        <time>2023-10-12T12:20:50Z</time>
      </trkpt>
      <trkpt lat="46.80988" lon="6.49199">
        <ele>1133.068</ele>
        <time>2023-10-12T12:20:55Z</time>
      </trkpt>
      <trkpt lat="46.80993" lon="6.49203">
        <ele>1133.597</ele>
        <time>2023-10-12T12:21:00Z</time>
      </trkpt>
      <trkpt lat="46.80998" lon="6.4921">
        <ele>1133.996</ele>
        <time>2023-10-12T12:21:05Z</time>
      </trkpt>
      <trkpt lat="46.81001" lon="6.49218">
        <ele>1133.622</ele>
        <time>2023-10-12T12:21:10Z</time>
      </trkpt>
      <trkpt lat="46.81004" lon="6.49224">
        <ele>1132.347</ele>
        <time>2023-10-12T12:21:15Z</time>
      </trkpt>
      <trkpt lat="46.81006" lon="6.49232">
        <ele>1132.347</ele>
        <time>2023-10-12T12:21:20Z</time>
      </trkpt>
      <trkpt lat="46.8101" lon="6.49238">
        <ele>1130.663</ele>
        <time>2023-10-12T12:21:25Z</time>
      </trkpt>
      <trkpt lat="46.81013" lon="6.49244">
        <ele>1128.285</ele>
        <time>2023-10-12T12:21:30Z</time>
      </trkpt>
      <trkpt lat="46.81016" lon="6.49251">
        <ele>1129.218</ele>
        <time>2023-10-12T12:21:35Z</time>
      </trkpt>
      <trkpt lat="46.8102" lon="6.49258">
        <ele>1128.045</ele>
        <time>2023-10-12T12:21:40Z</time>
      </trkpt>
      <trkpt lat="46.81025" lon="6.49264">
        <ele>1127.764</ele>
        <time>2023-10-12T12:21:45Z</time>
      </trkpt>
      <trkpt lat="46.81029" lon="6.49269">
        <ele>1126.627</ele>
        <time>2023-10-12T12:21:50Z</time>
      </trkpt>
      <trkpt lat="46.81033" lon="6.49275">
        <ele>1125.634</ele>
        <time>2023-10-12T12:21:55Z</time>
      </trkpt>
      <trkpt lat="46.81037" lon="6.49281">
        <ele>1124.435</ele>
        <time>2023-10-12T12:22:00Z</time>
      </trkpt>
      <trkpt lat="46.81041" lon="6.49286">
        <ele>1123.672</ele>
        <time>2023-10-12T12:22:05Z</time>
      </trkpt>
      <trkpt lat="46.81045" lon="6.4929">
        <ele>1122.24</ele>
        <time>2023-10-12T12:22:10Z</time>
      </trkpt>
      <trkpt lat="46.81049" lon="6.49295">
        <ele>1122.592</ele>
        <time>2023-10-12T12:22:15Z</time>
      </trkpt>
      <trkpt lat="46.81054" lon="6.49299">
        <ele>1121.016</ele>
        <time>2023-10-12T12:22:20Z</time>
      </trkpt>
      <trkpt lat="46.81059" lon="6.49303">
        <ele>1120.788</ele>
        <time>2023-10-12T12:22:25Z</time>
      </trkpt>
      <trkpt lat="46.81064" lon="6.49308">
        <ele>1120.533</ele>
        <time>2023-10-12T12:22:30Z</time>
      </trkpt>
      <trkpt lat="46.81068" lon="6.49313">
        <ele>1119.688</ele>
        <time>2023-10-12T12:22:35Z</time>
      </trkpt>
      <trkpt lat="46.81072" lon="6.49316">
        <ele>1117.899</ele>
        <time>2023-10-12T12:22:40Z</time>
      </trkpt>
      <trkpt lat="46.81077" lon="6.49322">
        <ele>1118.374</ele>
        <time>2023-10-12T12:22:45Z</time>
      </trkpt>
      <trkpt lat="46.81081" lon="6.49325">
        <ele>1116.711</ele>
        <time>2023-10-12T12:22:50Z</time>
      </trkpt>
      <trkpt lat="46.81087" lon="6.49328">
        <ele>1114.831</ele>
        <time>2023-10-12T12:22:55Z</time>
      </trkpt>
      <trkpt lat="46.81093" lon="6.4933">
        <ele>1114.395</ele>
        <time>2023-10-12T12:23:00Z</time>
      </trkpt>
      <trkpt lat="46.81098" lon="6.49334">
        <ele>1113.534</ele>
        <time>2023-10-12T12:23:05Z</time>
      </trkpt>
      <trkpt lat="46.81102" lon="6.49339">
        <ele>1113.053</ele>
        <time>2023-10-12T12:23:10Z</time>
      </trkpt>
      <trkpt lat="46.81108" lon="6.49344">
        <ele>1112.326</ele>
        <time>2023-10-12T12:23:15Z</time>
      </trkpt>
      <trkpt lat="46.81113" lon="6.49349">
        <ele>1110.876</ele>
        <time>2023-10-12T12:23:20Z</time>
      </trkpt>
      <trkpt lat="46.81117" lon="6.49353">
        <ele>1111.012</ele>
        <time>2023-10-12T12:23:25Z</time>
      </trkpt>
      <trkpt lat="46.81122" lon="6.49357">
        <ele>1109.806</ele>
        <time>2023-10-12T12:23:30Z</time>
      </trkpt>
      <trkpt lat="46.81126" lon="6.4936">
        <ele>1108.612</ele>
        <time>2023-10-12T12:23:35Z</time>
      </trkpt>
      <trkpt lat="46.81131" lon="6.49363">
        <ele>1106.703</ele>
        <time>2023-10-12T12:23:40Z</time>
      </trkpt>
      <trkpt lat="46.81136" lon="6.49367">
        <ele>1106.233</ele>
        <time>2023-10-12T12:23:45Z</time>
      </trkpt>
      <trkpt lat="46.8114" lon="6.49373">
        <ele>1106.903</ele>
        <time>2023-10-12T12:23:50Z</time>
      </trkpt>
      <trkpt lat="46.81144" lon="6.4938">
        <ele>1107.194</ele>
        <time>2023-10-12T12:23:55Z</time>
      </trkpt>
      <trkpt lat="46.81148" lon="6.49386">
        <ele>1106.677</ele>
        <time>2023-10-12T12:24:00Z</time>
      </trkpt>
      <trkpt lat="46.81152" lon="6.49392">
        <ele>1106.259</ele>
        <time>2023-10-12T12:24:05Z</time>
      </trkpt>
      <trkpt lat="46.81157" lon="6.49395">
        <ele>1105.036</ele>
        <time>2023-10-12T12:24:10Z</time>
      </trkpt>
      <trkpt lat="46.81163" lon="6.49399">
        <ele>1103.824</ele>
        <time>2023-10-12T12:24:15Z</time>
      </trkpt>
      <trkpt lat="46.81167" lon="6.49404">
        <ele>1104.607</ele>
        <time>2023-10-12T12:24:20Z</time>
      </trkpt>
      <trkpt lat="46.81172" lon="6.49409">
        <ele>1104.202</ele>
        <time>2023-10-12T12:24:25Z</time>
      </trkpt>
      <trkpt lat="46.81177" lon="6.49412">
        <ele>1102.315</ele>
        <time>2023-10-12T12:24:30Z</time>
      </trkpt>
      <trkpt lat="46.81182" lon="6.49415">
        <ele>1101.401</ele>
        <time>2023-10-12T12:24:35Z</time>
      </trkpt>
      <trkpt lat="46.81187" lon="6.49416">
        <ele>1099.538</ele>
        <time>2023-10-12T12:24:40Z</time>
      </trkpt>
      <trkpt lat="46.81192" lon="6.49419">
        <ele>1098.472</ele>
        <time>2023-10-12T12:24:45Z</time>
      </trkpt>
      <trkpt lat="46.81197" lon="6.49423">
        <ele>1098.325</ele>
        <time>2023-10-12T12:24:50Z</time>
      </trkpt>
      <trkpt lat="46.81203" lon="6.49426">
        <ele>1095.326</ele>
        <time>2023-10-12T12:24:55Z</time>
      </trkpt>
      <trkpt lat="46.81208" lon="6.49429">
        <ele>1092.594</ele>
        <time>2023-10-12T12:25:00Z</time>
      </trkpt>
      <trkpt lat="46.81212" lon="6.49433">
        <ele>1093.815</ele>
        <time>2023-10-12T12:25:05Z</time>
      </trkpt>
      <trkpt lat="46.81218" lon="6.49436">
        <ele>1091.708</ele>
        <time>2023-10-12T12:25:10Z</time>
      </trkpt>
      <trkpt lat="46.81223" lon="6.49441">
        <ele>1090.328</ele>
        <time>2023-10-12T12:25:15Z</time>
      </trkpt>
      <trkpt lat="46.81229" lon="6.49443">
        <ele>1087.252</ele>
        <time>2023-10-12T12:25:20Z</time>
      </trkpt>
      <trkpt lat="46.81234" lon="6.49449">
        <ele>1088.235</ele>
        <time>2023-10-12T12:25:25Z</time>
      </trkpt>
      <trkpt lat="46.81238" lon="6.49456">
        <ele>1088.991</ele>
        <time>2023-10-12T12:25:30Z</time>
      </trkpt>
      <trkpt lat="46.81243" lon="6.49462">
        <ele>1089.045</ele>
        <time>2023-10-12T12:25:35Z</time>
      </trkpt>
      <trkpt lat="46.81243" lon="6.49461">
        <ele>1088.832</ele>
        <time>2023-10-12T12:25:40Z</time>
      </trkpt>
      <trkpt lat="46.81243" lon="6.49461">
        <ele>1088.837</ele>
        <time>2023-10-12T12:25:45Z</time>
      </trkpt>
      <trkpt lat="46.81243" lon="6.49461">
        <ele>1088.845</ele>
        <time>2023-10-12T12:25:50Z</time>
      </trkpt>
      <trkpt lat="46.81243" lon="6.49461">
        <ele>1088.846</ele>
        <time>2023-10-12T12:25:55Z</time>
      </trkpt>
      <trkpt lat="46.81247" lon="6.49462">
        <ele>1088.631</ele>
        <time>2023-10-12T12:26:00Z</time>
      </trkpt>
      <trkpt lat="46.81251" lon="6.49467">
        <ele>1087.708</ele>
        <time>2023-10-12T12:26:05Z</time>
      </trkpt>
      <trkpt lat="46.81255" lon="6.49473">
        <ele>1086.953</ele>
        <time>2023-10-12T12:26:10Z</time>
      </trkpt>
      <trkpt lat="46.81258" lon="6.49476">
        <ele>1086.531</ele>
        <time>2023-10-12T12:26:15Z</time>
      </trkpt>
      <trkpt lat="46.81258" lon="6.49476">
        <ele>1086.508</ele>
        <time>2023-10-12T12:26:20Z</time>
      </trkpt>
      <trkpt lat="46.81258" lon="6.49476">
        <ele>1086.486</ele>
        <time>2023-10-12T12:26:25Z</time>
      </trkpt>
      <trkpt lat="46.81258" lon="6.49476">
        <ele>1086.477</ele>
        <time>2023-10-12T12:26:30Z</time>
      </trkpt>
      <trkpt lat="46.81258" lon="6.49476">
        <ele>1086.465</ele>
        <time>2023-10-12T12:26:35Z</time>
      </trkpt>
      <trkpt lat="46.81258" lon="6.49476">
        <ele>1086.45</ele>
        <time>2023-10-12T12:26:40Z</time>
      </trkpt>
      <trkpt lat="46.81258" lon="6.49476">
        <ele>1086.437</ele>
        <time>2023-10-12T12:26:45Z</time>
      </trkpt>
      <trkpt lat="46.81258" lon="6.49476">
        <ele>1086.43</ele>
        <time>2023-10-12T12:26:50Z</time>
      </trkpt>
      <trkpt lat="46.81258" lon="6.49476">
        <ele>1086.415</ele>
        <time>2023-10-12T12:26:55Z</time>
      </trkpt>
      <trkpt lat="46.81258" lon="6.49476">
        <ele>1086.394</ele>
        <time>2023-10-12T12:27:00Z</time>
      </trkpt>
      <trkpt lat="46.81258" lon="6.49476">
        <ele>1086.255</ele>
        <time>2023-10-12T12:27:05Z</time>
      </trkpt>
      <trkpt lat="46.81258" lon="6.49476">
        <ele>1086.239</ele>
        <time>2023-10-12T12:27:10Z</time>
      </trkpt>
      <trkpt lat="46.81258" lon="6.49476">
        <ele>1086.228</ele>
        <time>2023-10-12T12:27:15Z</time>
      </trkpt>
      <trkpt lat="46.81258" lon="6.49476">
        <ele>1086.223</ele>
        <time>2023-10-12T12:27:20Z</time>
      </trkpt>
      <trkpt lat="46.81258" lon="6.49476">
        <ele>1086.204</ele>
        <time>2023-10-12T12:27:25Z</time>
      </trkpt>
      <trkpt lat="46.81258" lon="6.49476">
        <ele>1086.18</ele>
        <time>2023-10-12T12:27:30Z</time>
      </trkpt>
      <trkpt lat="46.81258" lon="6.49476">
        <ele>1086.156</ele>
        <time>2023-10-12T12:27:35Z</time>
      </trkpt>
      <trkpt lat="46.81258" lon="6.49476">
        <ele>1086.145</ele>
        <time>2023-10-12T12:27:40Z</time>
      </trkpt>
      <trkpt lat="46.81259" lon="6.49474">
        <ele>1086.148</ele>
        <time>2023-10-12T12:27:45Z</time>
      </trkpt>
      <trkpt lat="46.8126" lon="6.49475">
        <ele>1085.523</ele>
        <time>2023-10-12T12:27:50Z</time>
      </trkpt>
      <trkpt lat="46.81265" lon="6.49481">
        <ele>1083.94</ele>
        <time>2023-10-12T12:27:55Z</time>
      </trkpt>
      <trkpt lat="46.8127" lon="6.49485">
        <ele>1082.809</ele>
        <time>2023-10-12T12:28:00Z</time>
      </trkpt>
      <trkpt lat="46.81275" lon="6.49491">
        <ele>1081.893</ele>
        <time>2023-10-12T12:28:05Z</time>
      </trkpt>
      <trkpt lat="46.8128" lon="6.49495">
        <ele>1081.207</ele>
        <time>2023-10-12T12:28:10Z</time>
      </trkpt>
      <trkpt lat="46.81285" lon="6.49499">
        <ele>1080.253</ele>
        <time>2023-10-12T12:28:15Z</time>
      </trkpt>
      <trkpt lat="46.8129" lon="6.49502">
        <ele>1079.086</ele>
        <time>2023-10-12T12:28:20Z</time>
      </trkpt>
      <trkpt lat="46.81294" lon="6.49507">
        <ele>1079.292</ele>
        <time>2023-10-12T12:28:25Z</time>
      </trkpt>
      <trkpt lat="46.813" lon="6.49513">
        <ele>1077.724</ele>
        <time>2023-10-12T12:28:30Z</time>
      </trkpt>
      <trkpt lat="46.81305" lon="6.49518">
        <ele>1077.041</ele>
        <time>2023-10-12T12:28:35Z</time>
      </trkpt>
      <trkpt lat="46.8131" lon="6.49523">
        <ele>1076.433</ele>
        <time>2023-10-12T12:28:40Z</time>
      </trkpt>
      <trkpt lat="46.81317" lon="6.49526">
        <ele>1075.372</ele>
        <time>2023-10-12T12:28:45Z</time>
      </trkpt>
      <trkpt lat="46.81324" lon="6.49529">
        <ele>1074.517</ele>
        <time>2023-10-12T12:28:50Z</time>
      </trkpt>
      <trkpt lat="46.8133" lon="6.49529">
        <ele>1073.464</ele>
        <time>2023-10-12T12:28:55Z</time>
      </trkpt>
      <trkpt lat="46.81335" lon="6.4953">
        <ele>1072.823</ele>
        <time>2023-10-12T12:29:00Z</time>
      </trkpt>
      <trkpt lat="46.81341" lon="6.49533">
        <ele>1071.914</ele>
        <time>2023-10-12T12:29:05Z</time>
      </trkpt>
      <trkpt lat="46.81347" lon="6.49536">
        <ele>1070.577</ele>
        <time>2023-10-12T12:29:10Z</time>
      </trkpt>
      <trkpt lat="46.81352" lon="6.49539">
        <ele>1070.071</ele>
        <time>2023-10-12T12:29:15Z</time>
      </trkpt>
      <trkpt lat="46.81358" lon="6.49543">
        <ele>1069.851</ele>
        <time>2023-10-12T12:29:20Z</time>
      </trkpt>
      <trkpt lat="46.81365" lon="6.49546">
        <ele>1070.105</ele>
        <time>2023-10-12T12:29:25Z</time>
      </trkpt>
      <trkpt lat="46.81372" lon="6.49548">
        <ele>1069.777</ele>
        <time>2023-10-12T12:29:30Z</time>
      </trkpt>
      <trkpt lat="46.81377" lon="6.4955">
        <ele>1069.505</ele>
        <time>2023-10-12T12:29:35Z</time>
      </trkpt>
      <trkpt lat="46.81383" lon="6.49553">
        <ele>1068.816</ele>
        <time>2023-10-12T12:29:40Z</time>
      </trkpt>
      <trkpt lat="46.81389" lon="6.49555">
        <ele>1068.981</ele>
        <time>2023-10-12T12:29:45Z</time>
      </trkpt>
      <trkpt lat="46.81395" lon="6.49557">
        <ele>1068.8</ele>
        <time>2023-10-12T12:29:50Z</time>
      </trkpt>
      <trkpt lat="46.81401" lon="6.49557">
        <ele>1066.705</ele>
        <time>2023-10-12T12:29:55Z</time>
      </trkpt>
      <trkpt lat="46.81407" lon="6.49558">
        <ele>1066.427</ele>
        <time>2023-10-12T12:30:00Z</time>
      </trkpt>
      <trkpt lat="46.81414" lon="6.49556">
        <ele>1064.637</ele>
        <time>2023-10-12T12:30:05Z</time>
      </trkpt>
      <trkpt lat="46.81421" lon="6.49555">
        <ele>1064.314</ele>
        <time>2023-10-12T12:30:10Z</time>
      </trkpt>
      <trkpt lat="46.81427" lon="6.49554">
        <ele>1063.256</ele>
        <time>2023-10-12T12:30:15Z</time>
      </trkpt>
      <trkpt lat="46.81434" lon="6.49553">
        <ele>1062.161</ele>
        <time>2023-10-12T12:30:20Z</time>
      </trkpt>
      <trkpt lat="46.8144" lon="6.49552">
        <ele>1061.415</ele>
        <time>2023-10-12T12:30:25Z</time>
      </trkpt>
      <trkpt lat="46.81446" lon="6.49555">
        <ele>1060.824</ele>
        <time>2023-10-12T12:30:30Z</time>
      </trkpt>
      <trkpt lat="46.81451" lon="6.49561">
        <ele>1061.92</ele>
        <time>2023-10-12T12:30:35Z</time>
      </trkpt>
      <trkpt lat="46.81458" lon="6.49568">
        <ele>1063.179</ele>
        <time>2023-10-12T12:30:40Z</time>
      </trkpt>
      <trkpt lat="46.81464" lon="6.49574">
        <ele>1063.884</ele>
        <time>2023-10-12T12:30:45Z</time>
      </trkpt>
      <trkpt lat="46.81469" lon="6.49579">
        <ele>1063.264</ele>
        <time>2023-10-12T12:30:50Z</time>
      </trkpt>
      <trkpt lat="46.81474" lon="6.49584">
        <ele>1062.414</ele>
        <time>2023-10-12T12:30:55Z</time>
      </trkpt>
      <trkpt lat="46.8148" lon="6.4959">
        <ele>1061.672</ele>
        <time>2023-10-12T12:31:00Z</time>
      </trkpt>
      <trkpt lat="46.81485" lon="6.49596">
        <ele>1060.347</ele>
        <time>2023-10-12T12:31:05Z</time>
      </trkpt>
      <trkpt lat="46.8149" lon="6.49601">
        <ele>1060.462</ele>
        <time>2023-10-12T12:31:10Z</time>
      </trkpt>
      <trkpt lat="46.81495" lon="6.49607">
        <ele>1060.075</ele>
        <time>2023-10-12T12:31:15Z</time>
      </trkpt>
      <trkpt lat="46.81499" lon="6.49614">
        <ele>1059.689</ele>
        <time>2023-10-12T12:31:20Z</time>
      </trkpt>
      <trkpt lat="46.81504" lon="6.4962">
        <ele>1058.91</ele>
        <time>2023-10-12T12:31:25Z</time>
      </trkpt>
      <trkpt lat="46.81509" lon="6.49627">
        <ele>1057.338</ele>
        <time>2023-10-12T12:31:30Z</time>
      </trkpt>
      <trkpt lat="46.81514" lon="6.49634">
        <ele>1056.325</ele>
        <time>2023-10-12T12:31:35Z</time>
      </trkpt>
      <trkpt lat="46.81516" lon="6.49643">
        <ele>1054.289</ele>
        <time>2023-10-12T12:31:40Z</time>
      </trkpt>
      <trkpt lat="46.81516" lon="6.49653">
        <ele>1053.402</ele>
        <time>2023-10-12T12:31:45Z</time>
      </trkpt>
      <trkpt lat="46.81515" lon="6.49662">
        <ele>1052.746</ele>
        <time>2023-10-12T12:31:50Z</time>
      </trkpt>
      <trkpt lat="46.81514" lon="6.49671">
        <ele>1050.9</ele>
        <time>2023-10-12T12:31:55Z</time>
      </trkpt>
      <trkpt lat="46.81513" lon="6.49681">
        <ele>1049.563</ele>
        <time>2023-10-12T12:32:00Z</time>
      </trkpt>
      <trkpt lat="46.81513" lon="6.49691">
        <ele>1048.359</ele>
        <time>2023-10-12T12:32:05Z</time>
      </trkpt>
      <trkpt lat="46.81513" lon="6.49701">
        <ele>1048.554</ele>
        <time>2023-10-12T12:32:10Z</time>
      </trkpt>
      <trkpt lat="46.81514" lon="6.4971">
        <ele>1048.414</ele>
        <time>2023-10-12T12:32:15Z</time>
      </trkpt>
      <trkpt lat="46.81516" lon="6.4972">
        <ele>1047.731</ele>
        <time>2023-10-12T12:32:20Z</time>
      </trkpt>
      <trkpt lat="46.81517" lon="6.49729">
        <ele>1047.111</ele>
        <time>2023-10-12T12:32:25Z</time>
      </trkpt>
      <trkpt lat="46.81517" lon="6.49737">
        <ele>1047.953</ele>
        <time>2023-10-12T12:32:30Z</time>
      </trkpt>
      <trkpt lat="46.81517" lon="6.49748">
        <ele>1047.728</ele>
        <time>2023-10-12T12:32:35Z</time>
      </trkpt>
      <trkpt lat="46.81519" lon="6.49756">
        <ele>1049.111</ele>
        <time>2023-10-12T12:32:40Z</time>
      </trkpt>
      <trkpt lat="46.81521" lon="6.49764">
        <ele>1049.556</ele>
        <time>2023-10-12T12:32:45Z</time>
      </trkpt>
      <trkpt lat="46.81521" lon="6.49772">
        <ele>1050.315</ele>
        <time>2023-10-12T12:32:50Z</time>
      </trkpt>
      <trkpt lat="46.81522" lon="6.49781">
        <ele>1049.616</ele>
        <time>2023-10-12T12:32:55Z</time>
      </trkpt>
      <trkpt lat="46.81524" lon="6.49789">
        <ele>1050.833</ele>
        <time>2023-10-12T12:33:00Z</time>
      </trkpt>
      <trkpt lat="46.81527" lon="6.49796">
        <ele>1052.32</ele>
        <time>2023-10-12T12:33:05Z</time>
      </trkpt>
      <trkpt lat="46.81531" lon="6.49803">
        <ele>1053.657</ele>
        <time>2023-10-12T12:33:10Z</time>
      </trkpt>
      <trkpt lat="46.81535" lon="6.4981">
        <ele>1054.683</ele>
        <time>2023-10-12T12:33:15Z</time>
      </trkpt>
      <trkpt lat="46.81539" lon="6.49817">
        <ele>1055.026</ele>
        <time>2023-10-12T12:33:20Z</time>
      </trkpt>
      <trkpt lat="46.81543" lon="6.49824">
        <ele>1056.027</ele>
        <time>2023-10-12T12:33:25Z</time>
      </trkpt>
      <trkpt lat="46.81547" lon="6.4983">
        <ele>1056.723</ele>
        <time>2023-10-12T12:33:30Z</time>
      </trkpt>
      <trkpt lat="46.81551" lon="6.49835">
        <ele>1057.395</ele>
        <time>2023-10-12T12:33:35Z</time>
      </trkpt>
      <trkpt lat="46.81555" lon="6.4984">
        <ele>1058.464</ele>
        <time>2023-10-12T12:33:40Z</time>
      </trkpt>
      <trkpt lat="46.81559" lon="6.49848">
        <ele>1056.857</ele>
        <time>2023-10-12T12:33:45Z</time>
      </trkpt>
      <trkpt lat="46.81562" lon="6.49856">
        <ele>1054.747</ele>
        <time>2023-10-12T12:33:50Z</time>
      </trkpt>
      <trkpt lat="46.81567" lon="6.49863">
        <ele>1054.495</ele>
        <time>2023-10-12T12:33:55Z</time>
      </trkpt>
      <trkpt lat="46.81571" lon="6.49872">
        <ele>1054.566</ele>
        <time>2023-10-12T12:34:00Z</time>
      </trkpt>
      <trkpt lat="46.81574" lon="6.49881">
        <ele>1054.926</ele>
        <time>2023-10-12T12:34:05Z</time>
      </trkpt>
      <trkpt lat="46.81572" lon="6.49891">
        <ele>1055.724</ele>
        <time>2023-10-12T12:34:10Z</time>
      </trkpt>
      <trkpt lat="46.81576" lon="6.49899">
        <ele>1054.322</ele>
        <time>2023-10-12T12:34:15Z</time>
      </trkpt>
      <trkpt lat="46.81579" lon="6.49907">
        <ele>1054.576</ele>
        <time>2023-10-12T12:34:20Z</time>
      </trkpt>
      <trkpt lat="46.81582" lon="6.49915">
        <ele>1055.137</ele>
        <time>2023-10-12T12:34:25Z</time>
      </trkpt>
      <trkpt lat="46.81585" lon="6.49924">
        <ele>1055.474</ele>
        <time>2023-10-12T12:34:30Z</time>
      </trkpt>
      <trkpt lat="46.81587" lon="6.49932">
        <ele>1054.003</ele>
        <time>2023-10-12T12:34:35Z</time>
      </trkpt>
      <trkpt lat="46.81589" lon="6.49941">
        <ele>1053.786</ele>
        <time>2023-10-12T12:34:40Z</time>
      </trkpt>
      <trkpt lat="46.81591" lon="6.49949">
        <ele>1053.797</ele>
        <time>2023-10-12T12:34:45Z</time>
      </trkpt>
      <trkpt lat="46.81593" lon="6.49957">
        <ele>1053.862</ele>
        <time>2023-10-12T12:34:50Z</time>
      </trkpt>
      <trkpt lat="46.81596" lon="6.49965">
        <ele>1053.546</ele>
        <time>2023-10-12T12:34:55Z</time>
      </trkpt>
      <trkpt lat="46.816" lon="6.49973">
        <ele>1053.827</ele>
        <time>2023-10-12T12:35:00Z</time>
      </trkpt>
      <trkpt lat="46.81604" lon="6.4998">
        <ele>1053.397</ele>
        <time>2023-10-12T12:35:05Z</time>
      </trkpt>
      <trkpt lat="46.81609" lon="6.49986">
        <ele>1054.183</ele>
        <time>2023-10-12T12:35:10Z</time>
      </trkpt>
      <trkpt lat="46.81615" lon="6.49987">
        <ele>1054.477</ele>
        <time>2023-10-12T12:35:15Z</time>
      </trkpt>
      <trkpt lat="46.81622" lon="6.49989">
        <ele>1056.496</ele>
        <time>2023-10-12T12:35:20Z</time>
      </trkpt>
      <trkpt lat="46.81626" lon="6.49996">
        <ele>1055.931</ele>
        <time>2023-10-12T12:35:25Z</time>
      </trkpt>
      <trkpt lat="46.81631" lon="6.50001">
        <ele>1055.798</ele>
        <time>2023-10-12T12:35:30Z</time>
      </trkpt>
      <trkpt lat="46.81636" lon="6.50005">
        <ele>1056.785</ele>
        <time>2023-10-12T12:35:35Z</time>
      </trkpt>
      <trkpt lat="46.8164" lon="6.5001">
        <ele>1056.205</ele>
        <time>2023-10-12T12:35:40Z</time>
      </trkpt>
      <trkpt lat="46.81645" lon="6.50014">
        <ele>1056.891</ele>
        <time>2023-10-12T12:35:45Z</time>
      </trkpt>
      <trkpt lat="46.81649" lon="6.50019">
        <ele>1057.059</ele>
        <time>2023-10-12T12:35:50Z</time>
      </trkpt>
      <trkpt lat="46.81654" lon="6.50024">
        <ele>1057.829</ele>
        <time>2023-10-12T12:35:55Z</time>
      </trkpt>
      <trkpt lat="46.81659" lon="6.50028">
        <ele>1059.171</ele>
        <time>2023-10-12T12:36:00Z</time>
      </trkpt>
      <trkpt lat="46.81665" lon="6.50032">
        <ele>1057.964</ele>
        <time>2023-10-12T12:36:05Z</time>
      </trkpt>
      <trkpt lat="46.81671" lon="6.50037">
        <ele>1059.604</ele>
        <time>2023-10-12T12:36:10Z</time>
      </trkpt>
      <trkpt lat="46.81677" lon="6.5004">
        <ele>1060.072</ele>
        <time>2023-10-12T12:36:15Z</time>
      </trkpt>
      <trkpt lat="46.81683" lon="6.50043">
        <ele>1061.839</ele>
        <time>2023-10-12T12:36:20Z</time>
      </trkpt>
      <trkpt lat="46.81689" lon="6.50047">
        <ele>1063.223</ele>
        <time>2023-10-12T12:36:25Z</time>
      </trkpt>
      <trkpt lat="46.81696" lon="6.5005">
        <ele>1062.705</ele>
        <time>2023-10-12T12:36:30Z</time>
      </trkpt>
      <trkpt lat="46.81702" lon="6.50055">
        <ele>1063.318</ele>
        <time>2023-10-12T12:36:35Z</time>
      </trkpt>
      <trkpt lat="46.81707" lon="6.50059">
        <ele>1063.846</ele>
        <time>2023-10-12T12:36:40Z</time>
      </trkpt>
      <trkpt lat="46.81713" lon="6.50063">
        <ele>1064.863</ele>
        <time>2023-10-12T12:36:45Z</time>
      </trkpt>
      <trkpt lat="46.81718" lon="6.50065">
        <ele>1066.474</ele>
        <time>2023-10-12T12:36:50Z</time>
      </trkpt>
      <trkpt lat="46.81724" lon="6.5007">
        <ele>1067.302</ele>
        <time>2023-10-12T12:36:55Z</time>
      </trkpt>
      <trkpt lat="46.8173" lon="6.50073">
        <ele>1066.798</ele>
        <time>2023-10-12T12:37:00Z</time>
      </trkpt>
      <trkpt lat="46.81735" lon="6.50078">
        <ele>1066.281</ele>
        <time>2023-10-12T12:37:05Z</time>
      </trkpt>
      <trkpt lat="46.81741" lon="6.50081">
        <ele>1066.318</ele>
        <time>2023-10-12T12:37:10Z</time>
      </trkpt>
      <trkpt lat="46.81746" lon="6.50084">
        <ele>1066.682</ele>
        <time>2023-10-12T12:37:15Z</time>
      </trkpt>
      <trkpt lat="46.81752" lon="6.50088">
        <ele>1067.039</ele>
        <time>2023-10-12T12:37:20Z</time>
      </trkpt>
      <trkpt lat="46.81758" lon="6.5009">
        <ele>1065.728</ele>
        <time>2023-10-12T12:37:25Z</time>
      </trkpt>
      <trkpt lat="46.81763" lon="6.50094">
        <ele>1066.922</ele>
        <time>2023-10-12T12:37:30Z</time>
      </trkpt>
      <trkpt lat="46.81768" lon="6.50096">
        <ele>1067.927</ele>
        <time>2023-10-12T12:37:35Z</time>
      </trkpt>
      <trkpt lat="46.81775" lon="6.50099">
        <ele>1070.43</ele>
        <time>2023-10-12T12:37:40Z</time>
      </trkpt>
      <trkpt lat="46.8178" lon="6.50102">
        <ele>1069.478</ele>
        <time>2023-10-12T12:37:45Z</time>
      </trkpt>
      <trkpt lat="46.81786" lon="6.50105">
        <ele>1070.248</ele>
        <time>2023-10-12T12:37:50Z</time>
      </trkpt>
      <trkpt lat="46.81792" lon="6.50109">
        <ele>1071.483</ele>
        <time>2023-10-12T12:37:55Z</time>
      </trkpt>
      <trkpt lat="46.81798" lon="6.50112">
        <ele>1073.003</ele>
        <time>2023-10-12T12:38:00Z</time>
      </trkpt>
      <trkpt lat="46.81803" lon="6.50115">
        <ele>1073.605</ele>
        <time>2023-10-12T12:38:05Z</time>
      </trkpt>
      <trkpt lat="46.81808" lon="6.50117">
        <ele>1072.431</ele>
        <time>2023-10-12T12:38:10Z</time>
      </trkpt>
      <trkpt lat="46.81815" lon="6.5012">
        <ele>1070.652</ele>
        <time>2023-10-12T12:38:15Z</time>
      </trkpt>
      <trkpt lat="46.81821" lon="6.50123">
        <ele>1071.189</ele>
        <time>2023-10-12T12:38:20Z</time>
      </trkpt>
      <trkpt lat="46.81827" lon="6.50126">
        <ele>1071.309</ele>
        <time>2023-10-12T12:38:25Z</time>
      </trkpt>
      <trkpt lat="46.81833" lon="6.50129">
        <ele>1071.541</ele>
        <time>2023-10-12T12:38:30Z</time>
      </trkpt>
      <trkpt lat="46.81839" lon="6.50129">
        <ele>1071.615</ele>
        <time>2023-10-12T12:38:35Z</time>
      </trkpt>
      <trkpt lat="46.81844" lon="6.5013">
        <ele>1070.694</ele>
        <time>2023-10-12T12:38:40Z</time>
      </trkpt>
      <trkpt lat="46.8185" lon="6.50133">
        <ele>1072.435</ele>
        <time>2023-10-12T12:38:45Z</time>
      </trkpt>
      <trkpt lat="46.81855" lon="6.50135">
        <ele>1073.274</ele>
        <time>2023-10-12T12:38:50Z</time>
      </trkpt>
      <trkpt lat="46.8186" lon="6.50136">
        <ele>1075.698</ele>
        <time>2023-10-12T12:38:55Z</time>
      </trkpt>
      <trkpt lat="46.81865" lon="6.50137">
        <ele>1076.674</ele>
        <time>2023-10-12T12:39:00Z</time>
      </trkpt>
      <trkpt lat="46.81869" lon="6.50141">
        <ele>1076.635</ele>
        <time>2023-10-12T12:39:05Z</time>
      </trkpt>
      <trkpt lat="46.81875" lon="6.50145">
        <ele>1076.815</ele>
        <time>2023-10-12T12:39:10Z</time>
      </trkpt>
      <trkpt lat="46.81881" lon="6.50147">
        <ele>1077.163</ele>
        <time>2023-10-12T12:39:15Z</time>
      </trkpt>
      <trkpt lat="46.81886" lon="6.50149">
        <ele>1076.979</ele>
        <time>2023-10-12T12:39:20Z</time>
      </trkpt>
      <trkpt lat="46.81892" lon="6.50151">
        <ele>1078.65</ele>
        <time>2023-10-12T12:39:25Z</time>
      </trkpt>
      <trkpt lat="46.81897" lon="6.50154">
        <ele>1077.117</ele>
        <time>2023-10-12T12:39:30Z</time>
      </trkpt>
      <trkpt lat="46.81903" lon="6.50156">
        <ele>1077.826</ele>
        <time>2023-10-12T12:39:35Z</time>
      </trkpt>
      <trkpt lat="46.81909" lon="6.50159">
        <ele>1078.026</ele>
        <time>2023-10-12T12:39:40Z</time>
      </trkpt>
      <trkpt lat="46.81914" lon="6.50161">
        <ele>1078.499</ele>
        <time>2023-10-12T12:39:45Z</time>
      </trkpt>
      <trkpt lat="46.8192" lon="6.50163">
        <ele>1078.406</ele>
        <time>2023-10-12T12:39:50Z</time>
      </trkpt>
      <trkpt lat="46.81925" lon="6.50164">
        <ele>1079.462</ele>
        <time>2023-10-12T12:39:55Z</time>
      </trkpt>
      <trkpt lat="46.81932" lon="6.50166">
        <ele>1079.021</ele>
        <time>2023-10-12T12:40:00Z</time>
      </trkpt>
      <trkpt lat="46.81937" lon="6.50168">
        <ele>1079.696</ele>
        <time>2023-10-12T12:40:05Z</time>
      </trkpt>
      <trkpt lat="46.8194" lon="6.50171">
        <ele>1079.841</ele>
        <time>2023-10-12T12:40:10Z</time>
      </trkpt>
      <trkpt lat="46.81942" lon="6.50172">
        <ele>1080.968</ele>
        <time>2023-10-12T12:40:15Z</time>
      </trkpt>
      <trkpt lat="46.81942" lon="6.50172">
        <ele>1080.365</ele>
        <time>2023-10-12T12:40:20Z</time>
      </trkpt>
      <trkpt lat="46.81942" lon="6.50172">
        <ele>1080.548</ele>
        <time>2023-10-12T12:40:25Z</time>
      </trkpt>
      <trkpt lat="46.81942" lon="6.50172">
        <ele>1079.693</ele>
        <time>2023-10-12T12:40:30Z</time>
      </trkpt>
      <trkpt lat="46.81942" lon="6.50172">
        <ele>1079.577</ele>
        <time>2023-10-12T12:40:35Z</time>
      </trkpt>
      <trkpt lat="46.81942" lon="6.50172">
        <ele>1079.759</ele>
        <time>2023-10-12T12:40:40Z</time>
      </trkpt>
      <trkpt lat="46.81942" lon="6.50172">
        <ele>1079.77</ele>
        <time>2023-10-12T12:40:45Z</time>
      </trkpt>
      <trkpt lat="46.81942" lon="6.50172">
        <ele>1080.389</ele>
        <time>2023-10-12T12:40:50Z</time>
      </trkpt>
      <trkpt lat="46.81942" lon="6.50172">
        <ele>1080.207</ele>
        <time>2023-10-12T12:40:55Z</time>
      </trkpt>
      <trkpt lat="46.81942" lon="6.50172">
        <ele>1080.502</ele>
        <time>2023-10-12T12:41:00Z</time>
      </trkpt>
      <trkpt lat="46.81942" lon="6.50172">
        <ele>1080.996</ele>
        <time>2023-10-12T12:41:05Z</time>
      </trkpt>
      <trkpt lat="46.81942" lon="6.50172">
        <ele>1081.008</ele>
        <time>2023-10-12T12:41:10Z</time>
      </trkpt>
      <trkpt lat="46.81942" lon="6.50172">
        <ele>1081.003</ele>
        <time>2023-10-12T12:41:15Z</time>
      </trkpt>
      <trkpt lat="46.81942" lon="6.50172">
        <ele>1081.658</ele>
        <time>2023-10-12T12:41:20Z</time>
      </trkpt>
      <trkpt lat="46.81942" lon="6.50172">
        <ele>1081.658</ele>
        <time>2023-10-12T12:41:25Z</time>
      </trkpt>
      <trkpt lat="46.81942" lon="6.50172">
        <ele>1081.658</ele>
        <time>2023-10-12T12:41:30Z</time>
      </trkpt>
      <trkpt lat="46.81942" lon="6.50172">
        <ele>1081.624</ele>
        <time>2023-10-12T12:41:35Z</time>
      </trkpt>
      <trkpt lat="46.81942" lon="6.50172">
        <ele>1081.628</ele>
        <time>2023-10-12T12:41:40Z</time>
      </trkpt>
      <trkpt lat="46.81942" lon="6.50172">
        <ele>1081.618</ele>
        <time>2023-10-12T12:41:45Z</time>
      </trkpt>
      <trkpt lat="46.81942" lon="6.50172">
        <ele>1080.303</ele>
        <time>2023-10-12T12:41:50Z</time>
      </trkpt>
      <trkpt lat="46.81942" lon="6.50172">
        <ele>1080.775</ele>
        <time>2023-10-12T12:41:55Z</time>
      </trkpt>
      <trkpt lat="46.81942" lon="6.50172">
        <ele>1080.241</ele>
        <time>2023-10-12T12:42:00Z</time>
      </trkpt>
      <trkpt lat="46.81942" lon="6.50172">
        <ele>1080.52</ele>
        <time>2023-10-12T12:42:05Z</time>
      </trkpt>
      <trkpt lat="46.81943" lon="6.50178">
        <ele>1080.002</ele>
        <time>2023-10-12T12:42:10Z</time>
      </trkpt>
      <trkpt lat="46.81948" lon="6.49511">
        <ele>1086</ele>
      </trkpt>
      <trkpt lat="46.81948" lon="6.49511">
        <ele>1086</ele>
      </trkpt>
      <trkpt lat="46.81957" lon="6.50065">
        <ele>1066.6</ele>
      </trkpt>
    </trkseg>
  </trk>
</gpx>